# Wetter Temperatur Luftdruck Luftfeuchtigkeit Sichtweite Windgeschwindigkeit Windrichtung Zeit
1 Clouds 14 1022 44 10000 4.6 280 20:40 17.10.2019
2 Clouds 14 1022 44 10000 4.6 280 20:19 17.10.2019
3 Clouds 14 1022 44 10000 4.6 280 20:19 17.10.2019
4 Clouds 14 1022 44 10000 4.6 280 20:19 17.10.2019
5 Clouds 14 1022 44 10000 4.6 280 20:19 17.10.2019
6 Clouds 13 1022 47 10000 3.6 270 19:59 17.10.2019
7 Clouds 13 1022 47 10000 3.6 270 19:39 17.10.2019
8 Clouds 13 1022 47 10000 3.6 270 19:19 17.10.2019
9 Clouds 13 1022 47 10000 3.6 260 18:58 17.10.2019
10 Clouds 13 1022 47 10000 3.6 260 18:38 17.10.2019
11 Clouds 13 1022 47 10000 3.6 260 18:19 17.10.2019
12 Clouds 12 1023 54 10000 2.6 0 17:42 17.10.2019
13 Clouds 12 1023 54 10000 2.6 0 17:23 17.10.2019
14 Clouds 10 1022 57 10000 2.1 320 16:57 17.10.2019
15 Clouds 10 1022 57 10000 2.1 320 16:38 17.10.2019
16 Clouds 10 1022 57 10000 2.1 320 16:18 17.10.2019
17 Clouds 11 1022 53 10000 1.5 0 15:55 17.10.2019
18 Clouds 11 1022 53 10000 1.5 0 15:37 17.10.2019
19 Clouds 11 1022 53 10000 1.5 0 15:19 17.10.2019
20 Clouds 9 1021 61 0 1 0 14:42 17.10.2019
21 Clouds 9 1021 61 0 1 0 14:24 17.10.2019
22 Clouds 9 1021 61 10000 2.6 290 13:56 17.10.2019
23 Clouds 9 1021 61 10000 2.6 290 13:38 17.10.2019
24 Clouds 9 1021 61 10000 2.6 290 13:19 17.10.2019
25 Clouds 8 1020 61 10000 1 0 12:41 17.10.2019
26 Clouds 8 1020 61 10000 1 0 12:21 17.10.2019
27 Clouds 9 1020 57 10000 1.5 280 11:59 17.10.2019
28 Clouds 9 1020 57 10000 1.5 280 11:59 17.10.2019
29 Clouds 9 1020 57 10000 1.5 280 11:40 17.10.2019
30 Clouds 9 1020 57 10000 1.5 280 11:19 17.10.2019
31 Clouds 9 1020 57 10000 1.5 280 11:19 17.10.2019
32 Clouds 9 1020 57 10000 1.5 0 10:55 17.10.2019
33 Clouds 9 1020 57 10000 1.5 0 10:37 17.10.2019
34 Clouds 9 1020 57 10000 1.5 0 10:18 17.10.2019
35 Clouds 10 1020 92 10000 2.6 260 09:42 17.10.2019
36 Clouds 10 1020 89 10000 2.6 260 09:22 17.10.2019
37 Clouds 10 1019 46 10000 2.6 250 08:59 17.10.2019
38 Clouds 10 1019 46 10000 2.6 250 08:41 17.10.2019
39 Clouds 10 1019 46 10000 2.6 250 08:21 17.10.2019
40 Clouds 10 1020 89 10000 2.6 240 07:56 17.10.2019
41 Clouds 10 1020 89 10000 2.6 240 07:37 17.10.2019
42 Clouds 10 1020 89 10000 2.6 240 07:18 17.10.2019
43 Clouds 10 1019 89 10000 2.6 240 06:40 17.10.2019
44 Clouds 10 1019 87 10000 2.6 240 06:20 17.10.2019
45 Clouds 10 1019 53 10000 2.6 250 05:51 17.10.2019
46 Clouds 10 1019 53 10000 2.6 250 05:31 17.10.2019
47 Clouds 11 1019 50 10000 2.1 250 04:52 17.10.2019
48 Clouds 9 1019 61 10000 2.53 297 03:54 17.10.2019
49 Clear 11 1018 50 10000 1.5 270 02:36 17.10.2019
50 Clear 13 1016 85 10000 3.6 260 00:56 17.10.2019
51 Clear 13 1016 85 10000 3.6 260 00:38 17.10.2019
52 Rain 13 1016 45 10000 3.6 260 00:18 17.10.2019
53 Rain 14 1015 41 10000 3.6 260 23:42 16.10.2019
54 Rain 14 1015 41 10000 3.6 260 23:20 16.10.2019
55 Clouds 15 1015 41 10000 3.6 260 22:55 16.10.2019
56 Clouds 15 1015 41 10000 3.6 260 22:36 16.10.2019
57 Clouds 15 1015 41 10000 3.6 260 22:18 16.10.2019
58 Clouds 16 1015 45 10000 4.1 270 21:55 16.10.2019
59 Clouds 16 1015 44 10000 4.1 270 21:37 16.10.2019
60 Clouds 16 1015 53 10000 4.1 270 21:18 16.10.2019
61 Clouds 15 1015 38 10000 2.6 280 20:56 16.10.2019
62 Clouds 15 1015 38 10000 2.6 280 20:56 16.10.2019
63 Clouds 15 1015 38 10000 2.6 280 20:38 16.10.2019
64 Clouds 15 1015 38 10000 2.6 280 20:20 16.10.2019
65 Clouds 15 1015 38 10000 2.6 280 20:20 16.10.2019
66 Clouds 15 1016 47 10000 1 0 19:42 16.10.2019
67 Clouds 15 1016 47 10000 1 0 19:21 16.10.2019
68 Clouds 12 1016 62 10000 2.6 310 18:59 16.10.2019
69 Clouds 12 1016 62 10000 2.6 310 18:39 16.10.2019
70 Clouds 12 1016 62 10000 2.6 310 18:19 16.10.2019
71 Clouds 11 1017 62 10000 1 0 17:56 16.10.2019
72 Clouds 11 1017 62 10000 1 0 17:37 16.10.2019
73 Clouds 11 1017 62 10000 1 0 17:19 16.10.2019
74 Clear 9 1018 70 10000 0.759 145 16:58 16.10.2019
75 Clear 9 1018 70 10000 0.759 145 16:38 16.10.2019
76 Clear 9 1018 70 10000 0.759 145 16:20 16.10.2019
77 -273 0 0 0 0 0 15:42 16.10.2019
78 Clouds 7 1018 81 10000 1.5 300 15:41 16.10.2019
79 Clouds 7 1018 81 10000 1.5 300 15:41 16.10.2019
80 Clouds 7 1018 81 10000 1.5 300 15:20 16.10.2019
81 Clouds 6 1019 93 10000 2.1 110 14:59 16.10.2019
82 Clouds 6 1019 93 10000 2.1 110 14:41 16.10.2019
83 Clouds 6 1019 93 10000 2.1 110 14:23 16.10.2019
84 Clouds 5 1019 93 10000 1 0 13:59 16.10.2019
85 Clouds 5 1019 93 10000 1 0 13:41 16.10.2019
86 Clouds 5 1019 93 10000 1 0 13:22 16.10.2019
87 Rain 5 1018 93 10000 1.5 110 12:44 16.10.2019
88 Rain 5 1018 93 10000 1.5 110 12:20 16.10.2019
89 Clouds 5 1019 100 10000 1.024 307 11:58 16.10.2019
90 Clouds 5 1019 100 10000 1.024 307 11:40 16.10.2019
91 Clouds 5 1019 100 10000 1.024 307 11:18 16.10.2019
92 Clouds 5 1019 100 10000 1.024 307 10:37 16.10.2019
93 Clouds 5 1019 100 10000 1.024 307 10:19 16.10.2019
94 Clouds 5 1019 100 10000 0.5 0 09:41 16.10.2019
95 Clouds 5 1019 100 10000 0.5 0 09:22 16.10.2019
96 Clouds 5 1019 100 10000 0.5 0 08:57 16.10.2019
97 Clouds 5 1019 100 10000 0.5 0 08:39 16.10.2019
98 Clouds 5 1019 100 10000 0.5 0 08:39 16.10.2019
99 Clouds 5 1019 100 10000 0.5 0 08:20 16.10.2019
100 Clouds 5 1020 100 10000 0.853 278 07:43 16.10.2019
101 Clouds 5 1020 100 10000 0.853 278 07:24 16.10.2019
102 Clouds 0 1019 95 0 0.853 278 06:51 16.10.2019
103 Clouds 0 1019 95 0 0.853 278 06:30 16.10.2019
104 Clouds 3 1020 91 0 0.532 85 04:48 16.10.2019
105 Clouds 7 1021 81 10000 1.593 203 02:51 16.10.2019
106 Clouds 8 1020 75 10000 0.5 0 01:21 16.10.2019
107 Clouds 9 1021 66 10000 1.54 192 00:59 16.10.2019
108 Clouds 9 1021 66 10000 1.54 192 00:40 16.10.2019
109 Clouds 9 1021 66 10000 2.6 110 23:59 15.10.2019
110 Clouds 9 1021 66 10000 2.6 110 23:39 15.10.2019
111 Clouds 9 1021 66 10000 2.6 110 23:21 15.10.2019
112 Clouds 8 1021 70 10000 3.6 100 22:55 15.10.2019
113 Clouds 8 1021 70 10000 3.6 100 22:37 15.10.2019
114 Clouds 8 1021 70 10000 3.6 100 22:18 15.10.2019
115 Clouds 8 1021 70 10000 3.6 110 21:55 15.10.2019
116 Clouds 8 1021 70 10000 3.6 110 21:55 15.10.2019
117 Clouds 8 1021 70 10000 3.6 110 21:36 15.10.2019
118 Clouds 8 1021 70 10000 3.6 110 21:36 15.10.2019
119 Clouds 8 1021 70 10000 3.6 110 21:18 15.10.2019
120 -273 0 0 0 0 0 20:55 15.10.2019
121 Rain 7 1022 75 8000 4.1 110 20:55 15.10.2019
122 Rain 7 1022 75 8000 4.1 110 20:37 15.10.2019
123 Rain 7 1022 75 8000 4.1 110 20:19 15.10.2019
124 Rain 7 1022 75 8000 5.1 90 19:55 15.10.2019
125 Rain 7 1022 75 8000 5.1 90 19:36 15.10.2019
126 Rain 7 1022 75 8000 5.1 90 19:36 15.10.2019
127 Rain 7 1022 75 8000 5.1 90 19:18 15.10.2019
128 Rain 7 1022 70 8000 6.7 90 18:41 15.10.2019
129 Rain 7 1022 70 8000 6.7 90 18:23 15.10.2019
130 Clouds 8 1022 61 10000 7.2 100 17:54 15.10.2019
131 Clouds 8 1022 61 10000 7.2 100 17:36 15.10.2019
132 Clouds 8 1022 61 10000 7.2 100 17:18 15.10.2019
133 Rain 4 1022 83 0 1.739 86 16:43 15.10.2019
134 Clouds 7 1022 83 10000 7.7 90 16:22 15.10.2019
135 Clouds 7 1022 83 10000 7.7 90 15:57 15.10.2019
136 Clouds 7 1022 83 10000 7.7 90 15:38 15.10.2019
137 Clouds 7 1022 67 10000 7.7 90 15:19 15.10.2019
138 Clouds 7 1023 56 10000 5.7 90 14:55 15.10.2019
139 Clouds 7 1023 56 10000 5.7 90 14:55 15.10.2019
140 Clouds 7 1023 56 10000 5.7 90 14:36 15.10.2019
141 Clouds 7 1023 56 10000 5.7 90 14:18 15.10.2019
142 Clouds 7 1023 52 10000 7.7 90 13:43 15.10.2019
143 Clouds 7 1023 52 10000 7.7 90 13:43 15.10.2019
144 Clouds 7 1023 52 10000 7.7 90 13:20 15.10.2019
145 Clouds 7 1023 52 10000 7.7 90 13:20 15.10.2019
146 Clouds 7 1023 52 10000 6.7 70 12:56 15.10.2019
147 Clouds 7 1023 52 10000 6.7 70 12:37 15.10.2019
148 Clouds 7 1023 52 10000 6.7 70 12:37 15.10.2019
149 Clouds 7 1023 52 10000 6.7 70 12:18 15.10.2019
150 Clouds 7 1023 52 10000 6.2 90 11:42 15.10.2019
151 Clouds 7 1023 52 10000 6.2 90 11:42 15.10.2019
152 Clouds 7 1023 52 10000 6.2 90 11:20 15.10.2019
153 Clouds 7 1023 52 10000 7.7 90 10:55 15.10.2019
154 Clear 7 1023 52 10000 7.7 90 10:37 15.10.2019
155 Clear 7 1023 52 10000 7.7 90 10:18 15.10.2019
156 Clear 8 1023 49 10000 7.2 90 09:40 15.10.2019
157 Clear 8 1023 49 10000 7.2 90 09:40 15.10.2019
158 Clear 8 1023 49 10000 7.2 90 09:21 15.10.2019
159 Clear 8 1024 49 10000 5.7 70 08:58 15.10.2019
160 Clear 8 1024 49 10000 5.7 70 08:40 15.10.2019
161 Clear 8 1024 49 10000 5.7 70 08:20 15.10.2019
162 Clear 8 1024 49 10000 5.7 70 08:19 15.10.2019
163 Clear 8 1025 49 10000 5.7 70 07:43 15.10.2019
164 Clear 8 1025 49 10000 5.7 70 07:43 15.10.2019
165 Clear 8 1025 49 10000 5.7 70 07:22 15.10.2019
166 Clear 9 1025 45 10000 6.2 60 06:56 15.10.2019
167 Clear 9 1025 45 10000 6.2 60 06:37 15.10.2019
168 Clear 10 1024 39 10000 5.7 60 05:56 15.10.2019
169 Clear 10 1024 39 10000 5.7 60 05:36 15.10.2019
170 Clear 11 1024 34 10000 4.6 40 04:48 15.10.2019
171 Clear 12 1024 32 10000 4.1 60 03:59 15.10.2019
172 Clear 12 1024 32 10000 4.1 60 03:34 15.10.2019
173 Clear 12 1024 32 10000 4.1 60 03:34 15.10.2019
174 Clear 14 1024 24 10000 4.1 80 01:51 15.10.2019
175 Clear 14 1024 24 10000 4.1 80 01:26 15.10.2019
176 Clear 14 1023 24 10000 6.2 90 00:58 15.10.2019
177 Clear 14 1023 24 10000 6.2 90 00:24 15.10.2019
178 Clear 15 1023 22 10000 10.3 90 23:55 14.10.2019
179 Clear 15 1023 22 10000 10.3 90 23:36 14.10.2019
180 Clear 15 1023 22 10000 10.3 90 23:18 14.10.2019
181 Clear 16 1023 23 10000 9.3 100 22:39 14.10.2019
182 Clear 16 1023 23 10000 9.3 100 22:19 14.10.2019
183 Clear 16 1024 21 10000 9.8 100 21:57 14.10.2019
184 Clear 16 1024 21 10000 9.8 100 21:39 14.10.2019
185 -273 0 0 0 0 0 21:20 14.10.2019
186 Clear 15 1024 21 10000 10.3 100 20:56 14.10.2019
187 Clear 15 1024 21 10000 10.3 100 20:37 14.10.2019
188 Clear 15 1024 21 10000 10.3 100 20:18 14.10.2019
189 Clear 14 1024 22 10000 9.8 80 19:43 14.10.2019
190 Clear 14 1024 22 10000 9.8 80 19:24 14.10.2019
191 Clear 14 1024 22 10000 9.8 80 19:24 14.10.2019
192 -273 0 0 0 0 0 18:59 14.10.2019
193 Clear 13 1025 20 10000 10.8 90 18:39 14.10.2019
194 Clear 13 1025 20 10000 10.8 90 18:20 14.10.2019
195 Clear 13 1025 20 10000 10.8 90 18:20 14.10.2019
196 Clear 13 1025 20 10000 10.8 90 18:20 14.10.2019
197 Clear 13 1025 20 10000 10.8 90 18:20 14.10.2019
198 Clear 11 1027 23 10000 10.8 90 17:57 14.10.2019
199 Clear 11 1027 23 10000 10.8 90 17:39 14.10.2019
200 Clear 11 1027 23 10000 10.8 90 17:21 14.10.2019
201 Clear 10 1027 23 10000 11.3 100 16:44 14.10.2019
202 Clear 10 1027 23 10000 11.3 100 16:21 14.10.2019
203 Clear 9 1028 24 10000 10.8 100 15:54 14.10.2019
204 Clear 9 1028 24 10000 10.8 100 15:36 14.10.2019
205 Clear 9 1028 24 10000 10.8 100 15:18 14.10.2019
206 Clear 7 1029 26 10000 5.7 80 14:43 14.10.2019
207 Clear 7 1029 26 10000 5.7 80 14:23 14.10.2019
208 Clear 7 1029 24 10000 5.7 60 13:44 14.10.2019
209 Clear 7 1029 24 10000 5.7 60 13:22 14.10.2019
210 Clear 7 1029 24 10000 6.7 50 12:56 14.10.2019
211 Clear 7 1029 24 10000 6.7 50 12:56 14.10.2019
212 Clear 7 1029 24 10000 6.7 50 12:37 14.10.2019
213 Clear 7 1029 24 10000 6.7 50 12:18 14.10.2019
214 Clear 7 1029 24 10000 6.2 50 11:45 14.10.2019
215 Clear 7 1029 24 10000 6.2 50 11:26 14.10.2019
216 Clear 8 1029 20 10000 6.2 50 10:57 14.10.2019
217 Clear 8 1029 20 10000 6.2 50 10:38 14.10.2019
218 Clear 8 1029 20 10000 6.2 50 10:19 14.10.2019
219 Clear 8 1029 22 10000 4.6 80 09:42 14.10.2019
220 Clear 8 1029 22 10000 4.6 80 09:21 14.10.2019
221 Clear 8 1029 22 10000 4.6 70 08:51 14.10.2019
222 Clear 8 1029 22 10000 4.6 70 08:23 14.10.2019
223 Clear 9 1030 19 10000 5.1 50 07:59 14.10.2019
224 Clear 9 1030 19 10000 5.1 50 07:39 14.10.2019
225 Clear 9 1030 19 10000 5.1 50 07:18 14.10.2019
226 Clear 9 1029 21 10000 2.6 60 06:29 14.10.2019
227 Clear 9 1029 21 10000 2.6 0 05:57 14.10.2019
228 Clear 9 1029 21 10000 2.6 0 05:29 14.10.2019
229 Clear 11 1029 17 10000 3.1 60 04:34 14.10.2019
230 Clear 12 1028 17 10000 3.1 60 03:26 14.10.2019
231 Clear 11 1027 23 10000 2.1 0 02:34 14.10.2019
232 Clear 13 1026 19 10000 1 0 01:22 14.10.2019
233 Clear 14 1026 15 10000 5.1 90 00:44 14.10.2019
234 Clear 14 1026 15 10000 5.1 90 00:19 14.10.2019
235 Clear 14 1026 17 10000 6.2 90 23:43 13.10.2019
236 Clear 14 1026 17 10000 6.2 90 23:20 13.10.2019
237 Clear 15 1025 19 10000 3.6 80 22:57 13.10.2019
238 Clear 15 1025 19 10000 3.6 80 22:39 13.10.2019
239 Clear 15 1025 19 10000 3.6 80 22:39 13.10.2019
240 Clear 15 1025 19 10000 3.6 80 22:20 13.10.2019
241 Clear 14 1026 20 10000 5.1 90 21:57 13.10.2019
242 Clear 14 1026 20 10000 5.1 90 21:36 13.10.2019
243 Clear 14 1026 20 10000 5.1 90 21:18 13.10.2019
244 Clear 14 1026 22 10000 4.1 50 20:56 13.10.2019
245 Clear 14 1026 22 10000 4.1 50 20:37 13.10.2019
246 Clear 14 1026 22 10000 4.1 50 20:37 13.10.2019
247 Clear 14 1026 22 10000 4.1 50 20:19 13.10.2019
248 Clear 12 1026 27 10000 3.6 120 19:55 13.10.2019
249 Clear 12 1026 27 10000 3.6 120 19:36 13.10.2019
250 Clear 12 1026 27 10000 3.6 120 19:36 13.10.2019
251 Clear 12 1026 27 10000 3.6 120 19:18 13.10.2019
252 Clear 12 1027 32 10000 7.7 100 18:41 13.10.2019
253 Clear 12 1027 32 10000 7.7 100 18:21 13.10.2019
254 Clear 12 1027 32 10000 7.7 100 18:21 13.10.2019
255 Clear 11 1027 37 10000 6.7 90 17:59 13.10.2019
256 -273 0 0 0 0 0 17:41 13.10.2019
257 Clear 11 1027 37 10000 6.7 90 17:23 13.10.2019
258 Clear 9 1027 45 10000 3.6 120 16:44 13.10.2019
259 Clear 9 1027 45 10000 3.6 120 16:20 13.10.2019
260 Clear 9 1027 45 10000 3.6 120 16:20 13.10.2019
261 Clear 5 1027 42 10000 1 0 15:58 13.10.2019
262 Clear 5 1027 42 10000 1 0 15:58 13.10.2019
263 Clear 5 1027 42 10000 1 0 15:39 13.10.2019
264 Clear 5 1027 70 10000 1 0 15:20 13.10.2019
265 Clear 3 1027 70 10000 0.5 0 14:58 13.10.2019
266 Clear 3 1027 70 10000 0.5 0 14:39 13.10.2019
267 Clear 3 1027 70 10000 0.5 0 14:21 13.10.2019
268 Clear 0 1026 70 10000 1 0 13:56 13.10.2019
269 Clear 0 1026 70 10000 1 0 13:37 13.10.2019
270 Clear 0 1026 71 10000 1 0 13:18 13.10.2019
271 Clear 0 1025 71 10000 0.5 0 12:55 13.10.2019
272 Clear 0 1025 71 10000 0.5 0 12:37 13.10.2019
273 Clear 0 1025 82 10000 0.5 0 12:18 13.10.2019
274 Clear 1 1025 86 10000 0.5 0 11:55 13.10.2019
275 Clear 1 1025 86 10000 0.5 0 11:36 13.10.2019
276 Clear 1 1025 86 10000 0.5 0 11:18 13.10.2019
277 Clear 1 1025 86 10000 1 0 10:41 13.10.2019
278 Clear 1 1025 86 10000 1 0 10:22 13.10.2019
279 Clear 2 1025 82 10000 1.5 270 09:40 13.10.2019
280 Clear 2 1025 90 10000 1.5 270 09:21 13.10.2019
281 Clear 2 1025 90 10000 1.5 270 09:21 13.10.2019
282 Clear 2 1025 86 10000 1 0 08:57 13.10.2019
283 Clear 2 1025 86 10000 1 0 08:37 13.10.2019
284 Clear 2 1025 86 10000 1 0 08:18 13.10.2019
285 Clear 3 1025 86 8000 1.5 290 07:45 13.10.2019
286 Clear 3 1025 86 8000 1.5 290 07:45 13.10.2019
287 Clear 3 1024 86 10000 1.85 285.618 06:55 13.10.2019
288 Clear 3 1024 86 10000 1.85 285.618 06:26 13.10.2019
289 Clear 6 1024 60 10000 1 0 05:34 13.10.2019
290 Clear 7 1023 56 10000 3.1 240 04:38 13.10.2019
291 Clear 8 1022 52 10000 3.1 240 03:37 13.10.2019
292 Clear 8 1021 52 10000 3.1 250 02:32 13.10.2019
293 Clear 9 1020 49 10000 4.1 270 01:47 13.10.2019
294 Clear 9 1020 49 10000 4.1 270 01:21 13.10.2019
295 Clear 11 1019 40 10000 4.1 260 00:42 13.10.2019
296 Clear 11 1019 40 10000 4.1 260 00:19 13.10.2019
297 Clear 12 1018 37 10000 5.7 280 23:42 12.10.2019
298 Clear 12 1018 37 10000 5.7 280 23:23 12.10.2019
299 Clear 13 1017 35 10000 5.7 280 22:59 12.10.2019
300 Clear 13 1017 35 10000 5.7 280 22:40 12.10.2019
301 Clear 13 1017 35 10000 5.7 280 22:22 12.10.2019
302 Clear 13 1017 37 10000 6.7 280 21:58 12.10.2019
303 Clear 13 1017 37 10000 6.7 280 21:40 12.10.2019
304 Clear 13 1017 37 10000 6.7 280 21:40 12.10.2019
305 Clear 13 1017 37 10000 6.7 280 21:21 12.10.2019
306 Clear 12 1016 34 10000 5.7 280 20:54 12.10.2019
307 Clear 12 1016 34 10000 5.7 280 20:54 12.10.2019
308 Clear 12 1016 34 10000 5.7 280 20:54 12.10.2019
309 Clear 12 1016 34 10000 5.7 280 20:36 12.10.2019
310 Clear 12 1016 34 10000 5.7 280 20:18 12.10.2019
311 Clear 11 1016 40 10000 4.6 270 19:36 12.10.2019
312 Clear 11 1016 40 10000 4.6 270 19:18 12.10.2019
313 Clear 11 1016 43 10000 5.7 280 18:42 12.10.2019
314 Clear 11 1016 43 10000 5.7 280 18:24 12.10.2019
315 Clear 11 1016 43 10000 4.6 270 17:46 12.10.2019
316 Clear 11 1016 43 10000 4.6 270 17:21 12.10.2019
317 -273 0 0 0 0 0 16:59 12.10.2019
318 Clear 9 1015 57 10000 3.6 280 16:40 12.10.2019
319 Clear 9 1015 57 10000 3.6 280 16:20 12.10.2019
320 Clear 8 1015 61 10000 2.1 0 15:46 12.10.2019
321 Clear 8 1015 61 10000 2.1 0 15:27 12.10.2019
322 Clear 7 1014 65 10000 2.1 290 14:59 12.10.2019
323 Clear 7 1014 65 10000 2.1 290 14:38 12.10.2019
324 Clear 7 1014 65 10000 2.1 290 14:20 12.10.2019
325 Clear 5 1013 80 10000 1 0 13:49 12.10.2019
326 Clear 5 1013 80 10000 1 0 13:31 12.10.2019
327 Clear 5 1012 80 10000 2.6 270 12:55 12.10.2019
328 Clear 5 1012 80 10000 2.6 270 12:36 12.10.2019
329 Clear 5 1012 80 10000 2.6 270 12:18 12.10.2019
330 Clear 6 1011 81 10000 2.1 280 11:40 12.10.2019
331 Clear 6 1011 81 10000 2.1 280 11:22 12.10.2019
332 Clouds 7 1010 81 10000 1.5 0 10:56 12.10.2019
333 Clouds 7 1010 81 10000 1.5 0 10:56 12.10.2019
334 Clouds 7 1010 81 10000 1.5 0 10:37 12.10.2019
335 Clouds 7 1010 81 10000 1.5 0 10:18 12.10.2019
336 Clouds 8 1010 81 10000 1.5 0 09:56 12.10.2019
337 Clouds 8 1010 81 10000 1.5 0 09:55 12.10.2019
338 Clouds 8 1010 81 10000 1.5 0 09:37 12.10.2019
339 Rain 8 1010 81 10000 1.5 0 09:18 12.10.2019
340 Rain 8 1010 87 10000 1 0 08:41 12.10.2019
341 Rain 8 1010 87 10000 1 0 08:41 12.10.2019
342 Rain 8 1010 87 10000 1 0 08:20 12.10.2019
343 Rain 8 1010 87 10000 1 0 08:20 12.10.2019
344 Rain 8 1010 93 10000 3.6 300 07:36 12.10.2019
345 Clear 9 1009 87 10000 3.1 300 06:59 12.10.2019
346 Clear 9 1009 87 10000 2.1 290 05:49 12.10.2019
347 Clear 9 1009 87 10000 2.1 290 05:24 12.10.2019
348 Clear 9 1009 87 10000 2.1 270 04:26 12.10.2019
349 Clear 9 1009 87 10000 2.1 270 04:26 12.10.2019
350 Rain 9 1009 93 10000 2.1 280 03:41 12.10.2019
351 Rain 11 1009 76 10000 3.6 290 01:56 12.10.2019
352 Rain 11 1009 76 10000 3.6 290 01:29 12.10.2019
353 Rain 12 1008 66 10000 2.6 0 00:43 12.10.2019
354 Rain 12 1008 66 10000 2.6 0 00:19 12.10.2019
355 Clear 14 1008 54 10000 4.1 270 23:40 11.10.2019
356 Clear 14 1008 54 10000 4.1 270 23:20 11.10.2019
357 Clear 14 1008 54 10000 4.6 270 22:41 11.10.2019
358 Clear 14 1008 54 10000 4.6 270 22:22 11.10.2019
359 Clouds 15 1008 54 10000 4.1 260 21:59 11.10.2019
360 Clouds 15 1008 54 10000 4.1 260 21:39 11.10.2019
361 Clouds 15 1008 54 10000 4.1 260 21:21 11.10.2019
362 Clouds 14 1009 54 10000 5.1 260 20:45 11.10.2019
363 Clouds 14 1009 54 10000 5.1 260 20:27 11.10.2019
364 Clouds 14 1009 54 10000 5.1 260 20:27 11.10.2019
365 Clouds 14 1009 54 10000 5.1 270 19:59 11.10.2019
366 Clouds 14 1009 54 10000 5.1 270 19:39 11.10.2019
367 Clouds 14 1009 54 10000 5.1 270 19:18 11.10.2019
368 Clouds 14 1009 54 10000 5.1 270 19:18 11.10.2019
369 Clouds 14 1009 54 10000 5.1 270 19:18 11.10.2019
370 Clouds 13 1009 62 10000 5.7 270 18:59 11.10.2019
371 Clouds 13 1009 62 10000 5.7 270 18:59 11.10.2019
372 Clouds 13 1009 62 10000 5.7 270 18:59 11.10.2019
373 Clouds 13 1009 62 10000 5.7 270 18:38 11.10.2019
374 Clouds 13 1009 62 10000 5.7 270 18:19 11.10.2019
375 Clouds 12 1010 71 10000 2.1 0 17:58 11.10.2019
376 Clouds 12 1010 71 10000 2.1 0 17:38 11.10.2019
377 Clouds 12 1010 71 10000 2.1 0 17:19 11.10.2019
378 Clouds 10 1010 87 10000 2.1 280 16:58 11.10.2019
379 Clouds 10 1010 87 10000 2.1 280 16:39 11.10.2019
380 Clouds 10 1010 87 10000 2.1 280 16:19 11.10.2019
381 Fog 7 1010 87 8000 1.5 290 15:41 11.10.2019
382 Fog 7 1010 87 8000 1.5 290 15:20 11.10.2019
383 Fog 7 1008 100 3000 1 70 14:58 11.10.2019
384 Fog 7 1008 100 3000 1 70 14:38 11.10.2019
385 Fog 7 1008 100 3000 1 70 14:19 11.10.2019
386 Fog 6 1008 100 200 2.6 50 13:43 11.10.2019
387 Fog 6 1008 100 200 2.6 50 13:24 11.10.2019
388 Rain 7 1010 100 10000 1.5 312.513 12:56 11.10.2019
389 Rain 7 1010 100 10000 1.5 312.513 12:38 11.10.2019
390 Rain 7 1010 100 10000 1.07 302.8 12:20 11.10.2019
391 Rain 7 1009 100 9000 1.07 302.8 11:55 11.10.2019
392 Rain 7 1009 100 9000 1.07 302.8 11:55 11.10.2019
393 Rain 7 1009 100 9000 1.07 302.8 11:36 11.10.2019
394 Rain 7 1009 100 9000 1.07 302.8 11:18 11.10.2019
395 Rain 8 1010 93 8000 1.07 302.8 10:41 11.10.2019
396 Rain 8 1010 93 8000 1.07 302.8 10:23 11.10.2019
397 Rain 8 1010 93 10000 1.07 302.8 09:57 11.10.2019
398 Rain 8 1010 93 10000 0.93 298.792 09:38 11.10.2019
399 Rain 8 1010 93 10000 1.43 315.085 09:20 11.10.2019
400 Rain 8 1010 93 10000 1.43 315.085 08:55 11.10.2019
401 Rain 8 1010 93 10000 1.43 315.085 08:37 11.10.2019
402 Rain 8 1010 93 10000 1.43 315.085 08:19 11.10.2019
403 Rain 8 1010 93 10000 0.5 0 07:44 11.10.2019
404 Rain 8 1010 93 10000 0.5 0 07:44 11.10.2019
405 Rain 8 1010 93 10000 0.5 0 07:25 11.10.2019
406 Rain 8 1010 87 10000 0.5 0 06:49 11.10.2019
407 Rain 8 1010 87 10000 0.5 0 06:24 11.10.2019
408 Rain 9 1010 81 10000 1 0 05:41 11.10.2019
409 Rain 9 1010 81 10000 1 0 04:59 11.10.2019
410 Rain 9 1010 81 10000 1 0 04:25 11.10.2019
411 Clouds 10 1009 71 10000 2.1 280 02:40 11.10.2019
412 Clouds 11 1008 62 10000 3.6 0 00:50 11.10.2019
413 Clouds 11 1008 62 10000 3.6 0 00:29 11.10.2019
414 Clear 11 1008 66 10000 4.6 240 23:44 10.10.2019
415 Clear 11 1008 66 10000 4.6 240 23:22 10.10.2019
416 Rain 11 1008 66 10000 5.1 270 22:58 10.10.2019
417 Rain 11 1008 66 10000 5.1 270 22:39 10.10.2019
418 Rain 11 1008 66 10000 5.1 270 22:20 10.10.2019
419 Clouds 12 1007 66 10000 3.6 270 21:57 10.10.2019
420 Clouds 12 1007 66 10000 3.6 270 21:39 10.10.2019
421 Clouds 12 1007 66 10000 3.6 270 21:20 10.10.2019
422 Rain 9 1008 81 10000 4.6 300 20:43 10.10.2019
423 Rain 9 1008 81 10000 4.6 300 20:22 10.10.2019
424 Rain 9 1008 81 10000 4.6 300 20:22 10.10.2019
425 Rain 9 1008 81 10000 4.1 290 19:59 10.10.2019
426 Rain 9 1008 81 10000 4.1 290 19:40 10.10.2019
427 Rain 9 1008 81 10000 4.1 290 19:20 10.10.2019
428 Rain 8 1008 87 5000 4.1 280 18:57 10.10.2019
429 Rain 8 1008 87 5000 4.1 280 18:39 10.10.2019
430 Rain 8 1008 87 5000 4.1 280 18:20 10.10.2019
431 Rain 10 1007 76 10000 3.1 290 17:54 10.10.2019
432 Rain 10 1007 76 10000 3.1 290 17:36 10.10.2019
433 Rain 10 1007 76 10000 3.1 290 17:36 10.10.2019
434 Rain 10 1007 76 10000 3.1 290 17:18 10.10.2019
435 Rain 10 1007 76 10000 3.1 290 17:18 10.10.2019
436 Rain 9 1007 81 10000 3.6 270 16:41 10.10.2019
437 Rain 9 1007 81 10000 3.6 270 16:22 10.10.2019
438 Rain 9 1008 81 9000 4.1 280 15:44 10.10.2019
439 Rain 9 1008 81 9000 4.1 280 15:25 10.10.2019
440 Rain 9 1007 81 9000 2.1 280 14:59 10.10.2019
441 Rain 9 1007 81 9000 2.1 280 14:38 10.10.2019
442 Rain 9 1007 81 9000 2.1 280 14:38 10.10.2019
443 Rain 9 1007 81 9000 2.1 280 14:19 10.10.2019
444 Rain 10 1006 76 10000 3.1 290 13:59 10.10.2019
445 Rain 10 1006 76 10000 3.1 290 13:41 10.10.2019
446 Rain 10 1006 76 10000 3.1 290 13:19 10.10.2019
447 Rain 10 1006 76 10000 3.1 290 13:19 10.10.2019
448 Clear 11 1006 66 10000 4.1 260 12:55 10.10.2019
449 Clear 11 1006 66 10000 4.1 260 12:37 10.10.2019
450 Clear 11 1006 66 10000 4.1 260 12:18 10.10.2019
451 Rain 11 1006 66 10000 4.1 250 11:42 10.10.2019
452 Rain 11 1006 66 10000 4.1 250 11:21 10.10.2019
453 Clear 11 1006 66 10000 3.6 270 10:59 10.10.2019
454 Clear 11 1006 66 10000 3.6 270 10:41 10.10.2019
455 Clear 11 1006 66 10000 3.6 270 10:22 10.10.2019
456 Rain 11 1007 66 10000 3.6 270 09:54 10.10.2019
457 Rain 11 1007 66 10000 3.6 270 09:36 10.10.2019
458 Rain 11 1007 66 10000 3.6 270 09:18 10.10.2019
459 Rain 10 1008 76 10000 3.1 250 08:41 10.10.2019
460 Rain 10 1008 76 10000 3.1 250 08:21 10.10.2019
461 Rain 9 1009 87 10000 2.6 240 07:57 10.10.2019
462 Rain 9 1009 87 10000 2.6 240 07:36 10.10.2019
463 Rain 9 1009 87 10000 2.6 240 07:18 10.10.2019
464 Rain 10 1010 76 10000 2.1 260 06:39 10.10.2019
465 Rain 10 1010 76 10000 3.1 260 05:56 10.10.2019
466 Rain 10 1010 76 10000 3.1 260 05:21 10.10.2019
467 Rain 10 1011 81 10000 2.6 250 04:36 10.10.2019
468 Rain 10 1012 76 10000 3.1 240 02:42 10.10.2019
469 Rain 11 1012 71 10000 3.6 240 01:38 10.10.2019
470 Rain 11 1012 71 10000 3.6 240 01:18 10.10.2019
471 Rain 11 1012 71 10000 3.6 240 01:18 10.10.2019
472 Rain 11 1013 76 10000 3.6 250 00:39 10.10.2019
473 Rain 12 1013 66 10000 3.6 250 23:55 09.10.2019
474 Rain 12 1013 66 10000 3.6 250 23:36 09.10.2019
475 Rain 12 1013 66 10000 3.6 250 23:18 09.10.2019
476 Rain 12 1013 66 10000 3.6 250 23:18 09.10.2019
477 Rain 12 1013 66 10000 4.1 260 22:41 09.10.2019
478 Rain 12 1013 66 10000 4.1 260 22:22 09.10.2019
479 Rain 7 1012 89 0 2.72 314.121 21:57 09.10.2019
480 Rain 7 1012 89 0 2.72 314.121 21:38 09.10.2019
481 Rain 13 1015 62 10000 5.7 270 21:19 09.10.2019
482 Rain 13 1015 62 10000 5.7 270 20:55 09.10.2019
483 Rain 13 1015 62 10000 5.7 270 20:37 09.10.2019
484 Rain 13 1015 62 10000 5.7 270 20:18 09.10.2019
485 Rain 13 1015 62 10000 5.7 270 20:18 09.10.2019
486 Rain 13 1015 62 10000 5.7 270 20:18 09.10.2019
487 Rain 13 1015 58 10000 4.1 270 19:43 09.10.2019
488 Rain 13 1015 58 10000 4.1 270 19:23 09.10.2019
489 Rain 12 1016 62 10000 3.6 300 18:39 09.10.2019
490 Rain 12 1016 62 10000 3.6 300 18:21 09.10.2019
491 Clouds 11 1017 66 10000 3.1 300 17:58 09.10.2019
492 Clouds 11 1017 66 10000 3.1 300 17:40 09.10.2019
493 Clouds 11 1017 66 10000 3.1 300 17:22 09.10.2019
494 Clouds 10 1017 66 10000 3.6 290 16:57 09.10.2019
495 Clouds 10 1017 66 10000 3.6 290 16:39 09.10.2019
496 Clouds 10 1017 66 10000 3.6 290 16:39 09.10.2019
497 Clouds 10 1017 66 10000 3.6 290 16:20 09.10.2019
498 Clouds 10 1017 66 10000 3.6 290 16:20 09.10.2019
499 Clouds 9 1018 76 10000 3.6 280 15:56 09.10.2019
500 Clouds 9 1018 76 10000 3.6 280 15:37 09.10.2019
501 Clouds 9 1018 76 10000 3.6 280 15:37 09.10.2019
502 Clouds 9 1018 76 10000 3.6 280 15:18 09.10.2019
503 Clouds 7 1018 81 10000 3.6 280 14:45 09.10.2019
504 Clouds 7 1018 81 10000 3.6 280 14:19 09.10.2019
505 Rain 7 1018 81 10000 2.1 260 13:59 09.10.2019
506 Rain 7 1018 81 10000 2.1 260 13:38 09.10.2019
507 Rain 7 1018 81 10000 2.1 260 13:18 09.10.2019
508 Rain 6 1018 87 10000 1.5 260 12:44 09.10.2019
509 Rain 6 1018 87 10000 1.5 260 12:23 09.10.2019
510 Rain 7 1018 75 10000 3.1 280 11:58 09.10.2019
511 Rain 7 1018 75 10000 3.1 280 11:39 09.10.2019
512 Rain 7 1018 75 10000 3.1 280 11:20 09.10.2019
513 Rain 7 1018 75 10000 3.1 300 10:58 09.10.2019
514 Rain 7 1018 75 10000 3.1 300 10:40 09.10.2019
515 Rain 7 1018 75 10000 3.1 300 10:18 09.10.2019
516 Clear 7 1018 70 10000 3.1 280 09:43 09.10.2019
517 Clear 7 1018 70 10000 3.1 280 09:20 09.10.2019
518 Clear 7 1018 70 10000 3.1 280 08:57 09.10.2019
519 Clear 7 1018 70 10000 3.1 280 08:37 09.10.2019
520 Clear 7 1018 70 10000 3.1 280 08:18 09.10.2019
521 Clouds 7 1019 70 10000 3.1 300 07:43 09.10.2019
522 Clouds 7 1019 70 10000 3.1 300 07:23 09.10.2019
523 Clouds 7 1019 70 10000 3.1 310 06:52 09.10.2019
524 Clouds 7 1019 70 10000 3.1 310 06:20 09.10.2019
525 Clear 7 1020 65 10000 3.6 280 05:46 09.10.2019
526 Clear 7 1020 65 10000 3.6 280 05:46 09.10.2019
527 Clear 8 1020 61 10000 3.6 270 04:27 09.10.2019
528 Clear 8 1020 61 10000 4.1 250 02:54 09.10.2019
529 Clear 9 1020 93 10000 4.6 270 01:44 09.10.2019
530 Clear 9 1020 92 10000 4.6 270 01:21 09.10.2019
531 Clear 9 1020 92 10000 4.6 270 01:21 09.10.2019
532 Clear 9 1020 92 10000 4.6 270 01:21 09.10.2019
533 Clear 9 1020 92 10000 5.7 270 00:57 09.10.2019
534 Clear 9 1020 92 10000 5.7 270 00:39 09.10.2019
535 Clear 9 1020 63 10000 5.7 270 00:20 09.10.2019
536 Clear 11 1019 63 10000 5.7 270 23:40 08.10.2019
537 Clear 11 1019 63 10000 5.7 270 23:19 08.10.2019
538 Clouds 12 1019 63 10000 7.2 280 22:58 08.10.2019
539 Clouds 12 1019 63 10000 7.2 280 22:39 08.10.2019
540 Clouds 12 1019 63 10000 7.2 280 22:20 08.10.2019
541 Clouds 12 1019 50 10000 6.7 280 21:57 08.10.2019
542 Clouds 12 1019 50 10000 6.7 280 21:39 08.10.2019
543 Clouds 12 1019 50 10000 6.7 280 21:39 08.10.2019
544 Clouds 12 1019 50 10000 6.7 280 21:19 08.10.2019
545 Rain 8 1020 59 0 4.34 294.941 20:56 08.10.2019
546 Rain 8 1020 59 0 4.34 294.941 20:56 08.10.2019
547 Rain 8 1019 58 0 4.12 299.03 20:37 08.10.2019
548 Clouds 11 1020 58 10000 6.7 280 20:19 08.10.2019
549 Clouds 11 1020 58 10000 6.7 280 19:57 08.10.2019
550 Clouds 11 1020 58 10000 6.7 280 19:38 08.10.2019
551 Clouds 11 1020 58 10000 6.7 280 19:20 08.10.2019
552 Clouds 11 1020 58 10000 6.7 280 18:46 08.10.2019
553 Clouds 11 1020 58 10000 6.7 280 18:28 08.10.2019
554 Clouds 7 1020 65 0 3.01 291.862 17:59 08.10.2019
555 Clouds 7 1020 65 0 3.01 291.862 17:40 08.10.2019
556 Clouds 7 1020 65 0 3.01 291.862 17:40 08.10.2019
557 Clouds 10 1021 65 10000 5.1 270 17:20 08.10.2019
558 Clouds 10 1021 65 10000 5.1 270 16:57 08.10.2019
559 Clouds 10 1021 65 10000 5.1 270 16:38 08.10.2019
560 Clouds 10 1021 65 10000 5.1 270 16:20 08.10.2019
561 Clouds 7 1020 65 0 3.01 291.862 15:40 08.10.2019
562 Clouds 7 1021 82 10000 2.1 250 15:21 08.10.2019
563 Clouds 7 1021 82 10000 2.1 250 14:57 08.10.2019
564 Clouds 7 1021 82 10000 2.1 250 14:38 08.10.2019
565 Clouds 7 1021 82 10000 2.1 250 14:20 08.10.2019
566 Clouds 7 1021 82 10000 2.1 260 13:55 08.10.2019
567 Clouds 7 1021 82 10000 2.1 260 13:37 08.10.2019
568 Clouds 7 1021 82 10000 2.1 260 13:18 08.10.2019
569 Clouds 7 1021 56 10000 2.1 270 12:41 08.10.2019
570 Clouds 7 1021 56 10000 2.1 270 12:20 08.10.2019
571 Clear 7 1021 56 10000 3.1 240 11:58 08.10.2019
572 Clear 7 1021 56 10000 3.1 240 11:39 08.10.2019
573 Clear 7 1021 56 10000 3.1 240 11:21 08.10.2019
574 Clear 7 1020 56 10000 3.6 260 10:54 08.10.2019
575 Clear 7 1020 56 10000 3.6 260 10:54 08.10.2019
576 Clear 7 1020 56 10000 3.6 260 10:36 08.10.2019
577 Clear 7 1020 56 10000 3.6 260 10:18 08.10.2019
578 Clear 7 1020 56 10000 4.6 250 09:40 08.10.2019
579 Clear 7 1020 56 10000 4.6 250 09:22 08.10.2019
580 Clear 7 1021 92 10000 4.1 260 08:45 08.10.2019
581 Clear 7 1021 91 10000 4.1 260 08:25 08.10.2019
582 Clear 7 1021 91 10000 5.1 270 07:57 08.10.2019
583 Clear 7 1021 91 10000 5.1 270 07:38 08.10.2019
584 Clear 7 1021 91 10000 5.1 270 07:19 08.10.2019
585 Clear 8 1021 91 10000 5.1 260 06:45 08.10.2019
586 Clear 8 1021 86 10000 5.1 260 06:21 08.10.2019
587 Clear 8 1021 61 10000 3.1 260 05:43 08.10.2019
588 Clear 8 1021 61 10000 3.1 260 05:19 08.10.2019
589 Rain 8 1021 61 10000 4.1 260 03:31 08.10.2019
590 Clouds 8 1020 61 10000 3.6 270 02:42 08.10.2019
591 Clear 9 1020 57 10000 3.6 260 01:58 08.10.2019
592 Clear 9 1020 57 10000 3.6 260 01:40 08.10.2019
593 Clear 9 1019 57 10000 5.1 270 00:55 08.10.2019
594 Clear 9 1019 57 10000 5.1 270 00:23 08.10.2019
595 Clear 10 1019 53 10000 5.7 270 23:46 07.10.2019
596 Clear 10 1019 53 10000 5.7 270 23:21 07.10.2019
597 Clear 10 1019 53 10000 5.7 270 23:21 07.10.2019
598 Rain 10 1019 53 10000 6.2 260 22:59 07.10.2019
599 Rain 10 1019 53 10000 6.2 260 22:40 07.10.2019
600 Rain 10 1019 53 10000 6.2 260 22:21 07.10.2019
601 Rain 9 1019 61 10000 5.7 260 21:59 07.10.2019
602 Rain 9 1019 61 10000 5.7 260 21:40 07.10.2019
603 Rain 9 1019 61 10000 5.7 260 21:20 07.10.2019
604 Rain 10 1018 59 10000 6.7 270 20:58 07.10.2019
605 Rain 10 1018 59 10000 6.7 270 20:39 07.10.2019
606 Rain 10 1018 59 10000 6.7 270 20:39 07.10.2019
607 Rain 10 1018 59 10000 6.7 270 20:21 07.10.2019
608 Rain 10 1018 53 10000 6.7 280 19:59 07.10.2019
609 Rain 10 1018 53 10000 6.7 280 19:59 07.10.2019
610 Rain 10 1018 53 10000 6.7 280 19:40 07.10.2019
611 Rain 10 1018 53 10000 6.7 280 19:20 07.10.2019
612 Clouds 8 1017 59 0 6.56 283.966 18:58 07.10.2019
613 Clouds 8 1017 59 0 6.56 283.966 18:38 07.10.2019
614 Rain 9 1018 61 10000 6.7 270 18:18 07.10.2019
615 Rain 9 1018 61 10000 6.7 270 17:43 07.10.2019
616 Rain 9 1018 61 10000 6.7 270 17:23 07.10.2019
617 Rain 9 1018 61 10000 6.7 270 17:23 07.10.2019
618 Rain 9 1018 57 9000 6.7 270 16:58 07.10.2019
619 Rain 9 1018 57 9000 6.7 270 16:58 07.10.2019
620 Rain 9 1018 57 9000 6.7 270 16:39 07.10.2019
621 Rain 9 1018 57 9000 6.7 270 16:20 07.10.2019
622 Clouds 7 1018 63 0 5.97 286.671 15:45 07.10.2019
623 Rain 7 1017 63 10000 5.1 260 15:26 07.10.2019
624 Rain 7 1017 79 10000 5.1 260 14:55 07.10.2019
625 Rain 7 1017 79 10000 5.1 260 14:37 07.10.2019
626 Rain 7 1017 79 10000 5.1 260 14:19 07.10.2019
627 Clear 6 1017 79 10000 4.6 260 13:41 07.10.2019
628 Clear 6 1017 80 10000 4.6 260 13:20 07.10.2019
629 Clear 6 1016 70 10000 4.1 260 12:55 07.10.2019
630 Clear 6 1016 70 10000 4.1 260 12:37 07.10.2019
631 Clear 6 1016 70 10000 4.1 260 12:19 07.10.2019
632 Clear 6 1016 70 10000 3.6 240 11:57 07.10.2019
633 Clear 6 1016 70 10000 3.6 240 11:37 07.10.2019
634 Clear 6 1016 70 10000 3.6 240 11:18 07.10.2019
635 Rain 5 1016 75 10000 4.6 260 10:41 07.10.2019
636 Rain 5 1016 75 10000 4.6 260 10:41 07.10.2019
637 Rain 5 1016 75 10000 4.6 260 10:41 07.10.2019
638 Rain 5 1016 75 10000 4.6 260 10:20 07.10.2019
639 Rain 5 1016 75 10000 4.6 260 10:20 07.10.2019
640 Rain 5 1015 75 10000 3.1 260 09:42 07.10.2019
641 Rain 5 1015 75 10000 3.1 260 09:23 07.10.2019
642 Clear 6 1014 70 10000 4.1 260 08:56 07.10.2019
643 Clear 6 1014 70 10000 4.1 260 08:38 07.10.2019
644 Clear 6 1014 70 10000 4.1 260 08:19 07.10.2019
645 Clear 6 1014 70 10000 3.6 240 07:41 07.10.2019
646 Clear 6 1014 70 10000 3.6 240 07:21 07.10.2019
647 Clear 6 1014 70 10000 3.6 240 07:21 07.10.2019
648 Rain 5 1013 80 10000 4.6 240 06:48 07.10.2019
649 Rain 5 1013 80 10000 4.6 240 06:27 07.10.2019
650 Rain 5 1012 86 10000 4.1 260 05:42 07.10.2019
651 Rain 5 1012 86 10000 4.1 260 05:21 07.10.2019
652 Rain 6 1012 81 10000 4.1 250 04:23 07.10.2019
653 Rain 5 1011 86 10000 3.1 240 03:44 07.10.2019
654 Rain 5 1011 86 10000 3.1 240 03:19 07.10.2019
655 Rain 6 1010 75 10000 5.1 240 02:20 07.10.2019
656 Clear 6 1009 81 10000 4.6 240 01:50 07.10.2019
657 Clear 6 1009 81 10000 4.6 240 01:21 07.10.2019
658 Clear 7 1010 75 10000 4.1 260 00:38 07.10.2019
659 Clear 7 1010 75 10000 4.1 260 00:19 07.10.2019
660 Rain 7 1009 81 10000 4.6 250 23:42 06.10.2019
661 Rain 7 1009 81 10000 4.6 250 23:42 06.10.2019
662 Rain 7 1009 81 10000 4.6 250 23:21 06.10.2019
663 Rain 8 1009 75 10000 5.1 260 22:59 06.10.2019
664 Rain 8 1009 75 10000 5.1 260 22:40 06.10.2019
665 Rain 8 1009 75 10000 5.1 260 22:21 06.10.2019
666 Rain 8 1009 75 10000 5.1 260 22:21 06.10.2019
667 Clear 11 1008 57 10000 6.2 260 21:57 06.10.2019
668 Clear 11 1008 57 10000 6.2 260 21:37 06.10.2019
669 Clear 11 1008 57 10000 6.2 260 21:19 06.10.2019
670 Clear 11 1007 62 10000 5.7 270 20:57 06.10.2019
671 Clear 11 1007 62 10000 5.7 270 20:38 06.10.2019
672 Clear 11 1007 62 10000 5.7 270 20:20 06.10.2019
673 Rain 10 1006 76 8000 4.6 280 19:57 06.10.2019
674 Rain 10 1006 76 8000 4.6 280 19:37 06.10.2019
675 Rain 10 1006 76 8000 4.6 280 19:19 06.10.2019
676 Rain 10 1005 81 10000 4.6 250 18:56 06.10.2019
677 Rain 10 1005 81 10000 4.6 250 18:56 06.10.2019
678 Rain 10 1005 81 10000 4.6 250 18:37 06.10.2019
679 Rain 10 1005 81 10000 4.6 250 18:18 06.10.2019
680 Rain 7 1005 93 10000 0.5 0 17:43 06.10.2019
681 Rain 7 1005 93 10000 0.5 0 17:20 06.10.2019
682 Rain 6 1006 93 9000 1 0 16:56 06.10.2019
683 Rain 6 1006 93 9000 1 0 16:38 06.10.2019
684 Rain 6 1006 93 9000 1 0 16:19 06.10.2019
685 Rain 5 1006 100 5000 0.5 0 15:43 06.10.2019
686 Rain 5 1006 100 5000 0.5 0 15:22 06.10.2019
687 Rain 5 1007 93 7000 1 0 14:56 06.10.2019
688 Rain 5 1007 93 7000 1 0 14:38 06.10.2019
689 Rain 5 1007 93 7000 1 0 14:19 06.10.2019
690 Rain 4 1009 100 5000 4.21 332.168 13:42 06.10.2019
691 Rain 4 1009 100 5000 4.21 332.168 13:42 06.10.2019
692 Rain 4 1009 100 5000 4.35 333.335 13:24 06.10.2019
693 Rain 4 1009 100 10000 0.5 0 12:59 06.10.2019
694 Rain 4 1009 100 10000 0.5 0 12:41 06.10.2019
695 Rain 4 1009 100 10000 0.5 0 12:21 06.10.2019
696 Rain 4 1010 100 10000 1 0 11:59 06.10.2019
697 Rain 4 1010 100 10000 1 0 11:41 06.10.2019
698 Rain 4 1010 100 10000 1 0 11:23 06.10.2019
699 Rain 5 1011 93 10000 3.13 338.96 10:55 06.10.2019
700 Rain 5 1011 93 10000 3.13 338.96 10:37 06.10.2019
701 Rain 5 1011 93 10000 3.13 338.96 10:19 06.10.2019
702 Rain 5 1012 93 10000 3.13 338.96 09:41 06.10.2019
703 Rain 5 1012 93 10000 2.38 338.888 09:19 06.10.2019
704 Rain 5 1014 86 10000 1 0 08:48 06.10.2019
705 Rain 5 1014 86 10000 1 0 08:21 06.10.2019
706 Clear 6 1015 75 10000 2.44 329.214 07:57 06.10.2019
707 Clear 6 1015 75 10000 2.44 329.214 07:38 06.10.2019
708 Clear 6 1016 70 10000 0.5 0 06:49 06.10.2019
709 Clouds 6 1018 84 10000 0.5 0 05:36 06.10.2019
710 Clear 6 1019 84 10000 2.5 296.945 04:29 06.10.2019
711 Clouds 8 1020 52 10000 2.1 290 02:48 06.10.2019
712 Clouds 8 1020 52 10000 2.1 290 02:28 06.10.2019
713 Clear 9 1020 49 10000 3.1 250 01:46 06.10.2019
714 Clear 9 1020 49 10000 3.1 250 01:27 06.10.2019
715 Clear 9 1020 49 10000 3.1 250 01:27 06.10.2019
716 Clear 11 1019 43 10000 4.1 270 00:59 06.10.2019
717 Clear 11 1019 43 10000 4.1 270 00:59 06.10.2019
718 Clear 11 1019 43 10000 4.1 270 00:31 06.10.2019
719 Clear 12 1019 37 10000 2.6 0 23:46 05.10.2019
720 Clear 12 1019 37 10000 2.6 0 23:24 05.10.2019
721 Clear 11 1020 40 10000 4.1 280 22:59 05.10.2019
722 Clear 11 1020 40 10000 4.1 280 22:40 05.10.2019
723 Clear 11 1020 40 10000 4.1 280 22:21 05.10.2019
724 Clear 11 1020 40 10000 4.1 280 22:21 05.10.2019
725 Clear 12 1020 37 10000 5.7 280 21:59 05.10.2019
726 Clear 12 1020 37 10000 5.7 280 21:40 05.10.2019
727 Clear 12 1020 37 10000 5.7 280 21:21 05.10.2019
728 Clear 12 1021 37 10000 2.6 0 20:56 05.10.2019
729 Clear 12 1021 37 10000 2.6 0 20:38 05.10.2019
730 Clear 12 1021 37 10000 2.6 0 20:38 05.10.2019
731 Clear 12 1021 37 10000 2.6 0 20:19 05.10.2019
732 Clear 12 1021 37 10000 1.5 0 19:39 05.10.2019
733 Clear 12 1021 37 10000 1.5 0 19:21 05.10.2019
734 Clear 11 1022 40 10000 2.1 250 18:57 05.10.2019
735 Clear 11 1022 40 10000 2.1 250 18:39 05.10.2019
736 Clear 11 1022 40 10000 2.1 250 18:20 05.10.2019
737 Clear 9 1023 49 10000 1 0 17:46 05.10.2019
738 Clear 9 1023 49 10000 1 0 17:28 05.10.2019
739 Clear 7 1024 56 10000 1.5 350 16:59 05.10.2019
740 Clear 7 1024 56 10000 1.5 350 16:41 05.10.2019
741 Clear 7 1024 56 10000 1.5 350 16:21 05.10.2019
742 Clear 5 1024 75 10000 1 0 15:57 05.10.2019
743 Clear 5 1024 75 10000 1 0 15:39 05.10.2019
744 Clear 5 1024 75 10000 1 0 15:21 05.10.2019
745 Clear 2 1025 93 10000 1 280 14:44 05.10.2019
746 Clear 2 1025 93 10000 1 280 14:26 05.10.2019
747 Clear 1 1025 73 10000 1 280 13:59 05.10.2019
748 Clear 1 1025 73 10000 1 280 13:41 05.10.2019
749 Clear 1 1025 73 10000 1 280 13:41 05.10.2019
750 Clear 1 1025 76 10000 1 280 13:20 05.10.2019
751 Clear 0 1025 76 10000 1.01 260.166 12:44 05.10.2019
752 Clear 0 1025 88 10000 1 279.002 12:20 05.10.2019
753 Clear 1 1025 88 10000 0.5 0 11:45 05.10.2019
754 Clear 1 1025 88 10000 0.5 0 11:23 05.10.2019
755 Clear 1 1025 86 10000 1 260 10:59 05.10.2019
756 Clear 1 1025 86 10000 1 260 10:41 05.10.2019
757 Clear 1 1025 86 10000 1 260 10:23 05.10.2019
758 Clouds 2 1026 88 10000 0.5 0 09:56 05.10.2019
759 Clouds 2 1026 88 10000 0.5 0 09:37 05.10.2019
760 Clouds 2 1026 91 10000 0.5 0 09:19 05.10.2019
761 Clouds 3 1026 91 10000 0.5 250 08:39 05.10.2019
762 Clouds 3 1026 91 10000 0.5 250 08:19 05.10.2019
763 Clear 3 1026 91 10000 1.92 298.901 07:52 05.10.2019
764 Clear 3 1026 91 10000 1.92 298.901 07:31 05.10.2019
765 Clear 5 1026 91 10000 1.92 298.901 06:57 05.10.2019
766 Clear 5 1026 91 10000 1.92 298.901 06:24 05.10.2019
767 Clouds 7 1026 91 10000 2.6 310 05:39 05.10.2019
768 Clouds 8 1027 52 10000 3.1 260 03:34 05.10.2019
769 Clear 8 1026 52 10000 3.1 250 02:45 05.10.2019
770 Clear 8 1026 52 10000 4.1 270 01:29 05.10.2019
771 Clear 9 1025 45 10000 5.1 270 00:49 05.10.2019
772 Clear 9 1025 45 10000 5.1 270 00:28 05.10.2019
773 Clear 10 1025 43 10000 5.7 270 23:58 04.10.2019
774 Clear 10 1025 43 10000 5.7 270 23:40 04.10.2019
775 Clear 10 1025 43 10000 5.7 270 23:22 04.10.2019
776 Clear 11 1024 40 10000 5.7 280 22:57 04.10.2019
777 Clear 11 1024 40 10000 5.7 280 22:57 04.10.2019
778 Clear 11 1024 40 10000 5.7 280 22:38 04.10.2019
779 Clear 11 1024 40 10000 5.7 280 22:19 04.10.2019
780 Clear 11 1024 40 10000 6.2 280 21:40 04.10.2019
781 Clear 11 1024 40 10000 6.2 280 21:22 04.10.2019
782 Clear 11 1024 40 10000 6.2 280 21:22 04.10.2019
783 Clear 11 1025 40 10000 6.2 280 20:59 04.10.2019
784 Clear 11 1025 40 10000 6.2 280 20:59 04.10.2019
785 Clear 11 1025 40 10000 6.2 280 20:41 04.10.2019
786 Clear 11 1025 40 10000 6.2 280 20:22 04.10.2019
787 Clear 11 1025 40 10000 6.2 280 19:56 04.10.2019
788 Clear 11 1025 40 10000 6.2 280 19:37 04.10.2019
789 Clear 11 1025 40 10000 6.2 280 19:19 04.10.2019
790 Clouds 9 1025 45 10000 5.1 280 18:40 04.10.2019
791 Clear 9 1025 45 10000 5.1 280 18:20 04.10.2019
792 Clouds 9 1026 45 10000 4.6 280 17:59 04.10.2019
793 Clouds 9 1026 45 10000 4.6 280 17:39 04.10.2019
794 Clouds 9 1026 45 10000 4.6 280 17:21 04.10.2019
795 Clouds 8 1026 45 10000 5.7 280 16:57 04.10.2019
796 Clouds 8 1026 45 10000 5.7 280 16:39 04.10.2019
797 Clouds 8 1026 45 10000 5.7 280 16:18 04.10.2019
798 Clouds 7 1026 52 10000 3.6 260 15:55 04.10.2019
799 Clouds 7 1026 52 10000 3.6 260 15:37 04.10.2019
800 Clouds 7 1026 52 10000 3.6 260 15:19 04.10.2019
801 Clouds 5 1026 65 10000 1 0 14:54 04.10.2019
802 Clouds 5 1026 65 10000 1 0 14:36 04.10.2019
803 Clouds 5 1026 65 10000 1 0 14:18 04.10.2019
804 Clear 0 1026 75 10000 0.5 0 13:42 04.10.2019
805 Clear 0 1026 76 10000 0.5 0 13:19 04.10.2019
806 Clear 1 1025 80 10000 1 0 12:46 04.10.2019
807 Clear 1 1025 80 10000 1 0 12:46 04.10.2019
808 Clear 1 1025 80 10000 1 0 12:28 04.10.2019
809 Clear 2 1025 74 10000 1.5 290 11:58 04.10.2019
810 Clear 2 1025 74 10000 1.5 290 11:40 04.10.2019
811 Clear 2 1025 74 10000 1.5 290 11:40 04.10.2019
812 Clear 2 1025 74 10000 1.5 290 11:20 04.10.2019
813 Clear 2 1025 74 10000 0.5 0 10:40 04.10.2019
814 Clear 2 1025 74 10000 0.5 0 10:20 04.10.2019
815 Clear 3 1025 69 10000 1 0 09:45 04.10.2019
816 Clear 3 1025 69 10000 1 0 09:27 04.10.2019
817 Clear 2 1025 74 10000 1.5 290 08:56 04.10.2019
818 Clear 2 1025 74 10000 1.5 290 08:37 04.10.2019
819 Clear 2 1025 74 10000 1.5 290 08:19 04.10.2019
820 Clear 2 1025 80 10000 1 0 07:43 04.10.2019
821 Clear 2 1025 80 10000 1 0 07:22 04.10.2019
822 Clear 3 1025 74 8000 1 0 06:42 04.10.2019
823 Clear 3 1025 74 8000 1 0 06:24 04.10.2019
824 Clear 3 1025 74 8000 1 0 06:24 04.10.2019
825 Clear 5 1025 65 10000 1 0 05:24 04.10.2019
826 Clear 6 1024 86 10000 0.5 0 04:56 04.10.2019
827 Clear 9 1024 49 10000 1.5 260 03:47 04.10.2019
828 Clear 9 1023 49 10000 1 0 02:53 04.10.2019
829 Clear 12 1022 40 10000 1.5 280 01:55 04.10.2019
830 Clear 12 1022 40 10000 1.5 280 01:55 04.10.2019
831 Clear 12 1022 40 10000 1.5 280 01:29 04.10.2019
832 Clear 15 1022 28 10000 2.6 270 00:56 04.10.2019
833 Clear 16 1022 23 10000 2.1 0 23:55 03.10.2019
834 Clear 16 1022 23 10000 2.1 0 23:36 03.10.2019
835 Clear 16 1022 23 10000 2.1 0 23:18 03.10.2019
836 Clear 16 1022 23 10000 2.1 260 22:54 03.10.2019
837 Clear 16 1022 23 10000 2.1 260 22:36 03.10.2019
838 Clear 16 1022 23 10000 2.1 260 22:18 03.10.2019
839 Clear 15 1022 26 10000 1 0 21:41 03.10.2019
840 Clear 15 1022 26 10000 1 0 21:21 03.10.2019
841 Clear 14 1023 28 10000 2.1 300 20:59 03.10.2019
842 Clear 14 1023 28 10000 2.1 300 20:41 03.10.2019
843 Clear 14 1023 28 10000 2.1 300 20:23 03.10.2019
844 Clear 13 1024 32 10000 1 0 19:59 03.10.2019
845 Clear 13 1024 32 10000 1 0 19:40 03.10.2019
846 Clear 13 1024 32 10000 1 0 19:20 03.10.2019
847 Clear 10 1025 46 10000 1 0 18:57 03.10.2019
848 Clear 10 1025 46 10000 1 0 18:57 03.10.2019
849 Clear 10 1025 46 10000 1 0 18:38 03.10.2019
850 Clear 10 1025 46 10000 1 0 18:19 03.10.2019
851 Clear 7 1026 56 10000 1 0 17:42 03.10.2019
852 Clear 7 1026 56 10000 1 0 17:23 03.10.2019
853 Clear 8 1023 42 0 0.42 108.999 16:58 03.10.2019
854 Clear 8 1023 42 0 0.42 108.999 16:39 03.10.2019
855 Clear 3 1027 74 10000 0.5 0 16:21 03.10.2019
856 Clear 3 1027 74 10000 0.5 0 15:45 03.10.2019
857 Clear 3 1027 74 10000 0.5 0 15:24 03.10.2019
858 Mist -1 1027 100 4000 0.57 268.591 14:58 03.10.2019
859 Mist -1 1027 100 4000 0.57 268.591 14:37 03.10.2019
860 Mist -1 1027 100 4000 0.57 268.591 14:18 03.10.2019
861 Fog -4 1027 100 10000 0.57 268.591 13:44 03.10.2019
862 Fog -4 1027 100 10000 0.59 279.891 13:25 03.10.2019
863 Fog -4 1027 100 10000 0.59 279.891 13:25 03.10.2019
864 Fog -4 1027 100 5000 0.59 279.891 12:59 03.10.2019
865 Fog -4 1027 100 5000 0.59 279.891 12:39 03.10.2019
866 Fog -4 1027 100 5000 0.59 279.891 12:39 03.10.2019
867 Fog -4 1027 100 5000 1.29 300.324 12:20 03.10.2019
868 Clear -3 1027 92 10000 1.29 300.324 11:58 03.10.2019
869 Clear -3 1027 92 10000 1.29 300.324 11:39 03.10.2019
870 Clear -3 1027 92 10000 1.29 300.324 11:21 03.10.2019
871 Clear -2 1027 92 10000 1.29 300.324 10:57 03.10.2019
872 Clear -2 1027 92 10000 1.29 300.324 10:38 03.10.2019
873 Clear -2 1027 92 10000 1.29 300.324 10:18 03.10.2019
874 Clear -2 1027 100 10000 1.29 300.324 09:56 03.10.2019
875 Clear -2 1027 100 10000 1.29 300.324 09:37 03.10.2019
876 Clear -2 1027 100 10000 1.47 300.957 09:19 03.10.2019
877 Clear -1 1027 92 10000 1.36 296.414 08:42 03.10.2019
878 Clear -1 1027 92 10000 1.36 296.414 08:23 03.10.2019
879 Clear -1 1028 92 10000 1.36 296.414 07:42 03.10.2019
880 Clear -1 1028 92 10000 1.36 296.414 07:42 03.10.2019
881 Clear -1 1028 92 10000 1.36 296.414 07:20 03.10.2019
882 Clear 0 1028 79 10000 1 0 06:52 03.10.2019
883 Clear 0 1028 79 10000 1 0 06:26 03.10.2019
884 Clear 1 1028 80 10000 1.47 296.53 05:48 03.10.2019
885 Clear 1 1028 80 10000 1.47 296.53 05:25 03.10.2019
886 Clear 2 1028 74 10000 1.47 296.53 04:40 03.10.2019
887 Clear 3 1027 74 10000 0.5 0 03:30 03.10.2019
888 Clear 4 1026 69 10000 1 0 02:45 03.10.2019
889 Clear 4 1026 69 10000 1 0 02:19 03.10.2019
890 Clear 7 1026 52 10000 1 0 01:37 03.10.2019
891 Clear 10 1025 34 10000 1.5 280 00:51 03.10.2019
892 Clear 10 1025 34 10000 1.5 280 00:26 03.10.2019
893 Clear 11 1025 29 10000 1.5 290 23:44 02.10.2019
894 Clear 11 1025 29 10000 1.5 290 23:44 02.10.2019
895 Clear 11 1025 29 10000 1.5 290 23:22 02.10.2019
896 Clear 11 1025 29 10000 2.6 290 22:47 02.10.2019
897 Clear 11 1025 29 10000 2.6 290 22:23 02.10.2019
898 Clear 11 1025 29 10000 1.5 0 21:58 02.10.2019
899 Clear 11 1025 29 10000 1.5 0 21:39 02.10.2019
900 Clear 11 1025 29 10000 1.5 0 21:20 02.10.2019
901 Clear 9 1025 34 10000 1.5 70 20:57 02.10.2019
902 Clear 9 1025 34 10000 1.5 70 20:39 02.10.2019
903 Clear 9 1025 34 10000 1.5 70 20:20 02.10.2019
904 Clear 8 1026 36 10000 1 0 19:57 02.10.2019
905 Clear 8 1026 36 10000 1 0 19:39 02.10.2019
906 Clear 8 1026 36 10000 1 0 19:20 02.10.2019
907 Clear 8 1026 36 10000 2.1 300 18:56 02.10.2019
908 Clear 8 1026 36 10000 2.1 300 18:38 02.10.2019
909 Clear 8 1026 36 10000 2.1 300 18:19 02.10.2019
910 Clear 7 1026 48 10000 1.5 50 17:43 02.10.2019
911 Clear 7 1026 48 10000 1.5 50 17:21 02.10.2019
912 Clear 7 1026 48 10000 1.5 50 17:21 02.10.2019
913 Clouds 6 1027 60 10000 1 0 16:59 02.10.2019
914 Clouds 6 1027 60 10000 1 0 16:41 02.10.2019
915 Clouds 6 1027 60 10000 1 0 16:21 02.10.2019
916 Clouds 3 1027 50 10000 1.5 280 15:57 02.10.2019
917 Clouds 3 1027 50 10000 1.5 280 15:38 02.10.2019
918 Clouds 3 1027 71 10000 1.5 280 15:18 02.10.2019
919 Clouds 1 1027 71 10000 1 0 14:55 02.10.2019
920 Clouds 1 1027 71 10000 1 0 14:36 02.10.2019
921 Clouds 1 1027 71 10000 1 0 14:36 02.10.2019
922 Clouds 1 1027 71 10000 1 0 14:18 02.10.2019
923 Clear -1 1026 100 10000 0.5 0 13:41 02.10.2019
924 Clouds -1 1026 100 10000 0.5 0 13:22 02.10.2019
925 -273 0 0 0 0 0 12:54 02.10.2019
926 Clear 0 1026 71 10000 1 0 12:36 02.10.2019
927 Clear 0 1026 83 10000 1 0 12:18 02.10.2019
928 Clear 0 1026 83 10000 1 0 12:18 02.10.2019
929 Clear -1 1025 100 10000 1 0 11:41 02.10.2019
930 Clear -1 1025 100 10000 1 0 11:21 02.10.2019
931 Clear -1 1025 92 7000 1 0 10:40 02.10.2019
932 Clear -1 1025 92 7000 1 0 10:19 02.10.2019
933 Clear -2 1025 100 9000 0.5 240 09:42 02.10.2019
934 Clear -2 1025 100 9000 0.5 240 09:20 02.10.2019
935 Clear -1 1025 92 10000 1 0 08:57 02.10.2019
936 Clear -1 1025 92 10000 1 0 08:38 02.10.2019
937 Clear -1 1025 92 10000 1 0 08:20 02.10.2019
938 Clear -1 1025 92 10000 1.63 286.635 07:43 02.10.2019
939 -273 0 0 0 0 0 07:24 02.10.2019
940 Clear 1 1024 80 10000 1 0 06:58 02.10.2019
941 Clear 1 1024 80 10000 1 0 06:27 02.10.2019
942 Clear 1 1024 80 10000 0.5 0 05:49 02.10.2019
943 Clear 1 1024 80 10000 0.5 0 05:20 02.10.2019
944 Clear 4 1023 60 10000 2.6 240 03:53 02.10.2019
945 Clear 4 1023 60 10000 2.6 240 03:24 02.10.2019
946 Clear 5 1022 56 10000 2.6 250 02:26 02.10.2019
947 Clear 6 1021 52 10000 3.6 270 01:56 02.10.2019
948 Clear 7 1020 45 10000 3.6 270 00:52 02.10.2019
949 Clear 7 1020 45 10000 3.6 270 00:29 02.10.2019
950 Clear 8 1019 45 10000 4.6 270 23:54 01.10.2019
951 Clear 8 1019 45 10000 4.6 270 23:36 01.10.2019
952 Clear 8 1019 45 10000 4.6 270 23:18 01.10.2019
953 Clouds 8 1019 45 10000 5.1 280 22:57 01.10.2019
954 Clouds 8 1019 45 10000 5.1 280 22:36 01.10.2019
955 Clouds 8 1019 45 10000 5.1 280 22:18 01.10.2019
956 Clouds 5 1019 50 0 3.36 277.783 21:42 01.10.2019
957 Clouds 7 1018 48 10000 4.6 270 21:22 01.10.2019
958 Clouds 7 1018 48 10000 4.6 270 20:57 01.10.2019
959 Clouds 7 1018 48 10000 4.6 270 20:38 01.10.2019
960 Clouds 7 1018 48 10000 4.6 270 20:20 01.10.2019
961 Clouds 7 1018 45 10000 3.6 290 19:57 01.10.2019
962 Clouds 7 1018 45 10000 3.6 290 19:38 01.10.2019
963 Clouds 7 1018 45 10000 3.6 290 19:19 01.10.2019
964 Clouds 7 1018 45 10000 5.1 280 18:41 01.10.2019
965 Clouds 7 1018 45 10000 5.1 280 18:23 01.10.2019
966 Clouds 6 1018 48 10000 4.6 280 17:59 01.10.2019
967 Clouds 6 1018 48 10000 4.6 280 17:40 01.10.2019
968 Clouds 6 1018 48 10000 4.6 280 17:20 01.10.2019
969 Clouds 6 1018 48 10000 4.6 280 17:20 01.10.2019
970 Clouds 5 1017 56 10000 2.6 250 16:58 01.10.2019
971 Clouds 5 1017 56 10000 2.6 250 16:40 01.10.2019
972 Clouds 5 1017 56 10000 2.6 250 16:21 01.10.2019
973 Clouds 3 1017 69 10000 3.1 300 15:46 01.10.2019
974 Clouds 3 1017 69 10000 3.1 300 15:23 01.10.2019
975 Clouds 2 1017 80 10000 1.5 230 14:55 01.10.2019
976 Clouds 2 1017 80 10000 1.5 230 14:37 01.10.2019
977 Clouds 2 1017 80 10000 1.5 230 14:18 01.10.2019
978 Clear -1 1016 92 5000 1.5 270 13:40 01.10.2019
979 Clear -1 1016 92 5000 1.5 270 13:21 01.10.2019
980 Clear 0 1015 69 10000 1 0 12:59 01.10.2019
981 Clear 0 1015 69 10000 1 0 12:59 01.10.2019
982 Clear 0 1015 69 10000 1 0 12:40 01.10.2019
983 Clear 0 1015 81 10000 1 0 12:19 01.10.2019
984 Clear 0 1014 81 10000 1.5 290 11:58 01.10.2019
985 Clear 0 1014 81 10000 1.5 290 11:38 01.10.2019
986 Clear 0 1014 81 10000 1.5 290 11:19 01.10.2019
987 Clouds 1 1014 86 10000 1.5 270 10:49 01.10.2019
988 Clouds 1 1014 86 10000 1.5 270 10:29 01.10.2019
989 Clear 1 1014 86 10000 2.6 320 09:49 01.10.2019
990 Clear 1 1014 86 10000 2.6 320 09:31 01.10.2019
991 Clear 1 1014 86 10000 1 0 08:57 01.10.2019
992 Clear 1 1014 86 10000 1 0 08:39 01.10.2019
993 Clear 1 1014 86 10000 1 0 08:21 01.10.2019
994 Clear 1 1014 85 10000 1 0 07:43 01.10.2019
995 Clear 1 1014 85 10000 1 0 07:24 01.10.2019
996 Mist 1 1013 85 10000 2.64 299.594 06:47 01.10.2019
997 Mist 1 1013 86 10000 2.76 306.239 06:18 01.10.2019
998 Mist 1 1013 86 10000 2.76 306.239 06:18 01.10.2019
999 Clear 1 1013 86 10000 2.76 306.239 05:45 01.10.2019
1000 Clear 1 1013 86 10000 2.76 306.239 05:18 01.10.2019
1001 Clear 2 1012 86 10000 1 0 04:26 01.10.2019
1002 Rain 2 1011 86 10000 1.5 270 02:26 01.10.2019
1003 Rain 3 1011 86 10000 2.1 250 01:58 01.10.2019
1004 Clear 4 1009 64 10000 3.6 240 00:53 01.10.2019
1005 Clear 4 1009 64 10000 3.6 240 00:27 01.10.2019
1006 Clear 5 1009 56 10000 3.6 250 23:56 30.09.2019
1007 Clear 5 1009 56 10000 3.6 250 23:56 30.09.2019
1008 Clear 5 1009 56 10000 3.6 250 23:37 30.09.2019
1009 Clear 5 1009 56 10000 3.6 250 23:19 30.09.2019
1010 Clear 5 1009 56 10000 3.6 250 23:19 30.09.2019
1011 Rain 5 1009 55 10000 4.6 270 22:42 30.09.2019
1012 Rain 5 1009 55 10000 4.6 270 22:24 30.09.2019
1013 Clouds 4 1009 55 0 3.9 289.253 21:56 30.09.2019
1014 Clouds 4 1009 55 0 3.9 289.253 21:38 30.09.2019
1015 Clouds 4 1009 55 0 3.9 289.253 21:38 30.09.2019
1016 Clouds 5 1008 51 0 4.18 275.667 21:19 30.09.2019
1017 Clouds 5 1008 51 0 4.18 275.667 20:56 30.09.2019
1018 Clouds 5 1008 51 0 4.18 275.667 20:55 30.09.2019
1019 Clouds 5 1008 51 0 4.18 275.667 20:55 30.09.2019
1020 Clouds 5 1008 50 0 4.45 276.822 20:37 30.09.2019
1021 Clouds 5 1008 50 0 4.45 276.822 20:19 30.09.2019
1022 Clouds 5 1008 50 0 4.45 276.822 19:56 30.09.2019
1023 Clouds 5 1008 50 0 4.45 276.822 19:56 30.09.2019
1024 Clouds 5 1008 50 0 4.45 276.822 19:38 30.09.2019
1025 Rain 6 1007 60 10000 4.6 270 19:18 30.09.2019
1026 Rain 6 1007 60 10000 4.6 270 18:42 30.09.2019
1027 Rain 6 1007 60 10000 4.6 270 18:22 30.09.2019
1028 Rain 4 1007 55 10000 4.6 260 17:59 30.09.2019
1029 Rain 4 1007 55 10000 4.6 260 17:40 30.09.2019
1030 Rain 4 1007 55 10000 4.6 260 17:21 30.09.2019
1031 Clouds 4 1007 55 0 4.28 279.755 16:56 30.09.2019
1032 Clouds 4 1007 55 0 4.28 279.755 16:37 30.09.2019
1033 Rain 3 1006 86 10000 2.6 270 16:18 30.09.2019
1034 Rain 3 1006 86 10000 2.6 270 15:55 30.09.2019
1035 Rain 3 1006 86 10000 2.6 270 15:36 30.09.2019
1036 Rain 3 1006 86 10000 2.6 270 15:18 30.09.2019
1037 Clouds 3 1006 86 10000 2.6 310 14:55 30.09.2019
1038 Clouds 3 1006 86 10000 2.6 310 14:36 30.09.2019
1039 Clouds 3 1006 86 10000 2.6 310 14:18 30.09.2019
1040 Rain 2 1005 80 10000 2.6 270 13:44 30.09.2019
1041 Rain 2 1005 76 10000 2.6 270 13:22 30.09.2019
1042 Rain 2 1004 93 10000 1.5 0 12:57 30.09.2019
1043 Rain 2 1004 93 10000 1.5 0 12:39 30.09.2019
1044 Rain 2 1004 93 10000 1.5 0 12:19 30.09.2019
1045 Rain 3 1004 86 10000 2.6 270 11:43 30.09.2019
1046 Rain 3 1004 86 10000 2.6 270 11:22 30.09.2019
1047 Rain 2 1004 93 10000 1.5 240 10:59 30.09.2019
1048 Rain 2 1004 93 10000 1.5 240 10:38 30.09.2019
1049 Rain 2 1004 93 10000 1.5 240 10:18 30.09.2019
1050 Rain 2 1003 93 10000 1 0 09:57 30.09.2019
1051 Rain 2 1003 93 10000 1 0 09:38 30.09.2019
1052 Rain 2 1003 93 10000 1 0 09:18 30.09.2019
1053 Rain 2 1004 93 10000 2.1 290 08:46 30.09.2019
1054 Rain 2 1004 93 10000 2.1 290 08:27 30.09.2019
1055 Rain 2 1003 93 10000 2.6 270 07:42 30.09.2019
1056 Rain 2 1003 93 10000 2.6 270 07:20 30.09.2019
1057 Rain 3 1004 86 10000 2.1 310 06:50 30.09.2019
1058 Rain 3 1004 86 10000 2.1 310 06:31 30.09.2019
1059 Clear 2 1004 93 10000 1 0 05:45 30.09.2019
1060 Rain 4 1004 86 10000 3.67 336.767 02:55 30.09.2019
1061 Rain 4 1004 86 10000 3.67 336.767 02:37 30.09.2019
1062 Rain 4 1004 86 10000 2.86 318.166 01:31 30.09.2019
1063 Rain 4 1004 86 9000 1.5 260 00:38 30.09.2019
1064 Rain 4 1004 86 9000 1.5 260 00:20 30.09.2019
1065 Rain 4 1004 86 10000 1 0 23:43 29.09.2019
1066 Rain 4 1004 86 10000 1 0 23:21 29.09.2019
1067 Rain 4 1004 86 10000 1 0 23:21 29.09.2019
1068 Rain 5 1005 80 10000 3.1 310 22:55 29.09.2019
1069 Rain 5 1005 80 10000 3.1 310 22:36 29.09.2019
1070 Rain 5 1005 80 10000 3.1 310 22:36 29.09.2019
1071 Rain 5 1005 80 10000 3.1 310 22:18 29.09.2019
1072 Rain 6 1005 75 10000 3.1 240 21:56 29.09.2019
1073 Rain 6 1005 75 10000 3.1 240 21:36 29.09.2019
1074 Rain 6 1005 75 10000 3.1 240 21:18 29.09.2019
1075 Rain 6 1006 75 10000 3.6 270 20:43 29.09.2019
1076 Rain 6 1006 75 10000 3.6 270 20:19 29.09.2019
1077 Rain 6 1007 75 10000 3.6 260 19:58 29.09.2019
1078 Rain 6 1007 75 10000 3.6 260 19:37 29.09.2019
1079 Rain 6 1007 75 10000 3.6 260 19:19 29.09.2019
1080 Rain 6 1007 75 10000 3.6 260 19:19 29.09.2019
1081 Rain 5 1007 80 8000 3.1 260 18:55 29.09.2019
1082 Rain 5 1007 80 8000 3.1 260 18:37 29.09.2019
1083 Rain 5 1007 80 8000 3.1 260 18:18 29.09.2019
1084 Clouds 6 1007 75 10000 3.1 250 17:55 29.09.2019
1085 Clouds 6 1007 75 10000 3.1 250 17:55 29.09.2019
1086 Clouds 6 1007 75 10000 3.1 250 17:37 29.09.2019
1087 Clouds 6 1007 75 10000 3.1 250 17:19 29.09.2019
1088 Rain 5 1007 80 10000 4.1 250 16:55 29.09.2019
1089 Rain 5 1007 80 10000 4.1 250 16:37 29.09.2019
1090 Rain 5 1007 80 10000 4.1 250 16:18 29.09.2019
1091 Clear 5 1007 80 10000 3.1 250 15:41 29.09.2019
1092 Clear 5 1007 80 10000 3.1 250 15:19 29.09.2019
1093 Rain 4 1007 86 10000 2.6 240 14:59 29.09.2019
1094 Rain 4 1007 86 10000 2.6 240 14:39 29.09.2019
1095 Rain 4 1007 86 10000 2.6 240 14:20 29.09.2019
1096 Rain 4 1007 86 10000 2.1 240 13:57 29.09.2019
1097 Rain 4 1007 86 10000 2.1 240 13:38 29.09.2019
1098 Rain 4 1007 86 10000 2.1 240 13:18 29.09.2019
1099 Rain 4 1007 86 10000 2.1 240 13:18 29.09.2019
1100 Rain 4 1007 86 9000 3.6 240 12:57 29.09.2019
1101 Rain 4 1007 86 9000 3.6 240 12:38 29.09.2019
1102 Rain 4 1007 86 9000 3.6 240 12:20 29.09.2019
1103 Rain 5 1006 80 10000 3.6 260 11:41 29.09.2019
1104 Rain 5 1006 80 10000 3.6 260 11:20 29.09.2019
1105 Rain 5 1007 80 8000 3.6 240 10:59 29.09.2019
1106 Rain 5 1007 80 8000 3.6 240 10:40 29.09.2019
1107 Rain 5 1007 80 8000 3.6 240 10:21 29.09.2019
1108 Rain 5 1007 80 8000 3.6 240 10:21 29.09.2019
1109 Rain 6 1007 70 10000 5.7 250 09:59 29.09.2019
1110 Rain 6 1007 70 10000 5.7 250 09:41 29.09.2019
1111 Rain 6 1007 70 10000 5.7 250 09:19 29.09.2019
1112 Rain 6 1007 81 10000 5.1 240 08:43 29.09.2019
1113 Rain 6 1007 81 10000 5.1 240 08:22 29.09.2019
1114 Rain 6 1007 81 10000 5.1 240 08:22 29.09.2019
1115 Rain 6 1008 81 10000 2.1 250 07:45 29.09.2019
1116 Rain 6 1008 81 10000 2.1 250 07:27 29.09.2019
1117 Rain 7 1009 75 7000 3.6 260 06:50 29.09.2019
1118 Rain 7 1009 75 7000 3.6 260 06:22 29.09.2019
1119 Rain 7 1009 87 10000 1.5 250 04:52 29.09.2019
1120 Rain 7 1009 87 10000 1.5 250 04:24 29.09.2019
1121 Rain 10 1008 61 10000 4.1 250 02:59 29.09.2019
1122 Rain 10 1008 61 10000 4.1 250 02:19 29.09.2019
1123 Clear 10 1008 66 10000 3.1 260 01:42 29.09.2019
1124 Rain 10 1009 71 10000 4.1 250 00:59 29.09.2019
1125 Rain 10 1009 71 10000 4.1 250 00:59 29.09.2019
1126 Rain 10 1009 71 10000 4.1 250 00:40 29.09.2019
1127 Rain 10 1009 71 10000 4.1 250 00:19 29.09.2019
1128 Rain 10 1009 71 10000 4.1 250 00:19 29.09.2019
1129 Rain 12 1009 58 10000 5.1 240 23:37 28.09.2019
1130 Rain 12 1009 58 10000 5.1 240 23:37 28.09.2019
1131 Rain 12 1009 58 10000 5.1 240 23:19 28.09.2019
1132 Clear 13 1009 50 10000 6.7 250 22:40 28.09.2019
1133 Clear 13 1009 50 10000 6.7 250 22:21 28.09.2019
1134 Clear 14 1009 50 10000 5.7 250 21:58 28.09.2019
1135 Clear 14 1009 50 10000 5.7 250 21:58 28.09.2019
1136 Clear 14 1009 50 10000 5.7 250 21:40 28.09.2019
1137 Clear 14 1009 50 10000 5.7 250 21:21 28.09.2019
1138 Clear 16 1009 41 10000 6.2 260 20:57 28.09.2019
1139 Clear 16 1009 41 10000 6.2 260 20:39 28.09.2019
1140 Clear 16 1009 41 10000 6.2 260 20:19 28.09.2019
1141 Clear 16 1009 41 10000 6.2 260 20:19 28.09.2019
1142 Clear 15 1009 41 10000 5.1 250 19:56 28.09.2019
1143 Clear 15 1009 41 10000 5.1 250 19:38 28.09.2019
1144 Clear 15 1009 41 10000 5.1 250 19:20 28.09.2019
1145 Clear 14 1010 44 10000 4.6 240 18:55 28.09.2019
1146 Clear 14 1010 44 10000 4.6 240 18:37 28.09.2019
1147 -273 0 0 0 0 0 18:18 28.09.2019
1148 Clear 14 1011 41 10000 3.6 250 17:54 28.09.2019
1149 Clear 14 1011 41 10000 3.6 250 17:36 28.09.2019
1150 Clear 14 1011 41 10000 3.6 250 17:18 28.09.2019
1151 Clouds 15 1011 41 10000 3.6 260 16:41 28.09.2019
1152 Clouds 15 1011 41 10000 3.6 260 16:22 28.09.2019
1153 Clear 13 1012 54 10000 2.1 280 15:41 28.09.2019
1154 Clear 13 1012 54 10000 2.1 280 15:23 28.09.2019
1155 Clouds 11 1012 76 10000 1.5 260 14:56 28.09.2019
1156 Clouds 11 1012 76 10000 1.5 260 14:38 28.09.2019
1157 Clouds 11 1012 76 10000 1.5 260 14:19 28.09.2019
1158 Clouds 10 1012 81 10000 1.5 290 13:56 28.09.2019
1159 Clouds 10 1012 81 10000 1.5 290 13:37 28.09.2019
1160 Clouds 10 1012 81 10000 1.5 290 13:19 28.09.2019
1161 Clouds 10 1012 81 10000 0.5 0 12:39 28.09.2019
1162 Clouds 10 1012 81 10000 0.5 0 12:19 28.09.2019
1163 Clouds 11 1012 76 10000 2.6 320 11:43 28.09.2019
1164 Clouds 11 1012 76 10000 2.6 320 11:21 28.09.2019
1165 Rain 12 1013 71 10000 1 0 10:59 28.09.2019
1166 Rain 12 1013 71 10000 1 0 10:39 28.09.2019
1167 Rain 12 1013 71 10000 1 0 10:19 28.09.2019
1168 Clouds 12 1013 66 10000 0.5 0 09:42 28.09.2019
1169 Clouds 12 1013 66 10000 0.5 0 09:23 28.09.2019
1170 Clouds 12 1014 66 10000 0.5 0 08:55 28.09.2019
1171 Clouds 12 1014 66 10000 0.5 0 08:37 28.09.2019
1172 Clouds 12 1014 66 10000 0.5 0 08:18 28.09.2019
1173 Clear 13 1014 58 10000 2.6 270 07:43 28.09.2019
1174 Clear 13 1014 58 10000 2.6 270 07:19 28.09.2019
1175 Clouds 14 1015 54 10000 2.1 270 06:51 28.09.2019
1176 Clouds 14 1015 54 10000 2.1 270 06:30 28.09.2019
1177 Clouds 13 1015 66 10000 1 0 05:41 28.09.2019
1178 Clouds 13 1015 66 10000 1 0 05:19 28.09.2019
1179 Clouds 14 1015 58 10000 2.43 305.587 04:37 28.09.2019
1180 Clouds 14 1015 58 10000 2.6 240 03:45 28.09.2019
1181 Clouds 14 1015 58 10000 2.6 240 03:20 28.09.2019
1182 Clouds 15 1015 54 10000 2.6 260 02:42 28.09.2019
1183 Clouds 15 1015 54 10000 2.6 260 02:23 28.09.2019
1184 Clear 15 1014 54 10000 4.1 260 01:45 28.09.2019
1185 Clear 15 1014 54 10000 4.1 260 01:24 28.09.2019
1186 Clear 15 1013 58 10000 4.1 260 00:49 28.09.2019
1187 Clear 15 1013 58 10000 4.1 260 00:49 28.09.2019
1188 Clear 15 1013 58 10000 4.1 260 00:30 28.09.2019
1189 Clear 17 1013 51 10000 4.6 260 23:41 27.09.2019
1190 Clear 17 1013 51 10000 4.6 260 23:41 27.09.2019
1191 Clear 17 1013 51 10000 4.6 260 23:22 27.09.2019
1192 Clear 19 1012 42 10000 4.1 260 22:58 27.09.2019
1193 Clear 19 1012 42 10000 4.1 260 22:40 27.09.2019
1194 Clear 19 1012 42 10000 4.1 260 22:18 27.09.2019
1195 Clear 20 1011 37 10000 5.1 270 21:54 27.09.2019
1196 Clear 20 1011 37 10000 5.1 270 21:36 27.09.2019
1197 Clear 20 1011 37 10000 5.1 270 21:18 27.09.2019
1198 Clear 20 1011 37 10000 5.1 270 21:18 27.09.2019
1199 Clear 21 1010 35 10000 6.2 270 20:41 27.09.2019
1200 Clear 21 1010 35 10000 6.2 270 20:20 27.09.2019
1201 Clear 19 1011 45 10000 1.5 0 19:58 27.09.2019
1202 Clear 19 1011 45 10000 1.5 0 19:39 27.09.2019
1203 Clear 19 1011 45 10000 1.5 0 19:21 27.09.2019
1204 Clear 16 1011 51 10000 1 0 18:43 27.09.2019
1205 Clear 16 1011 51 10000 1 0 18:25 27.09.2019
1206 Clear 13 1012 66 10000 1 0 17:58 27.09.2019
1207 Clear 13 1012 66 10000 1 0 17:40 27.09.2019
1208 Clear 13 1012 66 10000 1 0 17:20 27.09.2019
1209 Clear 12 1012 71 10000 1.5 90 16:58 27.09.2019
1210 Clear 12 1012 71 10000 1.5 90 16:40 27.09.2019
1211 Clear 12 1012 71 10000 1.5 90 16:19 27.09.2019
1212 Clear 12 1012 71 10000 1.5 90 16:19 27.09.2019
1213 Clear 10 1012 76 10000 0.5 0 15:55 27.09.2019
1214 Clear 10 1012 76 10000 0.5 0 15:36 27.09.2019
1215 Clear 10 1012 76 10000 0.5 0 15:36 27.09.2019
1216 Clear 10 1012 76 10000 0.5 0 15:18 27.09.2019
1217 Clouds 7 1012 93 10000 1 0 14:41 27.09.2019
1218 Clouds 7 1012 93 10000 1 0 14:41 27.09.2019
1219 Clouds 7 1012 93 10000 1 0 14:23 27.09.2019
1220 Clear 7 1012 87 10000 1 270 13:58 27.09.2019
1221 Clear 7 1012 87 10000 1 270 13:40 27.09.2019
1222 Clear 7 1012 87 10000 1 270 13:21 27.09.2019
1223 Clear 7 1011 87 10000 1 0 12:56 27.09.2019
1224 Clear 7 1011 87 10000 1 0 12:37 27.09.2019
1225 Clear 7 1011 87 10000 1 0 12:18 27.09.2019
1226 Clear 7 1011 87 10000 0.5 0 11:39 27.09.2019
1227 Clear 7 1011 87 10000 0.5 0 11:39 27.09.2019
1228 Clear 7 1011 87 10000 0.5 0 11:20 27.09.2019
1229 Clear 8 1011 87 10000 1 270 10:54 27.09.2019
1230 Clear 8 1011 87 10000 1 270 10:36 27.09.2019
1231 Clear 8 1011 87 10000 1 270 10:18 27.09.2019
1232 Clear 8 1012 87 10000 1.44 297.328 09:41 27.09.2019
1233 Clear 8 1012 87 10000 2.08 315.117 09:20 27.09.2019
1234 Clear 8 1012 87 10000 1 0 08:42 27.09.2019
1235 Clear 8 1012 87 10000 1 0 08:22 27.09.2019
1236 Clear 8 1013 87 10000 1 270 07:58 27.09.2019
1237 Clear 8 1013 87 10000 1 270 07:39 27.09.2019
1238 Clear 8 1013 87 10000 1 270 07:20 27.09.2019
1239 Clear 9 1013 81 10000 1 0 06:40 27.09.2019
1240 Clear 9 1013 81 10000 1 0 06:22 27.09.2019
1241 Clear 11 1013 71 10000 0.5 0 05:49 27.09.2019
1242 Clear 11 1013 71 10000 0.5 0 05:30 27.09.2019
1243 Clear 13 1014 66 10000 0.5 0 03:52 27.09.2019
1244 Clear 15 1014 62 10000 1.5 280 01:57 27.09.2019
1245 Clear 15 1014 62 10000 1.5 280 01:34 27.09.2019
1246 Clear 19 1014 48 10000 0.5 0 00:44 27.09.2019
1247 Clear 21 1015 35 10000 2.6 290 23:59 26.09.2019
1248 Clear 21 1015 35 10000 2.6 290 23:41 26.09.2019
1249 Clear 21 1015 35 10000 2.6 290 23:22 26.09.2019
1250 Clear 22 1015 28 10000 1 0 22:58 26.09.2019
1251 Clear 22 1015 28 10000 1 0 22:40 26.09.2019
1252 Clear 22 1015 28 10000 1 0 22:18 26.09.2019
1253 Clouds 18 1014 50 0 1.66 295.174 21:59 26.09.2019
1254 Clouds 18 1014 50 0 1.66 295.174 21:38 26.09.2019
1255 Clear 21 1018 32 10000 3.6 80 21:19 26.09.2019
1256 Clear 21 1018 32 10000 3.6 80 21:19 26.09.2019
1257 Clear 21 1018 32 10000 3.6 80 20:58 26.09.2019
1258 Clear 21 1018 32 10000 3.6 80 20:40 26.09.2019
1259 Clear 21 1018 32 10000 3.6 80 20:21 26.09.2019
1260 Clear 20 1019 34 10000 2.6 50 19:59 26.09.2019
1261 Clear 20 1019 34 10000 2.6 50 19:39 26.09.2019
1262 Clear 20 1019 34 10000 2.6 50 19:18 26.09.2019
1263 Clear 17 1021 42 10000 1.5 0 18:45 26.09.2019
1264 Clear 17 1021 42 10000 1.5 0 18:22 26.09.2019
1265 Clear 14 1022 54 10000 2.6 280 17:59 26.09.2019
1266 Clear 14 1022 54 10000 2.6 280 17:38 26.09.2019
1267 Clear 14 1022 54 10000 2.6 280 17:19 26.09.2019
1268 Clear 14 1022 54 10000 2.6 280 17:19 26.09.2019
1269 Clear 10 1024 71 10000 2.1 300 16:56 26.09.2019
1270 Clear 10 1024 71 10000 2.1 300 16:37 26.09.2019
1271 Clear 10 1024 71 10000 2.1 300 16:37 26.09.2019
1272 Clear 10 1024 71 10000 2.1 300 16:19 26.09.2019
1273 Clouds 8 1025 81 10000 1 0 15:42 26.09.2019
1274 Clouds 8 1025 81 10000 1 0 15:42 26.09.2019
1275 Clouds 8 1025 81 10000 1 0 15:24 26.09.2019
1276 Clouds 5 1025 93 10000 0.5 0 14:59 26.09.2019
1277 Clouds 5 1025 93 10000 0.5 0 14:41 26.09.2019
1278 Clouds 5 1025 93 10000 0.5 0 14:22 26.09.2019
1279 Clear 2 1025 100 10000 0.8 351.042 13:57 26.09.2019
1280 Clear 2 1025 100 10000 0.8 351.042 13:39 26.09.2019
1281 Clear 2 1025 100 10000 0.8 351.042 13:39 26.09.2019
1282 Clear 2 1025 100 10000 0.84 331.258 13:19 26.09.2019
1283 Clear 2 1026 100 10000 0.5 0 12:43 26.09.2019
1284 Clear 2 1026 100 10000 0.5 0 12:23 26.09.2019
1285 Clear 3 1026 93 10000 0.16 40.042 11:57 26.09.2019
1286 Clear 3 1026 93 10000 0.16 40.042 11:57 26.09.2019
1287 Clear 3 1026 93 10000 0.16 40.042 11:39 26.09.2019
1288 Clear 3 1026 93 10000 0.16 40.042 11:19 26.09.2019
1289 Clear 3 1026 93 10000 0.16 40.042 11:19 26.09.2019
1290 Clear 3 1025 100 8000 0.5 0 10:42 26.09.2019
1291 Clear 3 1025 100 8000 0.5 0 10:23 26.09.2019
1292 Clear 4 1026 93 10000 1 0 09:58 26.09.2019
1293 Clear 4 1026 93 10000 1 0 09:39 26.09.2019
1294 Clear 4 1026 93 10000 1 0 09:19 26.09.2019
1295 Clear 5 1026 93 10000 0.5 0 08:50 26.09.2019
1296 Clear 5 1026 93 10000 0.5 0 08:31 26.09.2019
1297 Clear 6 1026 87 10000 0.5 0 07:47 26.09.2019
1298 Clear 6 1026 87 10000 0.5 0 07:22 26.09.2019
1299 Clear 7 1026 81 10000 1.5 100 06:53 26.09.2019
1300 Clear 7 1026 81 10000 1.5 100 06:28 26.09.2019
1301 Clear 8 1026 81 10000 1.5 260 05:52 26.09.2019
1302 Clear 8 1026 81 10000 1.5 260 05:29 26.09.2019
1303 Clear 9 1025 76 10000 1 0 03:33 26.09.2019
1304 Clear 11 1025 66 10000 1 0 02:19 26.09.2019
1305 Clear 13 1024 58 10000 0.5 0 01:40 26.09.2019
1306 Clear 13 1024 58 10000 0.5 0 01:22 26.09.2019
1307 Clear 18 1023 34 10000 2.6 290 00:45 26.09.2019
1308 Clear 18 1023 34 10000 2.6 290 00:25 26.09.2019
1309 Clear 19 1022 29 10000 2.6 0 23:43 25.09.2019
1310 Clear 19 1022 29 10000 2.6 0 23:22 25.09.2019
1311 Clear 20 1022 28 10000 2.1 0 22:55 25.09.2019
1312 Clear 20 1022 28 10000 2.1 0 22:55 25.09.2019
1313 Clear 20 1022 28 10000 2.1 0 22:55 25.09.2019
1314 Clear 20 1022 28 10000 2.1 0 22:36 25.09.2019
1315 Clear 20 1022 28 10000 2.1 0 22:18 25.09.2019
1316 Clear 20 1022 32 10000 4.1 280 21:55 25.09.2019
1317 Clear 20 1022 32 10000 4.1 280 21:36 25.09.2019
1318 Clear 20 1022 32 10000 4.1 280 21:18 25.09.2019
1319 Clear 20 1022 32 10000 4.1 280 21:18 25.09.2019
1320 Clear 19 1023 39 10000 2.1 0 20:55 25.09.2019
1321 Clear 19 1023 39 10000 2.1 0 20:37 25.09.2019
1322 Clear 19 1023 39 10000 2.1 0 20:18 25.09.2019
1323 Clear 19 1023 42 10000 1.5 0 19:38 25.09.2019
1324 Clear 19 1023 42 10000 1.5 0 19:20 25.09.2019
1325 Clear 17 1024 51 10000 2.6 310 18:56 25.09.2019
1326 Clear 17 1024 51 10000 2.6 310 18:56 25.09.2019
1327 Clear 17 1024 51 10000 2.6 310 18:37 25.09.2019
1328 Clear 17 1024 51 10000 2.6 310 18:18 25.09.2019
1329 Clear 14 1025 62 10000 2.1 270 17:40 25.09.2019
1330 Clear 14 1025 62 10000 2.1 270 17:21 25.09.2019
1331 Clear 11 1026 71 10000 1.5 0 16:57 25.09.2019
1332 Clear 11 1026 71 10000 1.5 0 16:37 25.09.2019
1333 Clear 11 1026 71 10000 1.5 0 16:19 25.09.2019
1334 Clouds 8 1027 81 10000 1 0 15:42 25.09.2019
1335 Clouds 8 1027 81 10000 1 0 15:23 25.09.2019
1336 Mist 5 1027 100 10000 1 0 14:57 25.09.2019
1337 Mist 5 1027 100 10000 1 0 14:39 25.09.2019
1338 Mist 5 1027 100 10000 1 0 14:21 25.09.2019
1339 Clear 4 1027 100 10000 1 0 13:56 25.09.2019
1340 Clear 4 1027 100 10000 1 0 13:56 25.09.2019
1341 Clear 4 1027 100 10000 1 0 13:37 25.09.2019
1342 Clear 4 1027 100 10000 1 0 13:19 25.09.2019
1343 Clear 4 1027 100 10000 1 0 12:41 25.09.2019
1344 Clear 4 1027 100 10000 1 0 12:23 25.09.2019
1345 Clear 5 1027 93 10000 1 0 11:57 25.09.2019
1346 Clear 5 1027 93 10000 1 0 11:38 25.09.2019
1347 Clear 5 1027 93 10000 1 0 11:19 25.09.2019
1348 Clear 5 1027 93 10000 1 0 10:43 25.09.2019
1349 Clear 5 1027 93 10000 1 0 10:24 25.09.2019
1350 Clear 5 1027 93 10000 1 0 09:57 25.09.2019
1351 Clear 5 1027 93 10000 1 0 09:37 25.09.2019
1352 Clear 5 1027 93 10000 1 0 09:19 25.09.2019
1353 Clear 6 1028 93 10000 1 290 08:44 25.09.2019
1354 Clear 6 1028 93 10000 1 290 08:21 25.09.2019
1355 Clear 7 1028 87 10000 0.5 0 07:57 25.09.2019
1356 Clear 7 1028 87 10000 0.5 0 07:38 25.09.2019
1357 Clear 7 1028 87 10000 0.5 0 07:19 25.09.2019
1358 Clear 9 1029 81 10000 1.74 300.614 06:43 25.09.2019
1359 Clear 9 1029 81 10000 1.91 287.922 06:21 25.09.2019
1360 Clear 10 1028 81 10000 0.5 0 05:27 25.09.2019
1361 Clouds 10 1028 87 10000 1 260 04:50 25.09.2019
1362 Clouds 12 1028 76 10000 1.5 300 02:19 25.09.2019
1363 Clouds 14 1027 71 10000 2.09 294.276 00:45 25.09.2019
1364 Clouds 14 1027 71 10000 2.09 294.276 00:24 25.09.2019
1365 Clouds 15 1027 62 10000 1 310 23:56 24.09.2019
1366 Clouds 15 1027 62 10000 1 310 23:37 24.09.2019
1367 Clouds 15 1027 62 10000 1 310 23:18 24.09.2019
1368 Clouds 15 1026 62 10000 1 0 22:39 24.09.2019
1369 Clouds 15 1026 62 10000 1 0 22:20 24.09.2019
1370 Clouds 15 1026 62 10000 2.1 310 21:56 24.09.2019
1371 Clouds 15 1026 62 10000 2.1 310 21:37 24.09.2019
1372 Clouds 15 1026 62 10000 2.1 310 21:19 24.09.2019
1373 Clouds 15 1026 62 10000 2.1 310 21:19 24.09.2019
1374 Clouds 15 1027 58 10000 2.1 300 20:57 24.09.2019
1375 Clouds 15 1027 58 10000 2.1 300 20:57 24.09.2019
1376 Clouds 15 1027 58 10000 2.1 300 20:39 24.09.2019
1377 Clouds 15 1027 58 10000 2.1 300 20:20 24.09.2019
1378 Clouds 15 1027 62 10000 2.1 280 19:44 24.09.2019
1379 Clouds 15 1027 62 10000 2.1 280 19:23 24.09.2019
1380 Clouds 14 1027 62 10000 1 0 18:59 24.09.2019
1381 Clouds 14 1027 62 10000 1 0 18:41 24.09.2019
1382 Clouds 14 1027 62 10000 1 0 18:22 24.09.2019
1383 Clouds 13 1028 66 10000 1.5 270 17:58 24.09.2019
1384 Clouds 13 1028 66 10000 1.5 270 17:58 24.09.2019
1385 Clouds 13 1028 66 10000 1.5 270 17:38 24.09.2019
1386 Clouds 13 1028 66 10000 1.5 270 17:38 24.09.2019
1387 Clouds 13 1028 66 10000 1.5 270 17:20 24.09.2019
1388 Clouds 12 1028 66 10000 1 0 16:57 24.09.2019
1389 Clouds 12 1028 66 10000 1 0 16:39 24.09.2019
1390 Clouds 12 1028 66 10000 1 0 16:18 24.09.2019
1391 Clouds 11 1028 71 10000 1.5 250 15:41 24.09.2019
1392 Clouds 11 1028 71 10000 1.5 250 15:41 24.09.2019
1393 Clouds 11 1028 71 10000 1.5 250 15:23 24.09.2019
1394 Clouds 11 1028 71 10000 1.5 250 15:23 24.09.2019
1395 Clouds 10 1027 76 10000 1.5 250 14:43 24.09.2019
1396 Clouds 10 1027 76 10000 1.5 250 14:20 24.09.2019
1397 Clear 9 1027 81 10000 1.5 280 13:56 24.09.2019
1398 Clear 9 1027 81 10000 1.5 280 13:37 24.09.2019
1399 Clear 9 1027 81 10000 1.5 280 13:19 24.09.2019
1400 Clear 10 1026 71 10000 2.6 280 12:39 24.09.2019
1401 Clear 10 1026 71 10000 2.6 280 12:19 24.09.2019
1402 Clear 10 1026 76 10000 3.6 310 11:43 24.09.2019
1403 Clear 10 1026 76 10000 3.6 310 11:43 24.09.2019
1404 Clear 10 1026 76 10000 3.6 310 11:22 24.09.2019
1405 Clear 11 1026 66 10000 4.1 300 10:58 24.09.2019
1406 Clear 11 1026 66 10000 4.1 300 10:38 24.09.2019
1407 Clear 11 1026 66 10000 4.1 300 10:19 24.09.2019
1408 Clouds 11 1026 66 10000 3.6 310 09:46 24.09.2019
1409 Clouds 11 1026 66 10000 3.6 310 09:27 24.09.2019
1410 Clouds 11 1026 66 10000 4.1 300 08:57 24.09.2019
1411 Clouds 11 1026 66 10000 4.1 300 08:39 24.09.2019
1412 Clouds 11 1026 66 10000 4.1 300 08:20 24.09.2019
1413 Clouds 11 1027 62 10000 3.1 290 07:55 24.09.2019
1414 Clouds 11 1027 62 10000 3.1 290 07:36 24.09.2019
1415 Clouds 11 1027 62 10000 3.1 290 07:36 24.09.2019
1416 Clouds 11 1027 62 10000 3.1 290 07:18 24.09.2019
1417 Clouds 11 1026 62 10000 3.1 290 06:36 24.09.2019
1418 Clouds 11 1027 62 10000 3.1 320 05:52 24.09.2019
1419 Clouds 11 1027 62 10000 3.1 320 05:20 24.09.2019
1420 Clouds 12 1027 58 10000 3.6 260 03:45 24.09.2019
1421 Clouds 12 1026 58 10000 4.6 240 02:57 24.09.2019
1422 Clouds 12 1026 58 10000 4.6 240 02:38 24.09.2019
1423 Clouds 12 1026 58 10000 4.1 260 01:22 24.09.2019
1424 Clear 12 1026 58 10000 3.6 280 00:37 24.09.2019
1425 Clear 12 1026 58 10000 3.6 280 00:18 24.09.2019
1426 Clear 13 1025 58 10000 3.6 260 23:40 23.09.2019
1427 Clear 13 1025 58 10000 3.6 260 23:21 23.09.2019
1428 Clouds 14 1024 50 10000 4.6 270 22:40 23.09.2019
1429 Clouds 14 1024 50 10000 4.6 270 22:21 23.09.2019
1430 Clouds 14 1024 50 10000 5.1 260 21:58 23.09.2019
1431 Clouds 14 1024 50 10000 5.1 260 21:40 23.09.2019
1432 Clouds 14 1024 50 10000 5.1 260 21:19 23.09.2019
1433 Clouds 13 1024 54 10000 3.1 0 20:55 23.09.2019
1434 Clouds 13 1024 54 10000 3.1 0 20:36 23.09.2019
1435 Clouds 13 1024 54 10000 3.1 0 20:18 23.09.2019
1436 Clouds 12 1024 58 10000 2.6 310 19:39 23.09.2019
1437 Clouds 12 1024 58 10000 2.6 310 19:21 23.09.2019
1438 Clouds 11 1024 57 10000 2.6 270 18:55 23.09.2019
1439 Clouds 11 1024 57 10000 2.6 270 18:37 23.09.2019
1440 Clouds 11 1024 57 10000 2.6 270 18:37 23.09.2019
1441 Clouds 11 1024 57 10000 2.6 270 18:37 23.09.2019
1442 Clouds 11 1024 57 10000 2.6 270 18:18 23.09.2019
1443 Clouds 10 1024 57 10000 3.1 290 17:55 23.09.2019
1444 Clouds 10 1024 57 10000 3.1 290 17:36 23.09.2019
1445 Clouds 10 1024 57 10000 3.1 290 17:18 23.09.2019
1446 Clouds 9 1024 57 10000 2.1 270 16:39 23.09.2019
1447 Clouds 9 1024 57 10000 2.1 270 16:21 23.09.2019
1448 Clouds 6 1024 70 10000 1.5 260 15:59 23.09.2019
1449 Clouds 6 1024 70 10000 1.5 260 15:41 23.09.2019
1450 Clouds 6 1024 70 10000 1.5 260 15:20 23.09.2019
1451 Clouds 4 1024 70 10000 0.5 0 14:58 23.09.2019
1452 Clouds 4 1024 70 10000 0.5 0 14:37 23.09.2019
1453 Clouds 4 1024 70 10000 0.5 0 14:19 23.09.2019
1454 Clear 3 1024 70 10000 1 0 13:42 23.09.2019
1455 Clear 3 1024 72 10000 1 0 13:19 23.09.2019
1456 Mist 2 1023 72 7000 0.5 0 12:59 23.09.2019
1457 Mist 2 1023 72 7000 0.5 0 12:40 23.09.2019
1458 Mist 2 1023 76 7000 0.5 0 12:21 23.09.2019
1459 Clear 2 1023 80 10000 1.5 270 11:45 23.09.2019
1460 Clear 2 1023 80 10000 1.5 270 11:27 23.09.2019
1461 Clear 2 1023 80 10000 0.5 0 10:57 23.09.2019
1462 Clear 2 1023 80 10000 0.5 0 10:39 23.09.2019
1463 Clear 2 1023 80 10000 0.5 0 10:20 23.09.2019
1464 Clear 1 1023 86 10000 1 0 09:40 23.09.2019
1465 Clear 1 1023 86 10000 1 0 09:21 23.09.2019
1466 Clear 1 1023 86 10000 1 0 08:58 23.09.2019
1467 Clear 1 1023 86 10000 1 0 08:38 23.09.2019
1468 Clear 1 1023 86 10000 1 0 08:18 23.09.2019
1469 Clear 2 1022 80 10000 1 0 07:33 23.09.2019
1470 Clear 3 1022 69 9000 1 0 06:52 23.09.2019
1471 Clear 3 1022 69 9000 1 0 06:19 23.09.2019
1472 Clear 3 1023 69 10000 1 0 05:22 23.09.2019
1473 Clear 5 1022 60 10000 1 0 04:55 23.09.2019
1474 Clear 5 1022 60 5000 2 295.474 03:56 23.09.2019
1475 Clear 12 1021 25 10000 3.6 260 01:25 23.09.2019
1476 Clear 15 1020 19 10000 3.1 250 00:24 23.09.2019
1477 Clear 16 1019 17 10000 2.6 270 23:58 22.09.2019
1478 Clear 16 1019 17 10000 2.6 270 23:33 22.09.2019
1479 Clear 16 1019 21 10000 2.6 0 22:59 22.09.2019
1480 Clear 16 1019 21 10000 2.6 0 22:41 22.09.2019
1481 Clear 16 1019 21 10000 2.6 0 22:41 22.09.2019
1482 Clear 16 1019 21 10000 2.6 0 22:23 22.09.2019
1483 Clear 14 1020 28 10000 2.1 310 21:59 22.09.2019
1484 Clear 14 1020 28 10000 2.1 310 21:39 22.09.2019
1485 Clear 14 1020 28 10000 2.1 310 21:19 22.09.2019
1486 Clear 13 1021 37 10000 2.1 0 20:42 22.09.2019
1487 Clear 13 1021 37 10000 2.1 0 20:24 22.09.2019
1488 Clear 10 1022 43 10000 1 0 19:56 22.09.2019
1489 Clear 10 1022 43 10000 1 0 19:37 22.09.2019
1490 Clear 10 1022 43 10000 1 0 19:19 22.09.2019
1491 Clear 8 1023 52 10000 1 0 18:55 22.09.2019
1492 Clear 8 1023 52 10000 1 0 18:36 22.09.2019
1493 Clear 8 1023 52 10000 1 0 18:18 22.09.2019
1494 Clear 6 1024 56 10000 1 0 17:41 22.09.2019
1495 Clear 6 1024 56 10000 1 0 17:22 22.09.2019
1496 Clear 3 1026 74 10000 0.5 0 16:46 22.09.2019
1497 Clear 3 1026 74 10000 0.5 0 16:27 22.09.2019
1498 Clear 0 1026 42 10000 1 0 15:58 22.09.2019
1499 Clear 0 1026 42 10000 1 0 15:40 22.09.2019
1500 Clear 0 1026 57 10000 1 0 15:21 22.09.2019
1501 Clear 0 1026 57 10000 1 0 15:21 22.09.2019
1502 Fog -3 1027 100 6000 1.21 299.022 14:45 22.09.2019
1503 Fog -3 1027 100 6000 1.21 299.022 14:26 22.09.2019
1504 Fog -3 1027 92 2500 1.21 299.022 13:59 22.09.2019
1505 Fog -3 1027 92 2500 1.21 299.022 13:40 22.09.2019
1506 Fog -3 1027 92 2500 1.11 301.793 13:21 22.09.2019
1507 Clear -3 1027 100 10000 1.11 301.793 12:45 22.09.2019
1508 Clear -3 1027 100 10000 1.91 314.111 12:24 22.09.2019
1509 Fog -2 1027 92 900 1 90 11:59 22.09.2019
1510 Fog -2 1027 92 900 1 90 11:40 22.09.2019
1511 Fog -2 1027 92 900 1 90 11:22 22.09.2019
1512 Clear -2 1026 100 8000 0.5 0 10:45 22.09.2019
1513 Clear -2 1026 100 8000 0.5 0 10:20 22.09.2019
1514 Clear -1 1027 92 10000 1 0 09:58 22.09.2019
1515 Clear -1 1027 92 10000 1 0 09:38 22.09.2019
1516 Clear -1 1027 92 10000 1 0 09:19 22.09.2019
1517 Clear -1 1027 92 8000 1.58 316.158 08:45 22.09.2019
1518 Clear -1 1027 92 8000 1.58 316.158 08:24 22.09.2019
1519 Clear -1 1027 92 8000 1.58 316.158 08:24 22.09.2019
1520 Clear 0 1028 87 10000 1 0 07:55 22.09.2019
1521 Clear 0 1028 87 10000 1 0 07:36 22.09.2019
1522 Clear 0 1028 87 10000 1 0 07:18 22.09.2019
1523 Clear 1 1028 86 10000 1 0 06:53 22.09.2019
1524 Clear 2 1028 80 10000 1 0 05:26 22.09.2019
1525 Clear 3 1028 74 8000 0.5 0 03:31 22.09.2019
1526 Clear 6 1027 56 10000 1 0 02:37 22.09.2019
1527 Clear 6 1027 56 10000 1 0 02:18 22.09.2019
1528 Clear 9 1026 42 10000 4.6 270 00:58 22.09.2019
1529 Clear 9 1026 42 10000 4.6 270 00:33 22.09.2019
1530 Clear 11 1025 40 10000 6.2 280 23:57 21.09.2019
1531 Clear 11 1025 40 10000 6.2 280 23:39 21.09.2019
1532 Clear 11 1025 40 10000 5.7 280 22:59 21.09.2019
1533 Clear 11 1025 40 10000 5.7 280 22:38 21.09.2019
1534 Clear 11 1025 40 10000 5.7 280 22:38 21.09.2019
1535 Clear 11 1025 40 10000 5.7 280 22:20 21.09.2019
1536 Clear 12 1024 34 10000 4.6 260 21:42 21.09.2019
1537 Clear 12 1024 34 10000 4.6 260 21:20 21.09.2019
1538 Clear 11 1024 40 10000 5.1 280 20:58 21.09.2019
1539 Clear 11 1024 40 10000 5.1 280 20:38 21.09.2019
1540 Clear 11 1024 40 10000 5.1 280 20:38 21.09.2019
1541 Clear 11 1024 40 10000 5.1 280 20:19 21.09.2019
1542 Clear 11 1024 40 10000 5.1 280 20:19 21.09.2019
1543 Clear 11 1024 40 10000 5.1 280 19:46 21.09.2019
1544 Clear 11 1024 40 10000 5.1 280 19:22 21.09.2019
1545 Clear 10 1024 43 10000 5.7 280 18:42 21.09.2019
1546 Clear 10 1024 43 10000 5.7 280 18:22 21.09.2019
1547 Clear 9 1024 45 10000 5.7 280 17:56 21.09.2019
1548 Clear 9 1024 45 10000 5.7 280 17:38 21.09.2019
1549 Clear 9 1024 45 10000 5.7 280 17:19 21.09.2019
1550 Clear 8 1024 49 10000 4.1 260 16:42 21.09.2019
1551 Clear 8 1024 49 10000 4.1 260 16:24 21.09.2019
1552 Clear 7 1023 65 10000 2.1 240 15:45 21.09.2019
1553 Clear 7 1023 81 10000 2.1 240 15:23 21.09.2019
1554 Clear 5 1023 65 10000 1.5 250 14:50 21.09.2019
1555 Clear 5 1023 65 10000 1.5 250 14:32 21.09.2019
1556 Clouds 5 1022 65 10000 2.6 260 13:55 21.09.2019
1557 Clouds 5 1022 65 10000 2.6 260 13:37 21.09.2019
1558 Clear 5 1022 65 10000 2.6 260 13:18 21.09.2019
1559 Clear 4 1021 81 10000 2.1 230 12:55 21.09.2019
1560 Clear 4 1021 81 10000 2.1 230 12:36 21.09.2019
1561 Clear 4 1021 93 10000 2.1 230 12:18 21.09.2019
1562 Clear 5 1020 93 10000 2.6 270 11:42 21.09.2019
1563 Clear 5 1020 93 10000 2.6 270 11:23 21.09.2019
1564 Clouds 5 1020 93 10000 3.6 310 10:43 21.09.2019
1565 Clouds 5 1020 93 10000 3.6 310 10:24 21.09.2019
1566 Clear 5 1020 75 10000 3.6 240 09:58 21.09.2019
1567 Clear 5 1020 75 10000 3.6 240 09:39 21.09.2019
1568 Clear 5 1020 75 10000 3.6 240 09:20 21.09.2019
1569 Clear 5 1020 75 10000 3.6 240 09:20 21.09.2019
1570 Clear 5 1019 75 10000 3.6 250 08:52 21.09.2019
1571 Clear 5 1019 75 10000 3.6 250 08:27 21.09.2019
1572 Rain 4 1019 86 10000 3.1 280 07:41 21.09.2019
1573 Rain 4 1019 86 10000 3.1 280 07:23 21.09.2019
1574 Rain 4 1019 86 10000 5.1 290 06:51 21.09.2019
1575 Rain 4 1019 86 10000 5.1 290 06:31 21.09.2019
1576 Rain 4 1018 93 10000 2.1 320 04:53 21.09.2019
1577 Rain 4 1018 93 10000 2.1 320 04:53 21.09.2019
1578 Rain 4 1018 93 10000 2.1 320 04:34 21.09.2019
1579 Rain 5 1018 80 10000 4.1 250 02:31 21.09.2019
1580 Rain 5 1017 80 10000 4.6 250 01:54 21.09.2019
1581 Rain 5 1017 80 10000 4.6 250 01:36 21.09.2019
1582 Rain 6 1017 70 10000 5.1 250 00:40 21.09.2019
1583 Rain 6 1017 70 10000 5.1 250 00:18 21.09.2019
1584 Rain 6 1017 70 10000 5.1 250 00:18 21.09.2019
1585 Rain 6 1017 70 10000 4.6 240 23:42 20.09.2019
1586 Rain 6 1017 70 10000 4.6 240 23:42 20.09.2019
1587 Rain 6 1017 70 10000 4.6 240 23:22 20.09.2019
1588 Rain 6 1017 70 10000 5.1 240 22:41 20.09.2019
1589 Rain 6 1017 70 10000 5.1 240 22:23 20.09.2019
1590 Rain 7 1017 65 10000 4.1 250 21:56 20.09.2019
1591 Rain 7 1017 65 10000 4.1 250 21:37 20.09.2019
1592 Rain 7 1017 65 10000 4.1 250 21:18 20.09.2019
1593 Clear 8 1017 57 10000 5.1 250 20:54 20.09.2019
1594 Clear 8 1017 57 10000 5.1 250 20:36 20.09.2019
1595 Clear 8 1017 57 10000 5.1 250 20:36 20.09.2019
1596 Clear 8 1017 57 10000 5.1 250 20:18 20.09.2019
1597 Rain 8 1017 57 10000 6.7 250 19:41 20.09.2019
1598 Rain 8 1017 57 10000 6.7 250 19:20 20.09.2019
1599 Clear 7 1018 65 10000 5.1 250 18:40 20.09.2019
1600 Clear 7 1018 65 10000 5.1 250 18:21 20.09.2019
1601 Clear 8 1018 52 10000 5.7 260 17:59 20.09.2019
1602 Clear 8 1018 52 10000 5.7 260 17:41 20.09.2019
1603 Clear 8 1018 52 10000 5.7 260 17:23 20.09.2019
1604 Clear 7 1018 57 10000 5.7 260 16:43 20.09.2019
1605 Clear 7 1018 57 10000 5.7 260 16:21 20.09.2019
1606 Clear 7 1018 57 10000 5.7 250 15:56 20.09.2019
1607 Clear 7 1018 57 10000 5.7 250 15:37 20.09.2019
1608 Clear 7 1018 79 10000 5.7 250 15:19 20.09.2019
1609 Rain 5 1018 79 10000 5.1 250 14:42 20.09.2019
1610 Rain 5 1018 79 10000 5.1 250 14:19 20.09.2019
1611 Clear 6 1018 79 10000 4.6 250 13:47 20.09.2019
1612 Clear 6 1018 80 10000 4.6 250 13:28 20.09.2019
1613 Clear 6 1018 60 10000 4.1 240 12:57 20.09.2019
1614 Clear 6 1018 60 10000 4.1 240 12:36 20.09.2019
1615 Clear 6 1018 60 10000 4.1 240 12:18 20.09.2019
1616 Rain 5 1018 92 10000 4.1 250 11:48 20.09.2019
1617 Rain 5 1018 92 10000 4.1 250 11:21 20.09.2019
1618 Clouds 6 1018 92 10000 5.1 270 10:43 20.09.2019
1619 Clouds 6 1018 92 10000 5.1 270 10:24 20.09.2019
1620 Clear 6 1018 60 10000 5.1 260 09:55 20.09.2019
1621 Clear 6 1018 60 10000 5.1 260 09:36 20.09.2019
1622 Clear 6 1018 60 10000 5.1 260 09:18 20.09.2019
1623 Clear 6 1019 60 10000 4.1 250 08:41 20.09.2019
1624 Clear 6 1019 60 10000 4.1 250 08:22 20.09.2019
1625 Rain 6 1019 92 10000 4.1 260 07:45 20.09.2019
1626 Rain 6 1019 92 10000 4.1 260 07:26 20.09.2019
1627 Clear 6 1019 60 10000 5.1 260 06:44 20.09.2019
1628 Clear 6 1019 60 10000 5.1 260 06:20 20.09.2019
1629 Clear 5 1019 65 10000 4.6 260 05:42 20.09.2019
1630 Clear 6 1020 60 10000 3.6 260 03:31 20.09.2019
1631 Clear 6 1019 92 10000 4.1 260 02:51 20.09.2019
1632 Clouds 6 1018 92 10000 4.6 260 01:44 20.09.2019
1633 Clear 6 1017 70 10000 4.1 260 00:46 20.09.2019
1634 Clear 7 1016 62 10000 5.7 270 23:59 19.09.2019
1635 Clear 7 1016 62 10000 5.7 270 23:41 19.09.2019
1636 Clear 7 1016 62 10000 5.7 270 23:18 19.09.2019
1637 Clear 8 1016 62 10000 6.7 270 22:40 19.09.2019
1638 Clear 8 1016 62 10000 6.7 270 22:22 19.09.2019
1639 Clear 8 1016 52 10000 6.2 270 21:57 19.09.2019
1640 Clear 8 1016 52 10000 6.2 270 21:39 19.09.2019
1641 Clear 8 1016 52 10000 6.2 270 21:19 19.09.2019
1642 Clear 8 1016 61 10000 5.7 270 20:57 19.09.2019
1643 Clear 8 1016 61 10000 5.7 270 20:57 19.09.2019
1644 Clear 8 1016 61 10000 5.7 270 20:39 19.09.2019
1645 Clear 8 1016 61 10000 5.7 270 20:19 19.09.2019
1646 Clear 7 1016 52 10000 5.7 270 19:54 19.09.2019
1647 Clear 7 1016 52 10000 5.7 270 19:36 19.09.2019
1648 Clear 7 1016 52 10000 5.7 270 19:18 19.09.2019
1649 Clear 8 1016 61 10000 5.1 270 18:41 19.09.2019
1650 Clear 8 1016 61 10000 5.1 270 18:22 19.09.2019
1651 Clear 6 1016 70 10000 5.7 260 17:43 19.09.2019
1652 Clear 6 1016 70 10000 5.7 260 17:24 19.09.2019
1653 Rain 5 1015 75 10000 4.1 260 16:59 19.09.2019
1654 Rain 5 1015 75 10000 4.1 260 16:59 19.09.2019
1655 Rain 5 1015 75 10000 4.1 260 16:40 19.09.2019
1656 Rain 5 1015 75 10000 4.1 260 16:20 19.09.2019
1657 Rain 3 1014 86 10000 3.6 0 15:40 19.09.2019
1658 Rain 3 1014 86 10000 3.6 0 15:21 19.09.2019
1659 Rain 3 1013 80 10000 3.1 260 14:58 19.09.2019
1660 Rain 3 1013 80 10000 3.1 260 14:38 19.09.2019
1661 Rain 3 1013 80 10000 3.1 260 14:20 19.09.2019
1662 Rain 3 1013 80 10000 4.6 250 13:40 19.09.2019
1663 Rain 3 1013 80 10000 4.6 250 13:40 19.09.2019
1664 Rain 3 1013 80 10000 4.6 250 13:40 19.09.2019
1665 Rain 3 1013 82 10000 4.6 250 13:21 19.09.2019
1666 Clear 4 1013 64 10000 4.1 270 12:58 19.09.2019
1667 Clear 4 1013 64 10000 4.1 270 12:36 19.09.2019
1668 Clear 4 1013 64 10000 4.1 270 12:18 19.09.2019
1669 Clear 3 1012 64 10000 3.6 270 11:41 19.09.2019
1670 Clear 3 1012 64 10000 3.6 270 11:21 19.09.2019
1671 Clear 3 1012 64 10000 4.1 250 10:57 19.09.2019
1672 Clear 3 1012 64 10000 4.1 250 10:37 19.09.2019
1673 Clear 3 1012 64 10000 4.1 250 10:18 19.09.2019
1674 Clear 3 1012 69 10000 3.6 270 09:42 19.09.2019
1675 Clouds 3 1012 69 10000 3.6 270 09:22 19.09.2019
1676 Clear 3 1011 69 10000 4.6 250 08:56 19.09.2019
1677 Clear 3 1011 69 10000 4.6 250 08:36 19.09.2019
1678 Clear 3 1011 69 10000 4.6 250 08:18 19.09.2019
1679 Clear 3 1010 74 10000 3.6 0 07:42 19.09.2019
1680 Clear 3 1010 74 10000 3.6 0 07:21 19.09.2019
1681 Clear 3 1010 74 10000 3.6 0 07:21 19.09.2019
1682 Clear 3 1009 74 10000 4.1 260 06:47 19.09.2019
1683 Clear 3 1009 74 10000 4.1 260 06:27 19.09.2019
1684 Clear 3 1008 74 10000 4.1 230 05:52 19.09.2019
1685 Clouds 2 1008 80 10000 2.6 0 04:44 19.09.2019
1686 Rain 3 1007 74 10000 3.6 250 03:51 19.09.2019
1687 Clouds 3 1006 74 10000 2.1 270 02:30 19.09.2019
1688 Clouds 3 1004 74 10000 3.6 250 01:23 19.09.2019
1689 Clouds 2 1003 93 10000 1.5 280 00:49 19.09.2019
1690 Clouds 2 1003 93 10000 1.5 280 00:25 19.09.2019
1691 Clouds 2 1003 93 10000 1.5 280 00:25 19.09.2019
1692 Rain 4 1002 69 10000 6.2 260 23:39 18.09.2019
1693 Rain 4 1002 69 10000 6.2 260 23:21 18.09.2019
1694 Rain 3 1001 86 8000 4.1 270 22:44 18.09.2019
1695 Rain 3 1001 86 8000 4.1 270 22:20 18.09.2019
1696 Rain 4 1000 86 9000 4.1 260 21:58 18.09.2019
1697 Rain 4 1000 86 9000 4.1 260 21:40 18.09.2019
1698 Rain 4 1000 86 9000 4.1 260 21:19 18.09.2019
1699 Rain 4 1000 80 9000 3.1 260 20:58 18.09.2019
1700 Rain 4 1000 80 9000 3.1 260 20:58 18.09.2019
1701 Rain 4 1000 80 9000 3.1 260 20:40 18.09.2019
1702 Rain 4 1000 80 9000 3.1 260 20:22 18.09.2019
1703 Rain 5 1000 75 10000 6.2 260 19:57 18.09.2019
1704 Rain 5 1000 75 10000 6.2 260 19:38 18.09.2019
1705 Rain 5 1000 75 10000 6.2 260 19:19 18.09.2019
1706 Rain 5 1000 75 10000 6.2 260 19:19 18.09.2019
1707 Rain 5 996 75 4500 8.2 290 18:55 18.09.2019
1708 Rain 5 996 75 4500 8.2 290 18:37 18.09.2019
1709 Rain 5 996 75 4500 8.2 290 18:18 18.09.2019
1710 Rain 4 996 75 4500 8.2 290 17:57 18.09.2019
1711 Rain 4 996 75 4500 8.2 290 17:57 18.09.2019
1712 Rain 3 999 93 10000 3.1 310 17:39 18.09.2019
1713 Rain 3 999 93 10000 3.1 310 17:18 18.09.2019
1714 Rain 3 999 93 10000 3.1 310 17:18 18.09.2019
1715 Clouds 1 1000 100 3500 1.5 0 16:55 18.09.2019
1716 Clouds 1 1000 100 3500 1.5 0 16:36 18.09.2019
1717 Clouds 1 1000 100 3500 1.5 0 16:18 18.09.2019
1718 Clouds 0 1002 99 3000 1 0 15:54 18.09.2019
1719 Clouds 0 1002 99 3000 1 0 15:36 18.09.2019
1720 Clouds 0 1002 97 3000 1 0 15:18 18.09.2019
1721 Clouds 1 1003 97 4500 1 0 14:55 18.09.2019
1722 Clouds 1 1003 97 4500 1 0 14:36 18.09.2019
1723 Clouds 1 1003 97 4500 1 0 14:18 18.09.2019
1724 Rain 2 1004 93 10000 2.1 0 13:40 18.09.2019
1725 Rain 2 1004 93 10000 2.1 0 13:18 18.09.2019
1726 Rain 3 1007 86 8000 4.1 260 12:53 18.09.2019
1727 Rain 3 1007 86 8000 4.1 260 12:30 18.09.2019
1728 Rain 6 1007 92 10000 5.7 250 11:55 18.09.2019
1729 Rain 6 1007 92 10000 5.7 250 11:37 18.09.2019
1730 Rain 6 1007 92 10000 5.7 250 11:37 18.09.2019
1731 Rain 6 1007 92 10000 5.7 250 11:18 18.09.2019
1732 Rain 7 1010 92 10000 4.1 250 10:40 18.09.2019
1733 Rain 7 1010 92 10000 4.1 250 10:21 18.09.2019
1734 Clouds 8 1012 49 10000 6.2 250 09:58 18.09.2019
1735 Clouds 8 1012 49 10000 6.2 250 09:38 18.09.2019
1736 Clouds 8 1012 49 10000 6.2 250 09:19 18.09.2019
1737 Clear 8 1014 49 10000 5.7 260 08:41 18.09.2019
1738 Clear 8 1014 49 10000 5.7 260 08:23 18.09.2019
1739 Clear 7 1014 56 10000 6.2 260 07:52 18.09.2019
1740 Clear 7 1014 56 10000 6.2 260 07:33 18.09.2019
1741 Clear 7 1016 56 10000 4.1 260 06:55 18.09.2019
1742 Clear 7 1016 56 10000 4.1 260 06:31 18.09.2019
1743 Clear 7 1017 56 10000 3.6 260 05:40 18.09.2019
1744 Clear 7 1019 56 10000 4.1 260 04:20 18.09.2019
1745 Clear 9 1019 88 10000 4.1 260 02:41 18.09.2019
1746 Clear 10 1019 88 10000 5.7 270 01:50 18.09.2019
1747 Clouds 11 1018 90 10000 5.7 270 00:58 18.09.2019
1748 Clouds 11 1018 90 10000 5.7 270 00:34 18.09.2019
1749 Clear 13 1018 43 10000 5.1 290 23:59 17.09.2019
1750 Clear 13 1018 43 10000 5.1 290 23:40 17.09.2019
1751 Clear 13 1018 43 10000 5.1 290 23:21 17.09.2019
1752 Clouds 13 1018 73 10000 5.1 280 22:42 17.09.2019
1753 Clouds 13 1018 73 10000 5.1 280 22:23 17.09.2019
1754 Clouds 14 1018 73 10000 5.7 290 21:54 17.09.2019
1755 Clouds 14 1018 73 10000 5.7 290 21:36 17.09.2019
1756 Clouds 14 1018 67 10000 5.7 290 21:18 17.09.2019
1757 Clouds 14 1018 67 10000 5.7 290 21:18 17.09.2019
1758 Clouds 14 1018 67 10000 5.7 290 21:18 17.09.2019
1759 Clouds 14 1018 41 10000 6.2 280 20:57 17.09.2019
1760 Clouds 14 1018 41 10000 6.2 280 20:38 17.09.2019
1761 Clouds 14 1018 41 10000 6.2 280 20:20 17.09.2019
1762 Clouds 14 1018 41 10000 6.2 280 20:20 17.09.2019
1763 Clouds 14 1018 41 10000 5.7 280 19:57 17.09.2019
1764 Clouds 14 1018 41 10000 5.7 280 19:38 17.09.2019
1765 Clouds 14 1018 41 10000 5.7 280 19:18 17.09.2019
1766 Clouds 14 1018 67 10000 5.7 270 18:43 17.09.2019
1767 Clouds 14 1018 79 10000 5.7 270 18:22 17.09.2019
1768 Clouds 13 1018 43 10000 5.1 270 17:56 17.09.2019
1769 Clouds 13 1018 43 10000 5.1 270 17:37 17.09.2019
1770 Clouds 13 1018 43 10000 5.1 270 17:18 17.09.2019
1771 Clouds 11 1018 53 10000 3.6 240 16:42 17.09.2019
1772 Clouds 11 1018 53 10000 3.6 240 16:22 17.09.2019
1773 Clouds 9 1018 61 10000 2.1 340 15:58 17.09.2019
1774 Clouds 9 1018 61 10000 2.1 340 15:37 17.09.2019
1775 Clouds 9 1018 61 10000 2.1 340 15:19 17.09.2019
1776 Clouds 9 1018 57 10000 4.1 280 14:55 17.09.2019
1777 Clouds 9 1018 57 10000 4.1 280 14:37 17.09.2019
1778 Clouds 9 1018 57 10000 4.1 280 14:18 17.09.2019
1779 Clear 9 1017 93 10000 5.7 250 13:42 17.09.2019
1780 Clear 9 1017 93 10000 5.7 250 13:23 17.09.2019
1781 Clouds 9 1017 57 10000 4.6 280 12:55 17.09.2019
1782 Clouds 9 1017 57 10000 4.6 280 12:37 17.09.2019
1783 Clouds 9 1017 57 10000 4.6 280 12:18 17.09.2019
1784 Clear 9 1018 57 10000 6.2 260 11:41 17.09.2019
1785 Clear 9 1018 57 10000 6.2 260 11:22 17.09.2019
1786 Clear 8 1017 92 10000 5.7 250 10:42 17.09.2019
1787 Clear 8 1017 92 10000 5.7 250 10:23 17.09.2019
1788 Clouds 8 1019 65 10000 5.7 270 09:59 17.09.2019
1789 Clouds 8 1019 65 10000 5.7 270 09:40 17.09.2019
1790 Clouds 8 1019 65 10000 5.7 270 09:40 17.09.2019
1791 Clouds 8 1019 65 10000 5.7 270 09:20 17.09.2019
1792 Clouds 8 1019 65 10000 5.7 270 09:20 17.09.2019
1793 Clouds 8 1020 65 10000 2.6 0 08:44 17.09.2019
1794 Clouds 8 1020 65 10000 2.6 0 08:25 17.09.2019
1795 Clouds 8 1020 65 10000 2.6 0 08:25 17.09.2019
1796 Clouds 8 1022 65 10000 3.6 270 07:55 17.09.2019
1797 Clouds 8 1022 65 10000 3.6 270 07:36 17.09.2019
1798 Clouds 8 1022 65 10000 3.6 270 07:18 17.09.2019
1799 Clouds 8 1024 65 10000 3.6 250 06:45 17.09.2019
1800 Clouds 8 1024 65 10000 3.6 250 06:19 17.09.2019
1801 Clouds 8 1025 61 10000 3.1 0 05:33 17.09.2019
1802 Clouds 8 1025 61 10000 3.6 240 04:26 17.09.2019
1803 Clouds 9 1025 57 10000 4.1 260 02:41 17.09.2019
1804 Clouds 9 1025 57 10000 3.6 240 01:55 17.09.2019
1805 Clear 10 1024 90 10000 5.7 270 00:59 17.09.2019
1806 Clear 11 1024 81 10000 6.7 270 23:57 16.09.2019
1807 Clear 11 1024 81 10000 6.7 270 23:36 16.09.2019
1808 Clear 11 1024 81 10000 6.7 270 23:36 16.09.2019
1809 Clear 11 1024 81 10000 6.7 270 23:18 16.09.2019
1810 Clouds 11 1024 43 10000 6.7 270 22:41 16.09.2019
1811 Clouds 11 1024 43 10000 6.7 270 22:23 16.09.2019
1812 Clouds 11 1025 43 10000 5.7 260 21:58 16.09.2019
1813 Clouds 11 1025 43 10000 5.7 260 21:38 16.09.2019
1814 Clouds 11 1025 43 10000 5.7 260 21:20 16.09.2019
1815 Clouds 11 1026 76 10000 6.2 270 20:55 16.09.2019
1816 Clouds 11 1026 76 10000 6.2 270 20:37 16.09.2019
1817 Clouds 11 1026 76 10000 6.2 270 20:18 16.09.2019
1818 Clouds 11 1026 76 10000 6.7 270 19:42 16.09.2019
1819 Clouds 11 1026 76 10000 6.7 270 19:21 16.09.2019
1820 Clouds 11 1026 76 10000 6.7 270 19:21 16.09.2019
1821 Mist 5 1027 76 10000 3.1 290 18:59 16.09.2019
1822 Mist 5 1027 76 10000 3.1 290 18:59 16.09.2019
1823 Mist 5 1027 76 10000 3.1 290 18:41 16.09.2019
1824 Mist 5 1027 74 10000 3.1 290 18:21 16.09.2019
1825 Mist 5 1013 100 4000 1.5 90 17:43 16.09.2019
1826 Mist 5 1013 100 4000 1.5 90 17:24 16.09.2019
1827 Clouds 7 1028 56 10000 3.1 250 16:58 16.09.2019
1828 Clouds 7 1028 56 10000 3.1 250 16:39 16.09.2019
1829 Clouds 7 1028 56 10000 3.1 250 16:21 16.09.2019
1830 Clouds 7 1028 56 10000 4.1 250 15:56 16.09.2019
1831 Clouds 7 1028 56 10000 4.1 250 15:37 16.09.2019
1832 Clouds 7 1028 56 10000 4.1 250 15:19 16.09.2019
1833 Clouds 7 1028 56 10000 5.1 260 14:56 16.09.2019
1834 Clouds 7 1028 56 10000 5.1 260 14:37 16.09.2019
1835 Clouds 7 1028 56 10000 5.1 260 14:19 16.09.2019
1836 Clear 6 1027 56 10000 4.1 250 13:39 16.09.2019
1837 Clear 6 1027 56 10000 4.1 250 13:21 16.09.2019
1838 Clouds 6 1027 56 10000 4.6 250 12:46 16.09.2019
1839 Clouds 6 1027 56 10000 4.6 250 12:27 16.09.2019
1840 Clear 6 1026 56 10000 4.6 250 11:58 16.09.2019
1841 Clear 6 1026 56 10000 4.6 250 11:39 16.09.2019
1842 Clear 6 1026 56 10000 4.6 250 11:21 16.09.2019
1843 Clear 5 1026 60 10000 4.1 240 10:39 16.09.2019
1844 Clear 5 1026 60 10000 4.1 240 10:20 16.09.2019
1845 Clear 6 1025 60 10000 4.6 250 09:58 16.09.2019
1846 Clear 6 1025 60 10000 4.6 250 09:39 16.09.2019
1847 Clear 6 1025 60 10000 4.6 250 09:19 16.09.2019
1848 Clear 5 1025 65 10000 4.1 240 08:46 16.09.2019
1849 Clear 5 1025 65 10000 4.1 240 08:26 16.09.2019
1850 Clear 5 1026 65 10000 3.1 240 07:56 16.09.2019
1851 Clear 5 1026 65 10000 3.1 240 07:56 16.09.2019
1852 Clear 5 1026 65 10000 3.1 240 07:37 16.09.2019
1853 Clear 5 1026 65 10000 3.1 240 07:19 16.09.2019
1854 Clear 4 1025 90 10000 2.6 280 06:45 16.09.2019
1855 Clear 4 1025 90 10000 2.6 280 06:26 16.09.2019
1856 Clear 4 1025 89 10000 2.1 290 05:49 16.09.2019
1857 Clear 4 1025 89 10000 2.1 290 05:29 16.09.2019
1858 Clear 5 1024 65 10000 2.6 260 04:33 16.09.2019
1859 Clear 5 1023 65 10000 3.1 240 02:33 16.09.2019
1860 Clear 7 1019 89 10000 3.1 270 00:44 16.09.2019
1861 Clear 7 1019 89 10000 3.1 270 00:25 16.09.2019
1862 Clear 9 1018 45 10000 4.6 280 23:42 15.09.2019
1863 Clear 9 1018 45 10000 4.6 280 23:21 15.09.2019
1864 Clear 9 1017 49 10000 3.6 270 22:44 15.09.2019
1865 Clear 9 1017 49 10000 3.6 270 22:23 15.09.2019
1866 Clear 9 1017 49 10000 3.6 270 22:23 15.09.2019
1867 Clear 8 1016 65 10000 3.1 250 21:59 15.09.2019
1868 Clear 8 1016 65 10000 3.1 250 21:40 15.09.2019
1869 Clear 8 1016 60 10000 3.1 250 21:22 15.09.2019
1870 Clear 7 1015 65 10000 1 0 20:59 15.09.2019
1871 Clear 7 1015 65 10000 1 0 20:41 15.09.2019
1872 Clear 7 1015 65 10000 1 0 20:23 15.09.2019
1873 Clear 6 1014 75 10000 1.5 250 19:45 15.09.2019
1874 Clear 6 1014 75 10000 1.5 250 19:25 15.09.2019
1875 Rain 4 1014 80 10000 2.6 300 18:55 15.09.2019
1876 Rain 4 1014 80 10000 2.6 300 18:36 15.09.2019
1877 Rain 4 1014 80 10000 2.6 300 18:18 15.09.2019
1878 Rain 4 1014 80 10000 2.6 300 18:18 15.09.2019
1879 Clouds 4 1012 80 10000 3.1 290 17:40 15.09.2019
1880 Clouds 4 1012 80 10000 3.1 290 17:21 15.09.2019
1881 Rain 3 1012 86 10000 4.1 260 16:44 15.09.2019
1882 Rain 3 1012 86 10000 4.1 260 16:26 15.09.2019
1883 Snow 1 1011 68 7000 1 0 15:59 15.09.2019
1884 Snow 1 1011 68 7000 1 0 15:41 15.09.2019
1885 Snow 1 1011 88 7000 1 0 15:21 15.09.2019
1886 Clouds 1 1010 88 2900 2.6 250 14:58 15.09.2019
1887 Clouds 1 1010 88 2900 2.6 250 14:40 15.09.2019
1888 Clouds 1 1010 88 2900 2.6 250 14:20 15.09.2019
1889 Clouds 1 1009 88 9000 1.5 280 13:47 15.09.2019
1890 Clouds 1 1009 90 9000 1.5 280 13:24 15.09.2019
1891 Rain 2 1008 90 10000 2.1 240 12:56 15.09.2019
1892 Rain 2 1008 90 10000 2.1 240 12:38 15.09.2019
1893 Rain 2 1008 89 10000 2.1 240 12:18 15.09.2019
1894 Clear 2 1008 80 10000 4.1 270 11:42 15.09.2019
1895 Clear 2 1008 80 10000 4.1 270 11:22 15.09.2019
1896 Clear 1 1007 89 10000 1.5 260 10:56 15.09.2019
1897 Clear 1 1007 89 10000 1.5 260 10:38 15.09.2019
1898 Clear 1 1007 89 10000 1.5 260 10:20 15.09.2019
1899 Clear 2 1006 89 10000 2.6 250 09:40 15.09.2019
1900 Clear 2 1006 87 10000 2.6 250 09:20 15.09.2019
1901 Clear 2 1006 93 10000 1 0 08:48 15.09.2019
1902 Clear 2 1006 93 10000 1 0 08:28 15.09.2019
1903 Clouds 2 1005 93 10000 0.5 0 07:51 15.09.2019
1904 Clouds 2 1005 93 10000 0.5 0 07:32 15.09.2019
1905 Rain 2 1005 93 10000 1.5 270 06:43 15.09.2019
1906 Rain 3 1003 93 10000 2.6 270 03:32 15.09.2019
1907 Rain 4 1002 93 8000 1.5 0 02:42 15.09.2019
1908 Rain 5 1002 80 10000 2.6 250 01:45 15.09.2019
1909 Rain 5 1002 80 10000 2.6 250 01:45 15.09.2019
1910 Rain 5 1002 80 10000 2.6 250 01:27 15.09.2019
1911 Rain 6 1002 75 10000 3.1 230 00:46 15.09.2019
1912 Rain 6 1002 75 10000 3.1 230 00:24 15.09.2019
1913 Rain 7 1002 70 10000 3.6 260 23:58 14.09.2019
1914 Rain 7 1002 70 10000 3.6 260 23:40 14.09.2019
1915 Rain 7 1002 70 10000 3.6 260 23:21 14.09.2019
1916 Rain 6 1003 75 10000 4.6 260 22:59 14.09.2019
1917 Rain 6 1003 75 10000 4.6 260 22:40 14.09.2019
1918 Rain 6 1003 75 10000 4.6 260 22:21 14.09.2019
1919 Rain 7 1004 75 10000 5.1 240 21:56 14.09.2019
1920 Rain 7 1004 75 10000 5.1 240 21:38 14.09.2019
1921 Rain 7 1004 75 10000 5.1 240 21:19 14.09.2019
1922 Clear 10 1004 53 10000 3.1 250 20:40 14.09.2019
1923 Clear 10 1004 53 10000 3.1 250 20:22 14.09.2019
1924 Clear 9 1005 57 10000 3.1 260 19:59 14.09.2019
1925 Clear 9 1005 57 10000 3.1 260 19:59 14.09.2019
1926 Clear 9 1005 57 10000 3.1 260 19:40 14.09.2019
1927 Clear 9 1005 57 10000 3.1 260 19:20 14.09.2019
1928 Clear 9 1006 61 10000 2.6 0 18:42 14.09.2019
1929 Clear 9 1006 61 10000 2.6 0 18:21 14.09.2019
1930 Rain 8 1007 70 10000 3.1 290 17:58 14.09.2019
1931 Rain 8 1007 70 10000 3.1 290 17:39 14.09.2019
1932 Rain 8 1007 70 10000 3.1 290 17:21 14.09.2019
1933 Rain 8 1007 65 10000 3.1 260 16:44 14.09.2019
1934 Rain 8 1007 65 10000 3.1 260 16:22 14.09.2019
1935 Clear 8 1008 65 10000 2.6 250 15:56 14.09.2019
1936 Clear 8 1008 65 10000 2.6 250 15:36 14.09.2019
1937 Clear 8 1008 65 10000 2.6 250 15:18 14.09.2019
1938 Clear 8 1007 61 10000 2.6 250 14:42 14.09.2019
1939 Clear 8 1007 61 10000 2.6 250 14:19 14.09.2019
1940 Clear 8 1007 61 10000 2.6 250 14:19 14.09.2019
1941 Clear 8 1007 61 10000 2.6 250 14:19 14.09.2019
1942 Clear 6 1008 87 10000 1 0 13:47 14.09.2019
1943 Clear 6 1008 87 10000 1 0 13:22 14.09.2019
1944 Clear 6 1008 87 10000 1 0 13:22 14.09.2019
1945 Clear 6 1008 87 10000 1.5 290 12:48 14.09.2019
1946 Clear 6 1008 87 10000 1.5 290 12:26 14.09.2019
1947 Rain 6 1009 93 10000 0.5 0 11:42 14.09.2019
1948 Rain 6 1009 93 10000 0.5 0 11:42 14.09.2019
1949 Rain 6 1009 93 10000 0.5 0 11:21 14.09.2019
1950 Rain 6 1009 93 10000 1 0 10:57 14.09.2019
1951 Rain 6 1009 93 10000 1 0 10:36 14.09.2019
1952 Rain 6 1009 93 10000 1 0 10:36 14.09.2019
1953 Rain 6 1009 93 10000 1 0 10:36 14.09.2019
1954 Rain 6 1009 93 10000 1 0 10:18 14.09.2019
1955 Rain 6 1010 93 10000 1 0 09:55 14.09.2019
1956 Rain 6 1010 93 10000 1 0 09:37 14.09.2019
1957 Rain 6 1010 93 10000 1 0 09:18 14.09.2019
1958 Rain 6 1011 93 10000 1.5 270 08:41 14.09.2019
1959 Rain 6 1011 93 10000 1.5 270 08:22 14.09.2019
1960 Clouds 6 1011 93 10000 2.28 308.793 07:43 14.09.2019
1961 Clouds 6 1011 93 10000 2.28 308.793 07:23 14.09.2019
1962 -273 0 0 0 0 0 06:36 14.09.2019
1963 Clouds 7 1013 87 10000 1 0 05:55 14.09.2019
1964 Clouds 8 1013 81 7000 1.91 301.236 04:34 14.09.2019
1965 Clouds 8 1013 81 7000 0.5 0 03:25 14.09.2019
1966 Clouds 8 1013 81 10000 0.5 0 02:48 14.09.2019
1967 Clouds 10 1013 66 10000 1.5 0 01:45 14.09.2019
1968 Clouds 10 1013 66 10000 1.5 0 01:19 14.09.2019
1969 Clouds 10 1013 66 10000 1.5 0 00:40 14.09.2019
1970 Rain 10 1013 66 10000 1.5 0 00:21 14.09.2019
1971 Clouds 11 1013 66 10000 2.6 0 23:55 13.09.2019
1972 Clouds 11 1013 66 10000 2.6 0 23:55 13.09.2019
1973 Clouds 11 1013 66 10000 2.6 0 23:36 13.09.2019
1974 Clouds 11 1013 66 10000 2.6 0 23:18 13.09.2019
1975 Rain 11 1013 71 10000 2.6 280 22:40 13.09.2019
1976 Rain 11 1013 71 10000 2.6 280 22:22 13.09.2019
1977 Clouds 11 1013 71 10000 2.1 250 21:58 13.09.2019
1978 Clouds 11 1013 71 10000 2.1 250 21:38 13.09.2019
1979 Clouds 11 1013 71 10000 2.1 250 21:19 13.09.2019
1980 Clouds 11 1013 76 10000 1 0 20:57 13.09.2019
1981 Clouds 11 1013 76 10000 1 0 20:37 13.09.2019
1982 Clouds 11 1013 76 10000 1 0 20:18 13.09.2019
1983 Rain 10 1014 81 9000 1.5 310 19:44 13.09.2019
1984 Rain 10 1014 81 9000 1.5 310 19:22 13.09.2019
1985 Clouds 9 1014 81 10000 1.5 280 18:58 13.09.2019
1986 Clouds 9 1014 81 10000 1.5 280 18:38 13.09.2019
1987 Clouds 9 1014 81 10000 1.5 280 18:19 13.09.2019
1988 Rain 8 1015 87 7000 1 0 17:44 13.09.2019
1989 Rain 8 1015 87 7000 1 0 17:21 13.09.2019
1990 Rain 7 1015 93 5000 0.5 0 16:56 13.09.2019
1991 Rain 7 1015 93 5000 0.5 0 16:37 13.09.2019
1992 Rain 7 1015 93 5000 0.5 0 16:18 13.09.2019
1993 Rain 6 1015 100 4000 0.91 310.554 15:41 13.09.2019
1994 Rain 6 1015 100 4000 1.28 344.545 15:23 13.09.2019
1995 Rain 5 1015 100 2000 1.28 344.545 14:44 13.09.2019
1996 Rain 5 1015 100 2000 1.28 344.545 14:23 13.09.2019
1997 Rain 5 1015 100 6000 1.28 344.545 13:59 13.09.2019
1998 Rain 5 1015 100 6000 1.28 344.545 13:40 13.09.2019
1999 Rain 5 1015 100 6000 1.21 324.363 13:21 13.09.2019
2000 Rain 5 1015 100 5000 1.21 324.363 12:44 13.09.2019
2001 Rain 5 1015 100 5000 2.22 335.806 12:24 13.09.2019
2002 Rain 5 1015 100 6000 0.5 280 11:57 13.09.2019
2003 Rain 5 1015 100 6000 0.5 280 11:20 13.09.2019
2004 Rain 6 1015 93 4500 2.22 335.806 10:41 13.09.2019
2005 Rain 6 1015 93 4500 2.22 335.806 10:21 13.09.2019
2006 Rain 6 1015 93 4500 2.22 335.806 10:21 13.09.2019
2007 Rain 6 1015 93 4500 2.22 335.806 10:21 13.09.2019
2008 Rain 6 1016 93 8000 2.22 335.806 09:54 13.09.2019
2009 Rain 6 1016 93 8000 2.22 335.806 09:36 13.09.2019
2010 Rain 6 1016 93 8000 2.22 335.806 09:36 13.09.2019
2011 Rain 6 1016 93 8000 1.56 337.052 09:18 13.09.2019
2012 Rain 5 1017 100 9000 2.11 344.981 08:41 13.09.2019
2013 Rain 5 1017 100 9000 2.11 344.981 08:21 13.09.2019
2014 Mist 6 1017 93 5000 0.5 0 07:57 13.09.2019
2015 Mist 6 1017 93 5000 0.5 0 07:39 13.09.2019
2016 Rain 6 1017 100 6000 0.5 0 06:49 13.09.2019
2017 Rain 6 1018 93 8000 1 0 05:50 13.09.2019
2018 Rain 6 1018 93 8000 1 0 05:26 13.09.2019
2019 Mist 6 1018 100 5000 1.77 317.593 03:42 13.09.2019
2020 Clear 7 1018 93 10000 1 0 02:50 13.09.2019
2021 Clear 7 1018 93 10000 1 0 02:19 13.09.2019
2022 Clear 7 1018 93 10000 0.5 0 01:35 13.09.2019
2023 Clear 7 1018 93 10000 0.5 0 01:35 13.09.2019
2024 Clear 7 1018 93 10000 0.5 0 01:35 13.09.2019
2025 Rain 8 1018 87 8000 0.5 0 00:59 13.09.2019
2026 Rain 8 1018 87 8000 0.5 0 00:33 13.09.2019
2027 Rain 8 1018 87 10000 0.5 0 23:42 12.09.2019
2028 Rain 8 1018 87 10000 0.5 0 23:22 12.09.2019
2029 Rain 8 1019 87 7000 1 280 22:44 12.09.2019
2030 Rain 8 1019 87 7000 1 280 22:25 12.09.2019
2031 Rain 8 1019 87 7000 1 0 21:58 12.09.2019
2032 Rain 8 1019 87 7000 1 0 21:39 12.09.2019
2033 Rain 8 1019 87 7000 1 0 21:39 12.09.2019
2034 Rain 8 1019 87 7000 1 0 21:20 12.09.2019
2035 Rain 8 1020 81 7000 1 0 20:57 12.09.2019
2036 Rain 8 1020 81 7000 1 0 20:39 12.09.2019
2037 Rain 8 1020 81 7000 1 0 20:20 12.09.2019
2038 Rain 8 1021 81 7000 1 0 19:54 12.09.2019
2039 Rain 8 1021 81 7000 1 0 19:36 12.09.2019
2040 Rain 8 1021 81 7000 1 0 19:18 12.09.2019
2041 Rain 7 1021 87 8000 0.5 0 18:38 12.09.2019
2042 Rain 7 1021 87 8000 0.5 0 18:38 12.09.2019
2043 Rain 7 1021 87 8000 0.5 0 18:19 12.09.2019
2044 Rain 6 1022 87 7000 0.59 352.743 17:56 12.09.2019
2045 Rain 6 1022 87 7000 0.59 352.743 17:38 12.09.2019
2046 Rain 6 1022 87 7000 0.59 352.743 17:19 12.09.2019
2047 Rain 6 1022 87 6000 0.5 0 16:42 12.09.2019
2048 Rain 6 1022 87 6000 0.5 0 16:22 12.09.2019
2049 Rain 5 1022 93 6000 0.59 352.743 15:45 12.09.2019
2050 Rain 5 1022 93 6000 0.59 352.743 15:27 12.09.2019
2051 Rain 4 1022 100 6000 2.11 5.962 14:58 12.09.2019
2052 Rain 4 1022 100 6000 2.11 5.962 14:40 12.09.2019
2053 Rain 4 1022 100 6000 2.11 5.962 14:40 12.09.2019
2054 Rain 4 1022 100 6000 2.11 5.962 14:20 12.09.2019
2055 Rain 4 1021 93 8000 2.11 5.962 13:39 12.09.2019
2056 Rain 4 1021 93 8000 1.85 20.476 13:21 12.09.2019
2057 Rain 4 1021 93 10000 1.85 20.476 12:49 12.09.2019
2058 Rain 4 1021 93 10000 2.21 11.554 12:20 12.09.2019
2059 Rain 5 1021 86 10000 2.21 11.554 11:58 12.09.2019
2060 Rain 5 1021 86 10000 2.21 11.554 11:40 12.09.2019
2061 Rain 5 1021 86 10000 2.21 11.554 11:21 12.09.2019
2062 Rain 5 1021 86 10000 2.21 11.554 10:50 12.09.2019
2063 Rain 5 1021 86 10000 2.21 11.554 10:28 12.09.2019
2064 Rain 5 1021 86 10000 1 0 09:57 12.09.2019
2065 Rain 5 1021 86 10000 1 0 09:39 12.09.2019
2066 Rain 5 1021 86 10000 1 0 09:19 12.09.2019
2067 Clouds 6 1022 75 10000 1.5 310 08:44 12.09.2019
2068 Clouds 6 1022 75 10000 1.5 310 08:23 12.09.2019
2069 Clouds 7 1021 65 10000 1 0 07:47 12.09.2019
2070 Clouds 7 1021 65 10000 1 0 07:21 12.09.2019
2071 Clouds 7 1021 65 10000 1 0 07:21 12.09.2019
2072 Clouds 7 1021 65 10000 1 0 07:21 12.09.2019
2073 Clouds 7 1021 65 10000 4.1 260 06:52 12.09.2019
2074 Clouds 7 1021 65 10000 4.1 260 06:52 12.09.2019
2075 Clouds 7 1021 65 10000 4.1 260 06:32 12.09.2019
2076 Clouds 7 1021 65 10000 2.1 0 05:54 12.09.2019
2077 Clouds 7 1021 65 10000 2.1 0 05:36 12.09.2019
2078 Clouds 7 1021 94 10000 2.6 0 04:45 12.09.2019
2079 Clear 7 1021 88 10000 4.1 250 03:23 12.09.2019
2080 Clear 7 1021 89 10000 3.6 270 01:43 12.09.2019
2081 Clear 7 1021 89 10000 3.6 270 01:22 12.09.2019
2082 Clouds 8 1020 52 10000 4.1 260 00:45 12.09.2019
2083 Clouds 8 1020 52 10000 4.1 260 00:27 12.09.2019
2084 Clear 9 1019 45 10000 4.6 260 23:43 11.09.2019
2085 Clear 9 1019 45 10000 4.6 260 23:25 11.09.2019
2086 Clouds 10 1018 34 10000 5.7 260 22:57 11.09.2019
2087 Clouds 10 1018 34 10000 5.7 260 22:38 11.09.2019
2088 Clouds 10 1018 34 10000 5.7 260 22:19 11.09.2019
2089 Clear 11 1019 29 10000 5.7 270 21:57 11.09.2019
2090 Clear 11 1019 29 10000 5.7 270 21:38 11.09.2019
2091 -273 0 0 0 0 0 21:38 11.09.2019
2092 Clear 11 1019 29 10000 5.7 270 21:19 11.09.2019
2093 Clear 11 1019 23 10000 5.7 270 20:54 11.09.2019
2094 Clear 11 1019 23 10000 5.7 270 20:36 11.09.2019
2095 Clear 11 1019 23 10000 5.7 270 20:18 11.09.2019
2096 Clear 11 1020 21 10000 3.6 270 19:54 11.09.2019
2097 Clear 11 1020 21 10000 3.6 270 19:36 11.09.2019
2098 Clear 11 1020 21 10000 3.6 270 19:18 11.09.2019
2099 Clear 9 1020 26 10000 2.1 0 18:41 11.09.2019
2100 Clear 9 1020 26 10000 2.1 0 18:22 11.09.2019
2101 Clear 7 1021 39 10000 3.6 310 17:57 11.09.2019
2102 Clear 7 1021 39 10000 3.6 310 17:38 11.09.2019
2103 Clear 7 1021 39 10000 3.6 310 17:20 11.09.2019
2104 Clear 3 1021 69 10000 1.5 280 16:49 11.09.2019
2105 Clear 3 1021 69 10000 1.5 280 16:27 11.09.2019
2106 Clouds 0 1022 54 10000 1.5 310 15:59 11.09.2019
2107 Clouds 0 1022 54 10000 1.5 310 15:41 11.09.2019
2108 Clear 0 1022 76 10000 1.5 310 15:20 11.09.2019
2109 Mist -2 1022 92 9000 1.5 280 14:56 11.09.2019
2110 Mist -2 1022 92 9000 1.5 280 14:56 11.09.2019
2111 Mist -2 1022 92 9000 1.5 280 14:37 11.09.2019
2112 Mist -2 1022 92 9000 1.5 280 14:18 11.09.2019
2113 Clear -3 1022 92 8000 1 0 13:39 11.09.2019
2114 Clear -3 1022 92 8000 1 0 13:20 11.09.2019
2115 Clear -3 1022 100 10000 1 0 12:59 11.09.2019
2116 Clear -3 1022 100 10000 1 0 12:38 11.09.2019
2117 Clear -3 1022 100 10000 1 0 12:20 11.09.2019
2118 Clear -2 1022 92 10000 1 0 11:39 11.09.2019
2119 Clear -2 1022 92 10000 1 0 11:21 11.09.2019
2120 Clear -3 1022 92 10000 0.5 0 10:57 11.09.2019
2121 Clear -3 1022 92 10000 0.5 0 10:38 11.09.2019
2122 Clear -3 1022 92 10000 0.5 0 10:19 11.09.2019
2123 Clear -2 1023 92 10000 1 270 09:39 11.09.2019
2124 Clear -2 1023 92 10000 1 270 09:20 11.09.2019
2125 Clear -2 1024 92 10000 1 270 08:55 11.09.2019
2126 Clear -2 1024 92 10000 1 270 08:55 11.09.2019
2127 Clear -2 1024 92 10000 1 270 08:37 11.09.2019
2128 Clear -2 1024 92 10000 1 270 08:19 11.09.2019
2129 Clear -2 1024 92 8000 2.27 306.658 07:40 11.09.2019
2130 Clear -2 1024 92 8000 2.27 306.658 07:21 11.09.2019
2131 Clear -2 1024 92 10000 1 0 06:46 11.09.2019
2132 Clear -2 1024 92 10000 1 0 06:24 11.09.2019
2133 Clear 0 1024 80 10000 1 0 05:36 11.09.2019
2134 Clear 0 1024 80 10000 1 0 05:18 11.09.2019
2135 Clear 0 1025 80 10000 0.5 0 04:22 11.09.2019
2136 Clear 0 1024 80 10000 2.39 312.333 03:29 11.09.2019
2137 Clear 1 1024 80 10000 2.28 331.07 02:37 11.09.2019
2138 Clear 3 1024 69 10000 0.5 0 01:33 11.09.2019
2139 Clear 7 1024 48 10000 1 0 00:40 11.09.2019
2140 Clear 7 1024 48 10000 1 0 00:20 11.09.2019
2141 Clear 7 1024 48 10000 1 0 00:20 11.09.2019
2142 Clear 11 1023 27 10000 1 0 23:40 10.09.2019
2143 Clear 11 1023 27 10000 1 0 23:22 10.09.2019
2144 Clear 11 1023 27 10000 1 0 23:22 10.09.2019
2145 Clear 10 1024 31 10000 2.1 90 22:57 10.09.2019
2146 Clear 10 1024 31 10000 2.1 90 22:37 10.09.2019
2147 Clear 10 1024 31 10000 2.1 90 22:18 10.09.2019
2148 Clear 10 1024 31 10000 4.1 100 21:54 10.09.2019
2149 Clear 10 1024 31 10000 4.1 100 21:36 10.09.2019
2150 Clear 10 1024 31 10000 4.1 100 21:18 10.09.2019
2151 Clear 10 1025 34 10000 3.6 100 20:55 10.09.2019
2152 Clear 10 1025 34 10000 3.6 100 20:37 10.09.2019
2153 Clear 10 1025 34 10000 3.6 100 20:18 10.09.2019
2154 Clear 9 1026 34 10000 5.1 100 19:55 10.09.2019
2155 Clear 9 1026 34 10000 5.1 100 19:55 10.09.2019
2156 Clear 9 1026 34 10000 5.1 100 19:55 10.09.2019
2157 Clear 9 1026 34 10000 5.1 100 19:36 10.09.2019
2158 Clear 9 1026 34 10000 5.1 100 19:18 10.09.2019
2159 Clear 9 1026 34 10000 5.1 100 19:18 10.09.2019
2160 Clear 8 1027 39 10000 5.1 100 18:42 10.09.2019
2161 Clear 8 1027 39 10000 5.1 100 18:22 10.09.2019
2162 Clear 7 1028 42 10000 3.6 0 17:56 10.09.2019
2163 Clear 7 1028 42 10000 3.6 0 17:38 10.09.2019
2164 Clear 7 1028 42 10000 3.6 0 17:19 10.09.2019
2165 Clear 3 1027 58 0 0.98 84.975 16:56 10.09.2019
2166 Clear 3 1027 58 0 0.98 84.975 16:37 10.09.2019
2167 Clear 1 1029 80 10000 1 340 16:19 10.09.2019
2168 Clear 1 1029 80 10000 1 340 15:43 10.09.2019
2169 Clear 1 1029 80 10000 1 340 15:22 10.09.2019
2170 Clear 1 1029 80 10000 1 340 15:22 10.09.2019
2171 Clear -3 1029 100 10000 1 0 14:55 10.09.2019
2172 Clear -3 1029 100 10000 1 0 14:37 10.09.2019
2173 Clear -3 1029 100 10000 1 0 14:19 10.09.2019
2174 Clear -3 1029 100 10000 1 0 14:19 10.09.2019
2175 Clear -3 1028 92 8000 0.97 333.752 13:44 10.09.2019
2176 Clear -3 1028 92 8000 0.76 327.875 13:22 10.09.2019
2177 Clear -2 1028 92 10000 0.76 327.875 12:50 10.09.2019
2178 Clear -2 1028 92 10000 0.76 327.875 12:28 10.09.2019
2179 Clear -2 1028 100 9000 0.47 204.474 11:58 10.09.2019
2180 Clear -2 1028 100 9000 0.47 204.474 11:39 10.09.2019
2181 Clear -2 1028 100 9000 0.47 204.474 11:21 10.09.2019
2182 Mist -1 1027 92 6000 0.47 204.474 10:42 10.09.2019
2183 Mist -1 1027 92 6000 0.47 204.474 10:20 10.09.2019
2184 Clear 0 1027 88 10000 1 0 09:57 10.09.2019
2185 Clear 0 1027 88 10000 1 0 09:39 10.09.2019
2186 Clear 0 1027 89 10000 1 0 09:19 10.09.2019
2187 Mist 1 1027 92 6000 0.5 0 08:45 10.09.2019
2188 Mist 1 1027 92 6000 0.5 0 08:26 10.09.2019
2189 Mist 2 1027 93 6000 0.5 0 07:46 10.09.2019
2190 Mist 2 1027 93 6000 0.5 0 07:27 10.09.2019
2191 Mist 3 1026 93 7000 0.5 0 06:53 10.09.2019
2192 Mist 3 1026 93 7000 0.5 0 06:35 10.09.2019
2193 Clear 3 1026 93 9000 1 0 05:27 10.09.2019
2194 Clouds 4 1025 93 10000 1 0 03:57 10.09.2019
2195 Clouds 4 1025 93 10000 1 0 03:57 10.09.2019
2196 Clear 5 1024 80 10000 1.47 232.598 02:24 10.09.2019
2197 Rain 6 1022 75 10000 1 0 01:58 10.09.2019
2198 Rain 6 1022 75 10000 1 0 01:58 10.09.2019
2199 Rain 6 1022 75 10000 1 0 01:58 10.09.2019
2200 Rain 6 1022 75 10000 1 0 01:58 10.09.2019
2201 Rain 6 1022 75 10000 1 0 01:40 10.09.2019
2202 Rain 6 1022 75 10000 1 0 01:20 10.09.2019
2203 Clear 8 1021 91 10000 3.6 300 00:25 10.09.2019
2204 Clear 10 1020 75 10000 1.5 0 23:47 09.09.2019
2205 Clear 10 1020 75 10000 1.5 0 23:20 09.09.2019
2206 Clouds 11 1019 75 10000 4.6 280 22:57 09.09.2019
2207 Clouds 11 1019 75 10000 4.6 280 22:39 09.09.2019
2208 Clouds 11 1019 75 10000 4.6 280 22:39 09.09.2019
2209 Clouds 11 1019 75 10000 4.6 280 22:20 09.09.2019
2210 Clouds 12 1018 40 10000 4.1 280 21:57 09.09.2019
2211 Clouds 12 1018 40 10000 4.1 280 21:39 09.09.2019
2212 Clouds 12 1018 40 10000 4.1 280 21:20 09.09.2019
2213 Clouds 12 1018 40 10000 4.6 270 20:56 09.09.2019
2214 Clouds 12 1018 40 10000 4.6 270 20:37 09.09.2019
2215 Clouds 12 1018 40 10000 4.6 270 20:19 09.09.2019
2216 Clouds 12 1018 40 10000 4.6 270 20:19 09.09.2019
2217 Clouds 12 1019 46 10000 5.1 280 19:58 09.09.2019
2218 Clouds 12 1019 46 10000 5.1 280 19:39 09.09.2019
2219 Clouds 12 1019 46 10000 5.1 280 19:19 09.09.2019
2220 Clouds 11 1019 53 10000 2.1 0 18:57 09.09.2019
2221 Clouds 11 1019 53 10000 2.1 0 18:39 09.09.2019
2222 Clouds 11 1019 53 10000 2.1 0 18:20 09.09.2019
2223 Rain 9 1019 66 10000 1.5 0 17:57 09.09.2019
2224 Rain 9 1019 66 10000 1.5 0 17:39 09.09.2019
2225 Rain 9 1019 66 10000 1.5 0 17:20 09.09.2019
2226 Rain 7 1019 75 10000 1.5 270 16:55 09.09.2019
2227 Rain 7 1019 75 10000 1.5 270 16:37 09.09.2019
2228 Rain 7 1019 75 10000 1.5 270 16:37 09.09.2019
2229 Rain 7 1019 75 10000 1.5 270 16:18 09.09.2019
2230 Clouds 7 1018 75 10000 1 0 15:44 09.09.2019
2231 Clouds 7 1018 75 10000 1 0 15:24 09.09.2019
2232 Clouds 4 1018 93 10000 1.5 240 14:58 09.09.2019
2233 Clouds 4 1018 93 10000 1.5 240 14:40 09.09.2019
2234 Clouds 4 1018 93 10000 1.5 240 14:21 09.09.2019
2235 Clouds 2 1019 84 0 1.08 345.899 13:55 09.09.2019
2236 Clouds 2 1019 84 0 1.08 345.899 13:37 09.09.2019
2237 Clouds 2 1019 86 0 0.93 351.679 13:18 09.09.2019
2238 Clouds 2 1019 86 0 0.93 351.679 12:42 09.09.2019
2239 Clouds 0 1017 93 0 1.13 309.493 12:22 09.09.2019
2240 Clouds 0 1017 93 0 1.13 309.493 11:59 09.09.2019
2241 Clouds 0 1017 93 0 1.13 309.493 11:40 09.09.2019
2242 Clouds 0 1017 93 0 1.13 309.493 11:18 09.09.2019
2243 Clouds 0 1017 93 0 1.13 309.493 10:42 09.09.2019
2244 Clouds 0 1017 93 0 1.13 309.493 10:24 09.09.2019
2245 Clouds 0 1017 93 0 1.13 309.493 09:59 09.09.2019
2246 Clouds 0 1017 93 0 1.13 309.493 09:40 09.09.2019
2247 Clouds -1 1016 90 0 1.77 292.875 09:21 09.09.2019
2248 Clouds 0 1016 91 0 1.65 290.165 08:39 09.09.2019
2249 Clouds 0 1016 91 0 1.65 290.165 08:21 09.09.2019
2250 Clouds 0 1016 91 0 1.65 290.165 07:58 09.09.2019
2251 Clouds 0 1016 91 0 1.65 290.165 07:39 09.09.2019
2252 Clouds 0 1016 91 0 1.65 290.165 07:20 09.09.2019
2253 Clouds 0 1016 91 0 1.65 290.165 06:46 09.09.2019
2254 Clouds 0 1014 90 0 1.76 306.291 05:37 09.09.2019
2255 Clouds 1 1013 89 0 2.1 289.806 02:59 09.09.2019
2256 Clouds 1 1013 89 0 2.1 289.806 02:41 09.09.2019
2257 Clouds 1 1013 90 0 1.98 290.356 01:20 09.09.2019
2258 Rain 4 1010 85 0 1.92 275.826 00:23 09.09.2019
2259 Rain 4 1010 85 0 1.92 275.826 23:46 08.09.2019
2260 Rain 4 1010 85 0 1.92 275.826 23:27 08.09.2019
2261 Rain 4 1010 85 0 1.92 275.826 22:59 08.09.2019
2262 Rain 4 1010 85 0 1.92 275.826 22:38 08.09.2019
2263 Rain 4 1010 85 0 1.92 275.826 22:20 08.09.2019
2264 Rain 4 1010 85 0 1.92 275.826 21:57 08.09.2019
2265 Rain 4 1010 85 0 1.92 275.826 21:38 08.09.2019
2266 Rain 4 1010 85 0 1.92 275.826 21:38 08.09.2019
2267 Clouds 6 1010 73 0 2.7 310.004 21:20 08.09.2019
2268 Clouds 6 1010 73 0 2.7 310.004 20:40 08.09.2019
2269 Clouds 6 1010 67 0 2.23 320.779 20:22 08.09.2019
2270 Clouds 6 1010 67 0 2.23 320.779 19:59 08.09.2019
2271 Clouds 6 1010 67 0 2.23 320.779 19:39 08.09.2019
2272 Clouds 6 1010 67 0 2.23 320.779 19:21 08.09.2019
2273 Clouds 6 1010 67 0 2.23 320.779 18:58 08.09.2019
2274 Clouds 6 1010 67 0 2.23 320.779 18:39 08.09.2019
2275 Clouds 5 1011 66 0 2.14 342.487 18:19 08.09.2019
2276 Clouds 5 1011 66 0 2.14 342.487 18:19 08.09.2019
2277 Clouds 5 1011 66 0 2.14 342.487 17:57 08.09.2019
2278 Clouds 5 1011 66 0 2.14 342.487 17:37 08.09.2019
2279 Clouds 5 1011 66 0 2.14 342.487 17:18 08.09.2019
2280 Clouds 5 1011 66 0 2.14 342.487 16:45 08.09.2019
2281 Clear 4 1011 80 10000 0.5 0 16:22 08.09.2019
2282 Clear 4 1011 80 10000 0.5 0 15:59 08.09.2019
2283 Clear 4 1011 80 10000 0.5 0 15:40 08.09.2019
2284 Clear 4 1011 80 10000 0.5 0 15:21 08.09.2019
2285 Clouds 3 1011 86 10000 1 60 14:57 08.09.2019
2286 Clouds 3 1011 86 10000 1 60 14:57 08.09.2019
2287 Clouds 3 1011 86 10000 1 60 14:38 08.09.2019
2288 Clouds 3 1011 86 10000 1 60 14:20 08.09.2019
2289 Clear 3 1011 93 10000 2.1 70 13:56 08.09.2019
2290 Clear 3 1011 93 10000 2.1 70 13:37 08.09.2019
2291 Clear 3 1011 93 10000 2.1 70 13:19 08.09.2019
2292 Clear 3 1012 86 10000 1.63 328.735 12:42 08.09.2019
2293 Clear 3 1012 86 10000 1.63 328.735 12:42 08.09.2019
2294 Clear 3 1012 86 10000 1.63 328.735 12:42 08.09.2019
2295 Clear 3 1012 86 10000 1.4 338.381 12:23 08.09.2019
2296 Clear 3 1012 86 10000 0.5 0 11:58 08.09.2019
2297 Clear 3 1012 86 10000 0.5 0 11:39 08.09.2019
2298 Clear 3 1012 86 10000 0.5 0 11:20 08.09.2019
2299 Clear 4 1013 80 10000 1 0 10:57 08.09.2019
2300 Clear 4 1013 80 10000 1 0 10:57 08.09.2019
2301 Clear 4 1013 80 10000 1 0 10:39 08.09.2019
2302 Clear 4 1013 80 10000 1 0 10:21 08.09.2019
2303 Clear 4 1013 80 10000 1 0 09:38 08.09.2019
2304 Clear 4 1013 80 10000 1 0 09:20 08.09.2019
2305 Clear 3 1014 86 10000 2.27 316.699 08:56 08.09.2019
2306 Clear 3 1014 86 10000 2.11 312.382 08:37 08.09.2019
2307 Clear 3 1014 86 10000 2.11 312.382 08:18 08.09.2019
2308 Clouds 3 1015 91 7000 2.11 312.382 07:39 08.09.2019
2309 Clouds 3 1015 91 7000 2.11 312.382 07:20 08.09.2019
2310 Clear 4 1016 80 10000 0.5 0 06:47 08.09.2019
2311 Clear 4 1016 80 10000 0.5 0 06:18 08.09.2019
2312 Clear 4 1017 89 10000 2.58 296.446 05:36 08.09.2019
2313 Clear 8 1017 89 10000 1.5 250 03:53 08.09.2019
2314 Clear 9 1017 86 10000 2.6 260 02:54 08.09.2019
2315 Clear 9 1017 86 10000 2.6 260 02:26 08.09.2019
2316 Clear 9 1017 61 10000 3.6 280 01:35 08.09.2019
2317 Clear 9 1017 61 10000 3.6 280 01:35 08.09.2019
2318 Clouds 10 1016 57 10000 1.5 210 00:57 08.09.2019
2319 Clouds 10 1016 57 10000 1.5 210 00:37 08.09.2019
2320 Clouds 10 1016 57 10000 1.5 210 00:19 08.09.2019
2321 Clouds 11 1016 50 10000 1.5 0 23:38 07.09.2019
2322 Clouds 11 1016 50 10000 1.5 0 23:19 07.09.2019
2323 Clouds 11 1016 53 10000 2.1 290 22:57 07.09.2019
2324 Clouds 11 1016 53 10000 2.1 290 22:37 07.09.2019
2325 Clouds 11 1016 53 10000 2.1 290 22:18 07.09.2019
2326 Clear 12 1016 46 10000 2.1 280 21:40 07.09.2019
2327 Clear 12 1016 46 10000 2.1 280 21:22 07.09.2019
2328 Clear 12 1016 46 10000 2.1 280 21:22 07.09.2019
2329 Clear 12 1017 55 10000 2.6 270 20:42 07.09.2019
2330 Clear 12 1017 55 10000 2.6 270 20:22 07.09.2019
2331 Clear 12 1018 46 10000 1.5 340 19:58 07.09.2019
2332 Clear 12 1018 46 10000 1.5 340 19:39 07.09.2019
2333 Clear 12 1018 46 10000 1.5 340 19:21 07.09.2019
2334 Clear 11 1018 55 10000 1.5 290 18:59 07.09.2019
2335 Clear 11 1018 55 10000 1.5 290 18:40 07.09.2019
2336 Clear 11 1018 58 10000 1.5 290 18:21 07.09.2019
2337 Clear 9 1019 57 10000 1 0 17:59 07.09.2019
2338 Clear 9 1019 57 10000 1 0 17:39 07.09.2019
2339 Clear 9 1019 57 10000 1 0 17:39 07.09.2019
2340 Clear 9 1019 57 10000 1 0 17:18 07.09.2019
2341 Clear 7 1019 70 10000 1.5 0 16:57 07.09.2019
2342 Clear 7 1019 70 10000 1.5 0 16:57 07.09.2019
2343 Clear 7 1019 70 10000 1.5 0 16:39 07.09.2019
2344 Clear 7 1019 70 10000 1.5 0 16:19 07.09.2019
2345 Clear 4 1019 86 10000 2.1 80 15:45 07.09.2019
2346 Clear 4 1019 86 10000 2.1 80 15:26 07.09.2019
2347 Mist 3 1019 93 3500 1 300 14:57 07.09.2019
2348 Mist 3 1019 93 3500 1 300 14:57 07.09.2019
2349 Mist 3 1019 93 3500 1 300 14:37 07.09.2019
2350 Mist 3 1019 93 3500 1 300 14:18 07.09.2019
2351 Clear 2 1019 93 10000 1.66 307.573 13:56 07.09.2019
2352 Clear 2 1019 93 10000 1.66 307.573 13:37 07.09.2019
2353 Clear 2 1019 93 10000 1.5 305.507 13:19 07.09.2019
2354 Clear 3 1019 93 9000 1.5 305.507 12:43 07.09.2019
2355 Clear 3 1019 93 9000 1.47 300.054 12:24 07.09.2019
2356 Clear 3 1018 86 10000 1.47 300.054 11:41 07.09.2019
2357 Clear 3 1018 86 10000 1.47 300.054 11:22 07.09.2019
2358 Clear 3 1018 86 8000 1.47 300.054 10:58 07.09.2019
2359 Clear 3 1018 86 8000 1.47 300.054 10:37 07.09.2019
2360 Clear 3 1018 86 8000 1.47 300.054 10:19 07.09.2019
2361 Mist 3 1018 86 7000 1.47 300.054 09:43 07.09.2019
2362 Mist 3 1018 86 7000 1.85 299.442 09:23 07.09.2019
2363 Clear 4 1018 86 7000 1.85 299.442 08:57 07.09.2019
2364 Clear 4 1018 86 7000 1.85 299.442 08:57 07.09.2019
2365 Clear 4 1018 86 7000 1.76 302.196 08:36 07.09.2019
2366 Clear 4 1018 86 7000 1.76 302.196 08:18 07.09.2019
2367 Clear 4 1018 86 8000 1.76 302.196 07:43 07.09.2019
2368 Clear 4 1018 86 8000 1.76 302.196 07:22 07.09.2019
2369 Clear 5 1018 80 10000 1.76 302.196 06:43 07.09.2019
2370 Clear 5 1018 80 10000 1.26 299.323 05:41 07.09.2019
2371 Clear 5 1018 80 10000 1.26 299.323 05:41 07.09.2019
2372 Clear 6 1018 75 10000 1.26 299.323 04:26 07.09.2019
2373 Clear 7 1017 70 10000 0.5 0 03:41 07.09.2019
2374 Clear 7 1017 70 10000 0.8 197.367 02:22 07.09.2019
2375 Clear 9 1016 61 10000 1 0 01:33 07.09.2019
2376 Clear 10 1016 53 10000 2.1 250 00:55 07.09.2019
2377 Clear 10 1016 53 10000 2.1 250 00:36 07.09.2019
2378 Clear 10 1016 53 10000 2.1 250 00:18 07.09.2019
2379 Clear 10 1015 53 10000 2.1 270 23:38 06.09.2019
2380 Clear 10 1015 53 10000 2.1 270 23:19 06.09.2019
2381 Clouds 11 1015 61 10000 2.1 280 22:56 06.09.2019
2382 Clouds 11 1015 61 10000 2.1 280 22:36 06.09.2019
2383 Clouds 11 1015 61 10000 2.1 280 22:18 06.09.2019
2384 Clouds 11 1015 61 10000 2.1 280 22:18 06.09.2019
2385 Clouds 11 1015 61 10000 1.5 280 21:54 06.09.2019
2386 Clouds 11 1015 61 10000 1.5 280 21:36 06.09.2019
2387 Clouds 11 1015 61 10000 1.5 280 21:36 06.09.2019
2388 Clouds 11 1015 55 10000 1.5 280 21:18 06.09.2019
2389 Clouds 11 1016 55 10000 1.5 340 20:41 06.09.2019
2390 Clouds 11 1016 55 10000 1.5 340 20:21 06.09.2019
2391 Clouds 10 1017 55 10000 4.1 90 19:58 06.09.2019
2392 Clouds 10 1017 55 10000 4.1 90 19:40 06.09.2019
2393 Clouds 10 1017 55 10000 4.1 90 19:21 06.09.2019
2394 Clouds 9 1017 55 10000 1 0 18:50 06.09.2019
2395 Clouds 9 1017 55 10000 1 0 18:50 06.09.2019
2396 Clouds 9 1017 55 10000 1 0 18:32 06.09.2019
2397 Clouds 7 1018 56 10000 1 0 17:59 06.09.2019
2398 Clouds 7 1018 56 10000 1 0 17:59 06.09.2019
2399 Clouds 7 1018 56 10000 1 0 17:39 06.09.2019
2400 Clouds 7 1018 56 10000 1 0 17:20 06.09.2019
2401 Clouds 7 1018 56 10000 1 0 17:20 06.09.2019
2402 Clouds 7 1018 56 10000 1 0 17:20 06.09.2019
2403 Clouds 4 1019 80 10000 0.5 0 16:42 06.09.2019
2404 Clouds 4 1019 80 10000 0.5 0 16:19 06.09.2019
2405 Smoke 2 1019 93 10000 1 90 15:59 06.09.2019
2406 Smoke 2 1019 93 10000 1 90 15:39 06.09.2019
2407 Smoke 2 1019 93 10000 1 90 15:21 06.09.2019
2408 Mist 1 1019 76 3500 0.28 159.613 14:40 06.09.2019
2409 Mist 1 1019 76 3500 0.28 159.613 14:18 06.09.2019
2410 Clear 0 1019 76 9000 0.5 0 13:43 06.09.2019
2411 Clear 0 1019 75 9000 0.5 0 13:22 06.09.2019
2412 Clouds -1 1019 92 8000 0.37 225.878 12:41 06.09.2019
2413 Clouds -1 1019 92 8000 0.24 283.804 12:23 06.09.2019
2414 Clear 0 1018 84 8000 0.24 283.804 11:58 06.09.2019
2415 Clear 0 1018 84 8000 0.24 283.804 11:58 06.09.2019
2416 Clear 0 1018 84 8000 0.24 283.804 11:40 06.09.2019
2417 Clear 0 1018 84 8000 0.24 283.804 11:21 06.09.2019
2418 Clear 2 1018 93 10000 0.5 0 10:43 06.09.2019
2419 Clear 2 1018 93 10000 0.5 0 10:22 06.09.2019
2420 Clear 3 1019 86 10000 0.21 161.038 09:58 06.09.2019
2421 Clear 3 1019 86 10000 0.21 161.038 09:37 06.09.2019
2422 Clear 3 1019 86 10000 0.6 278.958 09:19 06.09.2019
2423 Clear 4 1019 86 10000 0.6 278.958 08:44 06.09.2019
2424 Clear 4 1019 86 10000 0.6 278.958 08:26 06.09.2019
2425 Clear 3 1019 86 10000 0.6 278.958 07:51 06.09.2019
2426 Clear 3 1019 86 10000 0.6 278.958 07:28 06.09.2019
2427 Clouds 4 1019 80 10000 0.6 278.958 06:59 06.09.2019
2428 Clouds 4 1019 80 10000 0.6 278.958 06:33 06.09.2019
2429 Clouds 4 1020 80 10000 0.68 303.713 05:45 06.09.2019
2430 Clear 4 1019 80 10000 0.5 0 04:54 06.09.2019
2431 Clear 4 1019 80 10000 0.5 0 04:23 06.09.2019
2432 Clear 5 1019 75 10000 2.1 260 02:40 06.09.2019
2433 Clear 6 1019 79 10000 2.6 290 00:57 06.09.2019
2434 Clear 6 1019 60 10000 2.6 290 00:20 06.09.2019
2435 Clear 6 1019 60 10000 2.6 290 00:20 06.09.2019
2436 Rain 8 1018 49 10000 2.1 240 23:41 05.09.2019
2437 Rain 8 1018 49 10000 2.1 240 23:22 05.09.2019
2438 Rain 9 1018 39 10000 2.1 260 22:45 05.09.2019
2439 Rain 9 1018 39 10000 2.1 260 22:25 05.09.2019
2440 Clear 9 1018 36 10000 1 280 21:57 05.09.2019
2441 Clear 9 1018 36 10000 1 280 21:38 05.09.2019
2442 Clear 9 1018 36 10000 1 280 21:20 05.09.2019
2443 Clear 8 1018 42 10000 4.1 100 20:58 05.09.2019
2444 Clear 8 1018 42 10000 4.1 100 20:38 05.09.2019
2445 Clear 8 1018 42 10000 4.1 100 20:19 05.09.2019
2446 Clear 8 1019 42 10000 5.7 100 19:56 05.09.2019
2447 Clear 8 1019 42 10000 5.7 100 19:37 05.09.2019
2448 Clear 8 1019 42 10000 5.7 100 19:18 05.09.2019
2449 Clear 8 1019 39 10000 5.1 100 18:41 05.09.2019
2450 Clear 8 1019 39 10000 5.1 100 18:21 05.09.2019
2451 Clear 6 1020 45 10000 7.2 100 17:57 05.09.2019
2452 Clear 6 1020 45 10000 7.2 100 17:57 05.09.2019
2453 Clear 6 1020 45 10000 7.2 100 17:38 05.09.2019
2454 Clear 6 1020 45 10000 7.2 100 17:20 05.09.2019
2455 Clouds 6 1020 45 10000 6.2 90 16:42 05.09.2019
2456 Clouds 6 1020 45 10000 6.2 90 16:21 05.09.2019
2457 Clouds 6 1020 45 10000 6.2 90 16:21 05.09.2019
2458 Clouds 5 1020 48 10000 6.2 70 15:58 05.09.2019
2459 Clouds 5 1020 48 10000 6.2 70 15:39 05.09.2019
2460 Clouds 5 1020 48 10000 6.2 70 15:19 05.09.2019
2461 Clear 4 1020 51 10000 4.6 60 14:55 05.09.2019
2462 Clear 4 1020 51 10000 4.6 60 14:37 05.09.2019
2463 Clear 4 1020 51 10000 4.6 60 14:37 05.09.2019
2464 Clear 4 1020 51 10000 4.6 60 14:18 05.09.2019
2465 Clear 4 1020 48 10000 5.7 40 13:41 05.09.2019
2466 Clear 4 1020 48 10000 5.7 40 13:18 05.09.2019
2467 Clear 4 1020 44 10000 5.1 60 12:42 05.09.2019
2468 Clear 4 1020 44 10000 5.1 60 12:24 05.09.2019
2469 Clouds 5 1020 38 10000 4.1 50 11:56 05.09.2019
2470 Clouds 5 1020 38 10000 4.1 50 11:36 05.09.2019
2471 Clouds 5 1020 38 10000 4.1 50 11:18 05.09.2019
2472 Clear 5 1020 38 10000 3.1 40 10:37 05.09.2019
2473 Clear 5 1020 38 10000 3.1 40 10:19 05.09.2019
2474 Clouds 5 1021 35 10000 4.6 80 09:41 05.09.2019
2475 Clouds 5 1021 35 10000 4.6 80 09:22 05.09.2019
2476 Clear 5 1021 35 10000 4.6 70 08:56 05.09.2019
2477 Clear 5 1021 35 10000 4.6 70 08:38 05.09.2019
2478 Clear 5 1021 35 10000 4.6 70 08:19 05.09.2019
2479 Clear 6 1022 30 10000 4.1 50 07:44 05.09.2019
2480 Clear 6 1022 30 10000 4.1 50 07:24 05.09.2019
2481 Clear 5 1022 32 10000 5.1 40 06:46 05.09.2019
2482 Clear 5 1022 32 10000 5.1 40 06:26 05.09.2019
2483 Clear 5 1023 30 10000 4.6 40 05:46 05.09.2019
2484 Clear 5 1023 30 10000 4.6 40 05:27 05.09.2019
2485 Clear 6 1024 30 10000 6.2 80 04:30 05.09.2019
2486 Clear 6 1024 30 10000 5.7 90 03:52 05.09.2019
2487 Clear 7 1024 28 10000 4.1 80 02:58 05.09.2019
2488 Clear 7 1024 28 10000 4.1 80 02:30 05.09.2019
2489 Clear 7 1024 28 10000 4.1 0 01:57 05.09.2019
2490 Clouds 0 1027 74 0 3.36 9.715 00:56 05.09.2019
2491 Clouds 0 1027 74 0 3.36 9.715 00:37 05.09.2019
2492 Clouds 8 1024 28 10000 8.7 80 00:18 05.09.2019
2493 Clouds 8 1024 28 10000 8.7 80 23:39 04.09.2019
2494 Clouds 8 1024 28 10000 8.7 80 23:21 04.09.2019
2495 Clear 8 1024 28 10000 9.3 90 22:47 04.09.2019
2496 Clear 8 1024 28 10000 9.3 90 22:20 04.09.2019
2497 Clouds 4 1024 51 0 3.91 45.622 21:55 04.09.2019
2498 Clouds 4 1024 51 0 3.91 45.622 21:55 04.09.2019
2499 Clouds 4 1024 51 0 3.91 45.622 21:55 04.09.2019
2500 Clouds 4 1024 51 0 3.91 45.622 21:55 04.09.2019
2501 Clouds 4 1024 51 0 3.91 45.622 21:37 04.09.2019
2502 Clouds 4 1026 39 0 3.47 62.888 21:18 04.09.2019
2503 Clouds 4 1026 39 0 3.47 62.888 20:54 04.09.2019
2504 Clouds 4 1026 39 0 3.47 62.888 20:36 04.09.2019
2505 Clouds 4 1026 39 0 3.47 62.888 20:18 04.09.2019
2506 Clouds 4 1026 39 0 3.47 62.888 19:39 04.09.2019
2507 Clouds 4 1026 39 0 3.47 62.888 19:20 04.09.2019
2508 Clouds 4 1026 39 0 3.47 62.888 18:41 04.09.2019
2509 Clouds 5 1029 32 10000 8.2 90 18:23 04.09.2019
2510 Clouds 5 1029 32 10000 8.2 90 18:23 04.09.2019
2511 Clouds 5 1029 32 10000 8.2 90 17:56 04.09.2019
2512 Clouds 5 1029 32 10000 8.2 90 17:56 04.09.2019
2513 Clouds 5 1029 32 10000 8.2 90 17:38 04.09.2019
2514 Clouds 5 1029 32 10000 8.2 90 17:20 04.09.2019
2515 Clouds 3 1030 40 10000 5.7 90 16:48 04.09.2019
2516 Clouds 3 1030 40 10000 5.7 90 16:28 04.09.2019
2517 Clear 2 1030 43 10000 3.6 0 15:59 04.09.2019
2518 Clear 2 1030 43 10000 3.6 0 15:39 04.09.2019
2519 Clear 2 1030 43 10000 3.6 0 15:39 04.09.2019
2520 Clear 2 1030 43 10000 3.6 0 15:21 04.09.2019
2521 Clear 2 1030 43 10000 5.1 40 14:57 04.09.2019
2522 Clear 2 1030 43 10000 5.1 40 14:37 04.09.2019
2523 Clear 2 1030 43 10000 5.1 40 14:19 04.09.2019
2524 Clear 2 1030 43 10000 4.1 50 13:40 04.09.2019
2525 Clear 2 1030 43 10000 4.1 50 13:22 04.09.2019
2526 Clear 2 1030 43 10000 5.1 50 12:59 04.09.2019
2527 Clear 2 1030 43 10000 5.1 50 12:39 04.09.2019
2528 Clear 2 1030 43 10000 5.1 50 12:21 04.09.2019
2529 Clear 3 1029 40 10000 4.6 50 11:55 04.09.2019
2530 -273 0 0 0 0 0 11:55 04.09.2019
2531 Clear 3 1029 40 10000 4.6 50 11:36 04.09.2019
2532 Clear 3 1029 40 10000 4.6 50 11:18 04.09.2019
2533 Clear 3 1029 40 10000 4.1 70 10:43 04.09.2019
2534 Clear 3 1029 40 10000 4.1 70 10:25 04.09.2019
2535 Clear 3 1030 40 10000 3.6 60 09:47 04.09.2019
2536 Clear 3 1030 40 10000 3.6 60 09:27 04.09.2019
2537 Clear 2 1030 47 10000 1.5 80 08:59 04.09.2019
2538 Clear 2 1030 47 10000 1.5 80 08:40 04.09.2019
2539 Clear 2 1030 47 10000 1.5 80 08:22 04.09.2019
2540 Clear 3 1030 44 10000 3.1 100 07:50 04.09.2019
2541 Clear 3 1030 44 10000 3.1 100 07:32 04.09.2019
2542 Haze 1 1030 55 8000 1.5 0 06:40 04.09.2019
2543 Clear -1 1030 74 7000 0.5 0 05:51 04.09.2019
2544 Haze 1 1029 64 6000 0.5 0 04:52 04.09.2019
2545 Clear 5 1029 38 10000 1.5 120 03:52 04.09.2019
2546 Clear 8 1028 28 10000 4.6 80 01:39 04.09.2019
2547 Clear 8 1027 31 10000 6.2 90 00:54 04.09.2019
2548 Clear 8 1027 31 10000 6.2 90 00:32 04.09.2019
2549 Clear 10 1026 29 10000 4.1 60 23:54 03.09.2019
2550 Clear 10 1026 29 10000 4.1 60 23:28 03.09.2019
2551 Clear 10 1026 29 10000 3.6 50 22:59 03.09.2019
2552 Clear 10 1026 29 10000 3.6 50 22:40 03.09.2019
2553 Clear 10 1026 29 10000 3.6 50 22:21 03.09.2019
2554 Clear 10 1026 27 10000 3.6 40 21:56 03.09.2019
2555 Clear 10 1026 27 10000 3.6 40 21:56 03.09.2019
2556 Clear 10 1026 27 10000 3.6 40 21:37 03.09.2019
2557 Clear 10 1026 27 10000 3.6 40 21:37 03.09.2019
2558 Clear 10 1026 27 10000 3.6 40 21:18 03.09.2019
2559 Clear 10 1026 27 10000 4.1 80 20:42 03.09.2019
2560 Clear 10 1026 27 10000 4.1 80 20:24 03.09.2019
2561 Clear 10 1027 29 10000 4.6 80 19:56 03.09.2019
2562 Clear 10 1027 29 10000 4.6 80 19:38 03.09.2019
2563 Clear 10 1027 29 10000 4.6 80 19:18 03.09.2019
2564 -273 0 0 0 0 0 18:45 03.09.2019
2565 Clear 6 1027 48 10000 1.5 300 18:27 03.09.2019
2566 Clear 4 1027 55 10000 1 0 17:59 03.09.2019
2567 Clear 4 1027 55 10000 1 0 17:40 03.09.2019
2568 Clear 4 1027 55 10000 1 0 17:19 03.09.2019
2569 Clear 1 1027 69 10000 2.1 120 16:56 03.09.2019
2570 Clear 1 1027 69 10000 2.1 120 16:37 03.09.2019
2571 Clear 1 1027 69 10000 2.1 120 16:19 03.09.2019
2572 Clear -2 1027 92 10000 1.5 60 15:40 03.09.2019
2573 Clear -2 1027 92 10000 1.5 60 15:21 03.09.2019
2574 Clear -5 1027 100 8000 0.88 291.376 14:58 03.09.2019
2575 Clear -5 1027 100 8000 0.88 291.376 14:40 03.09.2019
2576 Clear -5 1027 100 8000 0.88 291.376 14:20 03.09.2019
2577 Clear -4 1026 92 10000 1 260 13:56 03.09.2019
2578 Clear -4 1026 92 10000 1 260 13:56 03.09.2019
2579 Clear -4 1026 92 10000 1 260 13:37 03.09.2019
2580 Clear -4 1026 92 10000 1 260 13:19 03.09.2019
2581 Clear -3 1025 92 10000 1 0 12:48 03.09.2019
2582 Clear -3 1025 92 10000 1 0 12:30 03.09.2019
2583 Clear -3 1026 92 10000 0.5 0 11:58 03.09.2019
2584 Clear -3 1026 92 10000 0.5 0 11:38 03.09.2019
2585 Clear -3 1026 92 10000 0.5 0 11:38 03.09.2019
2586 Clear -3 1026 92 10000 0.5 0 11:19 03.09.2019
2587 Clear -3 1026 92 9000 1 270 10:54 03.09.2019
2588 Clear -3 1026 92 9000 1 270 10:36 03.09.2019
2589 Clear -3 1026 92 9000 1 270 10:18 03.09.2019
2590 Clear -3 1026 92 9000 1 270 10:18 03.09.2019
2591 Clear -3 1027 92 7000 1 0 09:41 03.09.2019
2592 Clear -3 1027 92 7000 1 0 09:41 03.09.2019
2593 Clear -3 1027 92 7000 1 0 09:23 03.09.2019
2594 Clear -2 1028 92 10000 1 0 08:39 03.09.2019
2595 Clear -2 1028 92 10000 1 0 08:21 03.09.2019
2596 Clear -2 1028 92 10000 1 0 07:54 03.09.2019
2597 Clear -2 1028 92 10000 1 0 07:36 03.09.2019
2598 Clear -2 1028 92 10000 1 0 07:18 03.09.2019
2599 Clear -1 1028 86 10000 1 270 06:41 03.09.2019
2600 Clear 1 1028 74 10000 0.5 0 03:45 03.09.2019
2601 Clear 2 1028 64 9000 1 270 02:59 03.09.2019
2602 Clear 2 1028 64 9000 1 270 02:38 03.09.2019
2603 Clear 2 1028 64 9000 1 270 02:20 03.09.2019
2604 Clear 3 1028 64 10000 1.44 303.866 01:43 03.09.2019
2605 Clear 3 1028 64 10000 1.43 312.959 01:25 03.09.2019
2606 Clear 3 1028 64 10000 1.43 312.959 01:25 03.09.2019
2607 Clear 7 1027 39 10000 1 0 00:31 03.09.2019
2608 Haze 10 1027 25 10000 2.1 290 23:57 02.09.2019
2609 Haze 10 1027 25 10000 2.1 290 23:37 02.09.2019
2610 Haze 10 1027 25 10000 2.1 290 23:18 02.09.2019
2611 Clear 10 1027 25 10000 2.1 310 22:55 02.09.2019
2612 Clear 10 1027 25 10000 2.1 310 22:55 02.09.2019
2613 Clear 10 1027 25 10000 2.1 310 22:55 02.09.2019
2614 Clear 10 1027 25 10000 2.1 310 22:36 02.09.2019
2615 Clear 10 1027 25 10000 2.1 310 22:18 02.09.2019
2616 Clear 10 1028 25 10000 0.5 0 21:54 02.09.2019
2617 Clear 10 1028 25 10000 0.5 0 21:36 02.09.2019
2618 Clear 10 1028 25 10000 0.5 0 21:18 02.09.2019
2619 Clear 9 1028 29 10000 1.5 0 20:41 02.09.2019
2620 Clear 9 1028 29 10000 1.5 0 20:22 02.09.2019
2621 Clear 8 1029 33 10000 2.6 340 19:57 02.09.2019
2622 Clear 8 1029 33 10000 2.6 340 19:39 02.09.2019
2623 Clear 8 1029 33 10000 2.6 340 19:39 02.09.2019
2624 Clear 8 1029 33 10000 2.6 340 19:21 02.09.2019
2625 Clouds 6 1030 38 10000 1 0 18:41 02.09.2019
2626 Clouds 6 1030 38 10000 1 0 18:23 02.09.2019
2627 Clear 3 1030 43 0 0.93 4.917 17:59 02.09.2019
2628 Clear 3 1030 43 0 0.93 4.917 17:40 02.09.2019
2629 Clouds 2 1031 69 10000 1 0 17:21 02.09.2019
2630 Clouds 2 1031 69 10000 1 0 17:21 02.09.2019
2631 Clouds 2 1031 69 10000 1 0 16:58 02.09.2019
2632 Clouds 2 1031 69 10000 1 0 16:38 02.09.2019
2633 Clouds 2 1031 69 10000 1 0 16:20 02.09.2019
2634 Fog -1 1031 92 10000 0.5 0 15:45 02.09.2019
2635 Fog -1 1031 92 10000 0.5 0 15:22 02.09.2019
2636 Clear -3 1031 92 9000 2.06 319.426 14:57 02.09.2019
2637 Clear -3 1031 92 9000 2.06 319.426 14:57 02.09.2019
2638 Clear -3 1031 92 9000 2.06 319.426 14:37 02.09.2019
2639 Clear -3 1031 92 9000 2.06 319.426 14:19 02.09.2019
2640 Clear -3 1030 92 10000 2.06 319.426 13:54 02.09.2019
2641 Clear -3 1030 92 10000 1.97 320.027 13:36 02.09.2019
2642 Clear -3 1030 92 10000 1.97 320.027 13:18 02.09.2019
2643 Clear -3 1030 92 10000 1.97 320.027 12:41 02.09.2019
2644 Clear -3 1030 92 10000 0.76 310.183 12:23 02.09.2019
2645 Clear -2 1029 92 10000 0.5 0 11:58 02.09.2019
2646 Clear -2 1029 92 10000 0.5 0 11:38 02.09.2019
2647 Clear -2 1029 92 10000 0.5 0 11:19 02.09.2019
2648 Clear -1 1029 86 10000 0.76 310.183 10:43 02.09.2019
2649 Clear -1 1029 86 10000 0.76 310.183 10:23 02.09.2019
2650 Clear 2 1029 69 10000 1.5 0 09:59 02.09.2019
2651 Clear 2 1029 69 10000 1.5 0 09:40 02.09.2019
2652 Clear 2 1029 69 10000 1.5 0 09:20 02.09.2019
2653 Clear 1 1029 74 10000 0.5 0 08:43 02.09.2019
2654 Clear 1 1029 74 10000 0.5 0 08:22 02.09.2019
2655 Clear 3 1028 64 10000 1.5 70 07:57 02.09.2019
2656 Clear 3 1028 64 10000 1.5 70 07:37 02.09.2019
2657 Clear 3 1028 64 10000 1.5 70 07:19 02.09.2019
2658 Clear 3 1028 69 10000 1.5 0 06:42 02.09.2019
2659 Clear 2 1027 80 10000 1.5 270 05:54 02.09.2019
2660 Clear 2 1027 80 10000 1.5 270 05:25 02.09.2019
2661 Clear 4 1026 64 10000 1 0 04:48 02.09.2019
2662 Clear 7 1025 48 10000 2.6 300 02:20 02.09.2019
2663 Clear 7 1024 48 10000 2.1 280 01:37 02.09.2019
2664 Clear 7 1024 48 10000 2.1 280 01:37 02.09.2019
2665 Clear 9 1022 42 10000 2.6 250 00:39 02.09.2019
2666 Clear 9 1022 42 10000 2.6 250 00:19 02.09.2019
2667 Clear 10 1021 39 10000 3.6 270 23:39 01.09.2019
2668 Clear 10 1021 39 10000 3.6 270 23:19 01.09.2019
2669 Clear 11 1021 32 10000 2.6 0 22:56 01.09.2019
2670 Clear 11 1021 32 10000 2.6 0 22:38 01.09.2019
2671 Clear 11 1021 32 10000 2.6 0 22:38 01.09.2019
2672 Clear 11 1021 32 10000 2.6 0 22:18 01.09.2019
2673 Clear 10 1022 37 10000 3.6 0 21:42 01.09.2019
2674 Clear 10 1022 37 10000 3.6 0 21:23 01.09.2019
2675 Clear 10 1022 37 10000 3.1 0 20:58 01.09.2019
2676 Clear 10 1022 37 10000 3.1 0 20:39 01.09.2019
2677 Clear 10 1022 37 10000 3.1 0 20:19 01.09.2019
2678 Clear 9 1023 42 10000 3.1 300 19:59 01.09.2019
2679 Clear 9 1023 42 10000 3.1 300 19:59 01.09.2019
2680 Clear 9 1023 42 10000 3.1 300 19:40 01.09.2019
2681 Clear 9 1023 42 10000 3.1 300 19:21 01.09.2019
2682 Clear 7 1025 52 10000 3.1 280 18:44 01.09.2019
2683 Clear 7 1025 52 10000 3.1 280 18:44 01.09.2019
2684 Clear 7 1025 52 10000 3.1 280 18:26 01.09.2019
2685 Clear 5 1026 60 10000 2.6 290 17:58 01.09.2019
2686 Clear 5 1026 60 10000 2.6 290 17:39 01.09.2019
2687 Clear 5 1026 60 10000 2.6 290 17:19 01.09.2019
2688 Clear 3 1027 74 10000 3.1 280 16:41 01.09.2019
2689 Clear 3 1027 74 10000 3.1 280 16:20 01.09.2019
2690 Clear 1 1028 86 10000 1.5 250 15:56 01.09.2019
2691 Clear 1 1028 86 10000 1.5 250 15:55 01.09.2019
2692 Clear 1 1028 86 10000 1.5 250 15:37 01.09.2019
2693 Clear 1 1028 86 10000 1.5 250 15:19 01.09.2019
2694 Clear -1 1027 92 10000 1.5 240 14:41 01.09.2019
2695 Clear -1 1027 92 10000 1.5 240 14:21 01.09.2019
2696 Clear -2 1027 100 10000 1 0 13:56 01.09.2019
2697 Clear -2 1027 100 10000 1 0 13:37 01.09.2019
2698 Clear -2 1027 100 10000 1 0 13:19 01.09.2019
2699 Clear -1 1028 92 10000 1.5 290 12:41 01.09.2019
2700 Clear -1 1028 92 10000 1.5 290 12:23 01.09.2019
2701 Clear -1 1028 92 10000 1 0 11:41 01.09.2019
2702 Clear -1 1028 92 10000 1 0 11:41 01.09.2019
2703 Clear -1 1028 92 10000 1 0 11:20 01.09.2019
2704 Clear -1 1029 92 10000 1 300 10:59 01.09.2019
2705 Clear -1 1029 92 10000 1 300 10:41 01.09.2019
2706 Clear -1 1029 92 10000 1 300 10:21 01.09.2019
2707 Clear 0 1029 88 10000 1 0 09:43 01.09.2019
2708 Clear 0 1029 88 10000 1 0 09:25 01.09.2019
2709 Clear 0 1029 91 10000 1 0 08:44 01.09.2019
2710 Clear 0 1029 91 10000 1 0 08:24 01.09.2019
2711 Clear 1 1029 86 10000 1 0 07:51 01.09.2019
2712 Clear 1 1029 86 10000 1 0 07:33 01.09.2019
2713 Clear 1 1030 86 10000 1 0 06:47 01.09.2019
2714 Clear 1 1030 86 10000 1 0 06:26 01.09.2019
2715 Clear 2 1030 80 10000 1 0 05:56 01.09.2019
2716 Clear 2 1030 80 10000 1 0 05:56 01.09.2019
2717 Clear 3 1029 74 10000 1 0 04:31 01.09.2019
2718 Clear 4 1029 69 10000 1 0 03:42 01.09.2019
2719 Clear 6 1029 60 10000 2.6 230 02:57 01.09.2019
2720 Clear 6 1029 60 10000 2.6 230 02:26 01.09.2019
2721 Clear 7 1028 56 10000 1.5 250 01:50 01.09.2019
2722 Clear 7 1028 56 10000 1.5 250 01:22 01.09.2019
2723 Clear 8 1027 49 10000 2.6 270 00:45 01.09.2019
2724 Clear 8 1027 49 10000 2.6 270 00:22 01.09.2019
2725 Clear 10 1026 43 10000 4.1 270 23:49 31.08.2019
2726 Clear 10 1026 43 10000 4.1 270 23:23 31.08.2019
2727 Clouds 11 1026 37 10000 4.6 270 22:58 31.08.2019
2728 Clouds 11 1026 37 10000 4.6 270 22:40 31.08.2019
2729 Clouds 11 1026 37 10000 4.6 270 22:22 31.08.2019
2730 -273 0 0 0 0 0 21:55 31.08.2019
2731 Clear 10 1026 39 10000 3.1 270 21:55 31.08.2019
2732 Clear 10 1026 39 10000 3.1 270 21:37 31.08.2019
2733 Clear 10 1026 39 10000 3.1 270 21:19 31.08.2019
2734 Clear 10 1025 39 10000 4.1 280 20:46 31.08.2019
2735 Clear 10 1025 39 10000 4.1 280 20:28 31.08.2019
2736 Clear 10 1026 39 10000 2.6 280 19:47 31.08.2019
2737 Clear 10 1026 39 10000 2.6 280 19:47 31.08.2019
2738 Clear 10 1026 39 10000 2.6 280 19:24 31.08.2019
2739 Clouds 10 1026 39 10000 5.1 280 18:59 31.08.2019
2740 Clouds 10 1026 39 10000 5.1 280 18:39 31.08.2019
2741 Clouds 10 1026 39 10000 5.1 280 18:39 31.08.2019
2742 Clouds 10 1026 39 10000 5.1 280 18:19 31.08.2019
2743 Clouds 9 1026 72 10000 3.6 270 17:55 31.08.2019
2744 Clouds 9 1026 72 10000 3.6 270 17:37 31.08.2019
2745 Clouds 9 1026 72 10000 3.6 270 17:18 31.08.2019
2746 Clear 7 1026 72 10000 2.6 280 16:55 31.08.2019
2747 Clear 7 1026 72 10000 2.6 280 16:55 31.08.2019
2748 Clear 7 1026 72 10000 2.6 280 16:37 31.08.2019
2749 Clear 7 1026 72 10000 2.6 280 16:18 31.08.2019
2750 Clear 7 1026 56 10000 4.6 240 15:41 31.08.2019
2751 Clear 7 1026 56 10000 4.6 240 15:19 31.08.2019
2752 Clear 5 1025 65 10000 2.1 260 14:55 31.08.2019
2753 Clear 5 1025 65 10000 2.1 260 14:36 31.08.2019
2754 Clear 5 1025 65 10000 2.1 260 14:18 31.08.2019
2755 Clear 5 1025 60 10000 3.1 250 13:39 31.08.2019
2756 Clear 5 1025 60 10000 3.1 250 13:21 31.08.2019
2757 Clear 5 1025 60 10000 3.1 250 13:21 31.08.2019
2758 Clear 6 1025 56 10000 3.6 240 12:56 31.08.2019
2759 Clear 6 1025 56 10000 3.6 240 12:38 31.08.2019
2760 Clear 6 1025 56 10000 3.6 240 12:18 31.08.2019
2761 Clear 5 1024 65 10000 3.1 230 11:44 31.08.2019
2762 Clear 5 1024 65 10000 3.1 230 11:26 31.08.2019
2763 Clear 5 1024 91 10000 3.6 280 10:57 31.08.2019
2764 Clear 5 1024 91 10000 3.6 280 10:39 31.08.2019
2765 Clear 5 1024 91 10000 3.6 280 10:18 31.08.2019
2766 Clear 5 1024 91 10000 2.1 0 09:40 31.08.2019
2767 Clear 5 1024 91 10000 2.1 0 09:40 31.08.2019
2768 Clear 5 1024 92 10000 2.1 0 09:22 31.08.2019
2769 Clear 6 1025 70 10000 2.6 260 08:57 31.08.2019
2770 Clear 6 1025 70 10000 2.6 260 08:38 31.08.2019
2771 Clear 6 1025 70 10000 2.6 260 08:20 31.08.2019
2772 Clear 6 1024 92 10000 3.1 250 07:38 31.08.2019
2773 Clear 6 1024 92 10000 3.1 250 07:18 31.08.2019
2774 Clear 7 1024 92 10000 4.1 260 06:27 31.08.2019
2775 Clear 6 1024 93 10000 3.1 240 05:54 31.08.2019
2776 Clear 6 1024 93 10000 3.1 240 05:28 31.08.2019
2777 Clear 6 1024 93 10000 2.6 250 04:29 31.08.2019
2778 Clear 6 1024 70 10000 2.1 250 03:42 31.08.2019
2779 Clear 7 1024 65 10000 3.1 250 02:22 31.08.2019
2780 Clear 7 1023 65 10000 3.6 250 01:47 31.08.2019
2781 Clear 7 1023 65 10000 3.6 250 01:28 31.08.2019
2782 Clear 8 1023 91 10000 3.1 260 00:46 31.08.2019
2783 Clear 8 1023 91 10000 3.1 260 00:27 31.08.2019
2784 Clear 8 1022 85 10000 5.7 280 23:49 30.08.2019
2785 Clear 8 1022 85 10000 5.7 280 23:19 30.08.2019
2786 Clear 3 1022 85 0 3.35 299.227 22:57 30.08.2019
2787 Clear 3 1022 85 0 3.35 299.227 22:37 30.08.2019
2788 Rain 10 1021 53 10000 6.2 280 22:19 30.08.2019
2789 Rain 10 1021 53 10000 6.2 280 21:56 30.08.2019
2790 Rain 10 1021 53 10000 6.2 280 21:36 30.08.2019
2791 Rain 10 1021 53 10000 6.2 280 21:36 30.08.2019
2792 Rain 10 1021 53 10000 6.2 280 21:18 30.08.2019
2793 Rain 10 1021 53 10000 6.2 280 21:18 30.08.2019
2794 Rain 5 1022 74 0 3.51 291.222 20:43 30.08.2019
2795 Rain 5 1022 74 0 3.51 291.222 20:22 30.08.2019
2796 Rain 5 1022 74 0 3.51 291.222 19:59 30.08.2019
2797 Rain 5 1022 74 0 3.51 291.222 19:41 30.08.2019
2798 Clouds 10 1021 74 10000 5.7 270 19:22 30.08.2019
2799 Clouds 10 1021 74 10000 5.7 270 18:58 30.08.2019
2800 Clouds 10 1021 74 10000 5.7 270 18:40 30.08.2019
2801 Clouds 10 1021 78 10000 5.7 270 18:20 30.08.2019
2802 Clouds 9 1021 57 10000 3.1 240 17:56 30.08.2019
2803 Clouds 9 1021 57 10000 3.1 240 17:56 30.08.2019
2804 Clouds 9 1021 57 10000 3.1 240 17:37 30.08.2019
2805 Clouds 9 1021 57 10000 3.1 240 17:37 30.08.2019
2806 Clouds 9 1021 57 10000 3.1 240 17:37 30.08.2019
2807 Clouds 9 1021 57 10000 3.1 240 17:18 30.08.2019
2808 Clouds 7 1022 65 10000 1.5 260 16:43 30.08.2019
2809 Clouds 7 1022 65 10000 1.5 260 16:25 30.08.2019
2810 Clear 6 1021 70 10000 2.1 230 15:45 30.08.2019
2811 Clear 6 1021 70 10000 2.1 230 15:25 30.08.2019
2812 Clear 5 1021 75 10000 3.1 260 14:59 30.08.2019
2813 Clear 5 1021 75 10000 3.1 260 14:41 30.08.2019
2814 Clear 5 1021 75 10000 3.1 260 14:23 30.08.2019
2815 Rain 5 1020 75 10000 4.6 250 13:44 30.08.2019
2816 Rain 5 1020 75 10000 4.6 250 13:23 30.08.2019
2817 Clear 5 1019 75 10000 2.1 230 12:58 30.08.2019
2818 Clear 5 1019 75 10000 2.1 230 12:39 30.08.2019
2819 Clear 5 1019 75 10000 2.1 230 12:21 30.08.2019
2820 Clear 5 1019 75 10000 2.1 230 12:21 30.08.2019
2821 Clouds 5 1019 80 10000 4.1 310 11:41 30.08.2019
2822 Clouds 5 1019 80 10000 4.1 310 11:23 30.08.2019
2823 Rain 6 1018 70 10000 4.1 250 10:40 30.08.2019
2824 Rain 6 1018 70 10000 4.1 250 10:22 30.08.2019
2825 Clear 6 1018 70 10000 3.1 270 09:58 30.08.2019
2826 Clear 6 1018 70 10000 3.1 270 09:58 30.08.2019
2827 Clear 6 1018 70 10000 3.1 270 09:39 30.08.2019
2828 Clear 6 1018 70 10000 3.1 270 09:19 30.08.2019
2829 Clear 6 1018 70 10000 3.1 270 09:19 30.08.2019
2830 Rain 6 1018 70 10000 3.1 250 08:44 30.08.2019
2831 Rain 6 1018 70 10000 3.1 250 08:25 30.08.2019
2832 Clouds 6 1018 93 10000 3.6 270 07:59 30.08.2019
2833 Clouds 6 1018 93 10000 3.6 270 07:39 30.08.2019
2834 Clouds 6 1018 93 10000 3.6 270 07:21 30.08.2019
2835 Clear 6 1018 70 10000 3.1 260 06:43 30.08.2019
2836 Clear 6 1018 70 10000 3.1 260 06:24 30.08.2019
2837 Clear 6 1018 70 10000 3.1 250 05:43 30.08.2019
2838 Clouds 6 1018 70 10000 4.6 280 03:58 30.08.2019
2839 Clouds 6 1018 70 10000 4.6 280 03:37 30.08.2019
2840 Clouds 6 1018 70 10000 4.6 280 03:37 30.08.2019
2841 Clouds 6 1017 92 10000 4.1 240 02:45 30.08.2019
2842 Clouds 6 1017 92 10000 4.1 240 02:22 30.08.2019
2843 Clear 7 1016 92 10000 4.1 270 00:58 30.08.2019
2844 Clear 7 1016 87 10000 4.1 270 00:26 30.08.2019
2845 Rain 7 1016 70 10000 3.6 260 23:56 29.08.2019
2846 Rain 7 1016 70 10000 3.6 260 23:37 29.08.2019
2847 Rain 7 1016 70 10000 3.6 260 23:19 29.08.2019
2848 Rain 7 1015 70 10000 4.6 270 22:42 29.08.2019
2849 Rain 7 1015 70 10000 4.6 270 22:42 29.08.2019
2850 Rain 7 1015 70 10000 4.6 270 22:23 29.08.2019
2851 Rain 9 1014 61 10000 6.2 270 21:42 29.08.2019
2852 Rain 9 1014 61 10000 6.2 270 21:22 29.08.2019
2853 Rain 8 1014 65 10000 6.2 260 20:59 29.08.2019
2854 Rain 8 1014 65 10000 6.2 260 20:41 29.08.2019
2855 Rain 8 1014 65 10000 6.2 260 20:20 29.08.2019
2856 Rain 6 1014 81 10000 4.1 240 19:57 29.08.2019
2857 Rain 6 1014 81 10000 4.1 240 19:39 29.08.2019
2858 Rain 6 1014 81 10000 4.1 240 19:21 29.08.2019
2859 Rain 5 1014 86 6000 4.1 240 18:41 29.08.2019
2860 Rain 5 1014 86 6000 4.1 240 18:20 29.08.2019
2861 Rain 5 1013 86 9000 3.1 260 17:56 29.08.2019
2862 Rain 5 1013 86 9000 3.1 260 17:37 29.08.2019
2863 Rain 5 1013 86 9000 3.1 260 17:19 29.08.2019
2864 Rain 5 1013 86 8000 3.1 260 16:43 29.08.2019
2865 Rain 5 1013 86 8000 3.1 260 16:24 29.08.2019
2866 Rain 4 1013 86 5000 3.1 260 15:58 29.08.2019
2867 Rain 4 1013 86 5000 3.1 260 15:37 29.08.2019
2868 Rain 4 1013 86 5000 3.1 260 15:19 29.08.2019
2869 Rain 4 1013 86 5000 3.1 260 15:19 29.08.2019
2870 Rain 4 1012 86 9000 2.6 250 14:45 29.08.2019
2871 Rain 4 1012 86 9000 2.6 250 14:22 29.08.2019
2872 Rain 4 1011 86 10000 3.1 240 13:58 29.08.2019
2873 Rain 4 1011 86 10000 3.1 240 13:58 29.08.2019
2874 Rain 4 1011 86 10000 3.1 240 13:39 29.08.2019
2875 Rain 4 1011 86 10000 3.1 240 13:20 29.08.2019
2876 Rain 4 1010 86 10000 4.1 240 12:58 29.08.2019
2877 Rain 4 1010 86 10000 4.1 240 12:39 29.08.2019
2878 Rain 4 1010 86 10000 4.1 240 12:20 29.08.2019
2879 Rain 4 1010 80 10000 5.1 250 11:57 29.08.2019
2880 Rain 4 1010 80 10000 5.1 250 11:36 29.08.2019
2881 Rain 4 1010 80 10000 5.1 250 11:18 29.08.2019
2882 Rain 4 1010 80 9000 5.7 250 10:41 29.08.2019
2883 Rain 4 1010 80 9000 5.7 250 10:23 29.08.2019
2884 Rain 3 1010 86 10000 5.1 250 09:42 29.08.2019
2885 Rain 3 1010 86 10000 5.1 250 09:20 29.08.2019
2886 Rain 3 1011 92 10000 6.2 240 08:56 29.08.2019
2887 Rain 3 1011 92 10000 6.2 240 08:37 29.08.2019
2888 Rain 3 1011 92 10000 6.2 240 08:19 29.08.2019
2889 Rain 4 1010 92 10000 4.6 260 07:43 29.08.2019
2890 Rain 4 1010 92 10000 4.6 260 07:23 29.08.2019
2891 Rain 4 1010 92 10000 3.1 250 06:42 29.08.2019
2892 Rain 4 1010 90 10000 3.1 250 06:18 29.08.2019
2893 Rain 3 1009 86 9000 3.1 250 05:34 29.08.2019
2894 Rain 4 1009 80 10000 3.6 260 04:50 29.08.2019
2895 Rain 4 1009 80 10000 3.6 260 04:28 29.08.2019
2896 Clear 4 1008 80 10000 4.1 250 02:27 29.08.2019
2897 Rain 4 1007 80 10000 4.1 250 01:41 29.08.2019
2898 Rain 4 1007 80 8000 5.1 240 00:52 29.08.2019
2899 Rain 4 1007 80 8000 5.1 240 00:25 29.08.2019
2900 Rain 6 1006 89 10000 5.1 230 23:59 28.08.2019
2901 Rain 6 1006 89 10000 5.1 230 23:41 28.08.2019
2902 Rain 6 1006 89 10000 5.1 230 23:22 28.08.2019
2903 Rain 5 1006 75 10000 4.1 260 22:57 28.08.2019
2904 Rain 5 1006 75 10000 4.1 260 22:38 28.08.2019
2905 Rain 5 1006 75 10000 4.1 260 22:18 28.08.2019
2906 Rain 5 1006 75 8000 5.1 240 21:46 28.08.2019
2907 Rain 5 1006 75 8000 5.1 240 21:26 28.08.2019
2908 Rain 5 1006 75 10000 3.6 250 20:59 28.08.2019
2909 Rain 5 1006 75 10000 3.6 250 20:40 28.08.2019
2910 Rain 5 1006 75 10000 3.6 250 20:22 28.08.2019
2911 Rain 5 1006 75 10000 3.6 250 20:22 28.08.2019
2912 Clear 2 1006 97 0 3.71 304.931 19:43 28.08.2019
2913 Rain 8 1005 45 10000 4.6 250 19:22 28.08.2019
2914 Rain 8 1005 45 10000 4.6 250 18:59 28.08.2019
2915 Rain 8 1005 45 10000 4.6 250 18:39 28.08.2019
2916 Rain 8 1005 45 10000 4.6 250 18:21 28.08.2019
2917 Rain 7 1006 98 10000 4.6 260 17:39 28.08.2019
2918 Rain 7 1006 98 10000 4.6 260 17:19 28.08.2019
2919 Rain 6 1005 60 10000 4.6 260 16:55 28.08.2019
2920 Rain 6 1005 60 10000 4.6 260 16:37 28.08.2019
2921 Rain 6 1005 60 10000 4.6 260 16:18 28.08.2019
2922 Rain 4 1006 69 10000 3.6 260 15:38 28.08.2019
2923 Rain 4 1006 69 10000 3.6 260 15:20 28.08.2019
2924 Clear 4 1005 64 10000 3.6 250 14:57 28.08.2019
2925 Clear 4 1005 64 10000 3.6 250 14:39 28.08.2019
2926 Clear 4 1005 64 10000 3.6 250 14:20 28.08.2019
2927 Clear 4 1004 60 10000 3.1 260 13:58 28.08.2019
2928 Clear 4 1004 60 10000 3.1 260 13:38 28.08.2019
2929 Clear 4 1004 60 10000 3.1 260 13:19 28.08.2019
2930 Clear 3 1005 69 10000 2.1 290 12:42 28.08.2019
2931 Clear 3 1005 69 10000 2.1 290 12:24 28.08.2019
2932 Clear 5 1004 52 10000 3.6 250 11:57 28.08.2019
2933 Clear 5 1004 52 10000 3.6 250 11:38 28.08.2019
2934 Clear 5 1004 52 10000 3.6 250 11:20 28.08.2019
2935 Clear 5 1004 65 10000 3.6 250 10:41 28.08.2019
2936 Clear 5 1004 65 10000 3.6 250 10:22 28.08.2019
2937 Clear 5 1004 91 10000 3.6 250 09:59 28.08.2019
2938 Clear 5 1004 91 10000 3.6 250 09:41 28.08.2019
2939 Clear 5 1004 98 10000 3.6 250 09:19 28.08.2019
2940 Clear 3 1005 93 10000 2.1 270 08:39 28.08.2019
2941 Clear 3 1005 93 10000 2.1 270 08:20 28.08.2019
2942 Rain 1 1006 98 0 2.54 322.882 07:43 28.08.2019
2943 Rain 1 1006 98 0 2.54 322.882 07:24 28.08.2019
2944 Rain 1 1006 98 0 2.54 322.882 06:55 28.08.2019
2945 Rain 1 1006 98 0 2.54 322.882 06:36 28.08.2019
2946 Rain 1 1004 100 0 1.63 313.735 05:43 28.08.2019
2947 Rain 4 998 100 3400 2.1 290 02:50 28.08.2019
2948 Rain 3 997 100 10000 2.1 0 01:32 28.08.2019
2949 Rain 3 994 100 4800 5.7 120 00:59 28.08.2019
2950 Rain 3 994 100 4800 5.7 120 00:40 28.08.2019
2951 Rain 2 995 100 3000 5.7 120 23:59 27.08.2019
2952 Rain 2 995 100 3000 5.7 120 23:39 27.08.2019
2953 Rain 2 995 100 3000 5.7 120 23:21 27.08.2019
2954 Rain 0 996 97 2000 1 0 22:43 27.08.2019
2955 Rain 0 996 97 2000 1 0 22:23 27.08.2019
2956 Rain 0 997 98 2500 0.5 0 21:58 27.08.2019
2957 Rain 0 997 98 2500 0.5 0 21:58 27.08.2019
2958 Rain 0 997 98 2500 0.5 0 21:39 27.08.2019
2959 Rain 0 997 98 2500 0.5 0 21:21 27.08.2019
2960 Clouds 0 1001 98 0 3.08 4.649 20:59 27.08.2019
2961 Clouds 0 1001 98 0 3.08 4.649 20:40 27.08.2019
2962 Snow 0 1003 98 3000 1 0 20:20 27.08.2019
2963 Snow 0 1003 98 3000 1 0 19:55 27.08.2019
2964 Snow 0 1003 98 3000 1 0 19:37 27.08.2019
2965 Snow 0 1003 98 3000 1 0 19:18 27.08.2019
2966 Snow 0 1005 98 3000 2.1 100 18:41 27.08.2019
2967 Snow 0 1005 85 3000 2.1 100 18:18 27.08.2019
2968 Snow 0 1007 85 1500 2.6 120 17:56 27.08.2019
2969 Snow 0 1007 85 1500 2.6 120 17:37 27.08.2019
2970 Snow 0 1007 85 1500 2.6 120 17:18 27.08.2019
2971 Snow 0 1010 85 1200 2.42 344.061 16:43 27.08.2019
2972 Snow 0 1010 85 1200 2.42 344.061 16:24 27.08.2019
2973 Mist 0 1012 85 9000 2.42 344.061 15:57 27.08.2019
2974 Mist 0 1012 85 9000 2.42 344.061 15:38 27.08.2019
2975 Mist 0 1012 83 9000 2.39 320.154 15:19 27.08.2019
2976 Mist 0 1012 83 9000 2.39 320.154 15:19 27.08.2019
2977 Mist -1 1013 100 4600 1 0 14:43 27.08.2019
2978 Mist -1 1013 100 4600 1 0 14:24 27.08.2019
2979 Mist -1 1015 100 3600 1 0 13:56 27.08.2019
2980 Mist -1 1015 100 3600 1 0 13:36 27.08.2019
2981 Mist -1 1015 100 3600 1 0 13:18 27.08.2019
2982 Fog -2 1016 100 1100 2.31 328.261 12:41 27.08.2019
2983 Fog -2 1016 100 1100 2.38 329.197 12:20 27.08.2019
2984 Fog -2 1016 100 650 1 0 11:47 27.08.2019
2985 Fog -2 1016 100 650 1 0 11:28 27.08.2019
2986 Fog -1 1017 92 900 1 0 10:56 27.08.2019
2987 Fog -1 1017 92 900 1 0 10:38 27.08.2019
2988 Fog -1 1017 92 900 1 0 10:18 27.08.2019
2989 Fog -1 1019 100 2100 0.5 0 09:42 27.08.2019
2990 Fog -1 1019 100 2100 0.5 0 09:21 27.08.2019
2991 Clear -1 1020 100 8000 1 0 08:59 27.08.2019
2992 Clear -1 1020 100 8000 1 0 08:59 27.08.2019
2993 Clear -1 1020 100 8000 1 0 08:40 27.08.2019
2994 Clear -1 1020 100 8000 1 0 08:22 27.08.2019
2995 Clear 0 1020 89 7000 1 0 07:41 27.08.2019
2996 Clear 0 1020 89 7000 1 0 07:20 27.08.2019
2997 Clear 1 1021 89 8000 1 0 06:54 27.08.2019
2998 Clear 1 1021 89 8000 1 0 06:27 27.08.2019
2999 Clear 2 1022 89 9000 1.5 270 05:47 27.08.2019
3000 Mist 2 1021 93 6000 1.5 260 04:54 27.08.2019
3001 Clear 3 1022 86 10000 1.5 280 03:39 27.08.2019
3002 Clear 3 1021 86 10000 1.5 280 02:23 27.08.2019
3003 Clear 4 1021 86 10000 2.1 270 01:44 27.08.2019
3004 Clear 4 1021 86 10000 2.1 270 01:22 27.08.2019
3005 Clear 4 1020 86 10000 1.5 310 00:44 27.08.2019
3006 Clear 4 1020 86 10000 1.5 310 00:24 27.08.2019
3007 Rain 4 1020 86 10000 2.6 260 23:39 26.08.2019
3008 Rain 4 1020 86 10000 2.6 260 23:21 26.08.2019
3009 Rain 5 1018 75 10000 3.1 290 22:41 26.08.2019
3010 Rain 5 1018 75 10000 3.1 290 22:20 26.08.2019
3011 Rain 4 1017 80 10000 4.1 240 21:59 26.08.2019
3012 Rain 4 1017 80 10000 4.1 240 21:38 26.08.2019
3013 Rain 4 1017 80 10000 4.1 240 21:20 26.08.2019
3014 Snow 3 1017 66 4000 4.6 240 20:56 26.08.2019
3015 Snow 3 1017 66 4000 4.6 240 20:38 26.08.2019
3016 Snow 3 1017 66 4000 4.6 240 20:18 26.08.2019
3017 Snow 3 1017 66 3000 5.7 260 19:43 26.08.2019
3018 Snow 3 1017 66 3000 5.7 260 19:19 26.08.2019
3019 Clouds 4 1016 66 0 4.73 298.424 18:58 26.08.2019
3020 Clouds 4 1016 66 0 4.73 298.424 18:38 26.08.2019
3021 Rain 5 1013 75 10000 4.6 260 18:19 26.08.2019
3022 Rain 5 1013 75 10000 4.6 260 17:44 26.08.2019
3023 Rain 5 1013 75 10000 4.6 260 17:20 26.08.2019
3024 Rain 3 1013 86 7000 3.1 250 16:57 26.08.2019
3025 Rain 3 1013 86 7000 3.1 250 16:39 26.08.2019
3026 Rain 3 1013 86 7000 3.1 250 16:18 26.08.2019
3027 Rain 5 1011 75 10000 4.6 260 15:54 26.08.2019
3028 Rain 5 1011 75 10000 4.6 260 15:36 26.08.2019
3029 Rain 5 1011 99 10000 4.6 260 15:18 26.08.2019
3030 Rain 4 1010 86 8000 3.6 250 14:42 26.08.2019
3031 Rain 4 1010 86 8000 3.6 250 14:22 26.08.2019
3032 Rain 5 1009 80 9000 4.1 250 13:44 26.08.2019
3033 Rain 5 1009 80 9000 4.1 250 13:23 26.08.2019
3034 Rain 5 1008 86 8000 1 0 12:57 26.08.2019
3035 Rain 5 1008 86 8000 1 0 12:39 26.08.2019
3036 Rain 5 1008 86 8000 1 0 12:20 26.08.2019
3037 Clear 6 1007 75 10000 1.5 0 11:39 26.08.2019
3038 Clear 6 1007 75 10000 1.5 0 11:21 26.08.2019
3039 Rain 6 1009 81 10000 4.1 250 10:58 26.08.2019
3040 Rain 6 1009 81 10000 4.1 250 10:39 26.08.2019
3041 Rain 6 1009 81 10000 4.1 250 10:19 26.08.2019
3042 Rain 6 1006 93 5000 1.5 0 09:42 26.08.2019
3043 Rain 6 1006 93 5000 1.5 0 09:24 26.08.2019
3044 Rain 6 1004 93 10000 1.5 0 08:56 26.08.2019
3045 Rain 6 1004 93 10000 1.5 0 08:38 26.08.2019
3046 Rain 6 1004 93 10000 1.5 0 08:19 26.08.2019
3047 Rain 5 1004 100 8000 1.5 0 07:44 26.08.2019
3048 Rain 5 1004 100 8000 1.5 0 07:25 26.08.2019
3049 Rain 5 1005 100 5000 0.5 0 06:57 26.08.2019
3050 Rain 5 1005 100 5000 0.5 0 06:38 26.08.2019
3051 Rain 5 1005 100 5000 0.5 0 06:18 26.08.2019
3052 Rain 6 1007 93 8000 2.65 343.228 04:54 26.08.2019
3053 Rain 6 1008 93 8000 1 0 03:49 26.08.2019
3054 Rain 7 1008 87 10000 1 0 02:31 26.08.2019
3055 Clouds 7 1009 87 9000 0.5 0 01:23 26.08.2019
3056 Clear 9 1010 76 7000 2.7 341.726 00:44 26.08.2019
3057 Clear 9 1010 76 7000 2.7 341.726 00:44 26.08.2019
3058 Clear 9 1010 76 7000 1.63 342.297 00:25 26.08.2019
3059 Clear 9 1011 76 10000 1.5 280 23:44 25.08.2019
3060 Clear 9 1011 76 10000 1.5 280 23:20 25.08.2019
3061 Clear 10 1012 71 10000 0.5 0 22:58 25.08.2019
3062 Clear 10 1012 71 10000 0.5 0 22:39 25.08.2019
3063 Clear 10 1012 71 10000 0.5 0 22:20 25.08.2019
3064 Clear 10 1013 61 10000 0.5 0 21:58 25.08.2019
3065 Clear 10 1013 61 10000 0.5 0 21:58 25.08.2019
3066 Clear 10 1013 61 10000 0.5 0 21:39 25.08.2019
3067 Clear 10 1013 61 10000 0.5 0 21:18 25.08.2019
3068 Clear 10 1014 66 10000 1.5 280 20:40 25.08.2019
3069 Clear 10 1014 66 10000 1.5 280 20:20 25.08.2019
3070 Clear 8 1015 75 10000 1.5 120 19:59 25.08.2019
3071 Clear 8 1015 75 10000 1.5 120 19:39 25.08.2019
3072 Clear 8 1015 75 10000 1.5 120 19:20 25.08.2019
3073 Clear 5 1016 100 10000 0.5 0 18:58 25.08.2019
3074 Clear 5 1016 100 10000 0.5 0 18:39 25.08.2019
3075 Clear 5 1016 100 10000 0.5 0 18:21 25.08.2019
3076 Clouds 3 1017 100 10000 1 0 17:45 25.08.2019
3077 Clouds 3 1017 100 10000 1 0 17:25 25.08.2019
3078 Fog 3 1018 100 2100 2.1 80 16:59 25.08.2019
3079 Fog 3 1018 100 2100 2.1 80 16:37 25.08.2019
3080 Fog 3 1018 100 2100 2.1 80 16:18 25.08.2019
3081 Fog 2 1019 100 500 1.01 95.626 15:43 25.08.2019
3082 Fog 2 1019 100 500 0.92 319.304 15:25 25.08.2019
3083 Fog 1 1019 100 500 0.5 0 14:43 25.08.2019
3084 Fog 1 1019 100 500 0.5 0 14:43 25.08.2019
3085 Fog 1 1019 100 500 0.5 0 14:24 25.08.2019
3086 Fog 1 1019 100 650 1 0 13:56 25.08.2019
3087 Fog 1 1019 100 650 1 0 13:37 25.08.2019
3088 Fog 1 1019 100 650 1 0 13:18 25.08.2019
3089 Fog 2 1018 100 550 0.5 0 12:44 25.08.2019
3090 Fog 2 1018 100 550 0.5 0 12:25 25.08.2019
3091 Fog 2 1018 93 5000 1.71 309.115 11:59 25.08.2019
3092 Fog 2 1018 93 5000 1.71 309.115 11:40 25.08.2019
3093 Fog 2 1018 93 5000 1.71 309.115 11:21 25.08.2019
3094 Clear 3 1018 100 10000 1 0 10:57 25.08.2019
3095 Clear 3 1018 100 10000 1 0 10:38 25.08.2019
3096 Clear 3 1018 100 10000 1 0 10:19 25.08.2019
3097 Clouds 4 1018 93 8000 1 0 09:44 25.08.2019
3098 Clouds 4 1018 93 8000 1 0 09:24 25.08.2019
3099 Mist 4 1018 93 4500 0.5 0 08:48 25.08.2019
3100 Mist 4 1018 93 4500 0.5 0 08:29 25.08.2019
3101 Rain 4 1018 100 8000 1.5 0 07:55 25.08.2019
3102 Rain 4 1018 100 8000 1.5 0 07:33 25.08.2019
3103 Clouds 4 1018 100 10000 1 0 06:40 25.08.2019
3104 Clouds 4 1017 100 9000 0.5 0 05:35 25.08.2019
3105 Rain 5 1016 93 7000 0.5 0 03:51 25.08.2019
3106 Rain 5 1015 93 10000 2.1 280 02:44 25.08.2019
3107 Rain 5 1015 93 10000 2.1 280 02:20 25.08.2019
3108 Rain 5 1014 93 4300 1 0 00:56 25.08.2019
3109 Rain 5 1014 93 4300 1 0 00:24 25.08.2019
3110 Rain 5 1013 93 7000 2.35 302.572 23:58 24.08.2019
3111 Rain 5 1013 93 7000 2.35 302.572 23:40 24.08.2019
3112 Rain 5 1013 93 7000 2.35 302.572 23:22 24.08.2019
3113 Rain 5 1013 93 10000 1 0 22:54 24.08.2019
3114 Rain 5 1013 93 10000 1 0 22:36 24.08.2019
3115 Rain 5 1013 93 10000 1 0 22:18 24.08.2019
3116 Rain 5 1013 93 10000 1 0 21:42 24.08.2019
3117 Rain 5 1013 93 10000 1 0 21:42 24.08.2019
3118 Rain 5 1013 93 10000 1 0 21:23 24.08.2019
3119 Rain 5 1013 93 3600 2.1 240 20:58 24.08.2019
3120 Rain 5 1013 93 3600 2.1 240 20:58 24.08.2019
3121 Rain 5 1013 93 3600 2.1 240 20:39 24.08.2019
3122 Rain 5 1013 93 3600 2.1 240 20:19 24.08.2019
3123 Rain 6 1012 100 8000 1.5 260 19:57 24.08.2019
3124 Rain 6 1012 100 8000 1.5 260 19:38 24.08.2019
3125 Rain 6 1012 100 8000 1.5 260 19:20 24.08.2019
3126 Rain 7 1011 93 5000 1 0 18:46 24.08.2019
3127 Rain 7 1011 93 5000 1 0 18:24 24.08.2019
3128 Rain 7 1011 93 2800 0.5 0 17:46 24.08.2019
3129 Rain 7 1011 93 2800 0.5 0 17:27 24.08.2019
3130 Rain 6 1012 100 9000 1 0 16:56 24.08.2019
3131 Rain 6 1012 100 9000 1 0 16:37 24.08.2019
3132 Rain 6 1012 100 9000 1 0 16:19 24.08.2019
3133 Rain 5 1013 100 7000 2.08 338.434 15:44 24.08.2019
3134 Rain 5 1013 100 7000 2.08 338.434 15:25 24.08.2019
3135 Clear 5 1012 93 9000 1 0 14:57 24.08.2019
3136 Clear 5 1012 93 9000 1 0 14:38 24.08.2019
3137 Clear 5 1012 93 9000 1 0 14:18 24.08.2019
3138 Rain 5 1013 93 5000 2.68 341.741 13:43 24.08.2019
3139 Rain 5 1013 93 5000 3.76 349.085 13:22 24.08.2019
3140 Rain 4 1013 100 4600 1 0 12:59 24.08.2019
3141 Rain 4 1013 100 4600 1 0 12:40 24.08.2019
3142 Rain 4 1013 100 4600 1 0 12:40 24.08.2019
3143 Rain 4 1013 100 4600 1 0 12:22 24.08.2019
3144 Mist 4 1013 100 5000 1 0 11:46 24.08.2019
3145 Mist 4 1013 100 5000 1 0 11:26 24.08.2019
3146 Mist 4 1013 100 4300 0.5 0 10:59 24.08.2019
3147 Mist 4 1013 100 4300 0.5 0 10:38 24.08.2019
3148 Mist 4 1013 100 4300 0.5 0 10:19 24.08.2019
3149 Mist 5 1014 93 6000 1 0 09:41 24.08.2019
3150 Mist 5 1014 93 6000 1 0 09:18 24.08.2019
3151 Mist 5 1014 100 3100 0.5 0 08:43 24.08.2019
3152 Mist 5 1014 100 3100 0.5 0 08:23 24.08.2019
3153 Mist 5 1014 100 5000 0.5 0 07:50 24.08.2019
3154 Mist 5 1014 100 5000 0.5 0 07:29 24.08.2019
3155 Rain 6 1014 93 5000 2.43 315.267 06:31 24.08.2019
3156 Mist 5 1014 93 2400 1 0 05:57 24.08.2019
3157 Mist 5 1014 93 2400 1 0 05:35 24.08.2019
3158 Clouds 7 1015 93 5000 1 0 03:40 24.08.2019
3159 Rain 7 1014 93 8000 0.5 0 02:39 24.08.2019
3160 Rain 8 1014 87 7000 1 0 01:52 24.08.2019
3161 Clouds 8 1014 87 7000 1 0 01:22 24.08.2019
3162 Rain 9 1014 81 10000 1.5 250 00:44 24.08.2019
3163 Rain 9 1014 81 10000 1.5 250 00:21 24.08.2019
3164 Clouds 11 1014 71 10000 1 0 23:43 23.08.2019
3165 Clouds 11 1014 71 10000 1 0 23:19 23.08.2019
3166 Clouds 11 1013 66 10000 0.5 0 22:44 23.08.2019
3167 Clouds 11 1013 66 10000 0.5 0 22:24 23.08.2019
3168 Haze 9 1014 76 10000 1 0 21:54 23.08.2019
3169 Haze 9 1014 76 10000 1 0 21:54 23.08.2019
3170 Haze 9 1014 76 10000 1 0 21:36 23.08.2019
3171 Haze 9 1014 76 10000 1 0 21:18 23.08.2019
3172 Clouds 8 1014 75 10000 1 0 20:45 23.08.2019
3173 Clouds 8 1014 75 10000 1 0 20:27 23.08.2019
3174 Clouds 7 1015 75 10000 1.5 120 19:45 23.08.2019
3175 Clouds 7 1015 75 10000 1.5 120 19:19 23.08.2019
3176 Haze 6 1016 87 10000 0.5 0 18:49 23.08.2019
3177 Haze 6 1016 87 10000 0.5 0 18:31 23.08.2019
3178 Mist 5 1016 100 9000 1.5 280 17:59 23.08.2019
3179 Mist 5 1016 100 9000 1.5 280 17:40 23.08.2019
3180 Mist 5 1016 100 9000 1.5 280 17:21 23.08.2019
3181 Mist 4 1017 100 5000 0.5 210.016 16:48 23.08.2019
3182 Mist 4 1017 100 5000 0.5 210.016 16:29 23.08.2019
3183 Mist 3 1017 100 5000 1 0 15:58 23.08.2019
3184 Mist 3 1017 100 5000 1 0 15:38 23.08.2019
3185 Mist 3 1017 100 5000 1 0 15:20 23.08.2019
3186 Clouds 2 1016 100 6000 0.5 0 14:43 23.08.2019
3187 Clouds 2 1016 100 6000 0.5 0 14:21 23.08.2019
3188 Mist 2 1017 100 4100 1.5 280 13:58 23.08.2019
3189 Mist 2 1017 100 4100 1.5 280 13:58 23.08.2019
3190 Mist 2 1017 100 4100 1.5 280 13:40 23.08.2019
3191 Mist 2 1017 100 4100 1.5 280 13:22 23.08.2019
3192 Mist 2 1017 100 2000 1.5 290 12:58 23.08.2019
3193 Mist 2 1017 100 2000 1.5 290 12:40 23.08.2019
3194 Mist 2 1017 100 2000 1.5 290 12:21 23.08.2019
3195 Fog 2 1017 100 1100 1 290 11:56 23.08.2019
3196 Fog 2 1017 100 1100 1 290 11:37 23.08.2019
3197 Fog 2 1017 100 1100 1 290 11:18 23.08.2019
3198 Fog 1 1016 100 1000 1 0 10:43 23.08.2019
3199 Fog 1 1016 100 1000 1 0 10:43 23.08.2019
3200 Fog 1 1016 100 1000 1 0 10:43 23.08.2019
3201 Fog 1 1016 100 1000 1 0 10:22 23.08.2019
3202 Fog 1 1017 100 550 1.67 304.212 09:57 23.08.2019
3203 Fog 1 1017 100 550 1.67 304.212 09:38 23.08.2019
3204 Fog 1 1017 100 550 1.56 321.077 09:18 23.08.2019
3205 Fog 1 1018 100 550 1 0 08:41 23.08.2019
3206 Fog 1 1018 100 550 1 0 08:19 23.08.2019
3207 Mist 2 1019 100 3400 1.56 321.077 07:43 23.08.2019
3208 Mist 2 1019 100 3400 1.56 321.077 07:24 23.08.2019
3209 Mist 2 1019 100 3400 1.56 321.077 07:24 23.08.2019
3210 Mist 3 1019 100 4000 1.56 321.077 06:57 23.08.2019
3211 Mist 3 1019 100 4000 1.56 321.077 06:38 23.08.2019
3212 Mist 3 1019 100 4000 1.61 304.391 06:20 23.08.2019
3213 Mist 3 1019 100 2400 0.5 0 05:34 23.08.2019
3214 Mist 3 1020 100 6000 0.5 280 04:45 23.08.2019
3215 Mist 5 1021 93 6000 1 0 02:58 23.08.2019
3216 Mist 5 1021 93 6000 1 0 02:23 23.08.2019
3217 Mist 6 1021 93 5000 0.49 262.89 01:39 23.08.2019
3218 Clear 8 1021 81 7000 0.25 103.371 00:45 23.08.2019
3219 Clear 8 1021 81 7000 1.03 156.736 00:19 23.08.2019
3220 Clear 8 1021 81 7000 1.03 156.736 00:19 23.08.2019
3221 Clouds 10 1022 71 10000 1.03 156.736 23:47 22.08.2019
3222 Clouds 10 1022 71 10000 1.03 156.736 23:24 22.08.2019
3223 Clear 10 1022 66 10000 1 0 22:56 22.08.2019
3224 Clear 10 1022 66 10000 1 0 22:38 22.08.2019
3225 Clear 10 1022 66 10000 1 0 22:19 22.08.2019
3226 Clear 10 1023 61 10000 0.5 0 21:55 22.08.2019
3227 Clear 10 1023 61 10000 0.5 0 21:36 22.08.2019
3228 Clear 10 1023 61 10000 0.5 0 21:18 22.08.2019
3229 Clear 10 1024 66 10000 3.1 110 20:54 22.08.2019
3230 Clear 10 1024 66 10000 3.1 110 20:54 22.08.2019
3231 Clear 10 1024 66 10000 3.1 110 20:36 22.08.2019
3232 Clear 10 1024 66 10000 3.1 110 20:18 22.08.2019
3233 Clouds 8 1026 75 10000 1 0 19:40 22.08.2019
3234 Clouds 8 1026 75 10000 1 0 19:21 22.08.2019
3235 Clouds 6 1027 100 10000 0.5 0 18:59 22.08.2019
3236 Clouds 6 1027 100 10000 0.5 0 18:40 22.08.2019
3237 Clouds 6 1027 100 10000 0.5 0 18:40 22.08.2019
3238 Clouds 6 1027 100 10000 0.5 0 18:20 22.08.2019
3239 Mist 5 1028 100 7000 0.5 0 17:57 22.08.2019
3240 Mist 5 1028 100 7000 0.5 0 17:57 22.08.2019
3241 Mist 5 1028 100 7000 0.5 0 17:39 22.08.2019
3242 Mist 5 1028 100 7000 0.5 0 17:19 22.08.2019
3243 Fog 3 1028 100 150 0.5 0 16:56 22.08.2019
3244 Fog 3 1028 100 150 0.5 0 16:37 22.08.2019
3245 Fog 3 1028 100 150 0.5 0 16:19 22.08.2019
3246 Fog 3 1028 100 150 0.5 0 16:19 22.08.2019
3247 Fog 3 1028 100 150 0.5 0 16:18 22.08.2019
3248 Fog 3 1029 100 150 1 330 15:42 22.08.2019
3249 Fog 3 1029 100 150 1 330 15:42 22.08.2019
3250 Fog 3 1029 100 150 1 330 15:42 22.08.2019
3251 Fog 3 1029 100 150 1 330 15:23 22.08.2019
3252 Fog 3 1028 100 400 1 0 14:58 22.08.2019
3253 Fog 3 1028 100 400 1 0 14:40 22.08.2019
3254 Fog 3 1028 100 400 1 0 14:21 22.08.2019
3255 Fog 2 1028 100 1600 1.49 310.973 13:57 22.08.2019
3256 Fog 2 1028 100 1600 1.49 310.973 13:38 22.08.2019
3257 Fog 2 1028 100 1600 1.34 325.37 13:18 22.08.2019
3258 Mist 3 1027 100 6000 0.5 270 12:41 22.08.2019
3259 Mist 3 1027 100 6000 0.5 270 12:23 22.08.2019
3260 Mist 4 1027 93 6000 0.5 0 11:58 22.08.2019
3261 Mist 4 1027 93 6000 0.5 0 11:40 22.08.2019
3262 Mist 4 1027 93 6000 0.5 0 11:19 22.08.2019
3263 Clouds 4 1027 100 10000 1.5 260 10:57 22.08.2019
3264 Clouds 4 1027 100 10000 1.5 260 10:37 22.08.2019
3265 Clouds 4 1027 100 10000 1.5 260 10:19 22.08.2019
3266 Clouds 5 1027 93 10000 2.05 325.806 09:54 22.08.2019
3267 Clouds 5 1027 93 10000 2.05 325.806 09:54 22.08.2019
3268 Clouds 5 1027 93 10000 2.05 325.806 09:36 22.08.2019
3269 Clouds 5 1027 93 10000 2.12 306.222 09:18 22.08.2019
3270 Clouds 5 1026 93 10000 1.5 280 08:41 22.08.2019
3271 Clouds 5 1026 93 10000 1.5 280 08:21 22.08.2019
3272 Rain 4 1026 93 8000 1.5 280 07:55 22.08.2019
3273 Rain 4 1026 93 8000 1.5 280 07:37 22.08.2019
3274 Rain 4 1026 93 8000 1.5 280 07:18 22.08.2019
3275 Clouds 4 1026 93 9000 1.5 280 06:44 22.08.2019
3276 Clouds 4 1026 93 9000 1.5 280 06:20 22.08.2019
3277 Rain 4 1025 100 10000 1 0 04:58 22.08.2019
3278 Rain 4 1024 93 10000 1.5 280 03:20 22.08.2019
3279 Mist 4 1024 93 4200 2.1 280 02:35 22.08.2019
3280 Rain 5 1023 93 6000 2.35 313.843 01:27 22.08.2019
3281 Rain 2 1024 96 0 2.35 313.843 00:49 22.08.2019
3282 Clouds 5 1021 86 10000 2.1 270 00:30 22.08.2019
3283 Clouds 5 1021 86 10000 2.1 270 23:58 21.08.2019
3284 Clouds 5 1021 86 10000 2.1 270 23:39 21.08.2019
3285 Clouds 5 1021 86 10000 2.1 270 23:20 21.08.2019
3286 Rain 5 1020 93 9000 1.5 310 22:56 21.08.2019
3287 Rain 5 1020 93 9000 1.5 310 22:38 21.08.2019
3288 Rain 5 1020 93 9000 1.5 310 22:19 21.08.2019
3289 Rain 5 1019 93 7000 1.5 240 21:55 21.08.2019
3290 Rain 5 1019 93 7000 1.5 240 21:36 21.08.2019
3291 Rain 5 1019 93 7000 1.5 240 21:18 21.08.2019
3292 Rain 4 1018 96 0 1.03 283.186 20:43 21.08.2019
3293 Rain 4 1018 96 0 1.03 283.186 20:24 21.08.2019
3294 Rain 4 1018 96 0 1.03 283.186 19:57 21.08.2019
3295 Rain 4 1018 96 0 1.03 283.186 19:39 21.08.2019
3296 Fog 5 1018 93 10000 1.5 110 19:20 21.08.2019
3297 Fog 5 1018 93 10000 1.5 110 18:55 21.08.2019
3298 Fog 5 1018 93 10000 1.5 110 18:37 21.08.2019
3299 Fog 5 1018 93 10000 1.5 110 18:19 21.08.2019
3300 Rain 5 1018 93 9000 1.5 120 17:42 21.08.2019
3301 Rain 5 1018 93 9000 1.5 120 17:20 21.08.2019
3302 Rain 4 1018 93 5000 1.05 256.719 16:54 21.08.2019
3303 Rain 4 1018 93 5000 1.05 256.719 16:36 21.08.2019
3304 Rain 4 1018 93 5000 1.05 256.719 16:18 21.08.2019
3305 Rain 4 1017 93 7000 1.05 256.719 15:42 21.08.2019
3306 Rain 4 1017 93 7000 1.79 25.261 15:22 21.08.2019
3307 Rain 3 1016 100 7000 1.79 25.261 14:58 21.08.2019
3308 Rain 3 1016 100 7000 1.79 25.261 14:39 21.08.2019
3309 Rain 3 1016 100 7000 1.79 25.261 14:20 21.08.2019
3310 Rain 3 1016 100 7000 1.79 25.261 14:20 21.08.2019
3311 Rain 3 1015 100 10000 1.79 25.261 13:56 21.08.2019
3312 Rain 3 1015 100 10000 1.79 25.261 13:38 21.08.2019
3313 Clouds 3 1015 100 10000 1.41 21.242 13:19 21.08.2019
3314 Rain 4 1016 93 10000 1.41 21.242 12:41 21.08.2019
3315 Rain 4 1016 93 10000 1.41 21.242 12:41 21.08.2019
3316 Rain 4 1016 93 10000 1.61 328.172 12:23 21.08.2019
3317 Clouds 4 1015 93 8000 1.61 328.172 11:59 21.08.2019
3318 Clouds 4 1015 93 8000 1.61 328.172 11:41 21.08.2019
3319 Clouds 4 1015 93 8000 1.61 328.172 11:22 21.08.2019
3320 Rain 4 1015 93 8000 1.61 328.172 10:57 21.08.2019
3321 Rain 4 1015 93 8000 1.61 328.172 10:38 21.08.2019
3322 Rain 4 1015 93 8000 1.61 328.172 10:19 21.08.2019
3323 Rain 4 1015 93 10000 1.61 328.172 09:55 21.08.2019
3324 Rain 4 1015 93 10000 1.61 328.172 09:37 21.08.2019
3325 Rain 4 1015 93 10000 1.4 335.967 09:18 21.08.2019
3326 Clear 4 1015 93 10000 1.4 335.967 08:41 21.08.2019
3327 Clear 4 1015 93 10000 1.4 335.967 08:23 21.08.2019
3328 Clouds 5 1015 75 10000 2.6 0 07:41 21.08.2019
3329 Clouds 5 1015 75 10000 2.6 0 07:22 21.08.2019
3330 Rain 5 1016 75 10000 2.6 0 06:49 21.08.2019
3331 Rain 5 1016 75 10000 2.6 0 06:22 21.08.2019
3332 Rain 5 1016 80 10000 6.2 70 05:42 21.08.2019
3333 Rain 5 1016 80 10000 6.2 70 05:23 21.08.2019
3334 Rain 6 1018 75 10000 5.7 70 03:38 21.08.2019
3335 Rain 8 1018 52 10000 4.6 60 01:47 21.08.2019
3336 -273 0 0 0 0 0 00:46 21.08.2019
3337 Rain 8 1019 52 10000 4.1 90 00:24 21.08.2019
3338 Clouds 8 1019 52 10000 5.1 60 23:59 20.08.2019
3339 Clouds 8 1019 52 10000 5.1 60 23:41 20.08.2019
3340 Clouds 8 1019 52 10000 5.1 60 23:18 20.08.2019
3341 Clouds 9 1020 49 10000 5.7 80 22:56 20.08.2019
3342 Clouds 9 1020 49 10000 5.7 80 22:37 20.08.2019
3343 Clouds 9 1020 49 10000 5.7 80 22:18 20.08.2019
3344 Clouds 9 1020 49 10000 6.7 90 21:57 20.08.2019
3345 Clouds 9 1020 49 10000 6.7 90 21:37 20.08.2019
3346 Clouds 9 1020 49 10000 6.7 90 21:19 20.08.2019
3347 Clouds 9 1021 49 10000 5.1 90 20:42 20.08.2019
3348 Clouds 9 1021 49 10000 5.1 90 20:24 20.08.2019
3349 Clouds 8 1022 52 10000 7.7 90 19:54 20.08.2019
3350 Clouds 8 1022 52 10000 7.7 90 19:36 20.08.2019
3351 Clouds 8 1022 52 10000 7.7 90 19:36 20.08.2019
3352 Clouds 8 1022 52 10000 7.7 90 19:18 20.08.2019
3353 Clouds 8 1022 52 10000 7.7 90 19:18 20.08.2019
3354 Clouds 8 1023 52 10000 6.2 90 18:54 20.08.2019
3355 Clouds 8 1023 52 10000 6.2 90 18:54 20.08.2019
3356 Clouds 8 1023 52 10000 6.2 90 18:36 20.08.2019
3357 Clouds 8 1023 52 10000 6.2 90 18:18 20.08.2019
3358 Clouds 7 1023 56 10000 6.7 100 17:39 20.08.2019
3359 Clouds 7 1023 56 10000 6.7 100 17:20 20.08.2019
3360 Clouds 1 1024 88 0 1.73 82.086 16:48 20.08.2019
3361 Clouds 6 1024 60 10000 5.7 100 16:28 20.08.2019
3362 Clouds 6 1024 60 10000 5.7 100 15:59 20.08.2019
3363 Clouds 6 1024 60 10000 5.7 100 15:40 20.08.2019
3364 Clouds 6 1024 60 10000 5.7 100 15:18 20.08.2019
3365 Clear 6 1024 60 10000 3.6 80 14:44 20.08.2019
3366 Clear 6 1024 60 10000 3.6 80 14:22 20.08.2019
3367 Clear 6 1024 60 10000 3.6 80 14:22 20.08.2019
3368 Clear 2 1024 80 10000 1 0 13:58 20.08.2019
3369 Clear 2 1024 80 10000 1 0 13:39 20.08.2019
3370 Clear 2 1024 80 10000 1 0 13:21 20.08.2019
3371 Clear 0 1024 86 10000 0.5 0 12:54 20.08.2019
3372 Clear 0 1024 86 10000 0.5 0 12:36 20.08.2019
3373 Clear 0 1024 84 10000 0.5 0 12:18 20.08.2019
3374 Clear 0 1025 84 10000 1.33 54.001 11:42 20.08.2019
3375 Clear 0 1025 84 10000 1.33 54.001 11:21 20.08.2019
3376 Clear 0 1025 84 10000 1.33 54.001 11:21 20.08.2019
3377 Clear -1 1025 100 8000 0.5 0 10:57 20.08.2019
3378 Clear -1 1025 100 8000 0.5 0 10:38 20.08.2019
3379 Clear -1 1025 100 8000 0.5 0 10:20 20.08.2019
3380 Clear 0 1025 84 7000 1.33 54.001 09:54 20.08.2019
3381 Clear 0 1025 84 7000 1.33 54.001 09:36 20.08.2019
3382 Clear 0 1025 86 7000 0.64 78.359 09:18 20.08.2019
3383 Clear 1 1025 86 6000 1 0 08:41 20.08.2019
3384 Clear 1 1025 86 6000 1 0 08:21 20.08.2019
3385 Mist 0 1025 86 5000 0.64 78.359 07:57 20.08.2019
3386 Mist 0 1025 86 5000 0.64 78.359 07:37 20.08.2019
3387 Mist 0 1025 86 5000 0.64 78.359 07:18 20.08.2019
3388 Mist 1 1025 86 6000 0.5 0 06:28 20.08.2019
3389 Mist 0 1025 83 7000 0.46 300.77 05:58 20.08.2019
3390 Mist 0 1025 83 7000 0.46 300.77 05:38 20.08.2019
3391 Clear 0 1025 83 7000 0.5 0 04:21 20.08.2019
3392 Clear 4 1024 85 10000 0.62 274.363 02:46 20.08.2019
3393 Clouds 6 1024 85 9000 0.62 274.363 01:43 20.08.2019
3394 Clouds 6 1023 83 10000 0.57 248.311 00:59 20.08.2019
3395 Clouds 6 1023 83 10000 0.57 248.311 00:41 20.08.2019
3396 Clouds 6 1023 70 10000 1.36 237.869 00:21 20.08.2019
3397 Haze 10 1023 43 10000 0.5 0 23:40 19.08.2019
3398 Haze 10 1023 43 10000 0.5 0 23:18 19.08.2019
3399 Haze 10 1023 43 10000 1 0 22:56 19.08.2019
3400 Haze 10 1023 43 10000 1 0 22:38 19.08.2019
3401 Haze 10 1023 43 10000 1 0 22:18 19.08.2019
3402 Clear 9 1023 42 10000 0.5 0 21:56 19.08.2019
3403 Clear 9 1023 42 10000 0.5 0 21:37 19.08.2019
3404 Clear 9 1023 42 10000 0.5 0 21:37 19.08.2019
3405 Clear 9 1023 42 10000 0.5 0 21:18 19.08.2019
3406 Clouds 9 1023 45 10000 1 0 20:40 19.08.2019
3407 Clouds 9 1023 45 10000 1 0 20:40 19.08.2019
3408 Clouds 9 1023 45 10000 1 0 20:20 19.08.2019
3409 Clouds 8 1024 49 10000 0.5 0 19:58 19.08.2019
3410 Clouds 8 1024 49 10000 0.5 0 19:39 19.08.2019
3411 Clouds 8 1024 49 10000 0.5 0 19:19 19.08.2019
3412 Clouds 6 1024 56 10000 0.5 0 18:46 19.08.2019
3413 Clouds 6 1024 56 10000 0.5 0 18:28 19.08.2019
3414 Clouds 3 1025 74 10000 1.05 139.204 17:59 19.08.2019
3415 Clouds 3 1025 74 10000 1.05 139.204 17:41 19.08.2019
3416 Clouds 3 1025 74 10000 1.05 139.204 17:41 19.08.2019
3417 Clouds 3 1025 74 10000 1.05 139.204 17:21 19.08.2019
3418 Clouds 1 1025 86 10000 1 0 16:58 19.08.2019
3419 Clouds 1 1025 86 10000 1 0 16:37 19.08.2019
3420 Clouds 1 1025 86 10000 1 0 16:37 19.08.2019
3421 Clouds 1 1025 86 10000 1 0 16:19 19.08.2019
3422 Mist -1 1025 92 8000 1 0 15:55 19.08.2019
3423 Mist -1 1025 92 8000 1 0 15:36 19.08.2019
3424 Mist -1 1025 92 8000 1 0 15:36 19.08.2019
3425 Mist -1 1025 92 8000 1 0 15:18 19.08.2019
3426 Clouds -2 1024 100 7000 0.5 0 14:40 19.08.2019
3427 Clouds -2 1024 100 7000 0.5 0 14:21 19.08.2019
3428 Clear -2 1024 92 10000 0.5 0 13:57 19.08.2019
3429 Clear -2 1024 92 10000 0.5 0 13:37 19.08.2019
3430 Clear -2 1024 92 10000 0.5 0 13:19 19.08.2019
3431 Clear -1 1024 92 10000 1 280 12:44 19.08.2019
3432 Clear -1 1024 92 10000 1 280 12:24 19.08.2019
3433 Clear -1 1024 92 10000 0.5 0 11:59 19.08.2019
3434 Clear -1 1024 92 10000 0.5 0 11:37 19.08.2019
3435 Clear -1 1024 92 10000 0.5 0 11:19 19.08.2019
3436 Clear 1 1024 80 10000 1.5 0 10:40 19.08.2019
3437 Clear 1 1024 80 10000 1.5 0 10:20 19.08.2019
3438 Clear 1 1024 80 10000 1.5 0 10:19 19.08.2019
3439 Clear 0 1024 87 10000 0.5 0 09:59 19.08.2019
3440 Clear 0 1024 87 10000 0.5 0 09:41 19.08.2019
3441 Clear 0 1024 87 10000 0.5 0 09:21 19.08.2019
3442 Clear 1 1025 80 10000 1 0 08:55 19.08.2019
3443 Clear 1 1025 80 10000 1 0 08:36 19.08.2019
3444 Clear 1 1025 80 10000 1 0 08:18 19.08.2019
3445 Clear 3 1025 69 10000 2.1 0 07:42 19.08.2019
3446 Clear 3 1025 69 10000 2.1 0 07:23 19.08.2019
3447 Clear 6 1025 52 10000 5.7 90 06:43 19.08.2019
3448 Clear 6 1025 52 10000 5.7 90 06:18 19.08.2019
3449 Clear 6 1026 48 10000 4.1 70 04:46 19.08.2019
3450 Clear 5 1026 56 10000 3.6 80 03:59 19.08.2019
3451 Clear 5 1026 56 10000 3.6 80 03:19 19.08.2019
3452 Clear 6 1026 48 10000 3.6 70 01:46 19.08.2019
3453 Clear 6 1027 48 10000 4.1 70 00:59 19.08.2019
3454 Clear 6 1027 48 10000 4.1 70 00:38 19.08.2019
3455 Clear 6 1027 48 10000 4.1 70 00:18 19.08.2019
3456 Clear 6 1027 45 10000 7.2 90 23:40 18.08.2019
3457 Clear 6 1027 45 10000 7.2 90 23:20 18.08.2019
3458 Clear 6 1027 45 10000 7.2 90 23:20 18.08.2019
3459 Clear 6 1027 45 10000 7.2 90 22:40 18.08.2019
3460 Clear 6 1027 45 10000 7.2 90 22:22 18.08.2019
3461 Clear 6 1028 48 10000 6.7 90 21:57 18.08.2019
3462 Clear 6 1028 48 10000 6.7 90 21:39 18.08.2019
3463 Clear 6 1028 48 10000 6.7 90 21:20 18.08.2019
3464 Clear 6 1029 45 10000 7.2 100 20:57 18.08.2019
3465 Clear 6 1029 45 10000 7.2 100 20:38 18.08.2019
3466 Clear 6 1029 45 10000 7.2 100 20:20 18.08.2019
3467 Clear 6 1030 45 10000 7.7 90 19:42 18.08.2019
3468 Clear 6 1030 45 10000 7.7 90 19:23 18.08.2019
3469 Clear 4 1031 51 10000 7.7 90 18:57 18.08.2019
3470 Clear 4 1031 51 10000 7.7 90 18:39 18.08.2019
3471 Clear 4 1031 51 10000 7.7 90 18:21 18.08.2019
3472 Clear 4 1031 48 10000 6.7 90 17:55 18.08.2019
3473 Clear 4 1031 48 10000 6.7 90 17:36 18.08.2019
3474 Clear 4 1031 48 10000 6.7 90 17:18 18.08.2019
3475 Clear 3 1032 55 10000 6.2 90 16:43 18.08.2019
3476 Clear 3 1032 55 10000 6.2 90 16:23 18.08.2019
3477 Clear 2 1032 55 10000 5.7 90 15:59 18.08.2019
3478 Clear 2 1032 55 10000 5.7 90 15:39 18.08.2019
3479 Clear 2 1032 55 10000 5.7 90 15:20 18.08.2019
3480 Clear 2 1032 55 10000 4.6 70 14:57 18.08.2019
3481 Clear 2 1032 55 10000 4.6 70 14:38 18.08.2019
3482 Clear 2 1032 55 10000 4.6 70 14:19 18.08.2019
3483 Clear 3 1032 47 10000 4.1 50 13:56 18.08.2019
3484 Clear 3 1032 47 10000 4.1 50 13:38 18.08.2019
3485 Clear 3 1032 47 10000 4.1 50 13:19 18.08.2019
3486 Clouds 3 1032 51 10000 4.1 100 12:41 18.08.2019
3487 Clouds 3 1032 51 10000 4.1 100 12:22 18.08.2019
3488 Clouds 3 1031 51 10000 4.6 90 11:55 18.08.2019
3489 Clouds 3 1031 51 10000 4.6 90 11:36 18.08.2019
3490 Clouds 3 1031 51 10000 4.6 90 11:18 18.08.2019
3491 Clouds 3 1031 51 10000 3.1 80 10:41 18.08.2019
3492 Clouds 3 1031 51 10000 3.1 80 10:21 18.08.2019
3493 Clouds 3 1031 51 10000 3.6 80 09:50 18.08.2019
3494 Clouds 3 1031 51 10000 3.6 80 09:22 18.08.2019
3495 Clouds 4 1031 51 10000 4.6 60 08:54 18.08.2019
3496 Clouds 4 1031 51 10000 4.6 60 08:36 18.08.2019
3497 Clouds 4 1031 51 10000 4.6 60 08:18 18.08.2019
3498 Clouds 4 1031 51 10000 4.1 50 07:43 18.08.2019
3499 Clouds 4 1031 51 10000 4.1 50 07:24 18.08.2019
3500 Clouds 5 1029 52 10000 5.7 100 05:47 18.08.2019
3501 Clear 5 1028 52 10000 5.7 90 04:52 18.08.2019
3502 Clouds 6 1027 52 10000 4.1 100 03:23 18.08.2019
3503 Clouds 7 1025 48 10000 3.6 70 02:46 18.08.2019
3504 Clouds 7 1025 48 10000 3.6 70 02:19 18.08.2019
3505 Clear 7 1024 52 10000 3.1 80 01:30 18.08.2019
3506 Clouds 7 1023 52 10000 3.6 80 00:46 18.08.2019
3507 Rain 7 1023 52 10000 3.6 80 00:24 18.08.2019
3508 Rain 8 1022 49 10000 4.6 80 23:58 17.08.2019
3509 Rain 8 1022 49 10000 4.6 80 23:40 17.08.2019
3510 Rain 8 1022 49 10000 4.6 80 23:22 17.08.2019
3511 Clear 8 1021 52 10000 3.1 60 22:59 17.08.2019
3512 Clear 8 1021 52 10000 3.1 60 22:41 17.08.2019
3513 Clear 8 1021 52 10000 3.1 60 22:23 17.08.2019
3514 Clear 8 1020 61 10000 5.1 80 21:56 17.08.2019
3515 Clear 8 1020 61 10000 5.1 80 21:38 17.08.2019
3516 Clear 8 1020 61 10000 5.1 80 21:20 17.08.2019
3517 Clear 7 1020 75 10000 1 0 20:39 17.08.2019
3518 Clear 7 1020 75 10000 1 0 20:21 17.08.2019
3519 Clear 5 1020 86 10000 1 0 19:56 17.08.2019
3520 Clear 5 1020 86 10000 1 0 19:38 17.08.2019
3521 Clear 5 1020 86 10000 1 0 19:19 17.08.2019
3522 Rain 4 1020 100 10000 1 0 18:41 17.08.2019
3523 Clouds 4 1020 100 10000 1 0 18:19 17.08.2019
3524 Clouds 4 1020 100 10000 1 0 18:19 17.08.2019
3525 Clouds 3 1019 100 10000 2.1 300 17:56 17.08.2019
3526 Clouds 3 1019 100 10000 2.1 300 17:38 17.08.2019
3527 Clouds 3 1019 100 10000 2.1 300 17:19 17.08.2019
3528 Clouds 3 1019 100 6000 2.03 127.186 16:43 17.08.2019
3529 Clouds 3 1019 100 6000 2.03 127.186 16:25 17.08.2019
3530 Mist 3 1018 100 2500 2.03 127.186 15:58 17.08.2019
3531 Mist 3 1018 100 2500 2.03 127.186 15:39 17.08.2019
3532 Mist 3 1018 100 2500 0.81 287.025 15:20 17.08.2019
3533 Mist 2 1018 100 1300 0.5 0 14:41 17.08.2019
3534 Mist 2 1018 100 1300 0.5 0 14:22 17.08.2019
3535 Mist 2 1017 100 2200 0.81 287.025 13:48 17.08.2019
3536 Mist 2 1017 100 2200 0.54 264.247 13:23 17.08.2019
3537 Fog 2 1016 100 900 0.54 264.247 12:58 17.08.2019
3538 Fog 2 1016 100 900 0.54 264.247 12:39 17.08.2019
3539 Fog 2 1016 100 900 0.84 284.5 12:19 17.08.2019
3540 Fog 1 1016 100 900 0.5 0 11:44 17.08.2019
3541 Fog 1 1016 100 900 0.5 0 11:21 17.08.2019
3542 Fog 2 1016 100 900 1.5 290 10:56 17.08.2019
3543 Fog 2 1016 100 900 1.5 290 10:38 17.08.2019
3544 Fog 2 1016 100 900 1.5 290 10:18 17.08.2019
3545 Fog 2 1016 100 1300 1 0 09:44 17.08.2019
3546 Fog 2 1016 100 1300 1 0 09:26 17.08.2019
3547 Fog 3 1016 93 1000 1.59 306.603 08:54 17.08.2019
3548 Fog 3 1016 93 1000 1.59 306.603 08:25 17.08.2019
3549 Mist 2 1015 100 2600 0.5 240 07:46 17.08.2019
3550 Mist 2 1015 100 2600 0.5 240 07:21 17.08.2019
3551 Fog 1 1015 100 4000 1.59 306.603 06:42 17.08.2019
3552 Mist 3 1015 93 4400 1.03 293.096 05:31 17.08.2019
3553 Clear 4 1014 93 7000 1 260 04:29 17.08.2019
3554 Mist 4 1014 93 6000 0.5 0 03:19 17.08.2019
3555 Clear 6 1014 93 9000 1.5 308.003 01:42 17.08.2019
3556 Clear 6 1014 93 9000 1.58 307.123 01:24 17.08.2019
3557 Clear 8 1013 87 10000 1 0 00:54 17.08.2019
3558 Clear 8 1013 87 10000 1 0 00:27 17.08.2019
3559 Clear 9 1013 76 10000 0.6 325.467 23:48 16.08.2019
3560 Clear 9 1013 76 10000 0.6 325.467 23:26 16.08.2019
3561 Clouds 9 1013 76 10000 1 0 22:55 16.08.2019
3562 Clouds 9 1013 76 10000 1 0 22:36 16.08.2019
3563 Clouds 9 1013 76 10000 1 0 22:18 16.08.2019
3564 Clouds 9 1013 76 10000 1 0 22:18 16.08.2019
3565 Clouds 8 1013 81 10000 3.1 110 21:39 16.08.2019
3566 Clouds 8 1013 81 10000 3.1 110 21:19 16.08.2019
3567 Clouds 8 1014 81 10000 1.5 100 20:43 16.08.2019
3568 Clouds 8 1014 81 10000 1.5 100 20:22 16.08.2019
3569 Clouds 8 1014 81 10000 1.5 0 19:59 16.08.2019
3570 Clouds 8 1014 81 10000 1.5 0 19:40 16.08.2019
3571 Clouds 8 1014 81 10000 1.5 0 19:20 16.08.2019
3572 Mist 4 1015 87 10000 1 0 18:42 16.08.2019
3573 Mist 4 1015 87 10000 1 0 18:42 16.08.2019
3574 Mist 4 1015 87 10000 1 0 18:23 16.08.2019
3575 Fog 4 1015 93 10000 0.5 0 17:48 16.08.2019
3576 Fog 4 1015 93 10000 0.5 0 17:30 16.08.2019
3577 Fog 4 1015 93 10000 0.5 0 17:30 16.08.2019
3578 Fog 4 1013 100 300 1 50 16:59 16.08.2019
3579 Fog 5 1015 93 10000 1 70 16:40 16.08.2019
3580 Fog 5 1015 93 10000 1 70 16:19 16.08.2019
3581 Mist 4 1015 100 5000 1.22 8.582 15:56 16.08.2019
3582 Mist 4 1015 100 5000 1.22 8.582 15:38 16.08.2019
3583 Mist 4 1015 100 5000 1.48 316.977 15:19 16.08.2019
3584 Mist 4 1015 100 2100 0.5 0 14:56 16.08.2019
3585 Mist 4 1015 100 2100 0.5 0 14:56 16.08.2019
3586 Mist 4 1015 100 2100 0.5 0 14:37 16.08.2019
3587 Mist 4 1015 100 2100 0.5 0 14:18 16.08.2019
3588 Fog 4 1015 100 550 1.48 316.977 13:40 16.08.2019
3589 Fog 4 1015 100 550 1.13 296.201 13:21 16.08.2019
3590 Fog 3 1014 100 750 1 0 12:40 16.08.2019
3591 Fog 3 1014 100 750 1 0 12:21 16.08.2019
3592 Clouds 5 1014 93 9000 1 0 11:55 16.08.2019
3593 Clouds 5 1014 93 9000 1 0 11:37 16.08.2019
3594 Clouds 5 1014 93 9000 1 0 11:37 16.08.2019
3595 Clouds 5 1014 93 9000 1 0 11:18 16.08.2019
3596 Drizzle 5 1014 93 5000 0.5 0 10:42 16.08.2019
3597 Drizzle 5 1014 93 5000 0.5 0 10:20 16.08.2019
3598 Rain 5 1014 93 4400 1.12 333.503 09:39 16.08.2019
3599 Rain 5 1014 93 4400 1.1 289.029 09:19 16.08.2019
3600 Rain 5 1014 93 3800 1.1 289.029 08:57 16.08.2019
3601 Rain 5 1014 93 3800 1.1 289.029 08:38 16.08.2019
3602 Rain 5 1014 93 3800 1.1 289.029 08:19 16.08.2019
3603 Fog 5 1014 93 1200 0.5 0 07:44 16.08.2019
3604 Fog 5 1014 93 1200 0.5 0 07:25 16.08.2019
3605 Rain 5 1014 93 4500 1 0 06:43 16.08.2019
3606 Rain 5 1014 93 6000 1 0 05:58 16.08.2019
3607 Rain 5 1014 93 6000 1 0 05:33 16.08.2019
3608 Clouds 4 1013 93 8000 1 0 03:19 16.08.2019
3609 Clouds 7 1014 75 7000 0.5 0 01:50 16.08.2019
3610 Clouds 7 1014 75 7000 0.5 0 01:25 16.08.2019
3611 Clouds 7 1014 75 7000 0.5 0 01:25 16.08.2019
3612 Clear 9 1013 61 10000 1.5 260 00:48 16.08.2019
3613 Clear 9 1013 61 10000 1.5 260 00:23 16.08.2019
3614 Clear 10 1013 57 10000 2.6 280 23:55 15.08.2019
3615 Clear 10 1013 57 10000 2.6 280 23:37 15.08.2019
3616 Clear 10 1013 57 10000 2.6 280 23:18 15.08.2019
3617 Clear 11 1013 50 10000 2.6 290 22:41 15.08.2019
3618 Clear 11 1013 50 10000 2.6 290 22:21 15.08.2019
3619 Clear 11 1013 50 10000 1 0 21:56 15.08.2019
3620 Clear 11 1013 50 10000 1 0 21:38 15.08.2019
3621 Clear 11 1013 50 10000 1 0 21:19 15.08.2019
3622 Clear 10 1014 53 10000 2.6 100 20:45 15.08.2019
3623 Clear 10 1014 53 10000 2.6 100 20:22 15.08.2019
3624 Clear 9 1015 65 10000 1 0 19:59 15.08.2019
3625 Clear 9 1015 65 10000 1 0 19:39 15.08.2019
3626 Clear 9 1015 65 10000 1 0 19:21 15.08.2019
3627 Clear 7 1016 65 10000 2.1 320 18:48 15.08.2019
3628 Clear 7 1016 68 10000 2.1 320 18:24 15.08.2019
3629 Clear 4 1017 68 10000 1.5 290 17:58 15.08.2019
3630 Clear 4 1017 68 10000 1.5 290 17:38 15.08.2019
3631 Clear 4 1017 68 10000 1.5 290 17:20 15.08.2019
3632 Clear 1 1017 68 6000 1 300 16:58 15.08.2019
3633 Clear 1 1017 68 6000 1 300 16:40 15.08.2019
3634 Clear 1 1017 68 6000 1 300 16:21 15.08.2019
3635 Mist -1 1017 92 6000 0.74 111.243 15:39 15.08.2019
3636 Mist -1 1017 92 6000 0.52 340.243 15:20 15.08.2019
3637 Mist -2 1017 100 7000 0.52 340.243 14:56 15.08.2019
3638 Mist -2 1017 100 7000 0.52 340.243 14:37 15.08.2019
3639 Mist -2 1017 100 7000 0.52 340.243 14:18 15.08.2019
3640 Mist -1 1017 92 9000 0.52 340.243 13:55 15.08.2019
3641 Mist -1 1017 92 9000 0.52 340.243 13:55 15.08.2019
3642 Mist -1 1017 92 9000 0.52 340.243 13:37 15.08.2019
3643 Mist -1 1017 92 9000 0.48 338.287 13:18 15.08.2019
3644 Mist -1 1017 100 8000 0.48 338.287 12:40 15.08.2019
3645 Mist -1 1017 100 8000 0.59 72.058 12:20 15.08.2019
3646 Mist -1 1017 92 7000 0.59 72.058 11:57 15.08.2019
3647 Mist -1 1017 92 7000 0.59 72.058 11:37 15.08.2019
3648 Mist -1 1017 92 7000 0.59 72.058 11:18 15.08.2019
3649 Clear 0 1017 84 8000 0.5 0 10:58 15.08.2019
3650 Clear 0 1017 84 8000 0.5 0 10:37 15.08.2019
3651 Clear 0 1017 84 8000 0.5 0 10:18 15.08.2019
3652 Clear -1 1018 92 6000 0.5 0 09:42 15.08.2019
3653 Clear -1 1018 92 6000 0.5 0 09:22 15.08.2019
3654 Mist 0 1018 84 5000 0.5 0 08:39 15.08.2019
3655 Mist 0 1018 84 5000 0.5 0 08:21 15.08.2019
3656 Mist 0 1018 84 4200 0.5 0 07:56 15.08.2019
3657 Mist 0 1018 84 4200 0.5 0 07:37 15.08.2019
3658 Mist 0 1018 84 4200 0.5 0 07:18 15.08.2019
3659 Mist 0 1018 84 5000 0.5 0 06:43 15.08.2019
3660 Mist 0 1018 81 5000 0.5 0 06:22 15.08.2019
3661 Clear 0 1018 81 7000 0.5 0 05:29 15.08.2019
3662 Clear 1 1017 81 6000 1.01 107.751 04:56 15.08.2019
3663 Mist 1 1016 81 5000 1.01 107.751 03:51 15.08.2019
3664 Clear 0 1016 82 7000 0.95 98.938 02:53 15.08.2019
3665 Clear 0 1016 82 7000 0.95 98.938 02:24 15.08.2019
3666 Mist 2 1015 82 5000 0.5 0 01:39 15.08.2019
3667 Clear 4 1015 83 10000 1 0 00:54 15.08.2019
3668 Clear 4 1015 83 10000 1 0 00:36 15.08.2019
3669 Clear 4 1015 81 10000 1 0 00:18 15.08.2019
3670 Haze 9 1015 81 10000 1 0 23:41 14.08.2019
3671 Haze 9 1015 81 10000 1 0 23:20 14.08.2019
3672 Haze 8 1015 52 10000 1 340 22:59 14.08.2019
3673 Haze 8 1015 52 10000 1 340 22:40 14.08.2019
3674 Haze 8 1015 52 10000 1 340 22:22 14.08.2019
3675 Clouds 7 1016 81 10000 1.5 310 21:57 14.08.2019
3676 Clouds 7 1016 81 10000 1.5 310 21:38 14.08.2019
3677 Clouds 7 1016 71 10000 1.5 310 21:19 14.08.2019
3678 Clear 6 1017 60 10000 1 0 20:42 14.08.2019
3679 Clear 6 1017 60 10000 1 0 20:23 14.08.2019
3680 Clear 6 1017 60 10000 1 0 20:23 14.08.2019
3681 Clear 4 1018 71 10000 1.5 300 19:59 14.08.2019
3682 Clear 4 1018 71 10000 1.5 300 19:39 14.08.2019
3683 Clear 4 1018 71 10000 1.5 300 19:21 14.08.2019
3684 Clouds 2 1019 71 10000 1.02 87.124 18:57 14.08.2019
3685 Clouds 2 1019 71 10000 1.02 87.124 18:38 14.08.2019
3686 Clouds 2 1019 68 10000 0.98 127.561 18:20 14.08.2019
3687 Clouds 0 1020 68 10000 0.5 0 17:56 14.08.2019
3688 Clouds 0 1020 68 10000 0.5 0 17:37 14.08.2019
3689 Clouds 0 1020 68 10000 0.5 0 17:19 14.08.2019
3690 Fog -1 1020 100 10000 0.98 127.561 16:43 14.08.2019
3691 Fog -1 1020 100 10000 0.98 127.561 16:20 14.08.2019
3692 Fog -2 1021 100 200 0.98 127.561 15:55 14.08.2019
3693 Fog -2 1021 100 200 0.98 127.561 15:37 14.08.2019
3694 Fog -2 1021 100 200 0.25 321.633 15:18 14.08.2019
3695 Fog -2 1021 100 1000 1 60 14:41 14.08.2019
3696 Fog -2 1021 100 1000 1 60 14:19 14.08.2019
3697 Fog -2 1021 92 2300 0.25 321.633 13:59 14.08.2019
3698 Fog -2 1021 92 2300 0.25 321.633 13:40 14.08.2019
3699 Fog -2 1021 92 2300 0.34 318.547 13:22 14.08.2019
3700 Fog -2 1021 100 750 0.34 318.547 12:56 14.08.2019
3701 Fog -2 1021 100 750 0.34 318.547 12:37 14.08.2019
3702 Fog -2 1021 100 750 0.68 317.376 12:19 14.08.2019
3703 Fog -2 1022 100 650 0.5 0 11:45 14.08.2019
3704 Fog -2 1022 100 650 0.5 0 11:23 14.08.2019
3705 Fog -3 1022 100 1000 0.68 317.376 10:58 14.08.2019
3706 Fog -3 1022 100 1000 0.68 317.376 10:38 14.08.2019
3707 Fog -3 1022 100 1000 0.68 317.376 10:20 14.08.2019
3708 Fog -2 1022 92 700 0.68 317.376 09:42 14.08.2019
3709 Fog -2 1022 92 700 0.79 323.797 09:21 14.08.2019
3710 Mist -3 1023 100 5000 0.92 317.555 08:44 14.08.2019
3711 Mist -3 1023 100 5000 0.92 317.555 08:25 14.08.2019
3712 Clear -3 1024 92 6000 0.92 317.555 07:56 14.08.2019
3713 Clear -3 1024 92 6000 0.92 317.555 07:37 14.08.2019
3714 Mist -2 1024 92 6000 0.92 317.555 06:51 14.08.2019
3715 Mist -2 1024 92 6000 0.92 317.555 06:28 14.08.2019
3716 Mist -2 1024 100 6000 1.39 339.978 05:33 14.08.2019
3717 Mist -1 1025 92 3800 1.39 339.978 03:52 14.08.2019
3718 Clear 0 1025 77 9000 1.22 338.781 02:37 14.08.2019
3719 Clear 1 1025 86 10000 1.22 338.781 01:59 14.08.2019
3720 Clear 1 1025 86 10000 1.43 330.852 01:30 14.08.2019
3721 Clear 4 1025 74 10000 0.5 0 00:25 14.08.2019
3722 Haze 7 1025 48 10000 2.1 40 23:43 13.08.2019
3723 Haze 7 1025 48 10000 2.1 40 23:19 13.08.2019
3724 Haze 8 1026 49 10000 2.6 60 22:56 13.08.2019
3725 Haze 8 1026 49 10000 2.6 60 22:38 13.08.2019
3726 Haze 8 1026 49 10000 2.6 60 22:19 13.08.2019
3727 Clouds 3 1024 74 0 0.16 298.918 21:54 13.08.2019
3728 Clouds 3 1024 74 0 0.16 298.918 21:54 13.08.2019
3729 Clouds 3 1024 74 0 0.16 298.918 21:36 13.08.2019
3730 Clear 7 1028 56 10000 3.6 100 21:18 13.08.2019
3731 Clear 7 1028 56 10000 3.6 100 20:42 13.08.2019
3732 Clear 7 1028 56 10000 3.6 100 20:19 13.08.2019
3733 Clear 4 1026 62 0 0.7 82.885 19:56 13.08.2019
3734 Clear 4 1026 62 0 0.7 82.885 19:37 13.08.2019
3735 Clouds 2 1030 62 10000 4.1 100 19:19 13.08.2019
3736 Clouds 2 1030 62 10000 4.1 100 18:41 13.08.2019
3737 Clouds 2 1030 65 10000 4.1 100 18:22 13.08.2019
3738 Fog 0 1031 65 10000 1 0 17:45 13.08.2019
3739 Fog 0 1031 65 10000 1 0 17:25 13.08.2019
3740 Fog -1 1031 100 6000 1.5 280 16:59 13.08.2019
3741 Fog -1 1031 100 6000 1.5 280 16:40 13.08.2019
3742 Fog -1 1031 100 6000 1.5 280 16:22 13.08.2019
3743 Fog -1 1031 100 6000 1.5 280 16:22 13.08.2019
3744 Mist -1 1031 100 4100 0.5 0 15:59 13.08.2019
3745 Mist -1 1031 100 4100 0.5 0 15:38 13.08.2019
3746 Mist -1 1031 100 4100 0.5 0 15:19 13.08.2019
3747 Mist -1 1031 100 2600 1.53 322.747 14:45 13.08.2019
3748 Mist -1 1031 100 2600 1.53 322.747 14:20 13.08.2019
3749 Fog -2 1031 100 2300 0.5 0 13:58 13.08.2019
3750 Fog -2 1031 100 2300 0.5 0 13:40 13.08.2019
3751 Fog -2 1031 100 2300 0.5 0 13:20 13.08.2019
3752 Fog -1 1032 100 800 1 80 12:56 13.08.2019
3753 Fog -1 1032 100 800 1 80 12:38 13.08.2019
3754 Fog -1 1032 100 800 1 80 12:19 13.08.2019
3755 Fog -1 1032 92 800 1.48 318.131 11:42 13.08.2019
3756 Fog -1 1032 92 800 1.48 318.131 11:22 13.08.2019
3757 Fog -2 1032 100 600 1.48 318.131 10:57 13.08.2019
3758 Fog -2 1032 100 600 1.48 318.131 10:38 13.08.2019
3759 Fog -2 1032 100 600 1.48 318.131 10:19 13.08.2019
3760 Fog -2 1033 100 4700 0.5 0 09:45 13.08.2019
3761 Fog -2 1033 100 4700 0.5 0 09:25 13.08.2019
3762 Mist -2 1033 100 5000 1.71 320.848 08:57 13.08.2019
3763 Mist -2 1033 100 5000 1.71 320.848 08:39 13.08.2019
3764 Mist -2 1033 100 5000 1.71 320.848 08:20 13.08.2019
3765 Mist -1 1033 100 4000 1 0 07:45 13.08.2019
3766 Mist -1 1033 100 4000 1 0 07:23 13.08.2019
3767 Mist 0 1033 84 4000 1 270 06:44 13.08.2019
3768 Clear 0 1033 87 7000 0.5 0 05:53 13.08.2019
3769 Clear 1 1033 87 10000 1 270 04:36 13.08.2019
3770 Clear 2 1032 93 9000 1 0 02:22 13.08.2019
3771 Clear 4 1031 80 9000 0.5 0 01:29 13.08.2019
3772 Clouds 7 1031 65 10000 1 0 00:48 13.08.2019
3773 Clouds 7 1031 65 10000 1 0 00:22 13.08.2019
3774 Haze 9 1031 74 10000 1.5 310 23:43 12.08.2019
3775 Haze 9 1031 74 10000 1.5 310 23:21 12.08.2019
3776 Clouds 9 1030 61 10000 1 0 22:41 12.08.2019
3777 Clouds 9 1030 61 10000 1 0 22:20 12.08.2019
3778 Clouds 9 1030 74 10000 1 0 21:57 12.08.2019
3779 Clouds 9 1030 74 10000 1 0 21:38 12.08.2019
3780 Clouds 9 1030 70 10000 1 0 21:19 12.08.2019
3781 Clear 9 1030 57 10000 2.1 110 20:59 12.08.2019
3782 Clear 9 1030 57 10000 2.1 110 20:41 12.08.2019
3783 Clear 9 1030 57 10000 2.1 110 20:20 12.08.2019
3784 Clouds 8 1031 65 10000 3.6 110 19:57 12.08.2019
3785 Clouds 8 1031 65 10000 3.6 110 19:38 12.08.2019
3786 Clouds 8 1031 65 10000 3.6 110 19:20 12.08.2019
3787 Clouds 7 1031 70 10000 1 0 18:56 12.08.2019
3788 Clouds 7 1031 70 10000 1 0 18:37 12.08.2019
3789 Clouds 7 1031 70 10000 1 0 18:19 12.08.2019
3790 Clouds 5 1031 80 10000 1 0 17:47 12.08.2019
3791 Clouds 5 1031 80 10000 1 0 17:28 12.08.2019
3792 Clouds 3 1031 93 10000 0.5 0 16:58 12.08.2019
3793 Clouds 3 1031 93 10000 0.5 0 16:39 12.08.2019
3794 Clouds 3 1031 93 10000 0.5 0 16:20 12.08.2019
3795 Clouds 3 1031 93 10000 0.5 0 16:20 12.08.2019
3796 Clouds 1 1031 82 6000 0.76 120.343 15:59 12.08.2019
3797 Clouds 1 1031 82 6000 0.76 120.343 15:41 12.08.2019
3798 Clouds 1 1031 94 6000 1.15 305.311 15:21 12.08.2019
3799 Clouds 1 1031 94 6000 1.15 305.311 15:21 12.08.2019
3800 Clouds 2 1030 94 10000 1.15 305.311 14:57 12.08.2019
3801 Clouds 2 1030 94 10000 1.15 305.311 14:57 12.08.2019
3802 Clouds 2 1030 94 10000 1.15 305.311 14:39 12.08.2019
3803 Clouds 2 1030 94 10000 1.15 305.311 14:20 12.08.2019
3804 Clouds 3 1029 86 10000 1.15 305.311 13:43 12.08.2019
3805 Clouds 3 1029 86 10000 0.86 321.039 13:24 12.08.2019
3806 Clouds 3 1028 86 10000 0.86 321.039 12:58 12.08.2019
3807 Clouds 3 1028 86 10000 0.86 321.039 12:58 12.08.2019
3808 Clouds 3 1028 86 10000 0.86 321.039 12:39 12.08.2019
3809 Clouds 3 1028 86 10000 1.35 292.885 12:18 12.08.2019
3810 Clouds 3 1028 86 10000 0.5 0 11:42 12.08.2019
3811 Clouds 3 1028 86 10000 0.5 0 11:42 12.08.2019
3812 Clouds 3 1028 86 10000 0.5 0 11:23 12.08.2019
3813 Clouds 3 1027 86 10000 1 0 10:43 12.08.2019
3814 Clouds 3 1027 86 10000 1 0 10:23 12.08.2019
3815 Clouds 3 1026 93 10000 1.5 250 09:56 12.08.2019
3816 Clouds 3 1026 93 10000 1.5 250 09:38 12.08.2019
3817 Clouds 3 1026 93 10000 1.5 250 09:19 12.08.2019
3818 Clouds 3 1026 93 10000 1.5 250 09:19 12.08.2019
3819 Clouds 3 1026 93 10000 0.5 0 08:58 12.08.2019
3820 Clouds 3 1026 93 10000 0.5 0 08:38 12.08.2019
3821 Clouds 3 1026 93 10000 0.5 0 08:38 12.08.2019
3822 Clouds 3 1026 93 10000 0.5 0 08:19 12.08.2019
3823 Clouds 4 1025 86 10000 0.5 0 07:49 12.08.2019
3824 Clouds 4 1025 86 10000 0.5 0 07:27 12.08.2019
3825 Clouds 4 1024 93 10000 0.5 0 06:47 12.08.2019
3826 Clear 3 1023 93 10000 0.5 0 05:38 12.08.2019
3827 Mist 4 1020 93 5000 1 0 02:44 12.08.2019
3828 Rain 5 1019 93 8000 0.95 242.948 01:54 12.08.2019
3829 Rain 5 1019 93 8000 0.95 242.948 01:20 12.08.2019
3830 Clear 6 1018 87 10000 0.95 242.948 00:57 12.08.2019
3831 Clear 6 1018 87 10000 0.95 242.948 00:38 12.08.2019
3832 Clear 6 1018 87 10000 1.3 276.607 00:19 12.08.2019
3833 Rain 8 1018 70 10000 1.5 340 23:42 11.08.2019
3834 Rain 8 1018 70 10000 1.5 340 23:20 11.08.2019
3835 Clear 9 1017 66 10000 2.1 310 22:58 11.08.2019
3836 Clear 9 1017 66 10000 2.1 310 22:39 11.08.2019
3837 Clear 9 1017 66 10000 2.1 310 22:19 11.08.2019
3838 Clear 9 1016 61 10000 2.1 260 21:58 11.08.2019
3839 Clear 9 1016 61 10000 2.1 260 21:39 11.08.2019
3840 Clear 9 1016 61 10000 2.1 260 21:20 11.08.2019
3841 Clear 8 1016 70 10000 2.6 290 20:45 11.08.2019
3842 Clear 8 1016 70 10000 2.6 290 20:26 11.08.2019
3843 Rain 7 1016 81 10000 2.1 270 19:59 11.08.2019
3844 Rain 7 1016 81 10000 2.1 270 19:41 11.08.2019
3845 Rain 7 1016 81 10000 2.1 270 19:18 11.08.2019
3846 Clear 6 1016 81 10000 1.5 280 18:41 11.08.2019
3847 Clear 6 1016 81 10000 1.5 280 18:21 11.08.2019
3848 Clouds 5 1015 86 10000 1 0 17:57 11.08.2019
3849 Clouds 5 1015 86 10000 1 0 17:39 11.08.2019
3850 Clouds 5 1015 86 10000 1 0 17:20 11.08.2019
3851 -273 0 0 0 0 0 16:55 11.08.2019
3852 Clouds 5 1015 86 10000 1.5 280 16:37 11.08.2019
3853 Clouds 5 1015 86 10000 1.5 280 16:18 11.08.2019
3854 Clouds 4 1014 93 10000 1 0 15:43 11.08.2019
3855 Clouds 4 1014 93 10000 1 0 15:43 11.08.2019
3856 Clouds 4 1014 93 10000 1 0 15:24 11.08.2019
3857 Clouds 4 1013 93 10000 1.5 280 14:56 11.08.2019
3858 Clouds 4 1013 93 10000 1.5 280 14:38 11.08.2019
3859 Clouds 4 1013 93 10000 1.5 280 14:19 11.08.2019
3860 Clouds 3 1013 100 10000 0.5 0 13:43 11.08.2019
3861 Clouds 3 1013 100 10000 0.5 0 13:24 11.08.2019
3862 Clouds 4 1012 93 10000 0.5 0 12:48 11.08.2019
3863 Clouds 4 1012 93 10000 0.5 0 12:23 11.08.2019
3864 Clouds 4 1012 100 10000 0.5 0 11:55 11.08.2019
3865 Clouds 4 1012 100 10000 0.5 0 11:36 11.08.2019
3866 Clouds 4 1012 100 10000 0.5 0 11:18 11.08.2019
3867 Rain 5 1011 93 10000 0.5 0 10:41 11.08.2019
3868 Rain 5 1011 93 10000 0.5 0 10:22 11.08.2019
3869 Clouds 4 1011 100 10000 1.5 280 09:58 11.08.2019
3870 Clouds 4 1011 100 10000 1.5 280 09:38 11.08.2019
3871 Rain 4 1011 100 10000 1.5 280 09:19 11.08.2019
3872 Rain 5 1011 93 8000 1 0 08:44 11.08.2019
3873 Rain 5 1011 93 8000 1 0 08:25 11.08.2019
3874 Drizzle 5 1011 100 3900 1.42 319.543 07:54 11.08.2019
3875 Drizzle 5 1011 100 3900 1.42 319.543 07:22 11.08.2019
3876 Mist 5 1011 100 5000 0.5 0 06:41 11.08.2019
3877 Drizzle 6 1011 93 5000 1.32 308.558 05:34 11.08.2019
3878 Clouds 6 1011 93 10000 1.32 308.558 03:36 11.08.2019
3879 Rain 7 1010 87 9000 1 0 02:46 11.08.2019
3880 Rain 7 1010 81 8000 0.5 0 01:36 11.08.2019
3881 Clouds 9 1010 70 10000 1.5 260 00:59 11.08.2019
3882 Clouds 9 1010 70 10000 1.5 260 00:41 11.08.2019
3883 Rain 9 1010 70 10000 1.5 260 00:23 11.08.2019
3884 Clear 10 1010 66 10000 2.1 270 23:39 10.08.2019
3885 Clear 10 1010 66 10000 2.1 270 23:20 10.08.2019
3886 Rain 10 1010 66 10000 2.1 280 22:43 10.08.2019
3887 Rain 10 1010 66 10000 2.1 280 22:24 10.08.2019
3888 Rain 11 1010 62 10000 1.5 220 21:57 10.08.2019
3889 Rain 11 1010 62 10000 1.5 220 21:38 10.08.2019
3890 Rain 11 1010 62 10000 1.5 220 21:18 10.08.2019
3891 Clear 10 1010 66 10000 2.1 280 20:42 10.08.2019
3892 Clear 10 1010 66 10000 2.1 280 20:21 10.08.2019
3893 Clear 10 1011 66 10000 0.5 0 19:57 10.08.2019
3894 Clear 10 1011 66 10000 0.5 0 19:37 10.08.2019
3895 Clear 10 1011 66 10000 0.5 0 19:19 10.08.2019
3896 Rain 7 1013 75 10000 2.1 280 18:39 10.08.2019
3897 Rain 7 1013 75 10000 2.1 280 18:39 10.08.2019
3898 Rain 7 1013 75 10000 2.1 280 18:21 10.08.2019
3899 Rain 6 1013 87 10000 2.1 280 17:44 10.08.2019
3900 Rain 6 1013 87 10000 2.1 280 17:24 10.08.2019
3901 Rain 6 1013 81 10000 3.1 260 16:47 10.08.2019
3902 Rain 6 1013 81 10000 3.1 260 16:28 10.08.2019
3903 Rain 6 1013 81 10000 2.6 290 15:54 10.08.2019
3904 Rain 6 1013 81 10000 2.6 290 15:25 10.08.2019
3905 Rain 5 1014 86 10000 3.6 270 14:45 10.08.2019
3906 Rain 5 1014 86 10000 3.6 270 14:22 10.08.2019
3907 Rain 5 1014 86 10000 3.1 240 13:55 10.08.2019
3908 Rain 5 1014 86 10000 3.1 240 13:37 10.08.2019
3909 Rain 5 1014 86 10000 3.1 240 13:18 10.08.2019
3910 Rain 5 1014 86 10000 3.1 270 12:41 10.08.2019
3911 Rain 5 1014 86 10000 3.1 270 12:21 10.08.2019
3912 Rain 6 1014 81 10000 4.1 270 11:54 10.08.2019
3913 Rain 6 1014 81 10000 4.1 270 11:36 10.08.2019
3914 Rain 6 1014 81 10000 4.1 270 11:36 10.08.2019
3915 Rain 6 1014 81 10000 4.1 270 11:18 10.08.2019
3916 Rain 5 1015 86 10000 4.1 290 10:38 10.08.2019
3917 Rain 5 1015 86 10000 4.1 290 10:19 10.08.2019
3918 Rain 6 1016 81 10000 3.1 240 09:43 10.08.2019
3919 Rain 6 1016 81 10000 3.1 240 09:24 10.08.2019
3920 Rain 6 1016 81 10000 4.1 280 08:56 10.08.2019
3921 Rain 6 1016 81 10000 4.1 280 08:37 10.08.2019
3922 Rain 6 1016 81 10000 4.1 280 08:18 10.08.2019
3923 Rain 6 1016 81 10000 4.6 270 07:46 10.08.2019
3924 Rain 6 1016 81 10000 4.6 270 07:22 10.08.2019
3925 Rain 6 1016 81 9000 4.6 260 06:46 10.08.2019
3926 Rain 6 1017 81 10000 4.1 280 05:46 10.08.2019
3927 Rain 6 1017 81 10000 4.1 280 05:19 10.08.2019
3928 Rain 7 1017 70 10000 2.6 230 03:51 10.08.2019
3929 Rain 7 1018 70 10000 2.6 260 02:38 10.08.2019
3930 Rain 7 1018 70 10000 4.1 260 01:44 10.08.2019
3931 Rain 7 1018 70 10000 4.1 260 01:24 10.08.2019
3932 Clear 8 1018 61 10000 4.1 260 00:59 10.08.2019
3933 Clear 8 1018 61 10000 4.1 260 00:40 10.08.2019
3934 Clear 8 1018 61 10000 4.1 260 00:18 10.08.2019
3935 Clear 8 1018 61 10000 5.1 260 23:39 09.08.2019
3936 Clear 8 1018 61 10000 5.1 260 23:20 09.08.2019
3937 Clear 8 1018 61 10000 5.1 260 23:20 09.08.2019
3938 Rain 8 1018 61 10000 7.2 280 22:54 09.08.2019
3939 Rain 8 1018 61 10000 7.2 280 22:36 09.08.2019
3940 Rain 8 1018 61 10000 7.2 280 22:18 09.08.2019
3941 Rain 10 1019 53 10000 6.2 270 21:40 09.08.2019
3942 Rain 10 1019 53 10000 6.2 270 21:21 09.08.2019
3943 Clouds 9 1020 57 10000 5.1 270 20:57 09.08.2019
3944 Clouds 9 1020 57 10000 5.1 270 20:38 09.08.2019
3945 Clouds 9 1020 57 10000 5.1 270 20:18 09.08.2019
3946 Clouds 9 1020 72 10000 4.6 250 19:43 09.08.2019
3947 Clouds 9 1020 72 10000 4.6 250 19:22 09.08.2019
3948 Rain 8 1021 72 10000 4.6 250 18:55 09.08.2019
3949 Rain 8 1021 72 10000 4.6 250 18:36 09.08.2019
3950 Rain 8 1021 72 10000 4.6 250 18:18 09.08.2019
3951 Clouds 8 1021 72 10000 4.6 240 17:42 09.08.2019
3952 Clouds 8 1021 72 10000 4.6 240 17:23 09.08.2019
3953 -273 0 0 0 0 0 16:54 09.08.2019
3954 Clouds 5 1021 65 10000 3.6 310 16:36 09.08.2019
3955 Clouds 5 1021 65 10000 3.6 310 16:18 09.08.2019
3956 Clouds 3 1022 74 10000 3.1 300 15:41 09.08.2019
3957 Clouds 3 1022 74 10000 3.1 300 15:21 09.08.2019
3958 Clear 1 1023 80 10000 1.5 270 14:57 09.08.2019
3959 Clear 1 1023 80 10000 1.5 270 14:37 09.08.2019
3960 Clear 1 1023 80 10000 1.5 270 14:19 09.08.2019
3961 Clear 1 1023 74 10000 2.1 260 13:44 09.08.2019
3962 Clear 1 1023 74 10000 2.1 260 13:20 09.08.2019
3963 Clear 0 1023 82 10000 1.5 260 12:48 09.08.2019
3964 Clear 0 1023 77 10000 1.5 260 12:25 09.08.2019
3965 Clear -1 1024 86 10000 1.5 0 11:59 09.08.2019
3966 Clear -1 1024 86 10000 1.5 0 11:40 09.08.2019
3967 Clear -1 1024 86 10000 1.5 0 11:19 09.08.2019
3968 Clear -1 1024 92 10000 1.5 0 10:41 09.08.2019
3969 Clear -1 1024 92 10000 1.5 0 10:22 09.08.2019
3970 Clear 0 1025 77 10000 2.6 300 09:57 09.08.2019
3971 Clear 0 1025 77 10000 2.6 300 09:37 09.08.2019
3972 Clear 0 1025 76 10000 2.6 300 09:18 09.08.2019
3973 Clear 0 1025 75 10000 2.6 280 08:44 09.08.2019
3974 Clear 0 1025 75 10000 2.6 280 08:24 09.08.2019
3975 Clear 0 1026 75 9000 2.1 290 07:53 09.08.2019
3976 Clear 0 1026 75 9000 2.1 290 07:24 09.08.2019
3977 Clear 1 1026 80 10000 3.1 290 06:57 09.08.2019
3978 Clear 1 1026 80 10000 3.1 290 06:36 09.08.2019
3979 Clear 1 1026 80 10000 2.6 300 05:58 09.08.2019
3980 Clear 1 1026 80 10000 2.1 300 04:37 09.08.2019
3981 Clear 1 1027 80 7000 1.5 280 02:23 09.08.2019
3982 Clear 5 1027 60 10000 1.5 250 00:56 09.08.2019
3983 Clear 5 1027 60 10000 1.5 250 00:38 09.08.2019
3984 Clear 5 1027 60 10000 1.5 250 00:20 09.08.2019
3985 Clear 7 1027 56 10000 2.1 280 23:38 08.08.2019
3986 Clear 7 1027 56 10000 2.1 280 23:20 08.08.2019
3987 Clear 8 1028 49 10000 1.5 280 22:59 08.08.2019
3988 Clear 8 1028 49 10000 1.5 280 22:37 08.08.2019
3989 Clear 8 1028 49 10000 1.5 280 22:19 08.08.2019
3990 Clear 8 1028 45 10000 2.6 300 21:58 08.08.2019
3991 Clear 8 1028 45 10000 2.6 300 21:40 08.08.2019
3992 Clear 8 1028 45 10000 2.6 300 21:21 08.08.2019
3993 Clear 7 1030 52 10000 2.1 300 20:55 08.08.2019
3994 Clear 7 1030 52 10000 2.1 300 20:36 08.08.2019
3995 Clear 7 1030 52 10000 2.1 300 20:18 08.08.2019
3996 Clear 5 1031 60 10000 2.1 300 19:42 08.08.2019
3997 Clear 5 1031 60 10000 2.1 300 19:20 08.08.2019
3998 Clear 3 1032 69 10000 1.5 330 18:43 08.08.2019
3999 Clear 3 1032 69 10000 1.5 330 18:23 08.08.2019
4000 Clear 2 1032 74 10000 1.5 320 17:56 08.08.2019
4001 Clear 2 1032 74 10000 1.5 320 17:37 08.08.2019
4002 Clear 2 1032 74 10000 1.5 320 17:19 08.08.2019
4003 Clear -1 1033 92 9000 1 0 16:42 08.08.2019
4004 Clear -1 1033 92 9000 1 0 16:24 08.08.2019
4005 Clouds -2 1033 92 10000 1 0 15:58 08.08.2019
4006 Clouds -2 1033 92 10000 1 0 15:39 08.08.2019
4007 Clouds -2 1033 92 10000 1 0 15:21 08.08.2019
4008 Clear -2 1033 100 10000 1 0 14:41 08.08.2019
4009 Clear -2 1033 100 10000 1 0 14:23 08.08.2019
4010 Clear -2 1032 92 10000 1 290 13:58 08.08.2019
4011 Clear -2 1032 92 10000 1 290 13:38 08.08.2019
4012 Clear -2 1032 92 10000 1 290 13:18 08.08.2019
4013 Clear -2 1032 92 10000 1 0 12:39 08.08.2019
4014 Clear -2 1032 92 10000 1 0 12:19 08.08.2019
4015 Clear -2 1032 100 10000 1.5 300 11:48 08.08.2019
4016 Clear -2 1032 100 10000 1.5 300 11:27 08.08.2019
4017 Clear -2 1032 100 10000 1.5 300 11:27 08.08.2019
4018 Clear -1 1033 92 10000 1.5 280 10:59 08.08.2019
4019 Clear -1 1033 92 10000 1.5 280 10:59 08.08.2019
4020 Clear -1 1033 92 10000 1.5 280 10:40 08.08.2019
4021 Clear -1 1033 92 10000 1.5 280 10:20 08.08.2019
4022 Clear -1 1033 92 10000 1 0 09:44 08.08.2019
4023 Clear -1 1033 92 10000 1 0 09:25 08.08.2019
4024 Clear -1 1032 92 7000 1 280 08:56 08.08.2019
4025 Clear -1 1032 92 7000 1 280 08:36 08.08.2019
4026 Clear -1 1032 92 7000 1 280 08:18 08.08.2019
4027 Mist 0 1032 88 6000 1 0 07:39 08.08.2019
4028 Mist 0 1032 88 6000 1 0 07:19 08.08.2019
4029 Clear 0 1032 88 6000 0.5 0 06:46 08.08.2019
4030 Clear 0 1032 88 6000 0.5 0 06:18 08.08.2019
4031 Clear 2 1032 80 9000 1 280 05:42 08.08.2019
4032 Clear 2 1031 80 10000 1 0 04:39 08.08.2019
4033 Clear 5 1030 65 10000 2.6 220 03:48 08.08.2019
4034 Clear 5 1029 65 10000 3.1 250 01:59 08.08.2019
4035 Clear 5 1029 65 10000 3.1 250 01:20 08.08.2019
4036 Clear 6 1028 60 10000 3.1 240 00:25 08.08.2019
4037 Clouds 8 1027 52 10000 4.6 280 23:41 07.08.2019
4038 Clouds 8 1027 52 10000 4.6 280 23:19 07.08.2019
4039 Clouds 8 1027 49 10000 4.6 280 22:42 07.08.2019
4040 Clouds 8 1027 49 10000 4.6 280 22:21 07.08.2019
4041 Clouds 9 1026 45 10000 4.6 280 21:59 07.08.2019
4042 Clouds 9 1026 45 10000 4.6 280 21:40 07.08.2019
4043 Clouds 9 1026 45 10000 4.6 280 21:21 07.08.2019
4044 Clouds 8 1026 49 10000 3.6 270 20:59 07.08.2019
4045 Clouds 8 1026 49 10000 3.6 270 20:41 07.08.2019
4046 Clouds 8 1026 49 10000 3.6 270 20:22 07.08.2019
4047 Clouds 8 1027 49 10000 3.6 270 19:56 07.08.2019
4048 Clouds 8 1027 49 10000 3.6 270 19:56 07.08.2019
4049 Clouds 8 1027 49 10000 3.6 270 19:37 07.08.2019
4050 Clouds 8 1027 49 10000 3.6 270 19:19 07.08.2019
4051 Clouds 7 1027 56 10000 3.1 270 18:41 07.08.2019
4052 Clouds 7 1027 56 10000 3.1 270 18:20 07.08.2019
4053 Clouds 4 1027 80 10000 1.5 310 17:56 07.08.2019
4054 Clouds 4 1027 80 10000 1.5 310 17:56 07.08.2019
4055 Clouds 4 1027 80 10000 1.5 310 17:56 07.08.2019
4056 Clouds 4 1027 80 10000 1.5 310 17:38 07.08.2019
4057 Clouds 4 1027 80 10000 1.5 310 17:19 07.08.2019
4058 Clouds 3 1027 86 10000 2.6 300 16:56 07.08.2019
4059 Clouds 3 1027 86 10000 2.6 300 16:38 07.08.2019
4060 Clouds 3 1027 86 10000 2.6 300 16:19 07.08.2019
4061 Clouds 2 1027 75 10000 1 0 15:43 07.08.2019
4062 Clouds 2 1027 75 10000 1 0 15:43 07.08.2019
4063 Clouds 2 1027 89 10000 1 0 15:21 07.08.2019
4064 Clear 2 1026 89 10000 1.5 280 14:56 07.08.2019
4065 Clear 2 1026 89 10000 1.5 280 14:38 07.08.2019
4066 Clear 2 1026 89 10000 1.5 280 14:20 07.08.2019
4067 Clear 3 1026 89 10000 1 0 13:40 07.08.2019
4068 Clear 3 1026 89 10000 1 0 13:19 07.08.2019
4069 Clear 3 1025 89 10000 3.6 300 12:57 07.08.2019
4070 Clear 3 1025 89 10000 3.6 300 12:38 07.08.2019
4071 Clear 3 1025 89 10000 3.6 300 12:38 07.08.2019
4072 Clear 3 1025 88 10000 3.6 300 12:19 07.08.2019
4073 Clear 2 1024 88 10000 2.6 280 11:57 07.08.2019
4074 Clear 2 1024 88 10000 2.6 280 11:39 07.08.2019
4075 Clear 2 1024 88 10000 2.6 280 11:18 07.08.2019
4076 Clear 2 1025 88 10000 1 0 10:40 07.08.2019
4077 Clear 2 1025 88 10000 1 0 10:20 07.08.2019
4078 Clear 3 1025 74 10000 1 0 09:55 07.08.2019
4079 Clear 3 1025 74 10000 1 0 09:37 07.08.2019
4080 Clear 3 1025 74 10000 1 0 09:18 07.08.2019
4081 Rain 4 1025 69 10000 3.1 230 08:45 07.08.2019
4082 Rain 4 1025 69 10000 3.1 230 08:24 07.08.2019
4083 Clear 4 1024 64 10000 4.1 250 07:50 07.08.2019
4084 Clear 4 1024 64 10000 4.1 250 07:29 07.08.2019
4085 Clear 4 1024 64 10000 3.6 260 06:43 07.08.2019
4086 Clear 4 1024 64 10000 3.6 260 06:21 07.08.2019
4087 Clear 4 1023 69 10000 3.1 260 05:40 07.08.2019
4088 Clear 5 1022 56 10000 4.6 260 03:26 07.08.2019
4089 Rain 4 1021 91 10000 3.1 250 02:54 07.08.2019
4090 Rain 4 1021 91 10000 3.1 250 02:36 07.08.2019
4091 Clear 5 1021 65 10000 2.1 240 01:49 07.08.2019
4092 Clouds 6 1020 56 10000 4.6 260 00:53 07.08.2019
4093 Clouds 6 1020 56 10000 4.6 260 00:23 07.08.2019
4094 Clouds 6 1019 79 10000 5.7 260 23:47 06.08.2019
4095 Clouds 6 1019 79 10000 5.7 260 23:23 06.08.2019
4096 Clear 2 1018 79 0 3.16 291.008 22:59 06.08.2019
4097 Clear 2 1018 79 0 3.16 291.008 22:40 06.08.2019
4098 Rain 7 1017 65 9000 4.1 260 22:20 06.08.2019
4099 Rain 7 1017 65 9000 4.1 260 21:45 06.08.2019
4100 Rain 7 1017 65 9000 4.1 260 21:26 06.08.2019
4101 Rain 6 1017 70 9000 3.6 260 20:59 06.08.2019
4102 Rain 6 1017 70 9000 3.6 260 20:59 06.08.2019
4103 Rain 6 1017 70 9000 3.6 260 20:41 06.08.2019
4104 Rain 6 1017 70 9000 3.6 260 20:23 06.08.2019
4105 Rain 7 1016 65 10000 4.1 250 19:48 06.08.2019
4106 Rain 7 1016 65 10000 4.1 250 19:29 06.08.2019
4107 Rain 6 1015 64 9000 5.1 260 18:56 06.08.2019
4108 Rain 6 1015 64 9000 5.1 260 18:37 06.08.2019
4109 Rain 6 1015 68 9000 5.1 260 18:18 06.08.2019
4110 Rain 7 1014 56 10000 5.7 260 17:56 06.08.2019
4111 Rain 7 1014 56 10000 5.7 260 17:56 06.08.2019
4112 Rain 7 1014 56 10000 5.7 260 17:36 06.08.2019
4113 Rain 7 1014 56 10000 5.7 260 17:18 06.08.2019
4114 Rain 6 1013 60 10000 5.7 270 16:42 06.08.2019
4115 Rain 6 1013 60 10000 5.7 270 16:21 06.08.2019
4116 Rain 5 1013 65 9000 5.7 250 15:57 06.08.2019
4117 Rain 5 1013 65 9000 5.7 250 15:39 06.08.2019
4118 Rain 5 1013 65 9000 5.7 250 15:39 06.08.2019
4119 Rain 5 1013 65 9000 5.7 250 15:20 06.08.2019
4120 Clear 4 1012 69 10000 4.1 250 14:44 06.08.2019
4121 -273 0 0 0 0 0 14:26 06.08.2019
4122 Rain 4 1012 64 10000 3.6 250 13:58 06.08.2019
4123 Rain 4 1012 64 10000 3.6 250 13:39 06.08.2019
4124 Rain 4 1012 64 10000 3.6 250 13:20 06.08.2019
4125 Clear 4 1011 64 10000 3.1 260 12:57 06.08.2019
4126 Clear 4 1011 64 10000 3.1 260 12:39 06.08.2019
4127 Clear 4 1011 64 10000 3.1 260 12:39 06.08.2019
4128 Clear 4 1011 64 10000 3.1 260 12:21 06.08.2019
4129 Clear 4 1011 64 10000 3.1 260 12:21 06.08.2019
4130 Clear 4 1010 64 10000 4.6 260 11:42 06.08.2019
4131 Clear 4 1010 64 10000 4.6 260 11:19 06.08.2019
4132 Clear 5 1009 60 10000 5.1 250 10:42 06.08.2019
4133 Clear 5 1009 60 10000 5.1 250 10:42 06.08.2019
4134 Clear 5 1009 60 10000 5.1 250 10:42 06.08.2019
4135 Clear 5 1009 60 10000 5.1 250 10:23 06.08.2019
4136 Clear 5 1008 60 10000 5.7 260 09:58 06.08.2019
4137 Clear 5 1008 60 10000 5.7 260 09:38 06.08.2019
4138 Clear 5 1008 60 10000 5.7 260 09:19 06.08.2019
4139 Rain 5 1007 75 10000 4.6 240 08:42 06.08.2019
4140 Rain 5 1007 75 10000 4.6 240 08:24 06.08.2019
4141 Rain 5 1006 75 10000 5.7 240 07:36 06.08.2019
4142 Rain 5 1004 75 10000 5.1 250 06:53 06.08.2019
4143 Rain 5 1004 75 10000 5.1 250 06:35 06.08.2019
4144 Rain 5 1004 80 10000 4.6 260 05:52 06.08.2019
4145 Rain 6 1003 81 10000 3.6 250 04:31 06.08.2019
4146 Rain 6 1002 93 5000 1 0 01:53 06.08.2019
4147 Rain 6 1002 93 5000 1 0 01:23 06.08.2019
4148 Rain 6 1001 93 10000 1.5 70 00:29 06.08.2019
4149 Rain 6 1002 93 4000 2.84 323.938 23:46 05.08.2019
4150 Rain 6 1002 93 4000 2.84 323.938 23:18 05.08.2019
4151 -273 0 0 0 0 0 22:40 05.08.2019
4152 Rain 7 1002 87 4000 2.84 323.938 22:22 05.08.2019
4153 Rain 7 1003 81 7000 1 0 21:54 05.08.2019
4154 Rain 7 1003 81 7000 1 0 21:36 05.08.2019
4155 Rain 7 1003 81 7000 1 0 21:18 05.08.2019
4156 Rain 7 1004 81 7000 1 0 20:54 05.08.2019
4157 Rain 7 1004 81 7000 1 0 20:54 05.08.2019
4158 Rain 7 1004 81 7000 1 0 20:36 05.08.2019
4159 Rain 7 1004 81 7000 1 0 20:18 05.08.2019
4160 Rain 8 1005 70 7000 1 0 19:39 05.08.2019
4161 Rain 8 1005 70 7000 1 0 19:39 05.08.2019
4162 Rain 8 1005 70 7000 1 0 19:21 05.08.2019
4163 Rain 8 1005 65 9000 1 0 18:45 05.08.2019
4164 Rain 8 1005 65 9000 1 0 18:22 05.08.2019
4165 Rain 7 1005 65 10000 0.5 0 17:58 05.08.2019
4166 Rain 7 1005 65 10000 0.5 0 17:40 05.08.2019
4167 Rain 7 1005 65 10000 0.5 0 17:22 05.08.2019
4168 Clouds 5 1006 80 10000 0.5 0 16:44 05.08.2019
4169 Clouds 5 1006 80 10000 0.5 0 16:23 05.08.2019
4170 Clouds 3 1006 74 10000 1 0 15:43 05.08.2019
4171 Clouds 3 1006 74 10000 1 0 15:21 05.08.2019
4172 Clear 2 1007 74 8000 1 0 14:43 05.08.2019
4173 Clear 2 1007 74 8000 1 0 14:23 05.08.2019
4174 Clear 2 1007 74 9000 1.5 260 13:57 05.08.2019
4175 Clear 2 1007 74 9000 1.5 260 13:39 05.08.2019
4176 Clear 2 1007 74 9000 1.5 260 13:18 05.08.2019
4177 Clear 2 1008 74 10000 1.5 280 12:42 05.08.2019
4178 Clear 2 1008 74 10000 1.5 280 12:19 05.08.2019
4179 Clear 1 1008 80 10000 1 0 11:44 05.08.2019
4180 Clear 1 1008 80 10000 1 0 11:25 05.08.2019
4181 Clear 0 1008 82 8000 2.1 290 10:49 05.08.2019
4182 Clear 0 1008 82 8000 2.1 290 10:31 05.08.2019
4183 Clear 0 1009 82 7000 2.1 280 09:57 05.08.2019
4184 Clear 0 1009 82 7000 2.1 280 09:37 05.08.2019
4185 Clear 0 1009 80 7000 2.1 280 09:19 05.08.2019
4186 Clear 1 1009 80 10000 1.5 270 08:44 05.08.2019
4187 Clear 1 1009 80 10000 1.5 270 08:24 05.08.2019
4188 Clear 1 1010 80 9000 2.1 250 07:48 05.08.2019
4189 Clear 1 1010 80 9000 2.1 250 07:28 05.08.2019
4190 Clear 3 1009 69 10000 1.5 0 06:56 05.08.2019
4191 Clear 3 1009 69 10000 1.5 0 06:21 05.08.2019
4192 Clear 3 1010 69 10000 1.5 290 05:28 05.08.2019
4193 Clear 5 1010 60 10000 1 0 04:41 05.08.2019
4194 Clear 7 1011 52 10000 1.5 0 03:50 05.08.2019
4195 Clear 7 1011 52 10000 1 0 02:38 05.08.2019
4196 Clear 8 1011 52 10000 1.5 300 01:47 05.08.2019
4197 Clear 9 1011 45 10000 2.1 300 00:59 05.08.2019
4198 Clear 9 1011 45 10000 2.1 300 00:39 05.08.2019
4199 Clear 9 1011 45 10000 2.1 300 00:18 05.08.2019
4200 Clear 11 1011 40 10000 3.6 310 23:41 04.08.2019
4201 Clear 11 1011 40 10000 3.6 310 23:22 04.08.2019
4202 Clear 12 1011 34 10000 3.1 0 22:57 04.08.2019
4203 Clear 12 1011 34 10000 3.1 0 22:38 04.08.2019
4204 Clear 12 1011 34 10000 3.1 0 22:19 04.08.2019
4205 Clear 12 1011 34 10000 3.1 0 22:19 04.08.2019
4206 Clear 12 1011 34 10000 3.1 0 22:19 04.08.2019
4207 Clear 12 1011 34 10000 2.6 20 21:45 04.08.2019
4208 Clear 12 1011 34 10000 2.6 20 21:24 04.08.2019
4209 Clear 12 1012 32 10000 2.1 0 20:58 04.08.2019
4210 Clear 12 1012 32 10000 2.1 0 20:40 04.08.2019
4211 Clear 12 1012 32 10000 2.1 0 20:18 04.08.2019
4212 Clear 12 1012 32 10000 2.1 0 20:18 04.08.2019
4213 Clear 11 1013 34 10000 3.1 300 19:48 04.08.2019
4214 Clear 11 1013 34 10000 3.1 300 19:26 04.08.2019
4215 Clear 9 1014 45 10000 2.1 0 18:44 04.08.2019
4216 Clear 9 1014 45 10000 2.1 0 18:44 04.08.2019
4217 Clear 9 1014 45 10000 2.1 0 18:22 04.08.2019
4218 Clear 9 1014 45 10000 2.1 0 18:22 04.08.2019
4219 Clear 5 1014 67 10000 2.6 280 17:59 04.08.2019
4220 Clear 5 1014 67 10000 2.6 280 17:40 04.08.2019
4221 Clear 5 1014 67 10000 2.6 280 17:21 04.08.2019
4222 Clear 1 1015 86 7000 2.6 280 16:44 04.08.2019
4223 Clear 1 1015 86 7000 2.6 280 16:26 04.08.2019
4224 Clear 0 1015 67 10000 1.5 270 15:45 04.08.2019
4225 Clear 0 1015 77 10000 1.5 270 15:23 04.08.2019
4226 Clear 0 1015 77 10000 1.5 290 14:57 04.08.2019
4227 Clear 0 1015 77 10000 1.5 290 14:39 04.08.2019
4228 Clear 0 1015 77 10000 1.5 290 14:20 04.08.2019
4229 Clear 0 1015 77 10000 1 0 13:43 04.08.2019
4230 Clear 0 1015 76 10000 1 0 13:23 04.08.2019
4231 Clear 1 1015 86 10000 1 0 12:45 04.08.2019
4232 Clear 1 1015 86 10000 1 0 12:27 04.08.2019
4233 Clear 1 1016 86 10000 1.5 280 11:57 04.08.2019
4234 Clear 1 1016 86 10000 1.5 280 11:37 04.08.2019
4235 Clear 1 1016 86 10000 1.5 280 11:19 04.08.2019
4236 Clear 2 1016 80 10000 1.5 280 10:41 04.08.2019
4237 Clear 2 1016 80 10000 1.5 280 10:20 04.08.2019
4238 Clear 2 1017 80 10000 1 0 09:45 04.08.2019
4239 Clear 2 1017 80 10000 1 0 09:22 04.08.2019
4240 Clear 2 1018 90 7000 1 0 08:47 04.08.2019
4241 Clear 2 1018 90 7000 1 0 08:26 04.08.2019
4242 Clear 2 1018 80 6000 1 0 07:52 04.08.2019
4243 Clear 3 1018 74 9000 0.5 0 06:57 04.08.2019
4244 Clear 3 1018 74 9000 0.5 0 06:28 04.08.2019
4245 Clear 6 1019 91 10000 2.6 290 04:26 04.08.2019
4246 Clear 7 1019 89 10000 3.1 230 02:41 04.08.2019
4247 Clear 8 1019 89 10000 3.1 0 01:34 04.08.2019
4248 Clear 8 1019 89 10000 3.1 0 01:34 04.08.2019
4249 Clear 8 1019 89 10000 3.1 0 01:34 04.08.2019
4250 Clear 8 1019 89 10000 3.1 0 01:34 04.08.2019
4251 Clouds 9 1020 89 10000 4.1 250 00:59 04.08.2019
4252 Clouds 9 1020 89 10000 4.1 250 00:40 04.08.2019
4253 Clouds 9 1020 83 10000 4.1 250 00:18 04.08.2019
4254 Clear 10 1020 83 10000 4.1 260 23:39 03.08.2019
4255 Clear 10 1020 83 10000 4.1 260 23:18 03.08.2019
4256 Clear 11 1020 83 10000 4.6 260 22:44 03.08.2019
4257 Clear 11 1020 83 10000 4.6 260 22:21 03.08.2019
4258 Clear 11 1020 83 10000 4.6 270 21:42 03.08.2019
4259 Clear 11 1020 79 10000 4.6 270 21:24 03.08.2019
4260 Clear 11 1021 81 10000 4.6 270 20:58 03.08.2019
4261 Clear 11 1021 81 10000 4.6 270 20:40 03.08.2019
4262 Clear 11 1021 81 10000 4.6 270 20:20 03.08.2019
4263 Clear 11 1021 81 10000 4.6 260 19:41 03.08.2019
4264 Clear 11 1021 81 10000 4.6 260 19:23 03.08.2019
4265 Clear 10 1022 46 10000 5.1 270 18:50 03.08.2019
4266 Clear 10 1022 46 10000 5.1 270 18:27 03.08.2019
4267 Clear 10 1022 82 10000 5.1 260 17:49 03.08.2019
4268 Clear 10 1022 82 10000 5.1 260 17:21 03.08.2019
4269 Clear 9 1022 82 10000 4.6 250 16:55 03.08.2019
4270 Clear 9 1022 82 10000 4.6 250 16:37 03.08.2019
4271 Clear 9 1022 82 10000 4.6 250 16:18 03.08.2019
4272 Clear 8 1023 82 10000 4.1 250 15:43 03.08.2019
4273 Clear 8 1023 89 10000 4.1 250 15:21 03.08.2019
4274 Clear 8 1023 89 10000 4.1 250 14:39 03.08.2019
4275 Clear 8 1023 89 10000 4.1 250 14:21 03.08.2019
4276 Clear 8 1023 89 10000 4.1 250 14:21 03.08.2019
4277 Clear 7 1023 89 10000 4.1 240 13:51 03.08.2019
4278 Clear 7 1023 90 10000 4.1 240 13:24 03.08.2019
4279 Clear 7 1024 90 10000 4.6 250 12:57 03.08.2019
4280 Clear 7 1024 90 10000 4.6 250 12:38 03.08.2019
4281 Clear 7 1024 89 10000 4.6 250 12:20 03.08.2019
4282 Clear 7 1024 89 10000 3.1 240 11:47 03.08.2019
4283 Clear 7 1024 89 10000 3.1 240 11:25 03.08.2019
4284 Clear 7 1025 89 10000 2.6 220 10:40 03.08.2019
4285 Clear 7 1025 89 10000 2.6 220 10:22 03.08.2019
4286 Clear 7 1026 89 10000 2.6 240 09:39 03.08.2019
4287 Clear 7 1026 92 10000 2.6 240 09:19 03.08.2019
4288 Clear 7 1027 65 10000 2.6 280 08:46 03.08.2019
4289 Clouds 7 1027 65 10000 2.1 240 07:47 03.08.2019
4290 Clouds 7 1027 65 10000 2.1 240 07:28 03.08.2019
4291 Clear 4 1027 80 10000 1 0 06:22 03.08.2019
4292 Clear 7 1028 65 10000 2.1 270 03:58 03.08.2019
4293 Clear 7 1029 65 10000 2.1 240 02:28 03.08.2019
4294 Clear 7 1029 65 10000 2.6 240 01:22 03.08.2019
4295 Clear 8 1029 61 10000 2.6 240 00:32 03.08.2019
4296 Clear 8 1029 65 10000 2.6 260 23:57 02.08.2019
4297 Clear 8 1029 65 10000 2.6 260 23:57 02.08.2019
4298 Clear 8 1029 65 10000 2.6 260 23:37 02.08.2019
4299 Clear 8 1029 65 10000 2.6 260 23:18 02.08.2019
4300 Rain 8 1028 61 10000 4.1 250 22:40 02.08.2019
4301 Rain 8 1028 61 10000 4.1 250 22:22 02.08.2019
4302 Rain 8 1028 61 10000 3.1 250 21:57 02.08.2019
4303 Rain 8 1028 61 10000 3.1 250 21:39 02.08.2019
4304 Rain 8 1028 61 10000 3.1 250 21:21 02.08.2019
4305 Rain 9 1028 57 10000 3.6 260 20:44 02.08.2019
4306 Rain 9 1028 57 10000 3.6 260 20:26 02.08.2019
4307 Rain 9 1029 57 10000 3.1 270 19:55 02.08.2019
4308 Rain 9 1029 57 10000 3.1 270 19:33 02.08.2019
4309 Rain 8 1029 61 10000 4.6 260 18:57 02.08.2019
4310 Rain 8 1029 61 10000 4.6 260 18:39 02.08.2019
4311 Rain 8 1029 61 10000 4.6 260 18:18 02.08.2019
4312 Rain 7 1029 65 10000 3.6 260 17:41 02.08.2019
4313 Rain 7 1029 65 10000 3.6 260 17:22 02.08.2019
4314 Clouds 6 1029 70 10000 2.6 250 16:40 02.08.2019
4315 Clouds 6 1029 70 10000 2.6 250 16:21 02.08.2019
4316 Rain 5 1029 80 9000 3.1 290 15:57 02.08.2019
4317 Rain 5 1029 80 9000 3.1 290 15:37 02.08.2019
4318 Rain 5 1029 80 9000 3.1 290 15:18 02.08.2019
4319 Rain 5 1029 80 9000 3.1 290 15:18 02.08.2019
4320 Clouds 5 1028 75 10000 2.1 280 14:44 02.08.2019
4321 Clouds 5 1028 75 10000 2.1 280 14:18 02.08.2019
4322 Rain 6 1028 70 10000 3.1 270 13:46 02.08.2019
4323 Rain 6 1028 70 10000 3.1 270 13:23 02.08.2019
4324 Rain 5 1028 97 10000 3.1 270 12:44 02.08.2019
4325 Rain 5 1028 95 10000 3.1 270 12:21 02.08.2019
4326 Rain 6 1028 95 10000 3.6 270 11:42 02.08.2019
4327 Rain 6 1028 95 10000 3.6 270 11:24 02.08.2019
4328 Clouds 6 1028 95 10000 3.1 260 10:49 02.08.2019
4329 Clouds 6 1028 95 10000 3.1 260 10:24 02.08.2019
4330 Clouds 6 1028 95 10000 2.6 0 09:59 02.08.2019
4331 Clouds 6 1028 95 10000 2.6 0 09:40 02.08.2019
4332 Clouds 6 1028 92 10000 2.6 0 09:22 02.08.2019
4333 Rain 6 1029 93 10000 4.1 260 08:41 02.08.2019
4334 Rain 6 1029 93 10000 4.1 260 08:20 02.08.2019
4335 Clouds 6 1029 60 10000 4.6 250 07:45 02.08.2019
4336 Clouds 6 1029 60 10000 4.6 250 07:26 02.08.2019
4337 Clear 6 1029 60 10000 3.6 250 06:37 02.08.2019
4338 Clear 5 1029 92 10000 2.6 250 05:44 02.08.2019
4339 Clear 6 1029 60 10000 2.6 250 03:35 02.08.2019
4340 Clear 6 1029 91 10000 3.6 270 02:42 02.08.2019
4341 Clear 6 1028 90 10000 3.1 240 01:38 02.08.2019
4342 Clear 6 1027 90 10000 4.6 270 00:32 02.08.2019
4343 Rain 7 1027 56 10000 4.6 270 23:44 01.08.2019
4344 Rain 7 1027 56 10000 4.6 270 23:26 01.08.2019
4345 Clouds 9 1026 85 10000 4.6 270 22:45 01.08.2019
4346 Clouds 9 1026 85 10000 4.6 270 22:25 01.08.2019
4347 Rain 8 1026 85 10000 5.7 280 21:57 01.08.2019
4348 Rain 8 1026 85 10000 5.7 280 21:39 01.08.2019
4349 Rain 8 1026 80 10000 5.7 280 21:21 01.08.2019
4350 Clouds 9 1025 49 10000 6.7 280 20:46 01.08.2019
4351 Clouds 9 1025 49 10000 6.7 280 20:23 01.08.2019
4352 Clouds 8 1025 78 10000 6.2 280 19:54 01.08.2019
4353 Clouds 8 1025 78 10000 6.2 280 19:36 01.08.2019
4354 Clouds 8 1025 78 10000 6.2 280 19:18 01.08.2019
4355 Clouds 8 1025 61 10000 4.6 270 18:42 01.08.2019
4356 Clouds 8 1025 61 10000 4.6 270 18:23 01.08.2019
4357 Clouds 8 1024 65 10000 2.1 260 17:47 01.08.2019
4358 Clouds 8 1024 65 10000 2.1 260 17:27 01.08.2019
4359 Clouds 4 1024 93 10000 1 0 16:45 01.08.2019
4360 Clouds 4 1024 93 10000 1 0 16:45 01.08.2019
4361 Clouds 4 1024 93 10000 1 0 16:22 01.08.2019
4362 Clouds 3 1023 93 10000 1.5 290 15:46 01.08.2019
4363 Clouds 3 1023 93 10000 1.5 290 15:21 01.08.2019
4364 Clear 4 1021 86 10000 1.5 220 14:58 01.08.2019
4365 Clear 4 1021 86 10000 1.5 220 14:40 01.08.2019
4366 Clear 4 1021 86 10000 1.5 220 14:18 01.08.2019
4367 Clear 4 1021 86 10000 1.5 220 14:18 01.08.2019
4368 Clouds 3 1020 93 10000 1.5 280 13:41 01.08.2019
4369 Clouds 3 1020 93 10000 1.5 280 13:22 01.08.2019
4370 Clear 3 1019 93 10000 1 0 12:58 01.08.2019
4371 Clear 3 1019 93 10000 1 0 12:40 01.08.2019
4372 Clear 3 1019 93 10000 1 0 12:21 01.08.2019
4373 Rain 4 1018 93 10000 1 0 11:41 01.08.2019
4374 Rain 4 1018 93 10000 1 0 11:22 01.08.2019
4375 Rain 4 1018 93 10000 1 0 11:22 01.08.2019
4376 Rain 4 1018 93 10000 1 0 11:22 01.08.2019
4377 Rain 4 1016 86 10000 1.5 260 10:45 01.08.2019
4378 Rain 4 1016 86 10000 1.5 260 10:27 01.08.2019
4379 Rain 4 1015 86 10000 2.6 300 09:56 01.08.2019
4380 Rain 4 1015 86 10000 2.6 300 09:38 01.08.2019
4381 Rain 4 1015 86 10000 2.6 300 09:20 01.08.2019
4382 Clouds 4 1014 86 10000 1.5 270 08:42 01.08.2019
4383 Clouds 4 1014 86 10000 1.5 270 08:19 01.08.2019
4384 Rain 4 1013 86 10000 2.1 240 07:46 01.08.2019
4385 Rain 4 1013 86 10000 2.1 240 07:21 01.08.2019
4386 Clouds 3 1012 93 10000 1 0 06:45 01.08.2019
4387 Clouds 4 1012 86 10000 1.5 290 05:37 01.08.2019
4388 Rain 3 1009 93 10000 1.5 280 02:41 01.08.2019
4389 Rain 3 1007 93 4200 1 0 01:45 01.08.2019
4390 Rain 3 1006 93 4600 1 0 00:37 01.08.2019
4391 Rain 3 1006 93 4600 1 0 00:18 01.08.2019
4392 Rain 3 1004 93 4000 1 0 23:42 31.07.2019
4393 Rain 3 1004 93 4000 1 0 23:20 31.07.2019
4394 Rain 3 1003 93 4000 1 0 22:45 31.07.2019
4395 Rain 3 1003 93 4000 1 0 22:27 31.07.2019
4396 Rain 3 1003 93 4000 1 0 22:27 31.07.2019
4397 Rain 3 1003 93 4000 2.6 80 21:45 31.07.2019
4398 Rain 3 1003 93 4000 2.6 80 21:23 31.07.2019
4399 Rain 3 1003 93 0 1 0 20:51 31.07.2019
4400 Rain 3 1003 93 0 1 0 20:25 31.07.2019
4401 Rain 3 1004 93 4000 1.5 120 19:58 31.07.2019
4402 Rain 3 1004 93 4000 1.5 120 19:37 31.07.2019
4403 Rain 3 1004 93 4000 1.5 120 19:19 31.07.2019
4404 Rain 4 1004 93 4000 2.6 120 18:39 31.07.2019
4405 Rain 4 1004 93 4000 2.6 120 18:19 31.07.2019
4406 Rain 3 1004 93 5000 1.5 80 17:45 31.07.2019
4407 Rain 3 1004 93 5000 1.5 80 17:20 31.07.2019
4408 Rain 3 1004 93 7000 0.5 0 16:54 31.07.2019
4409 Rain 3 1004 93 7000 0.5 0 16:33 31.07.2019
4410 Rain 2 1005 100 6000 3.26 343.82 15:58 31.07.2019
4411 Rain 2 1005 100 6000 3.26 343.82 15:39 31.07.2019
4412 Rain 2 1005 100 6000 3.12 338.751 15:20 31.07.2019
4413 Rain 3 1005 93 10000 1 0 14:42 31.07.2019
4414 Rain 3 1005 93 10000 1 0 14:20 31.07.2019
4415 Rain 3 1006 86 10000 2.1 290 13:55 31.07.2019
4416 Rain 3 1006 86 10000 2.1 290 13:37 31.07.2019
4417 Rain 3 1006 86 10000 2.1 290 13:18 31.07.2019
4418 Clear 3 1006 93 10000 0.5 0 12:40 31.07.2019
4419 Clear 3 1006 93 10000 0.5 0 12:22 31.07.2019
4420 Rain 4 1006 86 10000 1 0 11:39 31.07.2019
4421 Rain 4 1006 86 10000 1 0 11:20 31.07.2019
4422 Clear 3 1006 93 10000 1.5 0 10:46 31.07.2019
4423 Clear 3 1006 93 10000 1.5 0 10:21 31.07.2019
4424 Rain 4 1006 93 10000 1 0 09:59 31.07.2019
4425 Rain 4 1006 93 10000 1 0 09:41 31.07.2019
4426 Rain 4 1006 93 10000 1 0 09:23 31.07.2019
4427 Rain 3 1005 100 3000 1 0 08:43 31.07.2019
4428 Rain 3 1005 100 3000 1 0 08:23 31.07.2019
4429 Mist 3 1007 93 2000 2.8 301.808 07:42 31.07.2019
4430 Mist 3 1007 93 2000 2.8 301.808 07:22 31.07.2019
4431 Rain 5 1008 86 10000 1.5 270 04:56 31.07.2019
4432 Rain 5 1008 86 10000 0.5 0 03:33 31.07.2019
4433 Clear 6 1006 93 10000 1.5 320 00:30 31.07.2019
4434 Rain 6 1006 93 8000 1.5 0 23:42 30.07.2019
4435 Rain 6 1006 93 8000 1.5 0 23:20 30.07.2019
4436 Rain 2 1007 97 0 2.95 336.768 22:46 30.07.2019
4437 Rain 2 1007 97 0 2.95 336.768 22:25 30.07.2019
4438 Rain 2 1007 97 0 2.95 336.768 21:57 30.07.2019
4439 Rain 2 1007 97 0 2.95 336.768 21:37 30.07.2019
4440 Rain 8 1006 93 6000 0.5 0 21:18 30.07.2019
4441 Rain 8 1006 93 6000 0.5 0 20:43 30.07.2019
4442 Rain 8 1006 93 6000 0.5 0 20:24 30.07.2019
4443 Rain 8 1007 93 4000 1 0 19:59 30.07.2019
4444 Rain 8 1007 93 4000 1 0 19:39 30.07.2019
4445 Clouds 9 1008 81 10000 1.5 0 18:58 30.07.2019
4446 Clouds 9 1008 81 10000 1.5 0 18:39 30.07.2019
4447 Clouds 9 1008 81 10000 1.5 0 18:19 30.07.2019
4448 Rain 9 1009 81 9000 1 0 17:42 30.07.2019
4449 Rain 9 1009 81 9000 1 0 17:19 30.07.2019
4450 Rain 9 1009 81 9000 1 0 17:19 30.07.2019
4451 Smoke 7 1009 93 10000 1 0 16:51 30.07.2019
4452 Smoke 7 1009 93 10000 1 0 16:21 30.07.2019
4453 Rain 6 1010 100 10000 0.5 0 15:58 30.07.2019
4454 Rain 6 1010 100 10000 0.5 0 15:37 30.07.2019
4455 Rain 6 1010 100 10000 0.5 0 15:18 30.07.2019
4456 Rain 6 1010 100 10000 0.5 0 14:42 30.07.2019
4457 Rain 6 1010 100 10000 0.5 0 14:20 30.07.2019
4458 Rain 6 1009 100 10000 2.96 307.404 13:47 30.07.2019
4459 Rain 6 1009 100 10000 2.96 307.404 13:29 30.07.2019
4460 Rain 6 1009 93 10000 3.15 316.196 12:58 30.07.2019
4461 Rain 6 1009 93 10000 3.15 316.196 12:39 30.07.2019
4462 Rain 6 1009 93 10000 2.65 316.253 12:21 30.07.2019
4463 Rain 5 1008 93 6000 1 0 11:40 30.07.2019
4464 Rain 5 1008 93 6000 1 0 11:20 30.07.2019
4465 Rain 5 1008 93 6000 1 0 11:20 30.07.2019
4466 Rain 5 1008 93 6000 1 0 10:46 30.07.2019
4467 Rain 5 1008 93 6000 1 0 10:26 30.07.2019
4468 Rain 5 1007 100 3400 1 0 09:50 30.07.2019
4469 Rain 5 1007 100 3400 1 0 09:31 30.07.2019
4470 Rain 5 1007 100 3800 2.13 328.343 08:49 30.07.2019
4471 Rain 5 1007 100 3800 2.13 328.343 08:31 30.07.2019
4472 Rain 6 1007 93 8000 0.5 0 07:47 30.07.2019
4473 Rain 6 1007 93 8000 0.5 0 07:28 30.07.2019
4474 Rain 6 1007 93 2300 2.13 328.343 06:48 30.07.2019
4475 Rain 6 1007 93 5000 2.52 340.052 05:56 30.07.2019
4476 Rain 6 1007 93 5000 2.52 340.052 05:32 30.07.2019
4477 Rain 8 1008 81 10000 0.5 0 01:41 30.07.2019
4478 Rain 10 1008 66 10000 2.1 320 00:45 30.07.2019
4479 Rain 10 1008 66 10000 2.1 320 00:20 30.07.2019
4480 Clouds 11 1008 62 10000 3.6 280 23:44 29.07.2019
4481 Clouds 11 1008 62 10000 3.6 280 23:26 29.07.2019
4482 Clouds 11 1008 62 10000 3.6 280 23:26 29.07.2019
4483 Clouds 12 1009 58 10000 3.6 270 22:57 29.07.2019
4484 Clouds 12 1009 58 10000 3.6 270 22:38 29.07.2019
4485 Clouds 12 1009 58 10000 3.6 270 22:20 29.07.2019
4486 Clouds 12 1008 58 10000 2.6 0 21:55 29.07.2019
4487 Clouds 12 1008 58 10000 2.6 0 21:37 29.07.2019
4488 Clouds 12 1008 58 10000 2.6 0 21:18 29.07.2019
4489 Clouds 12 1009 62 10000 3.1 260 20:45 29.07.2019
4490 Clouds 12 1009 62 10000 3.1 260 20:23 29.07.2019
4491 Clouds 10 1010 76 10000 3.1 320 19:55 29.07.2019
4492 Clouds 10 1010 76 10000 3.1 320 19:37 29.07.2019
4493 Clouds 10 1010 76 10000 3.1 320 19:18 29.07.2019
4494 Rain 6 1011 90 0 1.66 309.01 18:41 29.07.2019
4495 Rain 7 1010 100 9000 1 0 18:21 29.07.2019
4496 Rain 7 1010 100 9000 1 0 17:50 29.07.2019
4497 Rain 7 1010 100 9000 1 0 17:32 29.07.2019
4498 Rain 6 1010 100 8000 1.5 0 16:58 29.07.2019
4499 Rain 6 1010 100 8000 1.5 0 16:39 29.07.2019
4500 Rain 6 1010 100 8000 1.5 0 16:20 29.07.2019
4501 Rain 5 1010 100 7000 1.5 250 15:50 29.07.2019
4502 Rain 5 1010 100 7000 1.5 250 15:30 29.07.2019
4503 Rain 4 1009 100 7000 1 0 14:45 29.07.2019
4504 Rain 4 1009 100 7000 1 0 14:21 29.07.2019
4505 Rain 4 1009 100 7000 1 0 14:21 29.07.2019
4506 Rain 4 1008 100 10000 1 0 13:57 29.07.2019
4507 Rain 4 1008 100 10000 1 0 13:36 29.07.2019
4508 Rain 4 1008 100 10000 1 0 13:18 29.07.2019
4509 Rain 4 1008 100 10000 1.5 250 12:41 29.07.2019
4510 Rain 4 1008 100 10000 1.5 250 12:21 29.07.2019
4511 Rain 4 1007 100 6000 1 0 11:42 29.07.2019
4512 Rain 4 1007 100 6000 1 0 11:21 29.07.2019
4513 Rain 3 1007 100 2600 1 280 10:45 29.07.2019
4514 Rain 3 1007 100 2600 1 280 10:23 29.07.2019
4515 Rain 3 1007 100 1600 2.55 302.022 09:45 29.07.2019
4516 Rain 3 1007 100 1600 2.72 312.301 09:24 29.07.2019
4517 Rain 3 1006 100 2600 0.5 0 08:55 29.07.2019
4518 Rain 3 1006 100 2600 0.5 0 08:27 29.07.2019
4519 Rain 3 1006 100 1700 1 0 07:53 29.07.2019
4520 Rain 3 1006 100 1700 1 0 07:31 29.07.2019
4521 Rain 3 1006 100 1800 1 0 06:40 29.07.2019
4522 Rain 3 1005 93 800 0.5 0 05:37 29.07.2019
4523 Rain 3 1005 93 7000 2.61 326.742 04:23 29.07.2019
4524 Rain 3 1006 93 3100 1 0 01:52 29.07.2019
4525 Rain 3 1006 93 3100 1 0 01:34 29.07.2019
4526 Rain 4 1007 86 10000 2.44 339.961 00:58 29.07.2019
4527 Rain 4 1007 86 10000 2.44 339.961 00:30 29.07.2019
4528 Clear 5 1007 75 10000 1.5 90 23:44 28.07.2019
4529 Clear 5 1007 75 10000 1.5 90 23:26 28.07.2019
4530 Clear 5 1007 75 7000 0.5 0 22:46 28.07.2019
4531 Clear 5 1007 75 7000 0.5 0 22:28 28.07.2019
4532 Clear 5 1008 86 7000 1.5 310 21:54 28.07.2019
4533 Clear 5 1008 86 7000 1.5 310 21:36 28.07.2019
4534 Clear 5 1008 74 7000 1.5 310 21:18 28.07.2019
4535 Clouds 2 1009 71 6000 1.5 290 20:42 28.07.2019
4536 Clouds 2 1009 71 6000 1.5 290 20:23 28.07.2019
4537 Clear 1 1011 71 10000 0.61 261.483 19:40 28.07.2019
4538 Clear 1 1011 71 10000 0.61 261.483 19:21 28.07.2019
4539 Clear 0 1011 71 9000 0.61 261.483 18:46 28.07.2019
4540 Clear 0 1011 71 9000 0.61 261.483 18:27 28.07.2019
4541 Clouds -1 1012 100 10000 0.5 0 17:56 28.07.2019
4542 Clouds -1 1012 100 10000 0.5 0 17:38 28.07.2019
4543 Clouds -1 1012 100 10000 0.5 0 17:19 28.07.2019
4544 Clear -2 1012 100 10000 1.5 90 16:42 28.07.2019
4545 Clear -2 1012 100 10000 1.5 90 16:22 28.07.2019
4546 Clouds -3 1013 100 10000 1 0 15:44 28.07.2019
4547 Clouds -3 1013 100 10000 1 0 15:26 28.07.2019
4548 Fog -3 1013 100 1100 1.5 80 14:40 28.07.2019
4549 Fog -3 1013 100 1100 1.5 80 14:20 28.07.2019
4550 Fog -3 1013 100 650 1.56 313.491 13:56 28.07.2019
4551 Fog -3 1013 100 650 1.56 313.491 13:37 28.07.2019
4552 Fog -3 1013 100 650 1.51 311.444 13:19 28.07.2019
4553 Fog -3 1013 100 3400 1.51 311.444 12:42 28.07.2019
4554 Fog -3 1013 100 3400 1.66 320.451 12:23 28.07.2019
4555 Fog -3 1014 100 1000 1.66 320.451 11:49 28.07.2019
4556 Fog -3 1014 100 1000 1.66 320.451 11:28 28.07.2019
4557 Fog -4 1014 100 750 1.66 320.451 10:43 28.07.2019
4558 Fog -4 1014 100 750 1.66 320.451 10:23 28.07.2019
4559 Fog -4 1015 100 600 1.66 320.451 09:59 28.07.2019
4560 Fog -4 1015 100 600 1.66 320.451 09:39 28.07.2019
4561 Fog -4 1015 100 600 1.59 309.01 09:19 28.07.2019
4562 Fog -4 1015 100 600 1.59 309.01 09:19 28.07.2019
4563 Fog -4 1016 92 1800 1.52 310.696 08:41 28.07.2019
4564 Fog -4 1016 92 1800 1.52 310.696 08:21 28.07.2019
4565 Mist -4 1016 100 5000 1.52 310.696 07:39 28.07.2019
4566 Mist -4 1016 100 6000 1.52 310.696 06:47 28.07.2019
4567 Mist -3 1017 92 4700 1.34 323.957 05:59 28.07.2019
4568 Clear -3 1017 100 6000 1.34 323.957 04:37 28.07.2019
4569 Clear -2 1018 92 8000 1.3 319.408 02:24 28.07.2019
4570 Clear 0 1018 79 10000 1.56 324.132 01:21 28.07.2019
4571 Clear 3 1018 74 10000 1.56 324.132 00:47 28.07.2019
4572 Clear 3 1018 74 10000 0.76 159.603 00:22 28.07.2019
4573 Clear 6 1018 56 10000 1.5 60 23:46 27.07.2019
4574 Clear 6 1018 56 10000 1.5 60 23:22 27.07.2019
4575 Clear 6 1019 56 10000 1 0 22:42 27.07.2019
4576 Clear 6 1019 56 10000 1 0 22:22 27.07.2019
4577 Clear 6 1019 56 10000 1 0 22:22 27.07.2019
4578 Clear 6 1020 56 10000 1 0 21:41 27.07.2019
4579 Clear 6 1020 56 10000 1 0 21:20 27.07.2019
4580 Clear 5 1021 60 10000 1 0 20:52 27.07.2019
4581 Clear 5 1021 60 10000 1 0 20:26 27.07.2019
4582 Clear 3 1023 69 10000 1 330 19:56 27.07.2019
4583 Clear 3 1023 69 10000 1 330 19:38 27.07.2019
4584 Clear 3 1023 69 10000 1 330 19:18 27.07.2019
4585 Clear 1 1024 67 10000 1 0 18:42 27.07.2019
4586 Clear 1 1024 67 10000 1 0 18:24 27.07.2019
4587 Fog -2 1025 100 450 1 290 17:42 27.07.2019
4588 Fog -2 1025 100 450 1 290 17:42 27.07.2019
4589 Fog -2 1025 100 450 1 290 17:23 27.07.2019
4590 Mist -2 1026 100 1900 0.93 136.794 16:50 27.07.2019
4591 Mist -2 1026 100 1900 0.93 136.794 16:32 27.07.2019
4592 Fog -2 1026 100 1600 0.93 136.794 15:54 27.07.2019
4593 Fog -2 1026 100 1600 0.58 310.914 15:24 27.07.2019
4594 Fog -2 1026 100 1200 0.58 310.914 14:51 27.07.2019
4595 Fog -2 1026 100 1200 0.58 310.914 14:32 27.07.2019
4596 Mist -2 1026 100 5000 0.5 0 13:58 27.07.2019
4597 Mist -2 1026 100 5000 0.5 0 13:39 27.07.2019
4598 Mist -2 1026 100 5000 0.5 0 13:19 27.07.2019
4599 Fog -2 1026 100 750 1 80 12:41 27.07.2019
4600 Fog -2 1026 100 750 1 80 12:21 27.07.2019
4601 Fog -3 1026 100 300 0.5 100 11:43 27.07.2019
4602 Fog -3 1026 100 300 0.5 100 11:24 27.07.2019
4603 Fog -3 1027 100 3000 0.93 322.921 10:43 27.07.2019
4604 Fog -3 1027 100 3000 0.93 322.921 10:23 27.07.2019
4605 Mist -3 1028 100 3300 0.93 322.921 09:45 27.07.2019
4606 Mist -3 1028 100 3300 0.93 322.921 09:26 27.07.2019
4607 Mist -2 1028 92 2700 1.21 308.482 08:58 27.07.2019
4608 Mist -2 1028 92 2700 1.1 305.997 08:40 27.07.2019
4609 Mist -2 1028 92 2700 1.1 305.997 08:20 27.07.2019
4610 Mist -1 1029 100 4800 1.1 305.997 07:41 27.07.2019
4611 Mist -1 1029 100 4800 1.1 305.997 07:22 27.07.2019
4612 Mist -1 1029 92 3600 1 0 06:50 27.07.2019
4613 Mist -1 1029 92 3600 1 0 06:22 27.07.2019
4614 Clear -1 1029 92 6000 0.5 0 05:35 27.07.2019
4615 Clear 0 1029 89 10000 1 0 04:46 27.07.2019
4616 Clear 1 1029 86 8000 2.15 315.339 03:46 27.07.2019
4617 Clear 3 1028 89 10000 1 0 02:43 27.07.2019
4618 Clear 6 1028 60 10000 1.5 250 01:57 27.07.2019
4619 Clear 6 1028 60 10000 1.5 250 01:57 27.07.2019
4620 Clear 6 1028 60 10000 1.5 250 01:32 27.07.2019
4621 Clear 8 1027 52 10000 3.1 260 00:38 27.07.2019
4622 Clear 8 1027 52 10000 3.1 260 00:19 27.07.2019
4623 Clear 9 1026 42 10000 3.6 260 23:42 26.07.2019
4624 Clear 9 1026 42 10000 3.6 260 23:23 26.07.2019
4625 Clear 10 1026 43 10000 3.1 270 22:43 26.07.2019
4626 Clear 10 1026 43 10000 3.1 270 22:25 26.07.2019
4627 Clear 10 1025 39 10000 3.1 260 21:52 26.07.2019
4628 Clear 10 1025 39 10000 3.1 260 21:20 26.07.2019
4629 Clear 9 1026 42 10000 4.6 280 20:51 26.07.2019
4630 Clear 9 1026 42 10000 4.6 280 20:32 26.07.2019
4631 Clear 10 1026 43 10000 3.6 270 19:45 26.07.2019
4632 Clear 10 1026 43 10000 3.6 270 19:26 26.07.2019
4633 Clear 10 1026 46 10000 4.1 260 18:59 26.07.2019
4634 Clear 10 1026 46 10000 4.1 260 18:41 26.07.2019
4635 Clear 10 1026 46 10000 4.1 260 18:20 26.07.2019
4636 Clear 7 1026 70 10000 2.6 260 17:48 26.07.2019
4637 Clear 7 1026 70 10000 2.6 260 17:20 26.07.2019
4638 Clouds 3 1027 91 0 1.87 302.883 16:59 26.07.2019
4639 Clouds 3 1027 91 0 1.87 302.883 16:41 26.07.2019
4640 Clouds 3 1026 93 10000 0.5 0 16:21 26.07.2019
4641 Clouds 3 1026 93 10000 0.5 0 15:59 26.07.2019
4642 Clouds 3 1026 93 10000 0.5 0 15:40 26.07.2019
4643 Clouds 3 1026 93 10000 0.5 0 15:20 26.07.2019
4644 Clouds 3 1026 93 10000 0.5 0 15:20 26.07.2019
4645 Clear 3 1025 93 10000 2.47 312.753 14:44 26.07.2019
4646 Clear 3 1025 93 10000 2.47 312.753 14:23 26.07.2019
4647 Clear 3 1024 93 10000 2.47 312.753 13:47 26.07.2019
4648 Clear 3 1024 93 10000 2.37 307.552 13:27 26.07.2019
4649 Clear 3 1023 93 10000 1 0 12:49 26.07.2019
4650 Clear 3 1023 93 10000 1 0 12:23 26.07.2019
4651 Clouds 4 1023 93 10000 0.5 0 11:56 26.07.2019
4652 Clouds 4 1023 93 10000 0.5 0 11:36 26.07.2019
4653 Clouds 4 1023 93 10000 0.5 0 11:18 26.07.2019
4654 Mist 3 1022 93 5000 1 0 10:39 26.07.2019
4655 Mist 3 1022 93 5000 1 0 10:19 26.07.2019
4656 Mist 4 1022 93 5000 1 0 09:50 26.07.2019
4657 Mist 4 1022 93 5000 1 0 09:27 26.07.2019
4658 Rain 5 1022 86 7000 1 0 08:41 26.07.2019
4659 Rain 5 1022 86 7000 1 0 08:21 26.07.2019
4660 Rain 5 1021 86 10000 1.5 290 07:40 26.07.2019
4661 Rain 5 1021 86 10000 1.5 290 07:21 26.07.2019
4662 Rain 6 1021 81 10000 1 0 06:21 26.07.2019
4663 Rain 5 1020 86 5000 1.5 290 04:30 26.07.2019
4664 Clear 6 1019 81 10000 3.6 290 03:51 26.07.2019
4665 Rain 5 1019 86 10000 2.54 325.665 01:46 26.07.2019
4666 Rain 5 1019 86 10000 2.28 339.605 01:18 26.07.2019
4667 Rain 6 1019 81 10000 2.1 270 00:28 26.07.2019
4668 Rain 7 1018 70 9000 3.1 270 23:44 25.07.2019
4669 Rain 7 1018 70 9000 3.1 270 23:20 25.07.2019
4670 Rain 8 1018 85 10000 3.6 240 22:41 25.07.2019
4671 Rain 8 1018 85 10000 3.6 240 22:21 25.07.2019
4672 Clouds 10 1018 46 10000 1.5 0 21:48 25.07.2019
4673 Clouds 10 1018 46 10000 1.5 0 21:23 25.07.2019
4674 Clear 7 1018 70 10000 1 0 20:57 25.07.2019
4675 Clear 7 1018 70 10000 1 0 20:38 25.07.2019
4676 Clear 7 1018 70 10000 1 0 20:18 25.07.2019
4677 Clear 4 1019 100 10000 2.1 290 19:40 25.07.2019
4678 Clear 4 1019 100 10000 2.1 290 19:21 25.07.2019
4679 Clear 1 1020 100 10000 2.1 260 18:41 25.07.2019
4680 Clear 1 1020 100 10000 2.1 260 18:23 25.07.2019
4681 Fog -1 1020 100 300 1.5 290 17:50 25.07.2019
4682 Fog -1 1020 100 300 1.5 290 17:31 25.07.2019
4683 Fog -1 1020 100 150 1 0 16:56 25.07.2019
4684 Fog -1 1020 100 150 1 0 16:37 25.07.2019
4685 Fog -1 1020 100 150 1 0 16:19 25.07.2019
4686 Fog -1 1020 100 150 0.5 0 15:42 25.07.2019
4687 Fog -1 1020 100 150 0.5 0 15:19 25.07.2019
4688 Fog -1 1020 100 900 0.5 0 14:42 25.07.2019
4689 Fog -1 1020 100 900 0.5 0 14:22 25.07.2019
4690 Mist -1 1019 100 2700 1.62 308.04 13:44 25.07.2019
4691 Mist -1 1019 100 2700 1.62 304.278 13:26 25.07.2019
4692 Mist -1 1019 100 2700 1.62 304.278 13:26 25.07.2019
4693 Clouds -1 1019 100 9000 1.62 304.278 12:55 25.07.2019
4694 Clouds -1 1019 100 9000 1.62 304.278 12:28 25.07.2019
4695 Fog -2 1019 100 700 1 0 11:45 25.07.2019
4696 Fog -2 1019 100 700 1 0 11:24 25.07.2019
4697 Fog -2 1020 100 800 1.5 270 10:55 25.07.2019
4698 Fog -2 1020 100 800 1.5 270 10:55 25.07.2019
4699 Fog -2 1020 100 800 1.5 270 10:55 25.07.2019
4700 Fog -2 1020 100 800 1.5 270 10:36 25.07.2019
4701 Fog -2 1020 100 800 1.5 270 10:18 25.07.2019
4702 Fog -2 1020 100 500 1.4 311.067 09:40 25.07.2019
4703 Mist -2 1021 100 2600 0.8 319.227 08:59 25.07.2019
4704 Mist -2 1021 100 2600 0.8 319.227 08:40 25.07.2019
4705 Fog -1 1022 92 650 0.5 0 07:55 25.07.2019
4706 Fog -1 1022 92 650 0.5 0 07:30 25.07.2019
4707 Mist -1 1022 100 2800 1 0 06:42 25.07.2019
4708 Mist -1 1022 100 2800 1 0 06:42 25.07.2019
4709 Mist -1 1022 92 5000 0.5 0 05:37 25.07.2019
4710 Mist -1 1023 100 5000 0.64 320.946 04:57 25.07.2019
4711 Mist -1 1023 100 5000 0.64 320.946 04:19 25.07.2019
4712 Clear 2 1024 77 9000 0.79 336.574 01:31 25.07.2019
4713 Clear 3 1024 86 10000 0.92 358.385 00:45 25.07.2019
4714 Clear 3 1024 86 10000 0.56 155.232 00:19 25.07.2019
4715 Haze 6 1024 81 10000 0.56 155.232 23:44 24.07.2019
4716 Haze 6 1024 81 10000 0.56 155.232 23:25 24.07.2019
4717 Clouds 9 1024 57 10000 0.56 155.232 22:47 24.07.2019
4718 Clouds 9 1024 57 10000 0.56 155.232 22:25 24.07.2019
4719 Clear 9 1025 49 10000 1.5 300 21:59 24.07.2019
4720 Clear 9 1025 49 10000 1.5 300 21:41 24.07.2019
4721 Clear 9 1025 49 10000 1.5 300 21:20 24.07.2019
4722 Clear 9 1025 49 10000 1.5 300 21:20 24.07.2019
4723 Clear 8 1025 81 10000 2.1 310 20:48 24.07.2019
4724 Clear 8 1025 81 10000 2.1 310 20:29 24.07.2019
4725 Clear 6 1027 81 10000 1.5 290 19:59 24.07.2019
4726 Clear 6 1027 81 10000 1.5 290 19:41 24.07.2019
4727 Clear 6 1027 81 10000 1.5 290 19:20 24.07.2019
4728 Clear 5 1028 81 10000 1 0 18:44 24.07.2019
4729 Clear 5 1028 75 10000 1 0 18:24 24.07.2019
4730 Clear 1 1028 100 10000 1.5 310 17:48 24.07.2019
4731 Clear 1 1028 100 10000 1.5 310 17:24 24.07.2019
4732 Fog -1 1029 100 50 1.5 300 16:59 24.07.2019
4733 Fog -1 1029 100 50 1.5 300 16:39 24.07.2019
4734 Fog -1 1029 100 50 1.5 300 16:20 24.07.2019
4735 Fog -2 1029 100 50 1 300 15:38 24.07.2019
4736 Fog -2 1029 100 50 1 300 15:19 24.07.2019
4737 Fog -1 1029 92 600 1 0 14:46 24.07.2019
4738 Fog -1 1029 92 600 1 0 14:21 24.07.2019
4739 Clear -1 1029 100 8000 1 0 13:40 24.07.2019
4740 Clear -1 1029 100 8000 1 0 13:22 24.07.2019
4741 Clear 0 1029 82 10000 1 0 12:54 24.07.2019
4742 Clear 0 1029 82 10000 1 0 12:35 24.07.2019
4743 Clear 0 1029 83 10000 1 0 11:55 24.07.2019
4744 Clear 0 1029 83 10000 1 0 11:37 24.07.2019
4745 Clear 0 1029 83 10000 1 0 11:18 24.07.2019
4746 Clear 1 1030 83 10000 1 0 10:41 24.07.2019
4747 Clear 1 1030 83 10000 1 0 10:23 24.07.2019
4748 Clear 1 1030 83 10000 1 0 09:44 24.07.2019
4749 Clear 1 1030 86 10000 1 0 09:22 24.07.2019
4750 Clear 1 1030 86 10000 1 280 08:44 24.07.2019
4751 Clear 1 1030 86 10000 1 280 08:22 24.07.2019
4752 Clear 2 1030 86 10000 0.5 0 07:46 24.07.2019
4753 Clear 2 1030 86 10000 0.5 0 07:20 24.07.2019
4754 Clear 2 1030 86 10000 1 280 06:28 24.07.2019
4755 Clear 2 1030 89 10000 1.5 290 05:24 24.07.2019
4756 Mist 3 1030 89 5000 1 0 01:55 24.07.2019
4757 Clear 3 1030 89 10000 1 0 00:58 24.07.2019
4758 Clear 3 1030 89 10000 1 0 00:39 24.07.2019
4759 Clear 7 1029 88 10000 1.44 262.31 23:54 23.07.2019
4760 Clear 7 1029 88 10000 1.44 262.31 23:27 23.07.2019
4761 Clouds 9 1029 49 10000 1.5 0 22:59 23.07.2019
4762 Clouds 9 1029 49 10000 1.5 0 22:38 23.07.2019
4763 Clouds 9 1029 49 10000 1.5 0 22:19 23.07.2019
4764 Clear 9 1028 49 10000 1 0 21:45 23.07.2019
4765 Clear 9 1028 49 10000 1 0 21:26 23.07.2019
4766 Clear 9 1028 93 10000 1.5 0 20:49 23.07.2019
4767 Clear 9 1028 93 10000 1.5 0 20:29 23.07.2019
4768 Clouds 7 1029 93 10000 2.1 290 19:44 23.07.2019
4769 Clouds 7 1029 93 10000 2.1 290 19:44 23.07.2019
4770 Clouds 7 1029 93 10000 2.1 290 19:24 23.07.2019
4771 Clouds 7 1029 93 10000 2.1 290 19:24 23.07.2019
4772 Clouds 4 1030 93 10000 2.1 300 18:58 23.07.2019
4773 Clouds 4 1030 93 10000 2.1 300 18:39 23.07.2019
4774 Clouds 4 1030 91 10000 2.1 300 18:20 23.07.2019
4775 Clouds 3 1029 91 10000 1 0 17:43 23.07.2019
4776 Clouds 3 1029 91 10000 1 0 17:22 23.07.2019
4777 Clouds 2 1029 91 10000 1 0 16:44 23.07.2019
4778 Clouds 2 1029 91 10000 1 0 16:26 23.07.2019
4779 Clouds 1 1029 91 0 1.53 269.699 15:52 23.07.2019
4780 Clouds 1 1029 91 0 1.53 269.699 15:34 23.07.2019
4781 Clouds -3 1028 88 0 2.43 283.619 14:56 23.07.2019
4782 Clouds -3 1028 88 0 2.43 283.619 14:36 23.07.2019
4783 Clouds -3 1028 88 0 2.43 283.619 14:18 23.07.2019
4784 Clouds -3 1028 88 0 2.43 283.619 13:55 23.07.2019
4785 Clouds -3 1028 88 0 2.43 283.619 13:36 23.07.2019
4786 Clouds -3 1028 88 0 2.7 288.388 13:18 23.07.2019
4787 Clouds -3 1028 88 0 2.7 288.388 12:41 23.07.2019
4788 Clouds -2 1028 90 0 2.69 284.635 12:21 23.07.2019
4789 Clouds -2 1028 90 0 2.69 284.635 11:41 23.07.2019
4790 Clouds -2 1028 90 0 2.69 284.635 11:21 23.07.2019
4791 Clouds -2 1028 90 0 2.69 284.635 10:49 23.07.2019
4792 Clouds -2 1028 90 0 2.69 284.635 10:23 23.07.2019
4793 Clouds -2 1028 90 0 2.69 284.635 09:43 23.07.2019
4794 Clouds -1 1026 90 0 2.33 303.779 09:22 23.07.2019
4795 Clouds -2 1026 91 0 2.31 305.916 08:44 23.07.2019
4796 Clouds -2 1026 91 0 2.31 305.916 08:21 23.07.2019
4797 Clouds -2 1026 91 0 2.31 305.916 07:59 23.07.2019
4798 Clouds -2 1026 91 0 2.31 305.916 07:37 23.07.2019
4799 Clouds -2 1026 91 0 2.31 305.916 06:52 23.07.2019
4800 Clear 5 1025 65 10000 3.1 240 06:34 23.07.2019
4801 Clear 5 1025 65 10000 3.1 240 06:34 23.07.2019
4802 Clear 3 1025 90 10000 1.5 280 04:26 23.07.2019
4803 Clear 5 1024 65 10000 3.1 280 01:37 23.07.2019
4804 Clear 6 1023 60 10000 3.1 240 00:37 23.07.2019
4805 Clear 6 1023 60 10000 3.1 240 00:18 23.07.2019
4806 Clouds 6 1023 60 10000 3.1 250 23:39 22.07.2019
4807 Clouds 6 1023 60 10000 3.1 250 23:19 22.07.2019
4808 Rain 6 1023 60 10000 3.6 260 22:45 22.07.2019
4809 Rain 6 1023 60 10000 3.6 260 22:23 22.07.2019
4810 Clouds 7 1022 56 10000 4.6 260 21:44 22.07.2019
4811 Clouds 7 1022 56 10000 4.6 260 21:23 22.07.2019
4812 Clouds 7 1022 52 10000 3.6 260 20:53 22.07.2019
4813 Clouds 7 1022 52 10000 3.6 260 20:33 22.07.2019
4814 Clouds 7 1023 52 10000 3.1 0 19:58 22.07.2019
4815 Clouds 7 1023 52 10000 3.1 0 19:40 22.07.2019
4816 Clouds 7 1023 52 10000 3.1 0 19:20 22.07.2019
4817 Clouds 6 1023 56 10000 3.6 280 18:46 22.07.2019
4818 Clouds 6 1023 56 10000 3.6 280 18:27 22.07.2019
4819 Clouds 4 1023 64 10000 3.1 270 17:55 22.07.2019
4820 Clouds 4 1023 64 10000 3.1 270 17:37 22.07.2019
4821 Clouds 4 1023 64 10000 3.1 270 17:18 22.07.2019
4822 Clouds 3 1022 74 10000 1.5 270 16:39 22.07.2019
4823 Clouds 3 1022 74 10000 1.5 270 16:20 22.07.2019
4824 Clouds 1 1022 80 10000 1.5 280 15:44 22.07.2019
4825 Clouds 1 1022 80 10000 1.5 280 15:20 22.07.2019
4826 Mist 0 1021 88 10000 0.5 0 14:44 22.07.2019
4827 Mist 0 1021 88 10000 0.5 0 14:24 22.07.2019
4828 Clear 2 1021 74 10000 2.1 290 13:51 22.07.2019
4829 Clear 2 1021 74 10000 2.1 290 13:31 22.07.2019
4830 Clear 1 1020 86 10000 1 0 12:51 22.07.2019
4831 Clear 1 1020 86 10000 1 0 12:32 22.07.2019
4832 Clear 2 1019 74 10000 0.5 0 11:56 22.07.2019
4833 Clear 2 1019 74 10000 0.5 0 11:36 22.07.2019
4834 Clear 2 1019 74 10000 0.5 0 11:36 22.07.2019
4835 Clear 2 1019 74 10000 0.5 0 11:18 22.07.2019
4836 Clear 2 1019 80 10000 1.5 0 10:37 22.07.2019
4837 Clear 2 1019 80 10000 1.5 0 10:18 22.07.2019
4838 Clear 1 1018 86 10000 1.5 290 09:39 22.07.2019
4839 Clear 1 1018 86 10000 1.5 290 09:20 22.07.2019
4840 Clear 1 1017 86 10000 2.6 310 08:38 22.07.2019
4841 Clear 1 1017 86 10000 2.6 310 08:20 22.07.2019
4842 Mist 0 1017 89 3400 1.5 270 07:47 22.07.2019
4843 Mist 0 1017 89 3400 1.5 270 07:27 22.07.2019
4844 Mist -1 1015 100 5000 0.5 0 05:20 22.07.2019
4845 Clouds 1 1013 90 9000 1.5 270 02:59 22.07.2019
4846 Clouds 4 1010 86 10000 1.5 260 00:59 22.07.2019
4847 Clouds 4 1010 86 10000 1.5 260 00:39 22.07.2019
4848 Clouds 4 1010 86 10000 1.5 260 00:20 22.07.2019
4849 Clouds 4 1009 86 10000 1 0 23:45 21.07.2019
4850 Clouds 4 1008 86 10000 1.5 260 22:57 21.07.2019
4851 Clouds 4 1008 86 10000 1.5 260 22:39 21.07.2019
4852 Clouds 4 1008 86 10000 1.5 260 22:20 21.07.2019
4853 Clouds 4 1007 86 10000 2.1 290 21:49 21.07.2019
4854 Clouds 4 1007 86 10000 2.1 290 21:26 21.07.2019
4855 Rain 3 1006 86 10000 1.5 240 20:57 21.07.2019
4856 Rain 3 1006 86 10000 1.5 240 20:39 21.07.2019
4857 Rain 3 1006 86 10000 1.5 240 20:21 21.07.2019
4858 Rain 3 1006 86 10000 1.5 260 19:48 21.07.2019
4859 Rain 3 1006 86 10000 1.5 260 19:28 21.07.2019
4860 Clouds 3 1005 86 10000 1.5 310 18:49 21.07.2019
4861 Clouds 3 1005 86 10000 1.5 310 18:26 21.07.2019
4862 Clouds 2 1004 93 10000 0.97 299.078 17:54 21.07.2019
4863 Clouds 2 1004 93 10000 0.97 299.078 17:36 21.07.2019
4864 Clouds 2 1004 93 10000 0.97 299.078 17:18 21.07.2019
4865 Mist 2 1003 93 7000 0.97 299.078 16:40 21.07.2019
4866 Mist 2 1003 93 7000 0.97 299.078 16:21 21.07.2019
4867 Clouds 0 1005 88 0 0.97 299.078 15:39 21.07.2019
4868 Clouds 1 1001 100 7000 1.51 305.004 15:20 21.07.2019
4869 Clouds 1 1001 100 7000 1.51 305.004 15:20 21.07.2019
4870 Clouds 1 1001 100 7000 1.51 305.004 14:42 21.07.2019
4871 Clouds 1 1001 100 7000 1.51 305.004 14:42 21.07.2019
4872 Clouds 1 1001 100 7000 1.51 305.004 14:23 21.07.2019
4873 Clouds 1 1000 100 7000 1.51 305.004 13:53 21.07.2019
4874 Clouds 1 1000 100 7000 1.51 305.004 13:32 21.07.2019
4875 Clouds 1 999 100 10000 0.5 0 12:46 21.07.2019
4876 Clouds 1 999 100 10000 0.5 0 12:28 21.07.2019
4877 Mist 1 998 100 5000 0.45 324.789 11:56 21.07.2019
4878 Mist 1 998 100 5000 0.45 324.789 11:56 21.07.2019
4879 Mist 1 998 100 5000 0.45 324.789 11:38 21.07.2019
4880 Mist 1 998 100 5000 0.45 324.789 11:19 21.07.2019
4881 Mist 1 998 96 4700 0.45 324.789 10:41 21.07.2019
4882 Mist 1 998 96 4700 0.45 324.789 10:23 21.07.2019
4883 Rain 2 997 93 4800 0.45 324.789 09:45 21.07.2019
4884 Rain 2 997 93 4800 1.7 341.49 09:25 21.07.2019
4885 Clouds 2 996 93 10000 0.62 293.624 08:45 21.07.2019
4886 Clouds 2 996 93 10000 0.62 293.624 08:27 21.07.2019
4887 Clouds 2 997 93 6000 0.62 293.624 07:39 21.07.2019
4888 Clouds 2 997 93 10000 0.62 293.624 06:52 21.07.2019
4889 Clouds 2 996 93 10000 0.59 220.093 05:43 21.07.2019
4890 Clouds 2 995 93 9000 1 0 02:53 21.07.2019
4891 Mist 2 995 93 5000 0.94 317.945 01:19 21.07.2019
4892 Clouds 2 995 93 6000 0.94 317.945 00:40 21.07.2019
4893 Clouds 2 995 93 6000 0.95 196.42 00:18 21.07.2019
4894 Clouds 3 995 86 10000 0.95 196.42 23:41 20.07.2019
4895 Clouds 3 995 86 10000 0.95 196.42 23:21 20.07.2019
4896 Clouds 3 995 86 10000 0.5 0 22:44 20.07.2019
4897 Clouds 3 995 86 10000 0.5 0 22:22 20.07.2019
4898 Clouds 3 996 86 10000 2.6 110 21:46 20.07.2019
4899 Clouds 3 996 86 10000 2.6 110 21:28 20.07.2019
4900 Clouds 2 997 93 9000 1.53 148.437 20:57 20.07.2019
4901 Clouds 2 997 93 9000 1.6 158.484 20:38 20.07.2019
4902 Clouds 2 997 93 9000 1.6 158.484 20:18 20.07.2019
4903 Clouds 2 997 93 9000 1.6 158.484 20:18 20.07.2019
4904 Clouds 2 997 93 9000 1.6 158.484 20:18 20.07.2019
4905 Rain 2 998 93 10000 2.1 100 19:44 20.07.2019
4906 Rain 2 998 93 10000 2.1 100 19:19 20.07.2019
4907 Clouds 1 999 100 7000 0.5 0 18:41 20.07.2019
4908 Clouds 1 999 100 7000 0.5 0 18:20 20.07.2019
4909 Drizzle 1 1001 100 4900 1 0 17:51 20.07.2019
4910 Drizzle 1 1001 100 4900 1 0 17:20 20.07.2019
4911 Clouds 0 1001 97 5000 0.93 145.692 16:44 20.07.2019
4912 Clouds 0 1001 97 5000 0.93 145.692 16:25 20.07.2019
4913 Clouds 0 1002 97 4500 1 0 15:57 20.07.2019
4914 Clouds 0 1002 97 4500 1 0 15:38 20.07.2019
4915 Clouds 0 1002 97 4500 1 0 15:19 20.07.2019
4916 Clouds 0 1002 97 7000 0.64 95.423 14:43 20.07.2019
4917 Clouds 0 1002 97 7000 0.64 95.423 14:21 20.07.2019
4918 Clouds 0 1003 97 5000 0.64 95.423 13:38 20.07.2019
4919 Clouds 0 1003 97 5000 0.46 31.157 13:20 20.07.2019
4920 Clouds 0 1003 97 4000 1 60 12:52 20.07.2019
4921 Clouds 0 1003 97 4000 1 60 12:21 20.07.2019
4922 Drizzle 0 1004 97 3900 1.24 33.409 11:55 20.07.2019
4923 Drizzle 0 1004 97 3900 1.24 33.409 11:23 20.07.2019
4924 Clear 0 1005 97 7000 0.5 0 10:55 20.07.2019
4925 Clear 0 1005 97 7000 0.5 0 10:26 20.07.2019
4926 Drizzle 0 1006 97 5000 1.24 33.409 09:55 20.07.2019
4927 Drizzle 0 1006 97 5000 1.24 33.409 09:37 20.07.2019
4928 Drizzle 0 1006 89 5000 1.85 325.717 09:18 20.07.2019
4929 Clear 0 1006 88 2900 1 0 08:38 20.07.2019
4930 Clear 0 1006 88 2900 1 0 08:19 20.07.2019
4931 Snow 0 1007 88 4500 2.42 318.197 07:18 20.07.2019
4932 Clear 1 1008 88 3600 2.42 318.197 06:31 20.07.2019
4933 Drizzle 1 1008 89 5000 1.5 280 04:31 20.07.2019
4934 Clear 2 1008 93 10000 1 0 02:38 20.07.2019
4935 Rain 2 1008 93 7000 3.34 327.691 01:21 20.07.2019
4936 Rain 2 1008 93 10000 1 0 00:45 20.07.2019
4937 Rain 2 1008 93 10000 1 0 00:18 20.07.2019
4938 Clouds 3 1008 85 2600 3.1 260 23:43 19.07.2019
4939 Clouds 3 1008 85 2600 3.1 260 23:22 19.07.2019
4940 Rain 4 1007 80 9000 3.1 0 22:44 19.07.2019
4941 Rain 4 1007 80 9000 3.1 0 22:25 19.07.2019
4942 Rain 5 1006 85 6000 3.6 0 21:47 19.07.2019
4943 Rain 5 1006 84 6000 3.6 0 21:29 19.07.2019
4944 Rain 4 1006 80 7000 3.1 280 20:50 19.07.2019
4945 Rain 4 1006 80 7000 3.1 280 20:31 19.07.2019
4946 Rain 5 1006 60 9000 6.2 280 19:55 19.07.2019
4947 Rain 5 1006 60 9000 6.2 280 19:34 19.07.2019
4948 Rain 4 1005 97 9000 5.1 260 18:43 19.07.2019
4949 Rain 4 1005 97 9000 5.1 260 18:22 19.07.2019
4950 Rain 4 1004 97 7000 4.6 260 17:55 19.07.2019
4951 Snow 3 1004 97 7000 4.6 260 17:29 19.07.2019
4952 Snow 3 1002 80 500 5.1 290 16:49 19.07.2019
4953 Snow 3 1002 80 500 5.1 290 16:29 19.07.2019
4954 Rain 3 1001 97 10000 3.6 320 15:55 19.07.2019
4955 Rain 4 1002 80 5000 3.6 250 15:36 19.07.2019
4956 Rain 4 1002 80 5000 3.6 250 15:18 19.07.2019
4957 Clouds 5 1001 75 7000 3.1 260 14:43 19.07.2019
4958 Clouds 5 1001 75 7000 3.1 260 14:23 19.07.2019
4959 Rain 4 1001 86 10000 2.1 250 13:46 19.07.2019
4960 Rain 4 1001 86 10000 2.1 250 13:26 19.07.2019
4961 Rain 4 1001 93 8000 4.6 320 12:56 19.07.2019
4962 Rain 4 1001 93 8000 4.6 320 12:36 19.07.2019
4963 Rain 4 1001 93 8000 4.6 320 12:18 19.07.2019
4964 Clouds 2 999 93 7000 4.6 110 11:43 19.07.2019
4965 Clouds 2 999 93 7000 4.6 110 11:18 19.07.2019
4966 Rain 3 1000 93 7000 3.6 120 10:47 19.07.2019
4967 Rain 3 1000 93 7000 3.6 120 10:22 19.07.2019
4968 Rain 4 1001 93 10000 1 0 09:58 19.07.2019
4969 Rain 4 1001 93 10000 1 0 09:40 19.07.2019
4970 Rain 4 1001 93 10000 1 0 09:21 19.07.2019
4971 Rain 5 1002 86 8000 2.1 0 08:48 19.07.2019
4972 Rain 5 1004 86 10000 1.5 0 07:55 19.07.2019
4973 Rain 5 1004 86 10000 1.5 0 07:29 19.07.2019
4974 Rain 5 1006 93 9000 3.6 90 05:57 19.07.2019
4975 Rain 5 1010 86 10000 2.1 0 02:23 19.07.2019
4976 Rain 5 1011 86 10000 1.5 110 01:20 19.07.2019
4977 Rain 5 1012 80 7000 2.1 0 00:42 19.07.2019
4978 Clouds 7 1013 70 10000 1.5 0 23:57 18.07.2019
4979 Clouds 7 1013 70 10000 1.5 0 23:39 18.07.2019
4980 Clouds 7 1013 70 10000 1.5 0 23:19 18.07.2019
4981 Clouds 7 1013 70 10000 1.5 0 23:19 18.07.2019
4982 Rain 6 1014 81 5000 2.6 270 22:40 18.07.2019
4983 Rain 6 1014 81 5000 2.6 270 22:19 18.07.2019
4984 Rain 6 1015 81 6000 4.1 250 21:44 18.07.2019
4985 Rain 6 1015 81 6000 4.1 250 21:26 18.07.2019
4986 Clouds 7 1015 70 10000 3.6 220 20:51 18.07.2019
4987 Clouds 7 1015 70 10000 3.6 220 20:29 18.07.2019
4988 Rain 9 1015 57 10000 4.6 260 19:54 18.07.2019
4989 Rain 9 1015 57 10000 4.6 260 19:32 18.07.2019
4990 Rain 3 1016 91 0 3.43 330.76 18:58 18.07.2019
4991 Rain 3 1016 91 0 3.43 330.76 18:40 18.07.2019
4992 Rain 8 1017 92 10000 4.1 240 18:20 18.07.2019
4993 Rain 8 1017 92 10000 4.1 240 17:42 18.07.2019
4994 Rain 8 1017 92 10000 4.1 240 17:24 18.07.2019
4995 Clouds 7 1018 56 10000 4.1 250 16:55 18.07.2019
4996 Clouds 7 1018 56 10000 4.1 250 16:29 18.07.2019
4997 Clouds 7 1018 56 10000 4.6 250 15:58 18.07.2019
4998 Clouds 7 1018 56 10000 4.6 250 15:39 18.07.2019
4999 Clouds 7 1018 56 10000 4.6 250 15:21 18.07.2019
5000 Clear 4 1018 80 10000 3.1 0 14:43 18.07.2019
5001 Clear 4 1018 80 10000 3.1 0 14:25 18.07.2019
5002 Clear 4 1018 80 10000 2.1 300 13:46 18.07.2019
5003 Clear 4 1018 80 10000 2.1 300 13:22 18.07.2019
5004 Rain 4 1017 80 10000 3.1 260 12:49 18.07.2019
5005 Rain 4 1017 80 10000 3.1 260 12:21 18.07.2019
5006 Clear 3 1017 86 10000 4.1 250 11:56 18.07.2019
5007 Clear 3 1017 86 10000 4.1 250 11:38 18.07.2019
5008 Clear 3 1017 86 10000 4.1 250 11:19 18.07.2019
5009 Snow 2 1016 93 6000 0.5 0 10:41 18.07.2019
5010 Clear 1 1016 90 7000 2.37 308.936 09:49 18.07.2019
5011 Clear 1 1016 91 7000 3.35 298.15 09:26 18.07.2019
5012 Clear 1 1015 90 8000 2.6 270 08:50 18.07.2019
5013 Clear 1 1015 90 8000 2.6 270 08:21 18.07.2019
5014 Clear 0 1016 90 2400 1 0 07:48 18.07.2019
5015 Clear 0 1016 90 2400 1 0 07:27 18.07.2019
5016 Rain 2 1015 93 9000 1 0 06:40 18.07.2019
5017 Rain 3 1014 93 10000 1.5 90 05:36 18.07.2019
5018 Clear 3 1012 86 10000 2.6 300 03:24 18.07.2019
5019 Rain 5 1010 87 10000 4.6 260 01:52 18.07.2019
5020 Rain 5 1010 87 10000 4.6 260 01:20 18.07.2019
5021 Rain 5 1007 80 7000 4.1 280 23:55 17.07.2019
5022 Rain 5 1007 80 7000 4.1 280 23:20 17.07.2019
5023 Rain 1 1008 89 0 4.2 301.312 22:58 17.07.2019
5024 Rain 1 1008 89 0 4.2 301.312 22:39 17.07.2019
5025 Clouds 6 1003 81 6000 3.1 240 22:20 17.07.2019
5026 Clouds 6 1003 81 6000 3.1 240 21:45 17.07.2019
5027 Clouds 6 1003 81 6000 3.1 240 21:26 17.07.2019
5028 Rain 4 1003 93 4000 1 0 20:58 17.07.2019
5029 Rain 4 1003 93 4000 1 0 20:39 17.07.2019
5030 Rain 4 1003 93 4000 1 0 20:20 17.07.2019
5031 Mist 3 1002 93 6000 1.5 0 19:44 17.07.2019
5032 Mist 3 1002 93 6000 1.5 0 19:22 17.07.2019
5033 Mist 2 1002 93 3000 5.11 311.015 18:59 17.07.2019
5034 Mist 2 1002 93 3000 5.11 311.015 18:40 17.07.2019
5035 Mist 2 1002 93 3000 5.11 311.015 18:40 17.07.2019
5036 Mist 2 1002 93 3000 3.18 332.032 18:20 17.07.2019
5037 Fog 1 1001 100 6000 1 0 17:49 17.07.2019
5038 Fog 1 1001 100 6000 1 0 17:25 17.07.2019
5039 Mist 1 1001 100 4000 0.5 0 16:45 17.07.2019
5040 Mist 1 1001 100 4000 0.5 0 16:23 17.07.2019
5041 Snow 1 1001 100 2000 0.5 0 15:52 17.07.2019
5042 Snow 1 1001 100 2000 0.5 0 15:32 17.07.2019
5043 Snow 1 1001 100 2000 0.5 0 15:32 17.07.2019
5044 Rain 2 1000 93 10000 1 0 14:59 17.07.2019
5045 Rain 2 1000 93 10000 1 0 14:41 17.07.2019
5046 Rain 2 1000 93 10000 1 0 14:21 17.07.2019
5047 Rain 4 1000 93 10000 1.5 250 13:59 17.07.2019
5048 Rain 4 1000 93 10000 1.5 250 13:40 17.07.2019
5049 Rain 4 1000 93 10000 1.5 250 13:19 17.07.2019
5050 Rain 4 1001 100 10000 1.76 290.1 12:39 17.07.2019
5051 Rain 4 1001 100 10000 2.15 16.469 12:20 17.07.2019
5052 Rain 5 1003 100 10000 0.5 0 11:44 17.07.2019
5053 Rain 5 1003 100 10000 0.5 0 11:20 17.07.2019
5054 Rain 6 1004 93 10000 0.5 0 10:50 17.07.2019
5055 Rain 6 1004 93 10000 0.5 0 10:25 17.07.2019
5056 Rain 6 1005 93 10000 2.1 60 09:46 17.07.2019
5057 Rain 6 1005 93 10000 2.1 60 09:28 17.07.2019
5058 Clear 6 1007 93 10000 1.5 0 08:58 17.07.2019
5059 Clear 6 1007 93 10000 1.5 0 08:39 17.07.2019
5060 Clear 6 1007 93 10000 1.5 0 08:21 17.07.2019
5061 Clear 6 1007 93 10000 1.5 0 08:21 17.07.2019
5062 Rain 6 1008 93 6000 1 0 07:41 17.07.2019
5063 Rain 6 1008 93 6000 1 0 07:22 17.07.2019
5064 Rain 6 1008 93 6000 1 0 07:22 17.07.2019
5065 Mist 5 1009 100 4300 0.5 0 06:46 17.07.2019
5066 Mist 5 1009 100 4300 0.5 0 06:46 17.07.2019
5067 Mist 5 1009 100 4300 0.5 0 06:28 17.07.2019
5068 Rain 6 1009 93 3500 0.5 0 05:42 17.07.2019
5069 Rain 6 1009 93 3500 0.5 0 05:20 17.07.2019
5070 Mist 6 1009 93 4500 0.5 0 04:22 17.07.2019
5071 Rain 6 1009 93 7000 2.27 312.684 02:45 17.07.2019
5072 Rain 6 1009 93 10000 0.5 0 01:43 17.07.2019
5073 Rain 6 1009 93 10000 0.5 0 01:23 17.07.2019
5074 Rain 6 1009 93 10000 1.62 329.611 00:43 17.07.2019
5075 Rain 6 1009 93 10000 1.65 327.689 00:23 17.07.2019
5076 Rain 7 1009 93 10000 1 0 23:47 16.07.2019
5077 Rain 7 1009 93 10000 1 0 23:25 16.07.2019
5078 Rain 7 1008 93 7000 1 0 22:57 16.07.2019
5079 Rain 7 1008 93 7000 1 0 22:39 16.07.2019
5080 Rain 7 1008 93 7000 1 0 22:18 16.07.2019
5081 Rain 8 1008 87 7000 1 0 21:41 16.07.2019
5082 Rain 8 1008 87 7000 1 0 21:20 16.07.2019
5083 Rain 8 1008 87 10000 1 0 20:41 16.07.2019
5084 Rain 8 1008 87 10000 1 0 20:41 16.07.2019
5085 Rain 8 1008 87 10000 1 0 20:41 16.07.2019
5086 Rain 8 1008 87 10000 1 0 20:23 16.07.2019
5087 Rain 8 1009 87 10000 1.5 280 19:55 16.07.2019
5088 Rain 8 1009 87 10000 1.5 280 19:33 16.07.2019
5089 Rain 7 1009 93 10000 0.5 0 18:59 16.07.2019
5090 Rain 7 1009 93 10000 0.5 0 18:41 16.07.2019
5091 Rain 7 1009 93 10000 0.5 0 18:21 16.07.2019
5092 Rain 6 1010 100 10000 1 0 17:49 16.07.2019
5093 Rain 6 1010 100 10000 1 0 17:28 16.07.2019
5094 Fog 2 1009 93 9000 1.5 250 16:51 16.07.2019
5095 Fog 2 1009 93 9000 1.5 250 16:27 16.07.2019
5096 Fog 3 1032 92 1600 0.5 0 15:57 16.07.2019
5097 Fog 2 1032 92 1600 0.5 0 15:39 16.07.2019
5098 Fog 2 1032 92 1600 0.5 0 15:19 16.07.2019
5099 Rain 6 1008 93 10000 0.5 0 14:55 16.07.2019
5100 Rain 6 1008 93 10000 0.5 0 14:36 16.07.2019
5101 Rain 6 1008 93 10000 0.5 0 14:18 16.07.2019
5102 Rain 5 1008 93 10000 0.5 0 13:38 16.07.2019
5103 Rain 5 1008 93 10000 0.5 0 13:18 16.07.2019
5104 Clear 5 1008 93 10000 1 0 12:43 16.07.2019
5105 Clear 5 1008 93 10000 1 0 12:20 16.07.2019
5106 Clear 5 1009 93 10000 1 0 11:54 16.07.2019
5107 Clear 5 1009 93 10000 1 0 11:36 16.07.2019
5108 Clear 5 1009 93 10000 1 0 11:36 16.07.2019
5109 Clear 5 1009 93 10000 1 0 11:18 16.07.2019
5110 Clear 5 1010 93 10000 0.5 0 10:43 16.07.2019
5111 Clear 5 1010 93 10000 0.5 0 10:20 16.07.2019
5112 Drizzle 4 1010 100 7000 0.5 0 09:43 16.07.2019
5113 Drizzle 4 1010 100 7000 0.5 0 09:21 16.07.2019
5114 Mist 5 1011 93 5000 1 0 08:48 16.07.2019
5115 Mist 5 1011 93 5000 1 0 08:27 16.07.2019
5116 Mist 5 1011 93 5000 1 0 08:27 16.07.2019
5117 Mist 6 1012 93 7000 1 0 07:54 16.07.2019
5118 Mist 6 1012 93 7000 1 0 07:35 16.07.2019
5119 Mist 6 1012 87 7000 1 0 06:58 16.07.2019
5120 Mist 6 1012 87 7000 1 0 06:37 16.07.2019
5121 Rain 7 1013 87 10000 0.5 0 05:52 16.07.2019
5122 Rain 7 1013 87 10000 0.5 0 05:27 16.07.2019
5123 Rain 7 1014 87 10000 1.5 300 04:34 16.07.2019
5124 Rain 8 1014 81 10000 1 0 03:42 16.07.2019
5125 Rain 9 1014 76 10000 3.1 0 02:44 16.07.2019
5126 Rain 9 1014 76 10000 3.1 0 02:22 16.07.2019
5127 Clear 11 1014 57 10000 3.6 250 01:24 16.07.2019
5128 Clear 7 1014 81 10000 1 0 00:23 16.07.2019
5129 Clouds 8 1015 75 10000 2.1 310 23:58 15.07.2019
5130 Clouds 8 1015 75 10000 2.1 310 23:38 15.07.2019
5131 Clouds 8 1015 75 10000 2.1 310 23:18 15.07.2019
5132 Rain 8 1015 75 8000 1.5 310 22:43 15.07.2019
5133 Rain 8 1015 75 8000 1.5 310 22:20 15.07.2019
5134 Rain 8 1015 75 8000 1.5 310 22:20 15.07.2019
5135 Rain 9 1016 66 0 2.1 250 21:57 15.07.2019
5136 Rain 9 1016 66 0 2.1 250 21:38 15.07.2019
5137 Rain 9 1016 66 0 2.1 250 21:19 15.07.2019
5138 Rain 9 1017 66 10000 3.6 260 20:42 15.07.2019
5139 Rain 9 1017 66 10000 3.6 260 20:22 15.07.2019
5140 Rain 8 1018 65 10000 1.5 0 19:56 15.07.2019
5141 Rain 8 1018 65 10000 1.5 0 19:38 15.07.2019
5142 Rain 8 1018 65 10000 1.5 0 19:18 15.07.2019
5143 Rain 8 1018 65 10000 1.5 0 19:18 15.07.2019
5144 Rain 7 1019 75 10000 1.5 80 18:42 15.07.2019
5145 Rain 7 1019 75 10000 1.5 80 18:19 15.07.2019
5146 Rain 7 1020 65 10000 1 30 17:55 15.07.2019
5147 Rain 7 1020 65 10000 1 30 17:37 15.07.2019
5148 Rain 7 1020 65 10000 1 30 17:19 15.07.2019
5149 Rain 7 1020 85 10000 2.6 250 16:39 15.07.2019
5150 Rain 7 1020 85 10000 2.6 250 16:21 15.07.2019
5151 Rain 3 1021 86 10000 0.5 0 15:57 15.07.2019
5152 Rain 3 1021 86 10000 0.5 0 15:37 15.07.2019
5153 Rain 3 1021 86 10000 0.5 0 15:19 15.07.2019
5154 Clear 2 1021 93 10000 1 0 14:45 15.07.2019
5155 Clear 2 1021 93 10000 1 0 14:25 15.07.2019
5156 Mist 3 1021 86 10000 0.5 0 13:55 15.07.2019
5157 Mist 3 1021 86 10000 0.5 0 13:36 15.07.2019
5158 Mist 3 1021 86 10000 0.5 0 13:18 15.07.2019
5159 Clear 3 1021 86 10000 1.5 0 12:41 15.07.2019
5160 Clear 3 1021 86 10000 1.5 0 12:21 15.07.2019
5161 Clear 3 1021 86 10000 2.1 280 11:43 15.07.2019
5162 Clear 3 1021 86 10000 2.1 280 11:25 15.07.2019
5163 Clouds 3 1022 86 10000 1.5 300 10:47 15.07.2019
5164 Clouds 3 1022 86 10000 1.5 300 10:28 15.07.2019
5165 Clear 4 1022 80 10000 1 0 09:48 15.07.2019
5166 Clear 4 1022 80 10000 1 0 09:28 15.07.2019
5167 Clear 6 1022 60 10000 3.6 250 08:59 15.07.2019
5168 Clear 6 1022 60 10000 3.6 250 08:41 15.07.2019
5169 Clear 6 1022 60 10000 3.6 250 08:23 15.07.2019
5170 Clear 6 1022 91 10000 4.1 260 07:38 15.07.2019
5171 Clear 6 1021 75 10000 4.1 250 06:59 15.07.2019
5172 Clear 6 1021 75 10000 4.1 250 06:38 15.07.2019
5173 Rain 6 1021 87 10000 2.1 260 05:44 15.07.2019
5174 Rain 6 1021 87 10000 2.1 260 05:22 15.07.2019
5175 Rain 5 1021 93 10000 3.1 290 04:41 15.07.2019
5176 Rain 5 1020 93 10000 1.5 250 03:35 15.07.2019
5177 Rain 5 1019 93 10000 1.5 230 02:32 15.07.2019
5178 Rain 5 1018 93 10000 1.5 250 01:41 15.07.2019
5179 Rain 5 1018 93 10000 1.5 250 01:21 15.07.2019
5180 Rain 4 1017 93 7000 1 0 00:46 15.07.2019
5181 Rain 4 1017 93 7000 1 0 00:19 15.07.2019
5182 Rain 5 1016 86 10000 0.5 0 23:42 14.07.2019
5183 Rain 5 1016 86 10000 0.5 0 23:21 14.07.2019
5184 Rain 5 1015 93 10000 3.1 290 22:59 14.07.2019
5185 Rain 5 1015 93 10000 3.1 290 22:39 14.07.2019
5186 Rain 5 1015 93 10000 3.1 290 22:21 14.07.2019
5187 Rain 5 1013 86 10000 3.1 280 21:54 14.07.2019
5188 Rain 5 1013 86 10000 3.1 280 21:36 14.07.2019
5189 Rain 5 1013 86 10000 3.1 280 21:18 14.07.2019
5190 Rain 5 1012 86 10000 2.1 280 20:39 14.07.2019
5191 Rain 5 1012 86 10000 2.1 280 20:21 14.07.2019
5192 Rain 5 1012 86 10000 2.1 280 20:21 14.07.2019
5193 Rain 5 1012 86 10000 1.5 310 19:57 14.07.2019
5194 Rain 5 1012 86 10000 1.5 310 19:38 14.07.2019
5195 Rain 5 1012 86 10000 1.5 310 19:19 14.07.2019
5196 Rain 5 1012 86 10000 1.5 260 18:41 14.07.2019
5197 Rain 5 1012 86 10000 1.5 260 18:22 14.07.2019
5198 Rain 4 1011 93 10000 1 0 17:58 14.07.2019
5199 Rain 4 1011 93 10000 1 0 17:23 14.07.2019
5200 Rain 4 1010 86 10000 1 0 16:55 14.07.2019
5201 Rain 4 1010 86 10000 1 0 16:26 14.07.2019
5202 Rain 4 1009 86 10000 2.1 0 15:58 14.07.2019
5203 Rain 4 1009 86 10000 2.1 0 15:40 14.07.2019
5204 Rain 4 1009 86 10000 2.1 0 15:22 14.07.2019
5205 Clear 4 1009 80 10000 2.6 0 14:45 14.07.2019
5206 Clear 4 1009 80 10000 2.6 0 14:20 14.07.2019
5207 Clear 4 1008 80 10000 3.6 250 13:46 14.07.2019
5208 Clear 4 1008 80 10000 3.6 250 13:24 14.07.2019
5209 Rain 4 1008 100 10000 2.1 0 12:57 14.07.2019
5210 Rain 4 1008 100 10000 2.1 0 12:38 14.07.2019
5211 Rain 4 1008 100 10000 2.1 0 12:18 14.07.2019
5212 Rain 3 1007 100 4300 0.5 0 11:45 14.07.2019
5213 Rain 3 1007 100 4300 0.5 0 11:20 14.07.2019
5214 Rain 3 1007 100 3200 1.47 324.88 10:43 14.07.2019
5215 Rain 3 1007 100 3200 1.47 324.88 10:20 14.07.2019
5216 Rain 3 1008 100 3500 0.5 0 09:45 14.07.2019
5217 Rain 3 1008 100 3500 0.5 0 09:27 14.07.2019
5218 Rain 3 1008 100 4500 0.5 0 08:46 14.07.2019
5219 Rain 3 1008 100 4500 0.5 0 08:24 14.07.2019
5220 Clouds 3 1009 100 8000 2.07 352.066 07:41 14.07.2019
5221 Clouds 3 1009 100 8000 2.07 352.066 07:19 14.07.2019
5222 Rain 3 1010 100 3700 1 0 05:45 14.07.2019
5223 Rain 4 1012 86 10000 2.1 310 03:51 14.07.2019
5224 Rain 4 1012 86 10000 2.1 310 03:33 14.07.2019
5225 Rain 4 1012 93 10000 1 0 02:52 14.07.2019
5226 Rain 4 1012 93 10000 1 0 02:22 14.07.2019
5227 Rain 4 1012 93 6000 1 0 01:34 14.07.2019
5228 Rain 5 1012 86 8000 0.5 0 00:59 14.07.2019
5229 Rain 5 1012 86 8000 0.5 0 00:40 14.07.2019
5230 Rain 5 1012 86 8000 0.5 0 00:20 14.07.2019
5231 Rain 5 1012 93 5000 1 0 23:45 13.07.2019
5232 Rain 5 1012 93 5000 1 0 23:26 13.07.2019
5233 Rain 6 1012 87 10000 0.5 0 22:59 13.07.2019
5234 Rain 6 1012 87 10000 0.5 0 22:39 13.07.2019
5235 Rain 6 1012 87 10000 0.5 0 22:20 13.07.2019
5236 Rain 5 1012 93 10000 1 0 21:43 13.07.2019
5237 Rain 5 1012 93 10000 1 0 21:19 13.07.2019
5238 Rain 5 1012 86 10000 1 0 20:46 13.07.2019
5239 Rain 5 1012 86 10000 1 0 20:27 13.07.2019
5240 Rain 5 1012 86 10000 2.94 326.483 19:47 13.07.2019
5241 Rain 5 1012 86 10000 2.94 326.483 19:29 13.07.2019
5242 Rain 4 1012 100 4700 1 0 18:45 13.07.2019
5243 Rain 4 1012 100 4700 1 0 18:22 13.07.2019
5244 Rain 4 1012 100 10000 0.5 0 17:40 13.07.2019
5245 Rain 4 1012 100 10000 0.5 0 17:20 13.07.2019
5246 Rain 4 1012 93 10000 1 0 16:57 13.07.2019
5247 Rain 4 1012 93 10000 1 0 16:37 13.07.2019
5248 Rain 4 1012 93 10000 1 0 16:37 13.07.2019
5249 Rain 4 1012 93 10000 1 0 16:19 13.07.2019
5250 Rain 4 1011 100 10000 1 0 15:43 13.07.2019
5251 Rain 4 1011 100 10000 1 0 15:21 13.07.2019
5252 Rain 4 1011 100 10000 2.78 339.712 14:44 13.07.2019
5253 Rain 4 1011 100 10000 2.78 339.712 14:22 13.07.2019
5254 Rain 4 1010 100 10000 0.5 0 13:46 13.07.2019
5255 Rain 4 1010 100 10000 0.5 0 13:24 13.07.2019
5256 Rain 4 1010 100 8000 1 0 12:59 13.07.2019
5257 Rain 4 1010 100 8000 1 0 12:36 13.07.2019
5258 Rain 4 1010 100 8000 1 0 12:18 13.07.2019
5259 Fog 4 1009 100 800 0.5 0 11:39 13.07.2019
5260 Fog 4 1009 100 800 0.5 0 11:19 13.07.2019
5261 Drizzle 4 1009 100 2500 1 0 10:42 13.07.2019
5262 Drizzle 4 1009 100 2500 1 0 10:23 13.07.2019
5263 Rain 5 1010 93 1000 1.67 329.348 09:52 13.07.2019
5264 Rain 5 1010 93 1000 1.67 329.348 09:30 13.07.2019
5265 Rain 4 1009 100 1900 1 0 08:57 13.07.2019
5266 Rain 4 1009 100 1900 1 0 08:28 13.07.2019
5267 Rain 4 1009 100 900 1.41 356.543 07:55 13.07.2019
5268 Rain 4 1009 100 900 1.41 356.543 07:29 13.07.2019
5269 Rain 5 1010 93 3600 1 0 06:32 13.07.2019
5270 Drizzle 5 1010 93 4000 1.82 330.68 05:49 13.07.2019
5271 Rain 5 1010 93 3100 0.5 0 04:41 13.07.2019
5272 Rain 5 1010 93 3100 0.5 0 04:21 13.07.2019
5273 Rain 5 1011 93 5000 0.5 0 03:42 13.07.2019
5274 Rain 5 1011 93 5000 0.5 0 03:18 13.07.2019
5275 Clouds 6 1012 87 9000 1.78 357.847 01:53 13.07.2019
5276 Clouds 6 1012 87 9000 1.78 357.847 01:53 13.07.2019
5277 Clouds 6 1012 87 9000 1.6 355.114 01:21 13.07.2019
5278 Clear 6 1012 87 6000 1.6 355.114 00:59 13.07.2019
5279 Clear 6 1012 87 6000 1.32 347.129 00:21 13.07.2019
5280 Clear 8 1012 75 10000 0.5 0 23:53 12.07.2019
5281 Clear 8 1012 75 10000 0.5 0 23:33 12.07.2019
5282 Clouds 8 1012 75 10000 1.5 270 22:58 12.07.2019
5283 Clouds 8 1012 75 10000 1.5 270 22:40 12.07.2019
5284 Clouds 8 1012 75 10000 1.5 270 22:40 12.07.2019
5285 Clouds 8 1012 75 10000 1.5 270 22:21 12.07.2019
5286 Clouds 9 1013 66 10000 0.5 0 21:42 12.07.2019
5287 Clouds 9 1013 66 10000 0.5 0 21:19 12.07.2019
5288 Clouds 7 1014 75 10000 1.5 70 20:46 12.07.2019
5289 Clouds 7 1014 75 10000 1.5 70 20:23 12.07.2019
5290 Clouds 6 1015 81 10000 1 0 19:44 12.07.2019
5291 Clouds 6 1015 81 10000 1 0 19:25 12.07.2019
5292 -273 0 0 0 0 0 18:56 12.07.2019
5293 Clouds 5 1016 80 10000 3.6 90 18:36 12.07.2019
5294 Clouds 5 1016 80 10000 3.6 90 18:18 12.07.2019
5295 Clouds 4 1016 86 10000 2.1 110 17:42 12.07.2019
5296 Clouds 4 1016 86 10000 2.1 110 17:23 12.07.2019
5297 Clouds 3 1016 86 10000 1 0 16:37 12.07.2019
5298 Clouds 3 1016 86 10000 1 0 16:37 12.07.2019
5299 Clouds 3 1016 86 10000 1 0 16:18 12.07.2019
5300 Haze 2 1016 93 10000 2.1 60 15:39 12.07.2019
5301 Haze 2 1016 93 10000 2.1 60 15:20 12.07.2019
5302 Clouds 2 1016 100 10000 1.5 60 14:45 12.07.2019
5303 Clouds 2 1016 100 10000 1.5 60 14:21 12.07.2019
5304 Clouds 2 1016 93 10000 1.5 60 13:53 12.07.2019
5305 Clouds 2 1016 93 10000 1.5 60 13:32 12.07.2019
5306 Clouds 1 1016 100 6000 0.5 0 12:44 12.07.2019
5307 Clouds 1 1016 100 6000 0.5 0 12:24 12.07.2019
5308 Fog 2 1016 100 900 1.5 50 11:58 12.07.2019
5309 Fog 2 1016 100 900 1.5 50 11:39 12.07.2019
5310 Fog 2 1016 100 900 1.5 50 11:19 12.07.2019
5311 Mist 2 1016 100 5000 0.5 0 10:41 12.07.2019
5312 Mist 2 1016 100 5000 0.5 0 10:23 12.07.2019
5313 Clouds 2 1016 100 10000 1.8 314.483 09:53 12.07.2019
5314 Clouds 2 1016 100 10000 1.8 314.483 09:29 12.07.2019
5315 Mist 3 1016 93 5000 0.5 0 08:51 12.07.2019
5316 Mist 3 1016 93 5000 0.5 0 08:25 12.07.2019
5317 Clouds 3 1016 100 8000 0.5 0 07:52 12.07.2019
5318 Clouds 3 1016 100 8000 0.5 0 07:31 12.07.2019
5319 Fog 3 1017 93 1500 1 0 06:32 12.07.2019
5320 Fog 2 1017 93 500 0.5 0 05:52 12.07.2019
5321 Fog 3 1016 93 1700 1.22 332.196 04:53 12.07.2019
5322 Fog 3 1016 93 1700 1.22 332.196 04:53 12.07.2019
5323 Mist 3 1016 100 2300 2.05 320.773 02:36 12.07.2019
5324 Mist 3 1016 100 3500 2.05 320.773 01:37 12.07.2019
5325 Mist 4 1015 93 4600 2.06 326.248 00:37 12.07.2019
5326 Mist 4 1015 93 4600 0.58 353.059 00:18 12.07.2019
5327 Mist 6 1015 87 10000 0.58 353.059 23:42 11.07.2019
5328 Mist 6 1015 87 10000 0.58 353.059 23:21 11.07.2019
5329 Haze 6 1014 81 10000 0.5 0 22:45 11.07.2019
5330 Haze 6 1014 81 10000 0.5 0 22:24 11.07.2019
5331 Haze 6 1014 81 10000 0.58 353.059 21:44 11.07.2019
5332 Haze 6 1014 81 10000 0.34 51.605 21:20 11.07.2019
5333 Haze 5 1015 86 10000 1 0 20:59 11.07.2019
5334 Haze 5 1015 86 10000 1 0 20:41 11.07.2019
5335 Haze 5 1015 86 10000 1 0 20:22 11.07.2019
5336 Haze 5 1015 86 10000 0.34 51.605 19:55 11.07.2019
5337 Haze 5 1015 86 10000 0.34 51.605 19:37 11.07.2019
5338 Haze 5 1015 86 10000 0.34 51.605 19:19 11.07.2019
5339 Mist 4 1015 93 10000 1 0 18:39 11.07.2019
5340 Mist 4 1015 93 10000 1 0 18:21 11.07.2019
5341 Mist 3 1015 93 10000 1.5 110 17:46 11.07.2019
5342 Mist 3 1015 93 10000 1.5 110 17:28 11.07.2019
5343 Clouds 2 1015 100 10000 1 0 16:52 11.07.2019
5344 Clouds 2 1015 100 10000 1 0 16:24 11.07.2019
5345 Rain 2 1015 100 9000 1.5 90 15:55 11.07.2019
5346 Rain 2 1015 100 9000 1.5 90 15:37 11.07.2019
5347 Rain 2 1015 100 9000 1.5 90 15:37 11.07.2019
5348 Rain 2 1015 100 9000 1.5 90 15:19 11.07.2019
5349 Clouds 3 1014 93 10000 1 0 14:43 11.07.2019
5350 Clouds 3 1014 93 10000 1 0 14:22 11.07.2019
5351 Clouds 2 1014 100 10000 1 0 13:47 11.07.2019
5352 Clouds 2 1014 100 10000 1 0 13:28 11.07.2019
5353 Drizzle 2 1014 100 8000 1.72 334.585 12:47 11.07.2019
5354 Drizzle 2 1014 100 8000 1.72 334.585 12:28 11.07.2019
5355 Clouds 3 1014 100 8000 1.88 325.166 11:59 11.07.2019
5356 Clouds 3 1014 100 8000 1.88 325.166 11:41 11.07.2019
5357 Clouds 3 1014 100 8000 1.88 325.166 11:22 11.07.2019
5358 Drizzle 3 1014 100 4600 1.88 325.166 10:46 11.07.2019
5359 Drizzle 3 1014 100 4600 1.88 325.166 10:19 11.07.2019
5360 Fog 3 1014 93 1800 1.88 325.166 09:47 11.07.2019
5361 Fog 3 1014 93 1800 1.88 325.166 09:28 11.07.2019
5362 Fog 2 1014 100 1000 1.68 327.304 08:52 11.07.2019
5363 -273 0 0 0 0 0 08:26 11.07.2019
5364 Fog 2 1015 100 500 1 0 07:52 11.07.2019
5365 Fog 2 1015 100 500 1 0 07:34 11.07.2019
5366 Fog 3 1015 100 2300 1 0 06:41 11.07.2019
5367 Fog 2 1015 93 700 1 0 05:51 11.07.2019
5368 Fog 2 1015 93 700 1 0 05:29 11.07.2019
5369 Mist 3 1015 100 4100 0.5 0 04:55 11.07.2019
5370 Mist 4 1014 100 5000 1.93 298.757 02:41 11.07.2019
5371 Rain 5 1014 93 10000 1 0 01:27 11.07.2019
5372 Clear 6 1014 87 10000 2.44 324.831 00:27 11.07.2019
5373 Rain 7 1013 93 6000 1 0 23:37 10.07.2019
5374 Rain 7 1013 93 6000 1 0 23:18 10.07.2019
5375 Rain 8 1013 81 10000 0.5 0 22:44 10.07.2019
5376 Rain 8 1013 81 10000 0.5 0 22:20 10.07.2019
5377 Clouds 9 1012 81 10000 3.18 0.92 21:45 10.07.2019
5378 Clouds 9 1012 81 10000 3.18 0.92 21:26 10.07.2019
5379 Clouds 8 1012 81 10000 0.5 0 20:56 10.07.2019
5380 Clouds 8 1012 81 10000 0.5 0 20:56 10.07.2019
5381 Clouds 8 1012 81 10000 0.5 0 20:38 10.07.2019
5382 Clouds 8 1012 81 10000 0.5 0 20:18 10.07.2019
5383 Clouds 7 1013 87 10000 0.5 0 19:45 10.07.2019
5384 Clouds 7 1013 87 10000 0.5 0 19:22 10.07.2019
5385 Mist 6 1013 93 10000 1 0 18:55 10.07.2019
5386 Mist 6 1013 93 10000 1 0 18:37 10.07.2019
5387 Mist 6 1013 93 10000 1 0 18:19 10.07.2019
5388 Mist 6 1014 93 10000 3.6 90 17:40 10.07.2019
5389 Mist 6 1014 93 10000 3.6 90 17:19 10.07.2019
5390 Mist 5 1014 100 10000 1 0 16:22 10.07.2019
5391 Mist 5 1014 100 10000 2.6 100 15:59 10.07.2019
5392 Mist 5 1014 100 10000 2.6 100 15:40 10.07.2019
5393 Mist 5 1014 100 10000 2.6 100 15:18 10.07.2019
5394 Rain 2 1015 91 0 1.59 40.19 14:39 10.07.2019
5395 Rain 2 1015 91 0 1.59 40.19 14:20 10.07.2019
5396 Rain 2 1015 91 0 1.59 40.19 13:43 10.07.2019
5397 Clouds 2 1015 91 0 0.47 8.164 13:19 10.07.2019
5398 Clouds 2 1015 91 0 0.47 8.164 12:43 10.07.2019
5399 Clouds 3 1014 91 0 0.8 354.403 12:22 10.07.2019
5400 Clouds 3 1014 91 0 0.8 354.403 11:56 10.07.2019
5401 Clouds 3 1014 91 0 0.8 354.403 11:38 10.07.2019
5402 Clouds 3 1014 91 0 0.8 354.403 11:20 10.07.2019
5403 Mist 5 1015 100 3800 1 100 10:36 10.07.2019
5404 Mist 5 1015 100 3800 1 100 10:18 10.07.2019
5405 Mist 5 1015 100 3800 1 100 09:41 10.07.2019
5406 Mist 5 1015 100 3800 1 100 09:20 10.07.2019
5407 Clouds 5 1015 100 10000 1 0 08:49 10.07.2019
5408 Clouds 5 1015 100 10000 1 0 08:27 10.07.2019
5409 Mist 5 1015 100 6000 0.5 0 07:53 10.07.2019
5410 Mist 5 1015 100 6000 0.5 0 07:24 10.07.2019
5411 Fog 4 1016 100 2200 1.6 300.029 06:41 10.07.2019
5412 Mist 5 1016 93 4100 1 0 05:42 10.07.2019
5413 Fog 5 1016 93 1200 1 0 04:33 10.07.2019
5414 Fog 6 1017 93 2500 2.03 330.745 02:38 10.07.2019
5415 Clouds 8 1016 87 6000 2.04 327.709 00:44 10.07.2019
5416 Clouds 9 1016 87 10000 1.44 345.277 23:44 09.07.2019
5417 Clouds 9 1016 87 10000 1.44 345.277 23:25 09.07.2019
5418 Clouds 10 1016 76 10000 1.44 345.277 22:59 09.07.2019
5419 Clouds 10 1016 76 10000 1.44 345.277 22:40 09.07.2019
5420 Clouds 10 1016 76 10000 1.44 345.277 22:20 09.07.2019
5421 Clouds 9 1016 81 10000 1.44 345.277 21:47 09.07.2019
5422 Clouds 9 1016 81 10000 1.52 3.729 21:26 09.07.2019
5423 Clouds 8 1016 87 10000 1 0 20:55 09.07.2019
5424 Clouds 8 1016 87 10000 1 0 20:36 09.07.2019
5425 Clouds 8 1016 87 10000 1 0 20:18 09.07.2019
5426 Mist 7 1017 87 10000 2.1 50 19:37 09.07.2019
5427 Mist 7 1017 87 10000 2.1 50 19:19 09.07.2019
5428 Mist 6 1018 93 10000 2.1 100 18:39 09.07.2019
5429 Mist 6 1018 93 10000 2.1 100 18:19 09.07.2019
5430 Mist 5 1018 93 10000 2.1 110 17:44 09.07.2019
5431 Mist 5 1018 93 10000 2.1 110 17:44 09.07.2019
5432 Mist 5 1018 93 10000 2.1 110 17:22 09.07.2019
5433 Mist 5 1018 93 10000 1.5 120 16:58 09.07.2019
5434 Mist 5 1018 93 10000 1.5 120 16:39 09.07.2019
5435 Mist 5 1018 93 10000 1.5 120 16:21 09.07.2019
5436 Rain 4 1017 93 10000 3.1 110 15:41 09.07.2019
5437 Rain 4 1017 93 10000 3.1 110 15:22 09.07.2019
5438 Rain 4 1017 100 10000 2.1 110 14:43 09.07.2019
5439 Rain 4 1017 100 10000 2.1 110 14:23 09.07.2019
5440 Rain 5 1017 93 10000 1.5 110 13:47 09.07.2019
5441 Rain 5 1017 93 10000 1.5 110 13:28 09.07.2019
5442 Rain 5 1016 93 9000 2.6 110 12:59 09.07.2019
5443 Rain 5 1016 93 9000 2.6 110 12:38 09.07.2019
5444 Rain 5 1016 93 9000 2.6 110 12:18 09.07.2019
5445 Rain 5 1016 93 8000 2.1 100 11:41 09.07.2019
5446 Rain 5 1016 93 8000 2.1 100 11:22 09.07.2019
5447 Rain 5 1016 100 7000 2.1 90 10:58 09.07.2019
5448 Rain 5 1016 100 7000 2.1 90 10:36 09.07.2019
5449 Rain 5 1016 100 9000 0.5 0 09:59 09.07.2019
5450 Rain 5 1016 100 9000 0.5 0 09:38 09.07.2019
5451 Rain 5 1016 100 9000 0.5 0 09:19 09.07.2019
5452 Rain 5 1016 100 10000 0.5 0 08:44 09.07.2019
5453 Clear 0 1029 88 10000 1.5 290 04:19 05.07.2019
5454 Mist 0 1029 88 3900 1.5 290 03:39 05.07.2019
5455 Mist 0 1029 86 3900 1.5 290 03:20 05.07.2019
5456 Clear 1 1028 86 7000 1 0 02:51 05.07.2019
5457 Clear 1 1028 86 6000 1.5 280 01:55 05.07.2019
5458 Clear 1 1028 88 6000 1.5 280 01:28 05.07.2019
5459 Mist 2 1027 88 5000 0.5 0 00:51 05.07.2019
5460 Mist 2 1027 88 5000 0.5 0 00:29 05.07.2019
5461 Clouds 3 1026 86 10000 0.58 325.267 23:38 04.07.2019
5462 Clouds 3 1026 86 10000 0.58 325.267 23:18 04.07.2019
5463 Haze 6 1026 70 10000 1.5 290 22:41 04.07.2019
5464 Haze 6 1026 70 10000 1.5 290 22:41 04.07.2019
5465 Haze 6 1026 70 10000 1.5 290 22:20 04.07.2019
5466 Clouds 6 1026 70 10000 1.5 290 21:44 04.07.2019
5467 Clouds 6 1026 70 10000 1.5 290 21:25 04.07.2019
5468 Clouds 6 1026 75 10000 1.5 320 20:58 04.07.2019
5469 Clouds 6 1026 75 10000 1.5 320 20:37 04.07.2019
5470 Clouds 6 1026 75 10000 1.5 320 20:18 04.07.2019
5471 Clouds 4 1026 86 10000 1.5 320 19:41 04.07.2019
5472 Clouds 4 1026 86 10000 1.5 320 19:21 04.07.2019
5473 Fog 2 1027 93 10000 1.5 320 18:46 04.07.2019
5474 Fog 2 1027 93 10000 1.5 320 18:28 04.07.2019
5475 Mist 0 1026 90 4000 0.65 331.907 17:58 04.07.2019
5476 Mist 0 1026 90 4000 0.65 331.907 17:40 04.07.2019
5477 Mist 0 1026 90 4000 0.65 331.907 17:18 04.07.2019
5478 Mist 0 1026 90 4000 0.65 331.907 17:18 04.07.2019
5479 Mist 0 1026 90 4000 0.65 331.907 17:18 04.07.2019
5480 Fog 0 1025 90 150 0.65 331.907 15:45 04.07.2019
5481 Fog 0 1025 94 150 1.38 319.277 15:24 04.07.2019
5482 Mist 0 1025 94 3000 1.38 319.277 14:59 04.07.2019
5483 Mist 0 1025 94 3000 1.38 319.277 14:38 04.07.2019
5484 Mist 0 1025 94 3000 1.38 319.277 14:19 04.07.2019
5485 Fog 0 1024 94 1000 0.5 0 13:56 04.07.2019
5486 Fog 0 1024 94 1000 0.5 0 13:38 04.07.2019
5487 Fog 0 1024 95 1000 0.5 0 13:19 04.07.2019
5488 Clouds 1 1023 100 10000 1.5 310 12:38 04.07.2019
5489 Clouds 1 1023 100 10000 1.5 310 12:19 04.07.2019
5490 Clouds 2 1023 93 9000 1.5 280 11:43 04.07.2019
5491 Clouds 2 1023 93 9000 1.5 280 11:20 04.07.2019
5492 Clouds 2 1022 93 8000 1.5 280 10:46 04.07.2019
5493 Clouds 2 1022 93 8000 1.5 280 10:27 04.07.2019
5494 Clouds 2 1022 93 10000 1 0 09:56 04.07.2019
5495 Clouds 2 1022 93 10000 1 0 09:38 04.07.2019
5496 Clouds 2 1022 93 10000 1 0 09:18 04.07.2019
5497 Clouds 3 1022 93 8000 0.5 0 08:42 04.07.2019
5498 Clouds 3 1022 93 8000 0.5 0 08:18 04.07.2019
5499 Mist 3 1021 93 5000 1 290 07:38 04.07.2019
5500 Mist 3 1021 93 5000 1 290 07:18 04.07.2019
5501 Mist 2 1021 100 4400 0.77 299.28 06:20 04.07.2019
5502 Clouds 2 1021 100 6000 1 270 05:41 04.07.2019
5503 Mist 4 1019 93 6000 0.77 299.28 03:48 04.07.2019
5504 Clouds 4 1019 93 10000 0.35 55.768 01:48 04.07.2019
5505 Clouds 4 1019 93 10000 0.52 71.809 01:26 04.07.2019
5506 Clouds 5 1018 86 10000 0.52 71.809 00:39 04.07.2019
5507 Clouds 5 1017 86 10000 0.5 0 23:52 03.07.2019
5508 Clouds 5 1017 86 10000 0.5 0 23:52 03.07.2019
5509 Clouds 5 1017 86 10000 0.5 0 23:20 03.07.2019
5510 Clouds 5 1016 93 10000 1 280 22:56 03.07.2019
5511 Clouds 5 1016 93 10000 1 280 22:37 03.07.2019
5512 Clouds 5 1016 93 10000 1 280 22:18 03.07.2019
5513 Clouds 5 1016 86 10000 0.59 140.431 21:47 03.07.2019
5514 Clouds 5 1016 86 10000 0.59 140.431 21:28 03.07.2019
5515 Clouds 0 1016 97 0 1.25 105.328 20:47 03.07.2019
5516 Clouds 4 1016 86 10000 1.25 105.328 20:28 03.07.2019
5517 Clouds 4 1016 86 10000 1.25 105.328 19:54 03.07.2019
5518 Clouds 4 1016 86 10000 1.25 105.328 19:35 03.07.2019
5519 Clouds 4 1016 86 10000 1.25 105.328 18:54 03.07.2019
5520 Clouds 4 1016 86 10000 1.25 105.328 18:36 03.07.2019
5521 Clouds 4 1016 86 10000 0.36 320.52 18:18 03.07.2019
5522 Rain 3 1016 93 9000 0.36 320.52 17:41 03.07.2019
5523 Rain 3 1016 93 9000 0.36 320.52 17:18 03.07.2019
5524 Rain 3 1016 93 9000 0.36 320.52 17:18 03.07.2019
5525 Rain 3 1015 93 4000 0.36 320.52 16:44 03.07.2019
5526 Rain 3 1015 93 4000 0.36 320.52 16:23 03.07.2019
5527 Rain 3 1015 93 4000 0.36 320.52 16:23 03.07.2019
5528 Fog 2 1014 100 4000 0.5 0 15:50 03.07.2019
5529 Fog 2 1014 100 4000 0.5 0 15:31 03.07.2019
5530 Rain 2 1014 100 4800 0.48 337.62 14:58 03.07.2019
5531 Rain 2 1014 100 4800 0.48 337.62 14:39 03.07.2019
5532 Rain 2 1014 100 4800 0.48 337.62 14:19 03.07.2019
5533 Rain 2 1013 100 9000 0.48 337.62 13:42 03.07.2019
5534 Rain 2 1013 100 9000 0.14 318.196 13:23 03.07.2019
5535 Rain 2 1013 100 7000 0.14 318.196 12:45 03.07.2019
5536 Rain 2 1013 100 7000 0.95 325.672 12:18 03.07.2019
5537 Clouds 2 1013 100 6000 0.95 325.672 11:43 03.07.2019
5538 Clouds 2 1013 100 6000 0.95 325.672 11:22 03.07.2019
5539 Rain 3 1013 93 6000 0.95 325.672 10:43 03.07.2019
5540 Rain 3 1013 93 6000 0.95 325.672 10:24 03.07.2019
5541 Rain 3 1013 93 7000 0.95 325.672 09:56 03.07.2019
5542 Rain 3 1013 93 7000 0.95 325.672 09:38 03.07.2019
5543 Rain 3 1013 93 7000 1.21 332.019 09:19 03.07.2019
5544 Rain 3 1013 93 6000 0.5 0 08:47 03.07.2019
5545 Rain 3 1013 93 6000 0.5 0 08:25 03.07.2019
5546 Rain 3 1014 93 4300 1.51 329.043 07:39 03.07.2019
5547 Rain 3 1014 93 4300 1.51 329.043 07:18 03.07.2019
5548 Rain 3 1014 93 7000 2.03 329.623 06:19 03.07.2019
5549 Rain 3 1015 93 5000 1 280 05:29 03.07.2019
5550 Rain 3 1015 93 5000 1 0 04:27 03.07.2019
5551 Rain 4 1015 86 5000 0.5 0 02:58 03.07.2019
5552 Clouds 4 1015 86 8000 0.5 0 01:40 03.07.2019
5553 Clouds 4 1015 86 8000 0.5 0 01:21 03.07.2019
5554 Haze 4 1015 80 10000 1 0 00:40 03.07.2019
5555 Clouds 5 1015 75 10000 1 0 23:57 02.07.2019
5556 Clouds 5 1015 75 10000 1 0 23:37 02.07.2019
5557 Clouds 5 1015 75 10000 1 0 23:19 02.07.2019
5558 Clouds 6 1015 88 10000 2.1 270 22:42 02.07.2019
5559 Clouds 6 1015 88 10000 2.1 270 22:24 02.07.2019
5560 Clouds 7 1015 88 10000 2.1 250 21:58 02.07.2019
5561 Clouds 7 1015 88 10000 2.1 250 21:39 02.07.2019
5562 Clouds 7 1015 93 10000 2.1 250 21:20 02.07.2019
5563 Clouds 7 1015 65 10000 2.6 280 20:57 02.07.2019
5564 Clouds 7 1015 65 10000 2.6 280 20:38 02.07.2019
5565 Clouds 7 1015 65 10000 2.6 280 20:19 02.07.2019
5566 Clouds 6 1015 75 10000 1 0 19:41 02.07.2019
5567 Clouds 6 1015 75 10000 1 0 19:22 02.07.2019
5568 Clouds 5 1015 80 10000 1 0 18:46 02.07.2019
5569 Clouds 5 1015 80 10000 1 0 18:18 02.07.2019
5570 Clouds 4 1015 86 10000 0.5 0 17:41 02.07.2019
5571 Clouds 4 1015 86 10000 0.5 0 17:22 02.07.2019
5572 Clouds 3 1014 86 10000 1.5 320 16:49 02.07.2019
5573 Clouds 3 1014 86 10000 1.5 320 16:31 02.07.2019
5574 Clouds 2 1012 93 10000 1 0 15:46 02.07.2019
5575 Clouds 2 1012 93 10000 1 0 15:25 02.07.2019
5576 Clouds 2 1012 93 10000 1 0 15:25 02.07.2019
5577 Clear 2 1012 93 10000 2.1 260 14:54 02.07.2019
5578 Clear 2 1012 93 10000 2.1 260 14:36 02.07.2019
5579 Rain 2 1011 93 10000 1.5 270 13:56 02.07.2019
5580 Rain 2 1011 93 10000 1.5 270 13:36 02.07.2019
5581 Rain 2 1011 93 10000 1.5 270 13:18 02.07.2019
5582 Rain 2 1010 93 10000 3.1 290 12:43 02.07.2019
5583 Rain 2 1010 93 10000 3.1 290 12:21 02.07.2019
5584 Rain 2 1009 93 10000 2.6 290 11:42 02.07.2019
5585 Rain 2 1009 93 10000 2.6 290 11:22 02.07.2019
5586 Rain 3 1008 86 10000 3.1 300 10:48 02.07.2019
5587 Rain 3 1008 86 10000 3.1 300 10:26 02.07.2019
5588 Rain 3 1007 86 10000 2.1 0 09:46 02.07.2019
5589 Rain 3 1007 86 10000 2.1 0 09:22 02.07.2019
5590 Rain 3 1007 86 10000 2.1 260 08:43 02.07.2019
5591 Rain 3 1007 86 10000 2.1 260 08:23 02.07.2019
5592 Rain 3 1007 86 9000 4.1 240 07:54 02.07.2019
5593 Rain 3 1007 86 9000 4.1 240 07:21 02.07.2019
5594 Rain 3 1007 97 10000 3.6 250 06:51 02.07.2019
5595 Rain 3 1007 97 10000 3.6 250 06:30 02.07.2019
5596 Clear 5 1007 56 10000 3.6 250 04:57 02.07.2019
5597 Clear 6 1007 48 10000 5.7 260 02:19 02.07.2019
5598 Clouds 7 1006 65 10000 5.7 260 23:50 01.07.2019
5599 Clouds 7 1006 65 10000 5.7 260 23:22 01.07.2019
5600 Clouds 6 1006 81 10000 3.6 250 22:46 01.07.2019
5601 Clouds 6 1006 81 10000 3.6 250 22:27 01.07.2019
5602 Rain 5 1005 86 10000 2.6 280 21:48 01.07.2019
5603 Rain 5 1005 86 10000 2.6 280 21:48 01.07.2019
5604 Rain 5 1005 86 10000 2.6 280 21:26 01.07.2019
5605 Rain 4 1006 86 8000 3.6 310 20:52 01.07.2019
5606 Rain 4 1006 86 8000 3.6 310 20:22 01.07.2019
5607 Rain 4 1006 86 3000 4.1 250 19:59 01.07.2019
5608 Rain 4 1006 86 3000 4.1 250 19:40 01.07.2019
5609 Rain 4 1006 86 3000 4.1 250 19:22 01.07.2019
5610 Rain 5 1006 80 3000 5.7 240 18:53 01.07.2019
5611 Rain 5 1006 80 3000 5.7 240 18:31 01.07.2019
5612 Rain 4 1007 86 3000 5.1 240 17:58 01.07.2019
5613 Rain 4 1007 86 3000 5.1 240 17:40 01.07.2019
5614 Rain 4 1007 86 3000 5.1 240 17:21 01.07.2019
5615 Rain 4 1009 86 3000 3.6 240 16:46 01.07.2019
5616 Rain 4 1009 86 3000 3.6 240 16:25 01.07.2019
5617 Rain 5 1009 80 4000 3.1 230 15:47 01.07.2019
5618 Rain 5 1009 80 4000 3.1 230 15:28 01.07.2019
5619 Rain 6 1010 75 9000 6.2 240 14:59 01.07.2019
5620 Rain 6 1010 75 9000 6.2 240 14:39 01.07.2019
5621 Rain 6 1010 75 9000 6.2 240 14:19 01.07.2019
5622 Rain 7 1011 65 10000 6.2 240 13:40 01.07.2019
5623 Rain 7 1011 65 10000 6.2 240 13:21 01.07.2019
5624 Clouds 6 1012 60 10000 7.2 250 12:42 01.07.2019
5625 Clouds 6 1012 60 10000 7.2 250 12:23 01.07.2019
5626 Clouds 6 1013 56 10000 7.2 260 11:58 01.07.2019
5627 Clouds 6 1013 56 10000 7.2 260 11:38 01.07.2019
5628 Clouds 6 1013 56 10000 7.2 260 11:18 01.07.2019
5629 Clear 6 1014 56 10000 7.7 260 10:42 01.07.2019
5630 Clear 6 1014 56 10000 7.7 260 10:21 01.07.2019
5631 Rain 5 1015 60 10000 6.2 250 09:45 01.07.2019
5632 Rain 5 1015 60 10000 6.2 250 09:26 01.07.2019
5633 Clear 6 1017 52 10000 6.7 250 08:44 01.07.2019
5634 Clear 6 1017 52 10000 6.7 250 08:25 01.07.2019
5635 Clear 5 1019 52 10000 6.7 250 07:34 01.07.2019
5636 Clear 5 1020 56 10000 4.1 260 06:51 01.07.2019
5637 Clear 3 1023 59 10000 3.6 240 04:44 01.07.2019
5638 Clear 1 1025 74 10000 2.1 300 01:20 01.07.2019
5639 Mist 0 1025 88 9000 1 0 00:41 01.07.2019
5640 Mist 0 1025 86 9000 1 0 00:20 01.07.2019
5641 Clear 1 1025 80 8000 1 0 23:25 30.06.2019
5642 Clear 3 1025 74 10000 2.1 300 22:56 30.06.2019
5643 Clear 3 1025 74 10000 2.1 300 22:24 30.06.2019
5644 Clear 4 1025 86 10000 1.5 280 21:59 30.06.2019
5645 Clear 4 1025 86 10000 1.5 280 21:41 30.06.2019
5646 Clear 4 1025 84 10000 1.5 280 21:18 30.06.2019
5647 Clear 4 1025 84 10000 2.1 310 20:41 30.06.2019
5648 Clear 4 1025 85 10000 2.1 310 20:23 30.06.2019
5649 Clear 2 1025 80 10000 2.1 290 19:51 30.06.2019
5650 Clear 2 1025 80 10000 2.1 290 19:26 30.06.2019
5651 Clouds 1 1026 86 10000 2.1 300 18:53 30.06.2019
5652 Clouds 1 1026 86 10000 2.1 300 18:23 30.06.2019
5653 Clouds 0 1027 84 10000 2.1 300 17:41 30.06.2019
5654 Clouds 0 1027 84 10000 2.1 300 17:20 30.06.2019
5655 Clouds -1 1026 100 10000 0.5 0 16:56 30.06.2019
5656 Clouds -1 1026 100 10000 0.5 0 16:37 30.06.2019
5657 Clouds -1 1026 100 10000 0.5 0 16:18 30.06.2019
5658 Clouds -1 1025 100 10000 1 0 15:36 30.06.2019
5659 Clouds -1 1025 100 10000 1 0 15:18 30.06.2019
5660 Clouds -1 1025 100 10000 1 0 15:18 30.06.2019
5661 Clouds 0 1024 92 10000 1 0 14:43 30.06.2019
5662 Clouds 0 1024 92 10000 1 0 14:24 30.06.2019
5663 Clouds 0 1024 92 10000 0.5 0 13:43 30.06.2019
5664 Clouds 0 1024 91 10000 0.5 0 13:20 30.06.2019
5665 Clouds 0 1023 91 10000 1 0 12:48 30.06.2019
5666 Clouds 0 1023 93 10000 1 0 12:24 30.06.2019
5667 Clouds 0 1023 93 6000 1 0 11:48 30.06.2019
5668 Clouds 0 1023 93 6000 1 0 11:24 30.06.2019
5669 Clouds 0 1023 93 7000 0.5 0 10:59 30.06.2019
5670 Clouds 0 1023 93 7000 0.5 0 10:38 30.06.2019
5671 Clouds 0 1023 93 7000 0.5 0 10:19 30.06.2019
5672 Clouds 0 1022 93 10000 2.1 280 09:43 30.06.2019
5673 Clouds 0 1022 96 10000 2.1 280 09:23 30.06.2019
5674 Mist 0 1022 96 10000 1 0 08:57 30.06.2019
5675 Mist 0 1022 97 10000 1 0 08:29 30.06.2019
5676 Clouds 0 1021 97 10000 1 270 07:56 30.06.2019
5677 Clouds 0 1021 97 10000 1 270 07:28 30.06.2019
5678 Clouds 0 1021 97 7000 0.5 0 06:40 30.06.2019
5679 Drizzle 0 1021 98 5000 1.5 260 05:33 30.06.2019
5680 Drizzle 0 1018 95 4300 0.5 0 02:50 30.06.2019
5681 Clouds 0 1018 90 6000 1 0 01:27 30.06.2019
5682 Snow 0 1017 90 4100 2.1 280 00:29 30.06.2019
5683 Clouds 0 1017 88 4000 1 0 23:53 29.06.2019
5684 Clouds 0 1017 88 4000 1 0 23:24 29.06.2019
5685 Clear 1 1016 80 10000 1 0 22:56 29.06.2019
5686 Clear 1 1016 80 10000 1 0 22:25 29.06.2019
5687 Clear 1 1016 80 10000 1 0 22:25 29.06.2019
5688 Clear 1 1016 74 10000 1 0 21:59 29.06.2019
5689 Clear 1 1016 74 10000 1 0 21:40 29.06.2019
5690 Clear 1 1016 74 10000 1 0 21:20 29.06.2019
5691 Clear 0 1016 84 10000 1 0 20:40 29.06.2019
5692 Clear 0 1016 84 10000 1 0 20:22 29.06.2019
5693 Clear 0 1017 84 10000 2.1 10 19:48 29.06.2019
5694 Clear 0 1017 84 10000 2.1 10 19:23 29.06.2019
5695 Clouds -2 1017 86 10000 0.19 141.153 18:49 29.06.2019
5696 Clear -2 1017 86 10000 0.48 268.319 18:25 29.06.2019
5697 Clear -3 1018 92 10000 0.5 0 17:42 29.06.2019
5698 Clear -3 1018 92 10000 0.5 0 17:22 29.06.2019
5699 Clear -3 1018 92 10000 1.5 70 16:54 29.06.2019
5700 Clear -3 1018 92 10000 1.5 70 16:29 29.06.2019
5701 Clear -3 1018 92 10000 0.48 268.319 15:42 29.06.2019
5702 Clear -3 1018 92 10000 1.26 310.951 15:23 29.06.2019
5703 Clear -3 1017 92 10000 0.5 0 14:43 29.06.2019
5704 Clear -3 1017 92 10000 0.5 0 14:25 29.06.2019
5705 Mist -4 1017 100 3100 1.26 310.951 13:46 29.06.2019
5706 Mist -4 1017 100 3100 1.58 317.821 13:26 29.06.2019
5707 Clear -4 1017 92 7000 1.58 317.821 12:49 29.06.2019
5708 Clear -4 1017 92 7000 1.58 317.821 12:31 29.06.2019
5709 Fog -4 1017 92 1800 1 290 11:53 29.06.2019
5710 Fog -4 1017 92 1800 1 290 11:31 29.06.2019
5711 Fog -4 1017 92 1800 1 300 10:53 29.06.2019
5712 Fog -4 1017 92 1800 1 300 10:32 29.06.2019
5713 Mist -4 1018 100 2100 0.5 0 09:59 29.06.2019
5714 Mist -4 1018 100 2100 0.5 0 09:36 29.06.2019
5715 Clear -3 1018 92 10000 1.53 298.521 08:41 29.06.2019
5716 Fog -4 1018 92 500 1.42 294.917 07:46 29.06.2019
5717 Fog -4 1018 92 500 1.42 294.917 07:21 29.06.2019
5718 Fog -4 1018 100 500 1.42 294.917 06:43 29.06.2019
5719 Fog -4 1018 100 500 1.63 302.493 06:21 29.06.2019
5720 Clear -3 1017 92 10000 1.57 315.387 02:30 29.06.2019
5721 Mist -2 1016 92 4200 0.5 0 00:57 29.06.2019
5722 Clear -1 1016 92 10000 0.5 0 00:00 29.06.2019
5723 Clear -1 1016 92 10000 0.5 0 23:24 28.06.2019
5724 Clear 1 1015 74 10000 1.5 320 22:53 28.06.2019
5725 Clear 1 1015 74 10000 1.5 320 22:27 28.06.2019
5726 Clouds 2 1015 64 10000 2.1 320 21:46 28.06.2019
5727 Clouds 2 1015 64 10000 2.1 320 21:21 28.06.2019
5728 Clouds 2 1016 69 10000 2.1 320 20:46 28.06.2019
5729 Clouds 2 1016 69 10000 2.1 320 20:25 28.06.2019
5730 Clouds 1 1016 74 10000 1.5 330 19:53 28.06.2019
5731 Clouds 1 1016 74 10000 1.5 330 19:27 28.06.2019
5732 Clouds 0 1017 68 10000 1.5 320 18:44 28.06.2019
5733 Clouds 0 1017 63 10000 1.5 320 18:22 28.06.2019
5734 Clouds -1 1017 92 10000 0.07 322.481 17:56 28.06.2019
5735 Clouds -1 1017 92 10000 0.07 322.481 17:56 28.06.2019
5736 Clouds -1 1017 92 10000 0.07 322.481 17:29 28.06.2019
5737 Clouds -1 1016 92 10000 1.5 120 16:49 28.06.2019
5738 Clouds -1 1016 92 10000 1.5 120 16:24 28.06.2019
5739 Clouds -1 1016 92 10000 0.5 0 15:48 28.06.2019
5740 Clouds -1 1016 92 10000 0.5 0 15:22 28.06.2019
5741 Clouds -1 1015 86 10000 1 0 14:42 28.06.2019
5742 Clouds -1 1015 86 10000 1 0 14:22 28.06.2019
5743 Clouds -1 1014 92 10000 1.5 260 13:51 28.06.2019
5744 Clouds -1 1014 92 10000 1.5 260 13:30 28.06.2019
5745 Clouds -1 1014 92 10000 0.5 0 12:58 28.06.2019
5746 Clouds -1 1014 92 10000 0.5 0 12:40 28.06.2019
5747 Clouds 0 1013 82 10000 1.49 299.028 11:50 28.06.2019
5748 Clouds 0 1013 82 10000 1.49 299.028 11:19 28.06.2019
5749 Snow 0 1013 82 5000 1.49 299.028 10:43 28.06.2019
5750 Snow 0 1013 82 5000 1.49 299.028 10:21 28.06.2019
5751 Snow 0 1012 82 3200 1.49 299.028 09:47 28.06.2019
5752 Snow 0 1012 82 3200 1.49 299.028 09:29 28.06.2019
5753 Clouds 0 1011 89 5000 1.65 291.834 08:44 28.06.2019
5754 Clouds 0 1011 89 5000 1.65 291.834 08:24 28.06.2019
5755 Clouds 0 1011 89 10000 1.65 291.834 07:45 28.06.2019
5756 Clouds 1 1010 89 10000 1.65 291.834 06:57 28.06.2019
5757 Clouds 1 1009 94 10000 1 0 05:18 28.06.2019
5758 Rain 2 1004 93 9000 1 0 01:21 28.06.2019
5759 Rain 3 1003 86 5000 2.6 320 00:26 28.06.2019
5760 Clouds 4 1002 86 10000 1 0 23:48 27.06.2019
5761 Clouds 4 1002 86 10000 1 0 23:25 27.06.2019
5762 Clouds 4 1001 86 10000 0.5 0 22:44 27.06.2019
5763 Clouds 4 1001 86 10000 0.5 0 22:26 27.06.2019
5764 Clouds 3 1000 93 10000 1.5 310 21:59 27.06.2019
5765 Clouds 3 1000 93 10000 1.5 310 21:41 27.06.2019
5766 Clouds 3 1000 93 10000 1.5 310 21:21 27.06.2019
5767 Rain 3 1000 93 7000 1 0 20:49 27.06.2019
5768 Rain 3 1000 93 7000 1 0 20:31 27.06.2019
5769 Rain 3 999 93 7000 1 0 19:50 27.06.2019
5770 Rain 3 999 93 7000 1 0 19:30 27.06.2019
5771 Rain 2 999 93 7000 1 0 18:55 27.06.2019
5772 Rain 2 999 93 7000 1 0 18:33 27.06.2019
5773 Rain 1 999 100 7000 1 0 17:58 27.06.2019
5774 Rain 1 999 100 7000 1 0 17:37 27.06.2019
5775 Rain 1 999 100 7000 1 0 17:19 27.06.2019
5776 Rain 1 998 100 4000 1 0 16:39 27.06.2019
5777 Rain 1 998 100 4000 1 0 16:19 27.06.2019
5778 Rain 1 998 100 4000 1 0 16:19 27.06.2019
5779 Snow 1 997 99 2000 0.5 0 15:45 27.06.2019
5780 Snow 1 997 99 2000 0.5 0 15:24 27.06.2019
5781 Clouds 1 996 99 2600 0.5 0 14:52 27.06.2019
5782 Clouds 1 996 99 2600 0.5 0 14:52 27.06.2019
5783 Clouds 1 996 99 2600 0.5 0 14:30 27.06.2019
5784 Snow 1 995 99 5000 1 0 13:50 27.06.2019
5785 Snow 1 995 99 5000 1 0 13:32 27.06.2019
5786 Clouds 1 995 99 7000 1.04 354.306 12:58 27.06.2019
5787 Clouds 1 995 99 7000 1.04 354.306 12:38 27.06.2019
5788 Rain 1 995 95 7000 2.4 325.377 12:19 27.06.2019
5789 Rain 2 994 93 10000 2.4 325.377 11:42 27.06.2019
5790 Rain 2 994 93 10000 2.4 325.377 11:21 27.06.2019
5791 Rain 3 994 93 10000 1.5 300 10:55 27.06.2019
5792 Rain 3 994 93 10000 1.5 300 10:36 27.06.2019
5793 Rain 3 994 93 10000 1.5 300 10:18 27.06.2019
5794 Rain 4 994 93 7000 0.5 0 09:36 27.06.2019
5795 Rain 4 994 93 7000 0.5 0 09:18 27.06.2019
5796 Rain 4 993 93 10000 1.5 100 08:40 27.06.2019
5797 Rain 4 993 93 10000 1.5 100 08:19 27.06.2019
5798 Rain 3 993 100 10000 1.5 100 07:38 27.06.2019
5799 Rain 3 994 100 10000 3.47 318.016 06:54 27.06.2019
5800 Rain 3 994 100 10000 3.8 319.773 06:24 27.06.2019
5801 Rain 3 993 93 5000 3.84 328.609 03:21 27.06.2019
5802 Rain 3 993 93 3400 3.84 328.609 02:30 27.06.2019
5803 Rain 2 994 100 4000 0.5 0 00:59 27.06.2019
5804 Rain 2 994 100 4000 0.5 0 00:41 27.06.2019
5805 Rain 2 994 100 4000 0.5 0 00:19 27.06.2019
5806 Rain 3 994 93 5000 1 0 23:40 26.06.2019
5807 Rain 3 994 93 5000 1 0 23:21 26.06.2019
5808 Rain 4 994 86 6000 1.5 0 22:45 26.06.2019
5809 Rain 4 994 86 6000 1.5 0 22:26 26.06.2019
5810 Rain 5 994 86 9000 2.1 0 21:56 26.06.2019
5811 Rain 5 994 86 9000 2.1 0 21:37 26.06.2019
5812 Rain 5 994 86 9000 2.1 0 21:19 26.06.2019
5813 Rain 5 994 86 7000 1 0 20:44 26.06.2019
5814 Rain 5 994 86 7000 1 0 20:26 26.06.2019
5815 Rain 4 994 93 10000 2.1 280 19:49 26.06.2019
5816 Rain 4 994 93 10000 2.1 280 19:31 26.06.2019
5817 Rain 4 995 86 5000 2.1 320 18:55 26.06.2019
5818 Rain 4 995 86 5000 2.1 320 18:55 26.06.2019
5819 Rain 4 995 86 5000 2.1 320 18:37 26.06.2019
5820 Rain 4 995 86 5000 2.1 320 18:18 26.06.2019
5821 Rain 5 995 86 8000 2.1 260 17:41 26.06.2019
5822 Rain 5 995 86 8000 2.1 260 17:23 26.06.2019
5823 Rain 5 995 86 8000 2.1 280 16:50 26.06.2019
5824 Rain 5 995 86 8000 2.1 280 16:28 26.06.2019
5825 Rain 5 995 86 6000 2.1 230 15:48 26.06.2019
5826 Rain 5 995 86 6000 2.1 230 15:27 26.06.2019
5827 Rain 5 995 86 10000 2.6 240 14:39 26.06.2019
5828 Rain 5 995 86 10000 2.6 240 14:20 26.06.2019
5829 Rain 4 995 93 10000 1.5 310 13:45 26.06.2019
5830 Rain 4 995 93 10000 1.5 310 13:21 26.06.2019
5831 Rain 4 995 93 10000 1 270 12:45 26.06.2019
5832 Rain 4 995 93 10000 1 270 12:26 26.06.2019
5833 Rain 5 995 80 10000 3.1 250 11:54 26.06.2019
5834 Rain 5 995 80 10000 3.1 250 11:23 26.06.2019
5835 Rain 5 996 86 9000 3.6 260 10:48 26.06.2019
5836 Rain 5 996 86 9000 3.6 260 10:29 26.06.2019
5837 Rain 6 996 75 10000 5.1 240 09:51 26.06.2019
5838 Rain 6 996 75 10000 5.1 240 09:26 26.06.2019
5839 Rain 6 996 81 10000 3.1 250 08:49 26.06.2019
5840 Rain 6 996 81 10000 3.1 250 08:21 26.06.2019
5841 Rain 3 996 100 10000 1.5 0 07:52 26.06.2019
5842 Rain 3 996 100 10000 1.5 0 07:34 26.06.2019
5843 Rain 3 997 93 10000 1 0 06:32 26.06.2019
5844 Rain 4 1003 86 10000 2.1 0 01:31 26.06.2019
5845 Rain 4 1004 86 10000 3.6 0 00:25 26.06.2019
5846 Rain 5 1005 80 6000 5.7 240 23:48 25.06.2019
5847 Rain 5 1005 80 6000 5.7 240 23:28 25.06.2019
5848 Rain 5 1006 80 8000 3.6 250 22:58 25.06.2019
5849 Rain 5 1006 80 8000 3.6 250 22:39 25.06.2019
5850 Rain 5 1006 80 8000 3.6 250 22:20 25.06.2019
5851 Rain 6 1007 70 8000 5.7 240 21:44 25.06.2019
5852 Rain 6 1007 70 8000 5.7 240 21:22 25.06.2019
5853 Rain 6 1008 76 9000 4.1 240 20:47 25.06.2019
5854 Rain 6 1008 76 9000 4.1 240 20:46 25.06.2019
5855 Rain 6 1008 76 9000 4.1 240 20:23 25.06.2019
5856 Clouds 6 1010 70 10000 4.1 250 19:54 25.06.2019
5857 Clouds 6 1010 70 10000 4.1 250 19:36 25.06.2019
5858 Clouds 6 1010 70 10000 4.1 250 19:18 25.06.2019
5859 Rain 5 1011 75 10000 3.6 250 18:40 25.06.2019
5860 Rain 5 1011 75 10000 3.6 250 18:21 25.06.2019
5861 -273 0 0 0 0 0 17:32 25.06.2019
5862 Rain 3 1013 93 9000 2.1 300 16:59 25.06.2019
5863 Rain 3 1013 93 9000 2.1 300 16:40 25.06.2019
5864 Rain 3 1013 93 9000 2.1 300 16:22 25.06.2019
5865 Rain 3 1014 86 10000 2.6 240 15:42 25.06.2019
5866 Rain 3 1014 86 10000 2.6 240 15:24 25.06.2019
5867 Clouds 4 1014 80 10000 2.6 280 14:55 25.06.2019
5868 Clouds 4 1014 80 10000 2.6 280 14:35 25.06.2019
5869 Rain 3 1014 86 10000 2.1 300 13:47 25.06.2019
5870 Rain 3 1014 86 10000 2.1 300 13:47 25.06.2019
5871 Rain 3 1014 86 10000 2.1 300 13:47 25.06.2019
5872 Rain 3 1014 86 10000 2.1 300 13:29 25.06.2019
5873 Rain 3 1013 86 10000 2.6 300 12:55 25.06.2019
5874 Rain 3 1013 86 10000 2.6 300 12:37 25.06.2019
5875 Rain 3 1013 86 10000 2.6 300 12:18 25.06.2019
5876 Rain 3 1013 86 10000 2.1 260 11:43 25.06.2019
5877 Rain 3 1013 86 10000 2.1 260 11:21 25.06.2019
5878 Rain 3 1013 86 10000 2.1 260 11:21 25.06.2019
5879 Rain 3 1012 89 10000 4.6 280 10:45 25.06.2019
5880 Rain 3 1012 89 10000 4.6 280 10:23 25.06.2019
5881 Rain 2 1013 89 10000 3.6 270 09:55 25.06.2019
5882 Rain 2 1013 89 10000 3.6 270 09:37 25.06.2019
5883 Rain 2 1013 95 10000 3.6 270 09:18 25.06.2019
5884 Rain 2 1012 95 10000 4.6 300 08:43 25.06.2019
5885 Rain 2 1012 92 10000 4.6 300 08:24 25.06.2019
5886 Rain 2 1012 92 10000 3.6 280 07:40 25.06.2019
5887 Clouds 1 1012 92 7000 2.1 270 06:57 25.06.2019
5888 Clouds 1 1012 92 7000 2.1 270 06:39 25.06.2019
5889 Rain 3 1012 69 10000 3.6 260 02:47 25.06.2019
5890 Clear 3 1012 59 10000 3.1 250 01:41 25.06.2019
5891 Clear 3 1012 64 10000 4.1 260 00:36 25.06.2019
5892 Clouds 4 1012 60 10000 4.1 260 23:56 24.06.2019
5893 Clouds 4 1012 60 10000 4.1 260 23:56 24.06.2019
5894 Clouds 4 1012 60 10000 4.1 260 23:38 24.06.2019
5895 Clouds 4 1012 60 10000 4.1 260 23:19 24.06.2019
5896 Clouds 5 1011 56 10000 4.6 280 22:40 24.06.2019
5897 Clouds 5 1011 56 10000 4.6 280 22:19 24.06.2019
5898 Clouds 5 1011 56 10000 4.6 280 22:19 24.06.2019
5899 Clouds 5 1010 60 10000 3.6 270 21:39 24.06.2019
5900 Clouds 5 1010 60 10000 3.6 270 21:19 24.06.2019
5901 Clouds 6 1009 56 10000 4.1 270 20:56 24.06.2019
5902 Clouds 6 1009 56 10000 4.1 270 20:37 24.06.2019
5903 Clouds 6 1009 56 10000 4.1 270 20:19 24.06.2019
5904 Clouds 5 1009 52 10000 2.6 260 19:43 24.06.2019
5905 Clouds 5 1009 52 10000 2.6 260 19:21 24.06.2019
5906 Clouds 4 1009 69 10000 3.1 270 18:44 24.06.2019
5907 Clouds 4 1009 69 10000 3.1 270 18:25 24.06.2019
5908 Clouds 4 1009 69 10000 3.1 250 17:47 24.06.2019
5909 Clouds 4 1009 69 10000 3.1 250 17:25 24.06.2019
5910 Clouds 3 1009 72 10000 1.5 250 16:46 24.06.2019
5911 Clouds 3 1009 72 10000 1.5 250 16:20 24.06.2019
5912 Clouds 3 1008 72 10000 2.1 300 15:47 24.06.2019
5913 Clouds 3 1008 72 10000 2.1 300 15:29 24.06.2019
5914 Clear 3 1007 74 10000 3.1 250 14:43 24.06.2019
5915 Clear 3 1007 74 10000 3.1 250 14:24 24.06.2019
5916 Clear 3 1007 86 10000 2.1 250 13:45 24.06.2019
5917 Clear 3 1007 86 10000 2.1 250 13:23 24.06.2019
5918 Clouds 4 1006 80 10000 2.6 0 12:42 24.06.2019
5919 Clouds 4 1006 80 10000 2.6 0 12:21 24.06.2019
5920 Clear 3 1006 86 10000 2.6 280 11:46 24.06.2019
5921 Clear 3 1006 86 10000 2.6 280 11:27 24.06.2019
5922 Rain 3 1006 86 10000 2.6 260 10:53 24.06.2019
5923 Rain 3 1006 86 10000 2.6 260 10:53 24.06.2019
5924 Rain 3 1006 86 10000 2.6 260 10:34 24.06.2019
5925 Rain 4 1006 86 10000 2.6 270 09:57 24.06.2019
5926 Rain 4 1006 86 10000 2.6 270 09:57 24.06.2019
5927 Rain 4 1006 86 10000 2.6 270 09:39 24.06.2019
5928 Rain 4 1006 86 10000 2.6 270 09:18 24.06.2019
5929 Rain 4 1006 86 10000 3.6 280 08:36 24.06.2019
5930 Rain 4 1006 86 10000 3.6 250 07:58 24.06.2019
5931 Rain 4 1006 86 10000 3.6 250 07:40 24.06.2019
5932 Rain 4 1006 86 10000 3.6 250 07:21 24.06.2019
5933 Rain 5 1006 80 10000 3.6 240 06:23 24.06.2019
5934 Rain 5 1006 86 10000 3.1 260 05:32 24.06.2019
5935 Rain 5 1005 93 10000 1 0 04:35 24.06.2019
5936 Rain 6 1006 87 10000 0.5 0 03:44 24.06.2019
5937 Rain 7 1006 75 10000 1 0 02:35 24.06.2019
5938 Clouds 7 1007 70 10000 2.1 290 01:54 24.06.2019
5939 Clouds 7 1007 70 10000 2.1 290 01:28 24.06.2019
5940 Clear 8 1007 65 10000 2.1 0 00:46 24.06.2019
5941 Clear 8 1007 65 10000 2.1 0 00:20 24.06.2019
5942 Clear 8 1008 75 10000 1 0 23:47 23.06.2019
5943 Clear 8 1008 75 10000 1 0 23:28 23.06.2019
5944 Clear 9 1008 61 10000 3.1 260 22:56 23.06.2019
5945 Clear 9 1008 61 10000 3.1 260 22:38 23.06.2019
5946 Clear 9 1008 61 10000 3.1 260 22:19 23.06.2019
5947 Clear 9 1009 76 10000 2.1 0 21:40 23.06.2019
5948 Clear 9 1009 76 10000 2.1 0 21:21 23.06.2019
5949 Rain 7 1009 100 6000 3.18 319.774 20:49 23.06.2019
5950 Rain 7 1009 100 6000 3.7 299.253 20:29 23.06.2019
5951 Rain 6 1010 93 7000 0.5 0 19:46 23.06.2019
5952 Rain 6 1010 93 7000 0.5 0 19:22 23.06.2019
5953 Rain 5 1011 93 6000 1.5 270 18:54 23.06.2019
5954 Rain 5 1011 93 6000 1.5 270 18:25 23.06.2019
5955 Clouds 4 1011 100 10000 1 0 17:54 23.06.2019
5956 Clouds 4 1011 100 10000 1 0 17:28 23.06.2019
5957 Fog 4 1011 93 1200 1 0 16:59 23.06.2019
5958 Fog 4 1011 93 1200 1 0 16:41 23.06.2019
5959 Fog 4 1011 93 1200 1 0 16:22 23.06.2019
5960 Fog 3 1011 100 500 2.47 335.825 15:41 23.06.2019
5961 Fog 3 1011 100 500 1.67 325.118 15:22 23.06.2019
5962 Fog 3 1011 100 600 0.5 0 14:42 23.06.2019
5963 Fog 3 1011 100 600 0.5 0 14:24 23.06.2019
5964 Fog 3 1011 100 900 1.67 325.118 13:59 23.06.2019
5965 Fog 3 1011 100 900 1.67 325.118 13:40 23.06.2019
5966 Fog 3 1011 100 900 2.19 326.078 13:19 23.06.2019
5967 Fog 3 1011 100 2100 0.5 0 12:46 23.06.2019
5968 Fog 3 1011 100 2100 0.5 0 12:23 23.06.2019
5969 Fog 3 1011 100 900 1 0 11:57 23.06.2019
5970 Fog 3 1011 100 900 1 0 11:38 23.06.2019
5971 Fog 3 1011 100 900 1 0 11:19 23.06.2019
5972 Fog 3 1011 100 1000 1 0 10:44 23.06.2019
5973 Fog 3 1011 100 1000 1 0 10:19 23.06.2019
5974 Fog 3 1011 100 800 1.5 280 09:42 23.06.2019
5975 Fog 3 1011 100 800 1.5 280 09:21 23.06.2019
5976 Fog 3 1012 100 900 1.98 331.544 08:45 23.06.2019
5977 Fog 3 1012 100 900 1.84 318.969 08:27 23.06.2019
5978 Fog 4 1012 93 1500 1 0 07:54 23.06.2019
5979 Fog 4 1012 93 1500 1 0 07:21 23.06.2019
5980 Fog 4 1013 100 800 1.5 290 06:54 23.06.2019
5981 Fog 5 1013 93 1400 1 0 05:55 23.06.2019
5982 Mist 6 1013 93 5000 0.5 0 04:30 23.06.2019
5983 Rain 6 1014 100 3700 1 0 01:54 23.06.2019
5984 Rain 6 1014 100 3700 1 0 01:35 23.06.2019
5985 Rain 6 1014 100 10000 2.3 304.456 00:36 23.06.2019
5986 Rain 7 1014 93 5000 1 0 23:54 22.06.2019
5987 Rain 7 1014 93 5000 1 0 23:27 22.06.2019
5988 Rain 7 1013 93 7000 0.5 0 22:49 22.06.2019
5989 Rain 7 1013 93 7000 0.5 0 22:29 22.06.2019
5990 Rain 8 1013 87 10000 2.1 270 21:59 22.06.2019
5991 Rain 8 1013 87 10000 2.1 270 21:37 22.06.2019
5992 Rain 8 1013 87 10000 2.1 270 21:18 22.06.2019
5993 Rain 8 1014 93 8000 1 0 20:48 22.06.2019
5994 Rain 8 1014 93 8000 1 0 20:25 22.06.2019
5995 Rain 8 1014 93 8000 0.5 0 19:46 22.06.2019
5996 Rain 8 1014 93 8000 0.5 0 19:22 22.06.2019
5997 Rain 8 1015 93 10000 1 0 18:48 22.06.2019
5998 Rain 8 1015 93 10000 1 0 18:30 22.06.2019
5999 Rain 8 1015 87 10000 1 0 17:56 22.06.2019
6000 Rain 8 1015 87 10000 1 0 17:33 22.06.2019
6001 Rain 8 1014 87 10000 1 0 16:50 22.06.2019
6002 Rain 8 1014 87 10000 1 0 16:24 22.06.2019
6003 Rain 7 1014 93 10000 1.5 270 15:55 22.06.2019
6004 Rain 7 1014 93 10000 1.5 270 15:34 22.06.2019
6005 Rain 6 1014 93 10000 1.5 90 14:58 22.06.2019
6006 Rain 6 1014 93 10000 1.5 90 14:34 22.06.2019
6007 Clear 6 1014 93 10000 3.98 322.623 13:59 22.06.2019
6008 Clear 6 1014 93 10000 3.98 322.623 13:40 22.06.2019
6009 Clear 6 1014 93 10000 3.92 324.605 13:19 22.06.2019
6010 Clear 6 1013 100 10000 1 0 12:47 22.06.2019
6011 Clear 6 1013 100 10000 1 0 12:29 22.06.2019
6012 Rain 7 1013 93 10000 2.1 90 11:53 22.06.2019
6013 Rain 7 1013 93 10000 2.1 90 11:29 22.06.2019
6014 Rain 7 1013 93 10000 1 0 10:47 22.06.2019
6015 Rain 7 1013 93 10000 1 0 10:19 22.06.2019
6016 Clear 7 1012 93 10000 2.6 100 09:42 22.06.2019
6017 Rain 7 1012 93 10000 1.5 70 08:56 22.06.2019
6018 Rain 7 1012 93 10000 1.5 70 08:37 22.06.2019
6019 Rain 7 1012 93 10000 2.6 90 07:53 22.06.2019
6020 Rain 7 1012 93 10000 2.6 90 07:29 22.06.2019
6021 Rain 7 1011 93 10000 2.6 100 06:46 22.06.2019
6022 Rain 8 1011 87 9000 2.6 100 04:38 22.06.2019
6023 Rain 8 1010 93 10000 1.5 100 02:27 22.06.2019
6024 Rain 8 1009 93 10000 1 0 00:57 22.06.2019
6025 Rain 8 1009 93 10000 1 0 00:31 22.06.2019
6026 Clear 8 1008 93 10000 3.1 110 23:50 21.06.2019
6027 Clear 8 1008 93 10000 3.1 110 23:24 21.06.2019
6028 -273 0 0 0 0 0 22:58 21.06.2019
6029 Rain 8 1009 93 8000 1 0 22:58 21.06.2019
6030 Rain 8 1009 93 8000 1 0 22:39 21.06.2019
6031 Rain 8 1009 93 8000 1 0 22:20 21.06.2019
6032 Rain 8 1009 87 10000 2.1 130 21:40 21.06.2019
6033 Rain 8 1009 87 10000 2.1 130 21:20 21.06.2019
6034 Rain 8 1009 93 7000 2.6 100 20:48 21.06.2019
6035 Rain 8 1009 93 7000 2.6 100 20:26 21.06.2019
6036 Rain 8 1010 93 9000 1 0 19:48 21.06.2019
6037 Rain 8 1010 93 9000 1 0 19:22 21.06.2019
6038 Rain 7 1011 100 7000 4.07 318.919 18:41 21.06.2019
6039 Rain 7 1011 100 7000 2.78 309.207 18:23 21.06.2019
6040 Rain 7 1010 93 4000 0.5 0 17:31 21.06.2019
6041 Clouds 7 1010 93 10000 1.5 0 16:56 21.06.2019
6042 Clouds 7 1010 93 10000 1.5 0 16:36 21.06.2019
6043 Clouds 7 1010 93 10000 1.5 0 16:18 21.06.2019
6044 Rain 7 1010 93 6000 1.5 0 15:37 21.06.2019
6045 Rain 6 1010 93 8000 1 0 14:57 21.06.2019
6046 Rain 6 1010 93 8000 1 0 14:38 21.06.2019
6047 Rain 6 1010 93 8000 1 0 14:20 21.06.2019
6048 Rain 6 1011 100 8000 0.5 0 13:39 21.06.2019
6049 Rain 6 1011 100 8000 0.5 0 13:21 21.06.2019
6050 Rain 6 1010 93 4500 1 0 12:49 21.06.2019
6051 Rain 6 1010 93 4500 1 0 12:23 21.06.2019
6052 Rain 6 1010 93 4500 1 0 12:23 21.06.2019
6053 Rain 6 1010 93 3400 2.78 324.645 11:49 21.06.2019
6054 Rain 6 1010 93 3400 2.78 324.645 11:28 21.06.2019
6055 Rain 6 1010 93 2600 1 0 10:59 21.06.2019
6056 Rain 6 1010 93 2600 1 0 10:40 21.06.2019
6057 Rain 6 1010 93 2600 1 0 10:20 21.06.2019
6058 Rain 6 1009 93 2200 2.78 324.645 09:43 21.06.2019
6059 Rain 6 1009 93 2200 3.25 312.645 09:22 21.06.2019
6060 Rain 6 1010 93 3200 0.5 0 08:55 21.06.2019
6061 Rain 6 1010 93 3200 0.5 0 08:37 21.06.2019
6062 Rain 6 1010 93 3200 0.5 0 08:18 21.06.2019
6063 Rain 6 1010 93 2400 0.5 0 07:40 21.06.2019
6064 Rain 6 1010 93 6000 3.56 317.081 06:59 21.06.2019
6065 Rain 6 1010 93 6000 3.47 314.276 06:25 21.06.2019
6066 Rain 7 1010 87 8000 1 0 05:33 21.06.2019
6067 Rain 8 1010 81 10000 0.5 0 04:36 21.06.2019
6068 Rain 9 1009 76 10000 2.1 240 03:35 21.06.2019
6069 Clear 11 1008 50 10000 4.1 260 02:59 21.06.2019
6070 Mist 6 1008 87 6000 1.5 0 01:59 21.06.2019
6071 Mist 6 1008 87 6000 1.5 0 01:25 21.06.2019
6072 Clear 6 1007 93 7000 1.5 270 00:29 21.06.2019
6073 Clear 6 1007 87 10000 0.5 0 23:54 20.06.2019
6074 Clear 6 1007 87 10000 0.5 0 23:24 20.06.2019
6075 Clear 10 1007 71 10000 0.85 345.325 22:59 20.06.2019
6076 Clear 10 1007 71 10000 0.85 345.325 22:40 20.06.2019
6077 Clear 10 1007 71 10000 0.85 345.325 22:21 20.06.2019
6078 Clear 9 1006 76 10000 0.85 345.325 21:52 20.06.2019
6079 Clear 9 1006 76 10000 1.25 98.124 21:20 20.06.2019
6080 Clear 9 1007 76 10000 1 0 20:59 20.06.2019
6081 Clear 9 1007 76 10000 1 0 20:40 20.06.2019
6082 Clear 9 1007 76 10000 1 0 20:20 20.06.2019
6083 Clear 8 1009 81 10000 1 0 19:40 20.06.2019
6084 Clear 8 1009 81 10000 1 0 19:19 20.06.2019
6085 Clouds 6 1010 87 10000 1.5 290 18:44 20.06.2019
6086 Clouds 6 1010 87 10000 1.5 290 18:23 20.06.2019
6087 Fog 4 1011 100 200 0.74 120.363 17:59 20.06.2019
6088 Fog 4 1011 100 200 0.74 120.363 17:41 20.06.2019
6089 Fog 4 1011 100 10000 0.74 120.363 16:58 20.06.2019
6090 Fog 4 1011 100 10000 0.74 120.363 16:39 20.06.2019
6091 Fog 4 1011 100 10000 0.74 120.363 16:19 20.06.2019
6092 Fog 4 1012 93 100 0.74 120.363 15:43 20.06.2019
6093 Fog 4 1012 93 100 0.31 320.315 15:23 20.06.2019
6094 Fog 4 1012 93 100 0.31 320.315 15:23 20.06.2019
6095 Rain 4 1012 93 550 2.1 270 14:52 20.06.2019
6096 Rain 4 1012 93 550 2.1 270 14:24 20.06.2019
6097 Fog 4 1013 93 1900 0.31 320.315 13:56 20.06.2019
6098 Fog 4 1013 93 1900 0.31 320.315 13:37 20.06.2019
6099 Fog 4 1013 93 1900 0.57 316.276 13:18 20.06.2019
6100 Fog 4 1013 100 2100 0.5 0 12:40 20.06.2019
6101 Fog 4 1013 100 2100 0.5 0 12:19 20.06.2019
6102 Mist 4 1014 100 2700 0.67 310.73 11:40 20.06.2019
6103 Mist 4 1014 100 2700 0.67 310.73 11:22 20.06.2019
6104 Mist 5 1015 93 2600 0.5 0 10:43 20.06.2019
6105 Mist 5 1015 93 2600 0.5 0 10:23 20.06.2019
6106 Mist 5 1016 93 3800 0.67 310.73 09:41 20.06.2019
6107 Mist 5 1016 93 3800 1.29 315.533 09:23 20.06.2019
6108 Mist 5 1016 93 5000 1 0 08:48 20.06.2019
6109 Mist 5 1016 93 5000 1 0 08:28 20.06.2019
6110 Clear 5 1017 93 6000 1 260 07:59 20.06.2019
6111 Clear 5 1017 93 6000 1 260 07:33 20.06.2019
6112 Clear 7 1017 87 6000 1.49 325.156 06:57 20.06.2019
6113 Clear 7 1017 87 6000 1.75 317.178 06:18 20.06.2019
6114 Clouds 8 1017 81 9000 1.75 317.178 03:39 20.06.2019
6115 Clouds 9 1017 76 10000 1 0 00:44 20.06.2019
6116 Rain 9 1017 76 10000 1 0 00:25 20.06.2019
6117 Rain 10 1017 71 10000 3.1 250 23:42 19.06.2019
6118 Rain 10 1017 71 10000 3.1 250 23:24 19.06.2019
6119 Clear 11 1017 66 10000 2.6 240 22:48 19.06.2019
6120 Clear 11 1017 66 10000 2.6 240 22:24 19.06.2019
6121 Clouds 11 1017 62 10000 3.1 250 21:55 19.06.2019
6122 Clouds 11 1017 62 10000 3.1 250 21:37 19.06.2019
6123 Clouds 11 1017 62 10000 3.1 250 21:37 19.06.2019
6124 Clouds 11 1017 62 10000 3.1 250 21:18 19.06.2019
6125 Clouds 11 1018 66 10000 1.5 310 20:39 19.06.2019
6126 Clouds 11 1018 66 10000 1.5 310 20:20 19.06.2019
6127 Clouds 9 1019 70 10000 1.5 280 19:42 19.06.2019
6128 Clouds 9 1019 70 10000 1.5 280 19:23 19.06.2019
6129 Clouds 8 1020 75 10000 1.5 270 18:55 19.06.2019
6130 Clouds 8 1020 75 10000 1.5 270 18:22 19.06.2019
6131 Clouds 6 1020 87 10000 1 0 17:42 19.06.2019
6132 Clouds 6 1020 87 10000 1 0 17:23 19.06.2019
6133 Clouds 5 1021 86 10000 1.86 342.451 16:43 19.06.2019
6134 Clouds 5 1021 86 10000 1.86 342.451 16:22 19.06.2019
6135 Clouds 4 1021 93 10000 1.86 342.451 15:58 19.06.2019
6136 Clouds 4 1021 93 10000 1.86 342.451 15:31 19.06.2019
6137 Clouds 4 1021 93 10000 1 0 14:59 19.06.2019
6138 Clouds 4 1021 93 10000 1 0 14:41 19.06.2019
6139 Clouds 4 1021 93 10000 1 0 14:21 19.06.2019
6140 Clouds 4 1021 93 10000 1 0 13:43 19.06.2019
6141 Clouds 4 1021 93 10000 1 0 13:25 19.06.2019
6142 Clouds 5 1021 86 10000 1 0 12:47 19.06.2019
6143 Clouds 5 1021 86 10000 1 0 12:22 19.06.2019
6144 Clouds 5 1021 86 10000 2.68 293.594 11:57 19.06.2019
6145 Clouds 5 1021 86 10000 2.68 293.594 11:38 19.06.2019
6146 Clouds 5 1021 86 10000 2.68 293.594 11:20 19.06.2019
6147 Clouds 5 1022 86 10000 0.5 0 10:45 19.06.2019
6148 Clouds 5 1022 86 10000 0.5 0 10:27 19.06.2019
6149 Clear 6 1022 75 10000 2.68 293.594 09:50 19.06.2019
6150 Clear 6 1022 75 10000 2.71 286.604 09:22 19.06.2019
6151 Clear 7 1022 70 10000 1 0 08:51 19.06.2019
6152 Clear 7 1022 70 10000 1 0 08:29 19.06.2019
6153 Clouds 8 1022 65 10000 2.6 270 07:52 19.06.2019
6154 Clouds 8 1022 65 10000 2.6 270 07:34 19.06.2019
6155 Clear 7 1022 70 10000 3.1 270 06:55 19.06.2019
6156 Clear 7 1022 70 10000 3.1 270 06:30 19.06.2019
6157 Clear 6 1022 75 10000 2.6 290 05:50 19.06.2019
6158 Clear 8 1021 65 10000 3.6 250 04:41 19.06.2019
6159 Clear 8 1021 61 10000 3.1 260 03:37 19.06.2019
6160 Clear 8 1021 61 10000 4.1 240 02:30 19.06.2019
6161 Clear 9 1021 61 10000 3.6 250 01:27 19.06.2019
6162 Clear 9 1021 61 10000 3.6 230 00:46 19.06.2019
6163 Clear 9 1021 61 10000 3.6 230 00:27 19.06.2019
6164 Clouds 9 1021 61 10000 4.1 240 23:55 18.06.2019
6165 Clouds 9 1021 61 10000 4.1 240 23:28 18.06.2019
6166 Clouds 9 1020 61 10000 3.6 260 22:55 18.06.2019
6167 Clouds 9 1020 61 10000 3.6 260 22:37 18.06.2019
6168 Clouds 9 1020 61 10000 3.6 260 22:18 18.06.2019
6169 Clouds 10 1020 61 10000 3.6 260 21:42 18.06.2019
6170 Clouds 10 1020 61 10000 3.6 260 21:21 18.06.2019
6171 Clouds 10 1020 61 10000 3.6 260 21:21 18.06.2019
6172 Clouds 10 1020 61 10000 3.6 260 21:21 18.06.2019
6173 Rain 9 1021 70 10000 2.1 270 20:44 18.06.2019
6174 Rain 9 1021 70 10000 2.1 270 20:25 18.06.2019
6175 Clouds 9 1021 70 10000 3.6 280 19:55 18.06.2019
6176 Clouds 9 1021 70 10000 3.6 280 19:37 18.06.2019
6177 Clouds 9 1021 70 10000 3.6 280 19:19 18.06.2019
6178 Clouds 7 1022 81 10000 2.6 290 18:43 18.06.2019
6179 Clouds 7 1022 81 10000 2.6 290 18:24 18.06.2019
6180 Clouds 6 1021 87 10000 1 0 17:40 18.06.2019
6181 Clouds 6 1021 87 10000 1 0 17:20 18.06.2019
6182 Clouds 5 1021 86 10000 1 0 16:47 18.06.2019
6183 Clouds 5 1021 86 10000 1 0 16:27 18.06.2019
6184 Clouds 3 1021 93 10000 1 0 15:55 18.06.2019
6185 Clouds 3 1021 93 10000 1 0 15:36 18.06.2019
6186 Clouds 3 1021 93 10000 1 0 15:18 18.06.2019
6187 Clear 4 1021 93 10000 2.1 240 14:42 18.06.2019
6188 Clear 4 1021 93 10000 2.1 240 14:22 18.06.2019
6189 Clear 4 1021 93 10000 2.1 230 13:53 18.06.2019
6190 Clear 4 1021 93 10000 2.1 230 13:32 18.06.2019
6191 Clear 4 1021 93 10000 1.5 240 12:56 18.06.2019
6192 Clear 4 1021 93 10000 1.5 240 12:36 18.06.2019
6193 Clear 4 1021 93 10000 1.5 240 12:36 18.06.2019
6194 Clear 4 1021 93 10000 1.5 240 12:18 18.06.2019
6195 Clear 4 1021 93 10000 2.1 240 11:42 18.06.2019
6196 Clear 4 1021 93 10000 2.1 240 11:21 18.06.2019
6197 Clear 4 1021 93 10000 2.1 250 10:56 18.06.2019
6198 Clear 4 1021 93 10000 2.1 250 10:36 18.06.2019
6199 Clear 4 1021 93 10000 2.1 250 10:18 18.06.2019
6200 Clouds 4 1021 93 10000 2.1 250 09:37 18.06.2019
6201 Clouds 4 1021 93 10000 2.1 250 09:18 18.06.2019
6202 Rain 4 1021 93 10000 2.1 260 08:43 18.06.2019
6203 Rain 4 1021 93 10000 2.1 260 08:21 18.06.2019
6204 Rain 3 1021 93 7000 2.6 280 07:37 18.06.2019
6205 Rain 3 1021 93 7000 2.6 280 07:18 18.06.2019
6206 Rain 3 1021 93 10000 2.1 100 05:39 18.06.2019
6207 Clouds 3 1020 93 8000 0.71 304.026 04:24 18.06.2019
6208 Clear 3 1020 93 10000 1 0 02:52 18.06.2019
6209 Clear 3 1019 93 10000 1 275.762 01:54 18.06.2019
6210 Clear 3 1019 93 10000 1.01 275.4 01:24 18.06.2019
6211 Clear 3 1019 93 10000 1.01 275.4 01:24 18.06.2019
6212 Clear 4 1020 86 10000 1.01 275.4 00:54 18.06.2019
6213 Clear 4 1020 86 10000 0.5 89.539 00:24 18.06.2019
6214 Clear 5 1019 80 10000 1.5 80 23:41 17.06.2019
6215 Clear 5 1019 80 10000 1.5 80 23:19 17.06.2019
6216 Clouds 1 1019 92 0 0.5 89.539 22:42 17.06.2019
6217 Clouds 1 1019 92 0 0.5 89.539 22:22 17.06.2019
6218 Clouds 1 1019 92 0 0.5 89.539 21:59 17.06.2019
6219 Clouds 1 1019 92 0 0.5 89.539 21:41 17.06.2019
6220 Clouds 4 1020 86 10000 1.5 240 21:21 17.06.2019
6221 Clouds 4 1020 86 10000 1.5 240 20:37 17.06.2019
6222 Clouds 4 1020 86 10000 1.5 240 20:18 17.06.2019
6223 Clouds 4 1020 86 10000 1.5 240 20:18 17.06.2019
6224 Smoke 2 1022 100 9000 1.5 270 19:42 17.06.2019
6225 Smoke 2 1022 100 9000 1.5 270 19:42 17.06.2019
6226 Smoke 2 1022 100 9000 1.5 270 19:22 17.06.2019
6227 Fog 0 1024 87 800 1.5 80 18:57 17.06.2019
6228 Fog 0 1024 87 800 1.5 80 18:37 17.06.2019
6229 Fog 0 1024 86 800 1.5 80 18:18 17.06.2019
6230 Clear -1 1024 100 0 1 0 17:42 17.06.2019
6231 Clear -1 1024 100 0 1 0 17:24 17.06.2019
6232 Fog -1 1024 100 100 1 0 16:46 17.06.2019
6233 Fog -1 1024 100 100 1 0 16:28 17.06.2019
6234 Fog -1 1024 100 100 0.5 0 15:56 17.06.2019
6235 Fog -1 1024 100 100 0.5 0 15:38 17.06.2019
6236 Fog -1 1024 100 100 0.5 0 15:18 17.06.2019
6237 Fog -1 1024 100 550 0.5 280 14:48 17.06.2019
6238 Fog -1 1024 100 550 0.5 280 14:30 17.06.2019
6239 Fog -1 1025 92 900 0.5 0 13:50 17.06.2019
6240 Fog -1 1025 92 900 0.5 0 13:23 17.06.2019
6241 Mist -2 1025 100 6000 0.97 325.413 12:51 17.06.2019
6242 Mist -2 1025 100 6000 0.97 325.413 12:31 17.06.2019
6243 Mist -2 1025 100 5000 1 0 11:49 17.06.2019
6244 Mist -2 1025 100 5000 1 0 11:26 17.06.2019
6245 Fog -1 1025 92 650 0.5 0 10:58 17.06.2019
6246 Fog -1 1025 92 650 0.5 0 10:40 17.06.2019
6247 Fog -1 1025 92 650 0.5 0 10:21 17.06.2019
6248 Mist 0 1026 88 7000 1.36 4.457 09:53 17.06.2019
6249 Mist 0 1026 88 7000 1.36 4.457 09:28 17.06.2019
6250 Clear 0 1026 86 10000 1 0 08:41 17.06.2019
6251 Clear 0 1026 86 10000 1 0 08:23 17.06.2019
6252 Mist 0 1027 86 8000 1 0 07:46 17.06.2019
6253 Mist 0 1027 86 8000 1 0 07:46 17.06.2019
6254 Mist 0 1027 86 8000 1 0 07:27 17.06.2019
6255 Mist 1 1027 86 6000 0.5 0 06:42 17.06.2019
6256 Clouds 1 1028 80 9000 1 0 05:47 17.06.2019
6257 Clear 3 1028 80 10000 3.1 50 04:41 17.06.2019
6258 Drizzle 0 1028 80 5000 1.5 0 03:47 17.06.2019
6259 Drizzle 0 1028 79 7000 2.1 0 02:59 17.06.2019
6260 Drizzle 0 1028 79 7000 2.1 0 02:40 17.06.2019
6261 Drizzle -1 1028 92 6000 0.5 0 01:47 17.06.2019
6262 Drizzle -1 1028 92 6000 0.5 0 01:25 17.06.2019
6263 Clear 0 1028 81 8000 0.21 311.315 00:44 17.06.2019
6264 Clear 0 1028 88 8000 0.25 1.164 00:21 17.06.2019
6265 Clear 1 1029 88 9000 1 0 23:43 16.06.2019
6266 Clear 1 1029 88 9000 1 0 23:22 16.06.2019
6267 Clear 4 1029 80 10000 0.25 1.164 22:56 16.06.2019
6268 Clear 4 1029 80 10000 0.25 1.164 22:38 16.06.2019
6269 Clear 4 1029 80 10000 0.25 1.164 22:18 16.06.2019
6270 Clear 5 1030 75 10000 1 0 21:41 16.06.2019
6271 Clear 5 1030 75 10000 1 0 21:23 16.06.2019
6272 Clear 4 1031 88 10000 1.5 350 20:59 16.06.2019
6273 Clear 4 1031 87 10000 1.5 350 20:37 16.06.2019
6274 Clear 4 1031 87 10000 1.5 350 20:18 16.06.2019
6275 Clear 1 1032 87 9000 1.5 330 19:42 16.06.2019
6276 Clear 1 1032 87 9000 1.5 330 19:22 16.06.2019
6277 Clear 0 1034 87 6000 2.1 320 18:58 16.06.2019
6278 Clear 0 1034 87 6000 2.1 320 18:40 16.06.2019
6279 Clear 0 1034 84 6000 2.1 320 18:20 16.06.2019
6280 Clear 0 1034 84 6000 2.1 320 18:20 16.06.2019
6281 Clear -1 1034 100 9000 2.1 100 17:47 16.06.2019
6282 Clear -1 1034 100 9000 2.1 100 17:22 16.06.2019
6283 Clear -1 1034 100 9000 2.1 100 17:22 16.06.2019
6284 Fog -2 1034 100 9000 1.5 80 16:57 16.06.2019
6285 Fog -2 1034 100 9000 1.5 80 16:57 16.06.2019
6286 Fog -2 1034 100 9000 1.5 80 16:38 16.06.2019
6287 Fog -2 1034 100 9000 1.5 80 16:20 16.06.2019
6288 Fog -3 1034 100 9000 2.1 90 15:42 16.06.2019
6289 Fog -3 1034 100 9000 2.1 90 15:23 16.06.2019
6290 Clear -1 1034 100 10000 0.5 0 14:44 16.06.2019
6291 Clear -1 1034 100 10000 0.5 0 14:23 16.06.2019
6292 Fog -1 1034 100 1700 1.5 290 13:52 16.06.2019
6293 Fog -1 1034 100 1700 1.5 290 13:27 16.06.2019
6294 Fog -1 1034 100 1100 2.1 70 12:57 16.06.2019
6295 Fog -1 1034 100 1100 2.1 70 12:57 16.06.2019
6296 Fog -1 1034 100 1100 2.1 70 12:38 16.06.2019
6297 Fog -1 1034 100 1100 2.1 70 12:18 16.06.2019
6298 Fog -1 1034 100 600 2.1 110 11:44 16.06.2019
6299 Fog -1 1034 100 600 2.1 110 11:19 16.06.2019
6300 Fog 0 1035 84 600 0.77 14.652 10:45 16.06.2019
6301 Fog 0 1035 84 600 0.77 14.652 10:21 16.06.2019
6302 Fog 0 1035 84 650 1 0 09:48 16.06.2019
6303 Fog 0 1035 82 650 1 0 09:26 16.06.2019
6304 Fog 0 1036 83 650 1.16 338.409 08:56 16.06.2019
6305 Fog 0 1036 83 650 1.16 338.409 08:38 16.06.2019
6306 Fog 0 1036 83 650 1.16 338.409 08:18 16.06.2019
6307 Fog 0 1036 83 600 1.16 338.409 07:42 16.06.2019
6308 Fog -1 1036 100 650 1 0 06:57 16.06.2019
6309 Fog -1 1036 100 650 1 0 06:27 16.06.2019
6310 Fog -1 1036 100 450 1 0 05:29 16.06.2019
6311 Fog 0 1035 83 1100 1.02 352.187 04:36 16.06.2019
6312 Mist 1 1035 83 2600 1.02 352.187 03:51 16.06.2019
6313 Mist 1 1035 83 2600 1.02 352.187 03:30 16.06.2019
6314 Mist 2 1035 93 7000 1 0 01:57 16.06.2019
6315 Mist 2 1035 93 7000 1 0 01:37 16.06.2019
6316 Mist 2 1035 93 7000 1 0 01:18 16.06.2019
6317 Clear 3 1034 86 10000 1.02 7.069 00:39 16.06.2019
6318 Clear 3 1034 86 10000 0.6 19.738 00:19 16.06.2019
6319 Clear 6 1034 75 10000 2.1 20 23:40 15.06.2019
6320 Clear 6 1034 75 10000 2.1 20 23:21 15.06.2019
6321 Clear 6 1033 75 10000 2.1 60 22:49 15.06.2019
6322 Clear 6 1033 75 10000 2.1 60 22:26 15.06.2019
6323 Clear 7 1033 75 10000 0.5 0 21:45 15.06.2019
6324 Clear 7 1033 75 10000 0.5 0 21:27 15.06.2019
6325 Clear 7 1033 75 10000 0.5 0 21:27 15.06.2019
6326 Clear 7 1033 75 10000 0.5 0 21:27 15.06.2019
6327 Clear 6 1034 75 10000 1 0 20:46 15.06.2019
6328 Clear 6 1034 75 10000 1 0 20:24 15.06.2019
6329 Clear 4 1034 86 10000 0.5 0 19:53 15.06.2019
6330 Clear 4 1034 86 10000 0.5 0 19:30 15.06.2019
6331 Clear 3 1035 93 10000 0.61 112.504 18:59 15.06.2019
6332 Clear 3 1035 93 10000 0.61 112.504 18:37 15.06.2019
6333 Clear 3 1035 93 10000 0.6 106.038 18:18 15.06.2019
6334 Clear 3 1035 93 10000 0.6 106.038 18:18 15.06.2019
6335 Mist 2 1035 93 3700 0.6 106.038 17:40 15.06.2019
6336 Mist 2 1035 93 3700 0.6 106.038 17:21 15.06.2019
6337 Clear 2 1035 93 9000 0.5 0 16:44 15.06.2019
6338 Clear 2 1035 93 9000 0.5 0 16:18 15.06.2019
6339 Mist 1 1034 100 4800 0.5 0 15:41 15.06.2019
6340 Mist 1 1034 100 4800 0.5 0 15:21 15.06.2019
6341 Mist 1 1034 100 4800 0.5 0 15:21 15.06.2019
6342 Drizzle 1 1034 100 3200 0.5 0 14:38 15.06.2019
6343 Drizzle 1 1034 100 3200 0.5 0 14:18 15.06.2019
6344 Mist 1 1032 100 3200 1.5 10 13:44 15.06.2019
6345 Mist 1 1032 100 3200 1.5 10 13:21 15.06.2019
6346 Mist 2 1032 93 10000 1 0 12:58 15.06.2019
6347 Mist 2 1032 93 10000 1 0 12:40 15.06.2019
6348 Mist 2 1032 93 10000 1 0 12:20 15.06.2019
6349 Clouds 2 1032 93 10000 0.66 17.969 11:42 15.06.2019
6350 Clouds 2 1032 93 10000 0.66 17.969 11:42 15.06.2019
6351 Clouds 2 1032 93 10000 0.66 17.969 11:23 15.06.2019
6352 Clouds 2 1032 100 10000 0.5 0 10:42 15.06.2019
6353 Clouds 2 1032 100 10000 0.5 0 10:24 15.06.2019
6354 Clouds 2 1032 100 10000 0.5 0 09:48 15.06.2019
6355 Clouds 2 1032 100 10000 0.5 0 09:26 15.06.2019
6356 Fog 3 1031 93 2100 1 0 08:54 15.06.2019
6357 -273 0 0 0 0 0 08:33 15.06.2019
6358 Fog 3 1031 93 2100 1 0 08:33 15.06.2019
6359 Mist 2 1031 100 2000 0.32 331.317 07:52 15.06.2019
6360 Mist 2 1031 100 2000 0.32 331.317 07:25 15.06.2019
6361 Mist 2 1030 93 3400 0.5 0 06:44 15.06.2019
6362 Mist 2 1030 93 3400 0.5 0 06:19 15.06.2019
6363 Mist 2 1030 100 4400 1 0 05:28 15.06.2019
6364 Mist 3 1029 93 8000 1.03 355.772 04:44 15.06.2019
6365 Mist 2 1029 93 3900 1.03 355.772 03:47 15.06.2019
6366 Mist 3 1028 93 8000 1.01 309.508 02:56 15.06.2019
6367 Mist 3 1028 93 8000 1.01 309.508 02:23 15.06.2019
6368 Mist 2 1028 100 7000 1.01 309.508 01:49 15.06.2019
6369 Mist 2 1027 93 7000 1 0 00:58 15.06.2019
6370 Mist 2 1027 93 7000 1 0 00:39 15.06.2019
6371 Clear 4 1026 86 10000 0.26 33.871 23:55 14.06.2019
6372 Clear 4 1026 86 10000 0.22 23.614 23:26 14.06.2019
6373 Clouds 5 1025 86 10000 0.5 0 22:46 14.06.2019
6374 Clouds 5 1025 86 10000 0.5 0 22:23 14.06.2019
6375 Clouds 6 1025 81 10000 0.5 0 22:00 14.06.2019
6376 Clouds 6 1025 81 10000 0.5 0 21:40 14.06.2019
6377 Clouds 6 1025 81 10000 0.5 0 21:21 14.06.2019
6378 Clouds 5 1025 80 10000 1 0 20:42 14.06.2019
6379 Clouds 5 1025 80 10000 1 0 20:19 14.06.2019
6380 Clouds 5 1025 80 10000 0.73 150.081 19:54 14.06.2019
6381 Clouds 5 1025 80 10000 0.73 150.081 19:24 14.06.2019
6382 Clouds 4 1025 86 10000 0.73 150.081 18:59 14.06.2019
6383 Clouds 4 1025 86 10000 0.73 150.081 18:41 14.06.2019
6384 Clouds 4 1025 86 10000 0.73 150.081 18:41 14.06.2019
6385 Clouds 4 1025 86 10000 0.79 311.923 18:22 14.06.2019
6386 Clouds 3 1025 93 10000 0.5 0 17:49 14.06.2019
6387 Clouds 3 1025 93 10000 0.5 0 17:30 14.06.2019
6388 Fog 3 1025 93 10000 0.5 0 16:58 14.06.2019
6389 Fog 3 1025 93 10000 0.5 0 16:40 14.06.2019
6390 Fog 3 1025 93 10000 0.5 0 16:19 14.06.2019
6391 Rain 2 1024 100 3000 0.79 311.923 15:41 14.06.2019
6392 Rain 2 1024 100 3000 0.52 261.079 15:23 14.06.2019
6393 Rain 2 1024 100 3000 0.52 261.079 15:23 14.06.2019
6394 Rain 2 1024 93 6000 0.52 261.079 14:55 14.06.2019
6395 Rain 2 1024 93 6000 0.52 261.079 14:37 14.06.2019
6396 Clouds 2 1024 93 10000 0.52 261.079 13:57 14.06.2019
6397 Clouds 2 1024 93 10000 1.08 310.186 13:38 14.06.2019
6398 Clouds 2 1024 93 10000 1.08 310.186 13:20 14.06.2019
6399 Clouds 2 1024 93 10000 1.08 310.186 13:20 14.06.2019
6400 Clouds 2 1023 93 10000 0.5 0 12:42 14.06.2019
6401 Clouds 2 1023 93 10000 0.5 0 12:42 14.06.2019
6402 Clouds 2 1023 93 10000 0.5 0 12:23 14.06.2019
6403 Clouds 2 1023 93 10000 0.5 0 11:47 14.06.2019
6404 Clouds 2 1023 93 10000 0.5 0 11:24 14.06.2019
6405 Rain 2 1023 93 10000 0.68 288.965 10:58 14.06.2019
6406 Rain 2 1023 93 10000 0.68 288.965 10:40 14.06.2019
6407 Rain 2 1023 93 10000 0.68 288.965 10:18 14.06.2019
6408 Clear 2 1023 100 10000 1 0 09:40 14.06.2019
6409 Clouds 2 1023 100 10000 1 0 09:21 14.06.2019
6410 Clouds 2 1023 100 8000 1.43 239.064 08:45 14.06.2019
6411 Clouds 2 1023 100 8000 1.43 239.064 08:19 14.06.2019
6412 Mist 2 1023 100 3800 1.43 239.064 07:48 14.06.2019
6413 Mist 2 1023 100 3800 1.43 239.064 07:20 14.06.2019
6414 Clouds 2 1023 100 9000 1.43 239.064 06:33 14.06.2019
6415 -273 0 0 0 0 0 05:55 14.06.2019
6416 Mist 2 1022 100 7000 1 0 05:00 14.06.2019
6417 Mist 2 1022 100 7000 1 0 04:37 14.06.2019
6418 Clouds 2 1022 93 10000 0.5 0 03:51 14.06.2019
6419 Clouds 2 1022 93 10000 0.5 0 03:25 14.06.2019
6420 Clouds 2 1022 93 10000 0.5 0 03:25 14.06.2019
6421 Mist 2 1022 93 3500 0.5 0 02:48 14.06.2019
6422 Mist 2 1022 93 3500 0.5 0 02:25 14.06.2019
6423 Clear 3 1020 93 10000 1.39 269.34 00:51 14.06.2019
6424 Clear 3 1020 93 10000 1.48 306.327 00:23 14.06.2019
6425 Clouds 4 1019 86 10000 1 0 23:56 13.06.2019
6426 Clouds 4 1019 86 10000 1 0 23:27 13.06.2019
6427 Clouds 5 1019 80 10000 1.5 220 22:59 13.06.2019
6428 Clouds 5 1019 80 10000 1.5 220 22:39 13.06.2019
6429 Clouds 5 1019 80 10000 1.5 220 22:20 13.06.2019
6430 Clouds 4 1018 86 10000 1 0 21:39 13.06.2019
6431 Clouds 4 1018 86 10000 1 0 21:20 13.06.2019
6432 Clouds 4 1017 93 10000 1.5 230 20:45 13.06.2019
6433 Clouds 4 1017 93 10000 1.5 230 20:22 13.06.2019
6434 Clouds 4 1017 86 10000 1.5 250 19:56 13.06.2019
6435 Clouds 4 1017 86 10000 1.5 250 19:37 13.06.2019
6436 Clouds 4 1017 86 10000 1.5 250 19:18 13.06.2019
6437 Mist 3 1017 93 4000 0.5 0 18:45 13.06.2019
6438 Mist 3 1017 93 4000 0.5 0 18:45 13.06.2019
6439 Mist 3 1017 93 4000 0.5 0 18:27 13.06.2019
6440 Fog 2 1017 100 10000 2.73 288.568 17:58 13.06.2019
6441 Fog 2 1017 100 10000 2.73 288.568 17:39 13.06.2019
6442 Fog 2 1017 100 10000 2.73 288.568 17:19 13.06.2019
6443 Mist 2 1016 93 4000 2.73 288.568 16:45 13.06.2019
6444 Mist 2 1016 93 4000 2.73 288.568 16:21 13.06.2019
6445 Mist 1 1015 100 4000 2.73 288.568 15:43 13.06.2019
6446 Mist 1 1015 100 4000 2.21 266.577 15:25 13.06.2019
6447 Clouds 1 1014 100 6000 1 0 14:56 13.06.2019
6448 Clouds 1 1014 100 6000 1 0 14:38 13.06.2019
6449 Clouds 1 1014 100 6000 1 0 14:19 13.06.2019
6450 Clouds 1 1014 100 6000 2.21 266.577 13:40 13.06.2019
6451 Clouds 1 1014 100 6000 2.21 266.577 13:21 13.06.2019
6452 Clouds 1 1014 100 6000 2.21 266.577 13:21 13.06.2019
6453 -273 0 0 0 0 0 12:42 13.06.2019
6454 Clouds 1 1013 100 10000 0.5 0 12:22 13.06.2019
6455 Snow 1 1012 100 4400 1.41 108.884 11:56 13.06.2019
6456 Snow 1 1012 100 4400 1.41 108.884 11:37 13.06.2019
6457 Snow 1 1012 100 4400 1.41 108.884 11:18 13.06.2019
6458 Drizzle 1 1012 91 3900 0.5 0 10:43 13.06.2019
6459 Drizzle 1 1012 91 3900 0.5 0 10:23 13.06.2019
6460 Clouds 1 1012 91 10000 1 0 09:43 13.06.2019
6461 Clouds 1 1012 89 10000 1 0 09:22 13.06.2019
6462 Clouds 1 1012 89 7000 1.23 115.065 08:44 13.06.2019
6463 Clouds 1 1012 89 7000 1.23 115.065 08:23 13.06.2019
6464 Clouds 1 1012 89 7000 1.23 115.065 07:50 13.06.2019
6465 Clouds 1 1012 89 7000 1.23 115.065 07:25 13.06.2019
6466 Clouds 1 1012 89 3300 1.23 115.065 06:45 13.06.2019
6467 Clouds 1 1012 87 3300 1.73 123 06:22 13.06.2019
6468 Clouds 1 1012 87 3500 0.5 0 05:54 13.06.2019
6469 Clouds 1 1012 87 3500 0.5 0 05:36 13.06.2019
6470 Clouds 0 1012 87 3300 1 0 04:57 13.06.2019
6471 Clouds 1 1012 79 7000 1.83 90.125 02:23 13.06.2019
6472 Clear 1 1012 79 10000 1.83 90.125 00:47 13.06.2019
6473 Clouds 2 1012 73 10000 1.29 82.135 23:49 12.06.2019
6474 Clouds 2 1012 73 10000 1.29 82.135 23:22 12.06.2019
6475 Clouds 2 1012 73 10000 1 0 22:43 12.06.2019
6476 Clouds 2 1012 73 10000 1 0 22:24 12.06.2019
6477 Clouds 2 1012 80 10000 1.5 130 21:56 12.06.2019
6478 Clouds 2 1012 80 10000 1.5 130 21:36 12.06.2019
6479 Clouds 2 1012 80 10000 1.5 130 21:18 12.06.2019
6480 Clouds 2 1013 80 10000 2.1 130 20:37 12.06.2019
6481 Clouds 2 1013 80 10000 2.1 130 20:37 12.06.2019
6482 Clouds 2 1013 80 10000 2.1 130 20:19 12.06.2019
6483 Clouds 1 1014 62 10000 0.5 0 19:42 12.06.2019
6484 Clouds 1 1014 62 10000 0.5 0 19:23 12.06.2019
6485 Clouds 0 1015 62 10000 1.5 0 18:55 12.06.2019
6486 Clouds 0 1015 62 10000 1.5 0 18:37 12.06.2019
6487 Clouds 0 1015 62 10000 1.5 0 18:18 12.06.2019
6488 Clouds 0 1015 62 10000 1.14 78.819 17:43 12.06.2019
6489 Clouds 0 1015 62 10000 1.14 78.819 17:20 12.06.2019
6490 Fog -1 1015 100 10000 1.14 78.819 16:42 12.06.2019
6491 Fog -1 1015 100 10000 1.14 78.819 16:23 12.06.2019
6492 Fog -1 1015 100 10000 1.14 78.819 15:52 12.06.2019
6493 Fog -1 1015 100 10000 1.14 78.819 15:32 12.06.2019
6494 Clouds -1 1015 92 9000 0.77 258.153 14:46 12.06.2019
6495 Clouds -1 1015 92 9000 0.77 258.153 14:27 12.06.2019
6496 Drizzle -1 1015 92 3600 0.5 0 13:43 12.06.2019
6497 Drizzle -1 1015 92 3600 0.5 0 13:20 12.06.2019
6498 Drizzle -2 1015 100 2600 1 0 12:59 12.06.2019
6499 Drizzle -2 1015 100 2600 1 0 12:38 12.06.2019
6500 Drizzle -2 1015 100 2600 1 0 12:38 12.06.2019
6501 Drizzle -2 1015 100 2600 1 0 12:19 12.06.2019
6502 Drizzle -2 1015 100 2600 1 0 12:19 12.06.2019
6503 -273 0 0 0 0 0 12:19 12.06.2019
6504 Drizzle -2 1014 100 2400 1.31 266.75 11:46 12.06.2019
6505 Drizzle -2 1014 100 2400 1.31 266.75 11:27 12.06.2019
6506 Drizzle -2 1014 100 2100 1 0 10:51 12.06.2019
6507 Drizzle -2 1014 100 2100 1 0 10:29 12.06.2019
6508 Drizzle -2 1014 92 2400 2.1 100 09:45 12.06.2019
6509 Drizzle -2 1014 92 2400 2.1 100 09:23 12.06.2019
6510 Fog -3 1014 100 450 1.5 267.865 08:56 12.06.2019
6511 Fog -3 1014 100 450 1.5 267.865 08:56 12.06.2019
6512 Fog -3 1014 100 450 1.5 267.865 08:23 12.06.2019
6513 Fog -3 1014 100 600 1 0 07:46 12.06.2019
6514 Fog -3 1014 100 450 1.5 267.865 06:54 12.06.2019
6515 Fog -2 1013 100 350 1.55 265.135 05:27 12.06.2019
6516 Fog -2 1013 100 600 1.55 265.135 04:54 12.06.2019
6517 Drizzle -2 1012 100 4700 1.52 268.268 01:44 12.06.2019
6518 Clear -1 1011 92 10000 1.56 266.426 00:40 12.06.2019
6519 Clear -1 1011 92 10000 1.56 266.426 00:40 12.06.2019
6520 Clear 0 1011 79 10000 1.08 296.352 23:48 11.06.2019
6521 Clear 0 1011 79 10000 1.08 296.352 23:30 11.06.2019
6522 Clear 3 1011 74 10000 0.5 0 22:44 11.06.2019
6523 Clear 3 1011 74 10000 0.5 0 22:21 11.06.2019
6524 Clouds 5 1011 79 10000 1 0 21:58 11.06.2019
6525 Clouds 5 1011 79 10000 1 0 21:39 11.06.2019
6526 Clouds 5 1011 60 10000 1 0 21:20 11.06.2019
6527 Clouds 5 1011 60 10000 1 0 21:20 11.06.2019
6528 Clouds 3 1012 60 10000 1.5 360 20:49 11.06.2019
6529 Clouds 3 1012 60 10000 1.5 360 20:26 11.06.2019
6530 Clouds 1 1013 100 10000 1 0 19:56 11.06.2019
6531 Clouds 1 1013 100 10000 1 0 19:35 11.06.2019
6532 Fog -1 1014 100 10000 1 0 18:58 11.06.2019
6533 Fog -1 1014 100 10000 1 0 18:23 11.06.2019
6534 Fog -1 1015 92 10000 0.5 0 17:54 11.06.2019
6535 Fog -1 1015 92 10000 0.5 0 17:36 11.06.2019
6536 Fog -1 1015 92 10000 0.5 0 17:18 11.06.2019
6537 Fog -2 1016 100 100 1 0 16:41 11.06.2019
6538 Fog -2 1016 100 100 1 0 16:23 11.06.2019
6539 Fog -2 1016 100 50 1 90 15:42 11.06.2019
6540 Fog -2 1016 100 50 1 90 15:24 11.06.2019
6541 Fog -2 1016 100 600 1.5 60 14:54 11.06.2019
6542 Fog -2 1016 100 600 1.5 60 14:23 11.06.2019
6543 Fog -3 1016 100 6000 0.5 0 13:56 11.06.2019
6544 Fog -3 1016 100 6000 0.5 0 13:36 11.06.2019
6545 Fog -3 1016 100 6000 0.5 0 13:18 11.06.2019
6546 Drizzle -2 1016 92 2800 1.5 280 12:40 11.06.2019
6547 Drizzle -2 1016 92 2800 1.5 280 12:21 11.06.2019
6548 Fog -2 1016 100 1000 1.5 270 11:40 11.06.2019
6549 Fog -2 1016 100 1000 1.5 270 11:20 11.06.2019
6550 Fog -2 1017 100 2100 1 0 10:47 11.06.2019
6551 Fog -2 1017 100 2100 1 0 10:26 11.06.2019
6552 Fog -1 1017 92 2900 1 260 09:50 11.06.2019
6553 Fog -1 1017 92 2900 1 260 09:24 11.06.2019
6554 Mist -1 1018 92 5000 1 250 08:46 11.06.2019
6555 Mist -1 1018 92 5000 1 250 08:28 11.06.2019
6556 Drizzle -1 1018 100 5000 1.5 280 07:46 11.06.2019
6557 Drizzle -1 1018 100 5000 1.5 280 07:27 11.06.2019
6558 Drizzle 0 1019 88 5000 1.84 288.484 06:50 11.06.2019
6559 Clouds 0 1019 90 6000 0.5 0 04:56 11.06.2019
6560 Mist 2 1019 80 5000 1 0 03:43 11.06.2019
6561 Clear 5 1019 65 10000 2.1 240 01:41 11.06.2019
6562 Clear 6 1019 60 10000 2.6 250 00:47 11.06.2019
6563 Clouds 1 1019 83 0 2.85 295.981 23:48 10.06.2019
6564 Clouds 7 1018 56 10000 3.1 260 23:25 10.06.2019
6565 Clouds 7 1018 56 10000 3.1 260 22:56 10.06.2019
6566 Clouds 7 1018 56 10000 3.1 260 22:37 10.06.2019
6567 Clouds 7 1018 56 10000 3.1 260 22:19 10.06.2019
6568 Clouds 8 1018 52 10000 3.6 260 21:41 10.06.2019
6569 Clouds 8 1018 52 10000 3.6 260 21:22 10.06.2019
6570 Clouds 8 1018 52 10000 4.1 270 20:46 10.06.2019
6571 Clouds 8 1018 52 10000 4.1 270 20:25 10.06.2019
6572 Clouds 7 1019 56 10000 3.1 260 19:55 10.06.2019
6573 Clouds 7 1019 56 10000 3.1 260 19:36 10.06.2019
6574 Clouds 7 1019 56 10000 3.1 260 19:18 10.06.2019
6575 Clouds 6 1019 60 10000 4.1 260 18:54 10.06.2019
6576 Clouds 6 1019 60 10000 4.1 260 18:36 10.06.2019
6577 Clouds 6 1019 60 10000 4.1 260 18:18 10.06.2019
6578 Clouds 5 1019 65 10000 3.1 290 17:39 10.06.2019
6579 Clouds 5 1019 65 10000 3.1 290 17:19 10.06.2019
6580 Clouds 5 1019 71 10000 2.6 290 16:42 10.06.2019
6581 Clouds 5 1019 71 10000 2.6 290 16:24 10.06.2019
6582 Rain 4 1018 69 10000 3.1 280 15:42 10.06.2019
6583 Rain 4 1018 69 10000 3.1 280 15:24 10.06.2019
6584 Clear 4 1017 69 10000 3.6 240 14:55 10.06.2019
6585 Clear 4 1017 69 10000 3.6 240 14:36 10.06.2019
6586 Clear 4 1017 69 10000 3.6 240 14:18 10.06.2019
6587 Clear 5 1017 60 10000 3.6 260 13:42 10.06.2019
6588 Clear 5 1017 60 10000 3.6 260 13:21 10.06.2019
6589 Clear 5 1015 60 10000 5.7 250 12:42 10.06.2019
6590 Clear 5 1015 60 10000 5.7 250 12:23 10.06.2019
6591 Clear 5 1014 60 10000 5.1 250 11:44 10.06.2019
6592 Clear 5 1014 60 10000 5.1 250 11:23 10.06.2019
6593 Clear 6 1013 52 10000 5.7 250 10:42 10.06.2019
6594 Clear 6 1013 52 10000 5.7 250 10:20 10.06.2019
6595 Clear 5 1012 80 10000 5.7 240 09:57 10.06.2019
6596 Clear 5 1012 80 10000 5.7 240 09:38 10.06.2019
6597 Clear 5 1012 83 10000 5.7 240 09:19 10.06.2019
6598 Rain 4 1012 80 9000 5.1 250 08:43 10.06.2019
6599 Rain 4 1012 80 9000 5.1 250 08:18 10.06.2019
6600 Rain 4 1011 80 10000 4.6 250 06:34 10.06.2019
6601 Rain 4 1010 86 10000 1.5 0 04:27 10.06.2019
6602 Rain 3 1011 93 10000 1 0 01:57 10.06.2019
6603 Rain 3 1011 93 10000 1 0 01:23 10.06.2019
6604 Rain 3 1010 93 8000 0.5 0 00:54 10.06.2019
6605 Rain 4 1010 86 10000 1 0 23:59 09.06.2019
6606 Rain 4 1010 86 10000 1 0 23:40 09.06.2019
6607 Rain 4 1010 86 10000 1 0 23:18 09.06.2019
6608 Rain 4 1009 80 8000 4.6 270 22:42 09.06.2019
6609 Rain 4 1009 80 8000 4.6 270 22:24 09.06.2019
6610 Rain 4 1009 80 8000 4.6 270 22:24 09.06.2019
6611 Rain 5 1009 80 10000 2.1 300 21:41 09.06.2019
6612 Rain 5 1009 80 10000 2.1 300 21:22 09.06.2019
6613 Clouds 5 1009 80 3900 0.5 0 20:42 09.06.2019
6614 Clouds 5 1009 80 3900 0.5 0 20:22 09.06.2019
6615 Clear 5 1009 86 10000 1 0 19:46 09.06.2019
6616 Clear 5 1009 86 10000 1 0 19:19 09.06.2019
6617 Rain 4 1010 93 9000 5.42 302.269 18:56 09.06.2019
6618 Rain 4 1010 93 9000 5.42 302.269 18:37 09.06.2019
6619 Rain 4 1010 93 9000 4.65 300.194 18:19 09.06.2019
6620 Clouds 4 1010 86 8000 1 0 17:43 09.06.2019
6621 Clouds 4 1010 86 8000 1 0 17:23 09.06.2019
6622 Rain 4 1009 86 10000 1 0 16:41 09.06.2019
6623 Rain 4 1009 86 10000 1 0 16:21 09.06.2019
6624 Rain 4 1009 86 10000 1 0 16:21 09.06.2019
6625 Rain 5 1009 75 10000 2.6 270 15:51 09.06.2019
6626 Rain 5 1009 75 10000 2.6 270 15:30 09.06.2019
6627 Rain 4 1008 86 10000 2.1 250 14:59 09.06.2019
6628 Rain 4 1008 86 10000 2.1 250 14:41 09.06.2019
6629 Rain 4 1008 86 10000 2.1 250 14:20 09.06.2019
6630 Rain 5 1007 86 10000 1.5 250 13:48 09.06.2019
6631 Rain 5 1007 86 10000 1.5 250 13:18 09.06.2019
6632 Rain 5 1007 86 10000 2.1 270 12:38 09.06.2019
6633 Rain 5 1007 86 10000 2.1 270 12:20 09.06.2019
6634 Rain 5 1006 86 10000 2.1 0 11:39 09.06.2019
6635 Rain 5 1006 86 10000 2.1 0 11:19 09.06.2019
6636 Rain 5 1006 86 10000 3.1 250 10:43 09.06.2019
6637 Rain 5 1006 86 10000 3.1 250 10:22 09.06.2019
6638 Rain 6 1005 81 10000 2.6 240 09:40 09.06.2019
6639 Rain 6 1005 81 10000 2.6 240 09:21 09.06.2019
6640 Rain 5 1005 86 10000 2.6 230 08:46 09.06.2019
6641 Rain 5 1005 86 10000 2.6 230 08:27 09.06.2019
6642 Rain 5 1004 86 10000 2.6 250 06:55 09.06.2019
6643 Rain 5 1004 86 10000 2.6 250 06:30 09.06.2019
6644 Rain 7 1003 93 8000 3.6 280 03:26 09.06.2019
6645 Rain 8 1001 81 10000 1.5 0 01:38 09.06.2019
6646 Rain 8 1001 81 10000 1.5 0 01:19 09.06.2019
6647 Rain 7 1002 87 9000 2.1 60 00:45 09.06.2019
6648 Rain 7 1002 87 10000 1.5 0 23:43 08.06.2019
6649 Rain 7 1002 87 10000 1.5 0 23:24 08.06.2019
6650 Rain 7 1004 81 10000 1.5 0 22:56 08.06.2019
6651 Rain 7 1004 81 10000 1.5 0 22:38 08.06.2019
6652 Rain 7 1004 81 10000 1.5 0 22:19 08.06.2019
6653 Rain 8 1005 75 10000 2.1 0 21:49 08.06.2019
6654 Rain 8 1005 75 10000 2.1 0 21:25 08.06.2019
6655 Rain 8 1006 75 10000 4.6 240 20:46 08.06.2019
6656 Rain 8 1006 75 10000 4.6 240 20:25 08.06.2019
6657 Rain 10 1007 66 10000 4.6 240 19:58 08.06.2019
6658 Rain 10 1007 66 10000 4.6 240 19:39 08.06.2019
6659 Rain 10 1007 66 10000 4.6 240 19:19 08.06.2019
6660 Clear 11 1009 53 10000 6.2 240 18:43 08.06.2019
6661 Clear 11 1009 53 10000 6.2 240 18:25 08.06.2019
6662 Clear 11 1009 53 10000 5.7 250 17:46 08.06.2019
6663 Clear 11 1009 53 10000 5.7 250 17:22 08.06.2019
6664 Clear 11 1009 53 10000 6.2 240 16:54 08.06.2019
6665 Clear 11 1009 53 10000 6.2 240 16:35 08.06.2019
6666 Clear 10 1010 53 10000 5.1 260 15:53 08.06.2019
6667 Clear 10 1010 53 10000 5.1 260 15:33 08.06.2019
6668 Clear 10 1011 53 10000 5.7 250 14:48 08.06.2019
6669 Clear 10 1011 53 10000 5.7 250 14:29 08.06.2019
6670 Clear 10 1012 53 10000 5.1 250 13:49 08.06.2019
6671 Clear 9 1012 57 10000 4.1 0 12:54 08.06.2019
6672 Clear 9 1012 57 10000 4.1 0 12:34 08.06.2019
6673 Clear 8 1012 61 10000 4.6 260 11:51 08.06.2019
6674 Clear 8 1012 61 10000 4.6 260 11:27 08.06.2019
6675 Clear 8 1013 61 10000 4.1 260 10:48 08.06.2019
6676 Clear 8 1013 61 10000 4.1 260 10:26 08.06.2019
6677 Clear 7 1014 65 10000 3.6 260 09:57 08.06.2019
6678 Clear 7 1014 65 10000 3.6 260 09:33 08.06.2019
6679 Clear 7 1014 70 10000 3.6 250 08:48 08.06.2019
6680 Clear 7 1014 70 10000 3.6 250 08:20 08.06.2019
6681 Clear 5 1015 80 10000 2.6 300 06:53 08.06.2019
6682 Clear 5 1015 80 10000 2.6 300 06:34 08.06.2019
6683 Rain 7 1015 75 10000 2.6 260 03:35 08.06.2019
6684 Rain 7 1014 75 10000 3.6 250 02:20 08.06.2019
6685 Clear 8 1013 65 10000 4.1 270 00:30 08.06.2019
6686 Clear 9 1012 57 10000 4.6 250 23:56 07.06.2019
6687 Clear 9 1012 57 10000 4.6 250 23:21 07.06.2019
6688 Rain 10 1012 61 10000 4.1 250 22:50 07.06.2019
6689 Rain 10 1012 61 10000 4.1 250 22:32 07.06.2019
6690 Rain 8 1012 87 10000 1 0 21:54 07.06.2019
6691 Rain 8 1012 87 10000 1 0 21:31 07.06.2019
6692 Rain 7 1012 87 9000 1.5 320 20:58 07.06.2019
6693 Rain 7 1012 87 9000 1.5 320 20:38 07.06.2019
6694 Rain 7 1013 87 5000 2.1 300 19:52 07.06.2019
6695 Rain 7 1013 87 5000 2.1 300 19:30 07.06.2019
6696 Rain 8 1011 57 3000 7.7 280 18:59 07.06.2019
6697 Rain 8 1011 57 3000 7.7 280 18:37 07.06.2019
6698 Rain 8 1011 57 3000 7.7 280 18:19 07.06.2019
6699 Rain 8 1010 57 10000 7.2 280 17:41 07.06.2019
6700 Rain 7 1013 87 4000 4.1 240 17:19 07.06.2019
6701 Rain 8 1013 81 5000 3.1 280 16:41 07.06.2019
6702 Rain 7 1013 81 5000 4.6 270 15:54 07.06.2019
6703 Rain 7 1013 81 5000 4.6 270 15:28 07.06.2019
6704 Rain 6 1013 87 10000 4.1 290 14:49 07.06.2019
6705 Rain 6 1013 87 10000 4.1 290 14:27 07.06.2019
6706 Rain 6 1013 81 10000 3.1 260 13:53 07.06.2019
6707 Rain 6 1013 81 10000 3.1 260 13:27 07.06.2019
6708 Rain 6 1013 81 10000 4.1 260 12:51 07.06.2019
6709 Rain 6 1013 81 10000 4.1 260 12:25 07.06.2019
6710 Rain 7 1013 75 10000 4.6 240 11:54 07.06.2019
6711 Rain 7 1013 75 10000 4.6 240 11:31 07.06.2019
6712 Rain 7 1014 70 10000 5.7 250 10:55 07.06.2019
6713 Rain 7 1014 70 10000 5.7 250 10:37 07.06.2019
6714 Rain 7 1014 70 10000 5.7 250 10:18 07.06.2019
6715 Rain 7 1014 70 10000 5.7 250 09:44 07.06.2019
6716 Rain 7 1014 70 10000 5.7 250 09:18 07.06.2019
6717 Rain 7 1014 70 10000 6.2 250 08:42 07.06.2019
6718 Rain 7 1014 70 10000 6.2 250 08:24 07.06.2019
6719 Rain 8 1014 65 10000 6.2 240 07:48 07.06.2019
6720 Rain 8 1014 65 10000 6.2 240 07:21 07.06.2019
6721 Rain 7 1013 70 10000 5.7 250 06:46 07.06.2019
6722 Rain 7 1013 70 10000 5.7 250 06:22 07.06.2019
6723 Rain 7 1013 70 10000 5.7 260 05:24 07.06.2019
6724 Rain 6 1013 75 10000 4.6 250 02:20 07.06.2019
6725 Rain 6 1012 70 10000 4.6 250 01:35 07.06.2019
6726 Rain 6 1012 75 10000 5.1 240 00:43 07.06.2019
6727 Clouds 6 1011 70 10000 4.6 250 23:45 06.06.2019
6728 Clouds 6 1011 70 10000 4.6 250 23:23 06.06.2019
6729 Rain 8 1011 76 10000 4.6 260 22:45 06.06.2019
6730 Rain 8 1011 76 10000 4.6 260 22:23 06.06.2019
6731 Rain 8 1010 61 10000 5.1 270 21:57 06.06.2019
6732 Rain 8 1010 61 10000 5.1 270 21:39 06.06.2019
6733 Rain 8 1010 61 10000 5.1 270 21:21 06.06.2019
6734 Clouds 7 1009 75 10000 4.6 270 20:51 06.06.2019
6735 Clouds 7 1009 75 10000 4.6 270 20:28 06.06.2019
6736 Rain 7 1009 75 10000 3.6 250 19:40 06.06.2019
6737 Rain 7 1009 75 10000 3.6 250 19:40 06.06.2019
6738 Rain 7 1009 75 10000 3.6 250 19:20 06.06.2019
6739 Rain 6 1008 87 9000 2.6 260 18:58 06.06.2019
6740 Rain 6 1008 87 9000 2.6 260 18:37 06.06.2019
6741 Rain 6 1008 87 9000 2.6 260 18:19 06.06.2019
6742 Rain 6 1008 87 9000 1.5 270 17:42 06.06.2019
6743 Rain 6 1008 87 9000 1.5 270 17:21 06.06.2019
6744 Clouds 5 1007 93 10000 1 0 16:45 06.06.2019
6745 Cl